<?xml version="1.0" encoding="UTF-8" standalone="no" ?>
<gpx xmlns="http://www.topografix.com/GPX/1/1" xmlns:xsi="http://www.w3.org/2001/XMLSchema-instance" xsi:schemaLocation="http://www.topografix.com/GPX/1/1 http://www.topografix.com/GPX/1/1/gpx.xsd" version="1.1" creator="VisuGPX - https://www.visugpx.com">
  <metadata>
    <name>VTT AM  Cabrières</name>
    <desc><![CDATA[Sortie typée AM depuis Cabrières. On démarre par une longue ascension pour se diriger vers le secteur de valmascle / les Montades. La première descente aboutit à Fournols. Pas de difficulté ici c'est plutôt ludique. on remonte par la route pour aller faire la descente Des Montades. Ici aussi c'est ludique avec passage dans la rocaille puis fin sinueuse en sous bois.
Et on repart par une cote pour enchainer sur la longue descente qui mène à Lauriol (au début on empreinte d’abord une partie commune de l'aller puis on bifurque sur un itinéraire différent pour la fin). c'est le type de descente facile où l'on peut vraiment lâcher les freins. Retour sur Cabrières par la descente du château.]]></desc>
  </metadata>
  <trk>
    <name><![CDATA[VTT AM  Cabrières_1]]></name>
    <trkseg>
      <trkpt lat="43.5773" lon="3.36265">
        <ele>170</ele>
        <time>2017-11-01T11:56:26Z</time>
      </trkpt>
      <trkpt lat="43.5773" lon="3.36268">
        <ele>183.4</ele>
        <time>2017-11-01T11:56:35Z</time>
      </trkpt>
      <trkpt lat="43.57732" lon="3.36269">
        <ele>174.1</ele>
        <time>2017-11-01T11:56:41Z</time>
      </trkpt>
      <trkpt lat="43.57732" lon="3.36265">
        <ele>178.5</ele>
        <time>2017-11-01T11:56:48Z</time>
      </trkpt>
      <trkpt lat="43.57735" lon="3.36269">
        <ele>172</ele>
        <time>2017-11-01T12:00:54Z</time>
      </trkpt>
      <trkpt lat="43.57738" lon="3.36279">
        <ele>172.5</ele>
        <time>2017-11-01T12:01:00Z</time>
      </trkpt>
      <trkpt lat="43.57743" lon="3.36289">
        <ele>172.8</ele>
        <time>2017-11-01T12:01:03Z</time>
      </trkpt>
      <trkpt lat="43.57745" lon="3.36302">
        <ele>173.1</ele>
        <time>2017-11-01T12:01:06Z</time>
      </trkpt>
      <trkpt lat="43.57754" lon="3.36305">
        <ele>173.5</ele>
        <time>2017-11-01T12:01:10Z</time>
      </trkpt>
      <trkpt lat="43.57764" lon="3.36308">
        <ele>174.1</ele>
        <time>2017-11-01T12:01:14Z</time>
      </trkpt>
      <trkpt lat="43.57772" lon="3.36311">
        <ele>174.4</ele>
        <time>2017-11-01T12:01:17Z</time>
      </trkpt>
      <trkpt lat="43.57779" lon="3.36311">
        <ele>174.4</ele>
        <time>2017-11-01T12:01:20Z</time>
      </trkpt>
      <trkpt lat="43.57789" lon="3.36314">
        <ele>174.3</ele>
        <time>2017-11-01T12:01:23Z</time>
      </trkpt>
      <trkpt lat="43.57798" lon="3.36318">
        <ele>174</ele>
        <time>2017-11-01T12:01:26Z</time>
      </trkpt>
      <trkpt lat="43.57806" lon="3.36323">
        <ele>171.6</ele>
        <time>2017-11-01T12:01:28Z</time>
      </trkpt>
      <trkpt lat="43.57815" lon="3.36328">
        <ele>169.7</ele>
        <time>2017-11-01T12:01:30Z</time>
      </trkpt>
      <trkpt lat="43.57823" lon="3.36332">
        <ele>168.4</ele>
        <time>2017-11-01T12:01:32Z</time>
      </trkpt>
      <trkpt lat="43.57831" lon="3.36338">
        <ele>167.3</ele>
        <time>2017-11-01T12:01:34Z</time>
      </trkpt>
      <trkpt lat="43.57839" lon="3.36344">
        <ele>166.3</ele>
        <time>2017-11-01T12:01:36Z</time>
      </trkpt>
      <trkpt lat="43.57839" lon="3.36355">
        <ele>165.9</ele>
        <time>2017-11-01T12:01:38Z</time>
      </trkpt>
      <trkpt lat="43.57831" lon="3.3636">
        <ele>165.3</ele>
        <time>2017-11-01T12:01:40Z</time>
      </trkpt>
      <trkpt lat="43.57822" lon="3.36366">
        <ele>164.9</ele>
        <time>2017-11-01T12:01:42Z</time>
      </trkpt>
      <trkpt lat="43.57815" lon="3.36372">
        <ele>164.6</ele>
        <time>2017-11-01T12:01:44Z</time>
      </trkpt>
      <trkpt lat="43.57806" lon="3.36379">
        <ele>164.3</ele>
        <time>2017-11-01T12:01:46Z</time>
      </trkpt>
      <trkpt lat="43.57798" lon="3.36385">
        <ele>164.1</ele>
        <time>2017-11-01T12:01:48Z</time>
      </trkpt>
      <trkpt lat="43.57789" lon="3.3639">
        <ele>163.8</ele>
        <time>2017-11-01T12:01:50Z</time>
      </trkpt>
      <trkpt lat="43.57779" lon="3.36395">
        <ele>163.5</ele>
        <time>2017-11-01T12:01:52Z</time>
      </trkpt>
      <trkpt lat="43.5777" lon="3.36399">
        <ele>163.6</ele>
        <time>2017-11-01T12:01:54Z</time>
      </trkpt>
      <trkpt lat="43.57762" lon="3.36401">
        <ele>163.6</ele>
        <time>2017-11-01T12:01:56Z</time>
      </trkpt>
      <trkpt lat="43.57753" lon="3.36402">
        <ele>163.5</ele>
        <time>2017-11-01T12:01:58Z</time>
      </trkpt>
      <trkpt lat="43.57743" lon="3.36403">
        <ele>163.1</ele>
        <time>2017-11-01T12:02:00Z</time>
      </trkpt>
      <trkpt lat="43.57734" lon="3.36402">
        <ele>162.9</ele>
        <time>2017-11-01T12:02:02Z</time>
      </trkpt>
      <trkpt lat="43.57725" lon="3.36401">
        <ele>162.9</ele>
        <time>2017-11-01T12:02:04Z</time>
      </trkpt>
      <trkpt lat="43.57715" lon="3.364">
        <ele>162.9</ele>
        <time>2017-11-01T12:02:06Z</time>
      </trkpt>
      <trkpt lat="43.57706" lon="3.36398">
        <ele>162.7</ele>
        <time>2017-11-01T12:02:08Z</time>
      </trkpt>
      <trkpt lat="43.57697" lon="3.36395">
        <ele>162.5</ele>
        <time>2017-11-01T12:02:10Z</time>
      </trkpt>
      <trkpt lat="43.57688" lon="3.36391">
        <ele>162</ele>
        <time>2017-11-01T12:02:12Z</time>
      </trkpt>
      <trkpt lat="43.57679" lon="3.36391">
        <ele>161.8</ele>
        <time>2017-11-01T12:02:14Z</time>
      </trkpt>
      <trkpt lat="43.57669" lon="3.36391">
        <ele>161.6</ele>
        <time>2017-11-01T12:02:16Z</time>
      </trkpt>
      <trkpt lat="43.57659" lon="3.3639">
        <ele>161.9</ele>
        <time>2017-11-01T12:02:18Z</time>
      </trkpt>
      <trkpt lat="43.57649" lon="3.36388">
        <ele>162.7</ele>
        <time>2017-11-01T12:02:20Z</time>
      </trkpt>
      <trkpt lat="43.57638" lon="3.36386">
        <ele>164.5</ele>
        <time>2017-11-01T12:02:22Z</time>
      </trkpt>
      <trkpt lat="43.57629" lon="3.36382">
        <ele>165.8</ele>
        <time>2017-11-01T12:02:24Z</time>
      </trkpt>
      <trkpt lat="43.57621" lon="3.36379">
        <ele>166.1</ele>
        <time>2017-11-01T12:02:26Z</time>
      </trkpt>
      <trkpt lat="43.57611" lon="3.36378">
        <ele>166.1</ele>
        <time>2017-11-01T12:02:28Z</time>
      </trkpt>
      <trkpt lat="43.57601" lon="3.36376">
        <ele>166.2</ele>
        <time>2017-11-01T12:02:30Z</time>
      </trkpt>
      <trkpt lat="43.57593" lon="3.36375">
        <ele>165.7</ele>
        <time>2017-11-01T12:02:32Z</time>
      </trkpt>
      <trkpt lat="43.57584" lon="3.36374">
        <ele>164.5</ele>
        <time>2017-11-01T12:02:34Z</time>
      </trkpt>
      <trkpt lat="43.57575" lon="3.36373">
        <ele>163.2</ele>
        <time>2017-11-01T12:02:36Z</time>
      </trkpt>
      <trkpt lat="43.57567" lon="3.36373">
        <ele>162.1</ele>
        <time>2017-11-01T12:02:38Z</time>
      </trkpt>
      <trkpt lat="43.57558" lon="3.36371">
        <ele>161.8</ele>
        <time>2017-11-01T12:02:40Z</time>
      </trkpt>
      <trkpt lat="43.57549" lon="3.3637">
        <ele>161.6</ele>
        <time>2017-11-01T12:02:42Z</time>
      </trkpt>
      <trkpt lat="43.57539" lon="3.36367">
        <ele>161.3</ele>
        <time>2017-11-01T12:02:44Z</time>
      </trkpt>
      <trkpt lat="43.5753" lon="3.36366">
        <ele>161.1</ele>
        <time>2017-11-01T12:02:46Z</time>
      </trkpt>
      <trkpt lat="43.5752" lon="3.36364">
        <ele>160.7</ele>
        <time>2017-11-01T12:02:48Z</time>
      </trkpt>
      <trkpt lat="43.57511" lon="3.36363">
        <ele>160.2</ele>
        <time>2017-11-01T12:02:50Z</time>
      </trkpt>
      <trkpt lat="43.575" lon="3.3636">
        <ele>159.7</ele>
        <time>2017-11-01T12:02:52Z</time>
      </trkpt>
      <trkpt lat="43.5749" lon="3.36358">
        <ele>159.4</ele>
        <time>2017-11-01T12:02:54Z</time>
      </trkpt>
      <trkpt lat="43.5748" lon="3.36356">
        <ele>159</ele>
        <time>2017-11-01T12:02:56Z</time>
      </trkpt>
      <trkpt lat="43.57472" lon="3.36355">
        <ele>158.9</ele>
        <time>2017-11-01T12:02:58Z</time>
      </trkpt>
      <trkpt lat="43.57462" lon="3.36353">
        <ele>159</ele>
        <time>2017-11-01T12:03:00Z</time>
      </trkpt>
      <trkpt lat="43.57453" lon="3.36352">
        <ele>159.4</ele>
        <time>2017-11-01T12:03:02Z</time>
      </trkpt>
      <trkpt lat="43.57441" lon="3.36352">
        <ele>159.6</ele>
        <time>2017-11-01T12:03:04Z</time>
      </trkpt>
      <trkpt lat="43.5743" lon="3.36353">
        <ele>159.2</ele>
        <time>2017-11-01T12:03:06Z</time>
      </trkpt>
      <trkpt lat="43.57421" lon="3.36356">
        <ele>158.7</ele>
        <time>2017-11-01T12:03:08Z</time>
      </trkpt>
      <trkpt lat="43.57412" lon="3.36358">
        <ele>157.9</ele>
        <time>2017-11-01T12:03:10Z</time>
      </trkpt>
      <trkpt lat="43.57401" lon="3.3636">
        <ele>157.3</ele>
        <time>2017-11-01T12:03:12Z</time>
      </trkpt>
      <trkpt lat="43.57391" lon="3.36364">
        <ele>157</ele>
        <time>2017-11-01T12:03:14Z</time>
      </trkpt>
      <trkpt lat="43.57381" lon="3.36367">
        <ele>156.7</ele>
        <time>2017-11-01T12:03:16Z</time>
      </trkpt>
      <trkpt lat="43.57372" lon="3.3637">
        <ele>156.5</ele>
        <time>2017-11-01T12:03:18Z</time>
      </trkpt>
      <trkpt lat="43.57363" lon="3.3637">
        <ele>156.3</ele>
        <time>2017-11-01T12:03:20Z</time>
      </trkpt>
      <trkpt lat="43.57352" lon="3.36367">
        <ele>156.2</ele>
        <time>2017-11-01T12:03:22Z</time>
      </trkpt>
      <trkpt lat="43.57343" lon="3.36364">
        <ele>156.1</ele>
        <time>2017-11-01T12:03:24Z</time>
      </trkpt>
      <trkpt lat="43.57334" lon="3.36362">
        <ele>156</ele>
        <time>2017-11-01T12:03:26Z</time>
      </trkpt>
      <trkpt lat="43.57325" lon="3.3636">
        <ele>156.3</ele>
        <time>2017-11-01T12:03:28Z</time>
      </trkpt>
      <trkpt lat="43.57315" lon="3.36358">
        <ele>156.7</ele>
        <time>2017-11-01T12:03:30Z</time>
      </trkpt>
      <trkpt lat="43.57305" lon="3.36355">
        <ele>156.3</ele>
        <time>2017-11-01T12:03:32Z</time>
      </trkpt>
      <trkpt lat="43.57295" lon="3.36353">
        <ele>155.8</ele>
        <time>2017-11-01T12:03:34Z</time>
      </trkpt>
      <trkpt lat="43.57286" lon="3.36351">
        <ele>155.8</ele>
        <time>2017-11-01T12:03:36Z</time>
      </trkpt>
      <trkpt lat="43.57276" lon="3.36348">
        <ele>156</ele>
        <time>2017-11-01T12:03:38Z</time>
      </trkpt>
      <trkpt lat="43.57266" lon="3.36345">
        <ele>156.4</ele>
        <time>2017-11-01T12:03:40Z</time>
      </trkpt>
      <trkpt lat="43.57257" lon="3.36343">
        <ele>156.9</ele>
        <time>2017-11-01T12:03:42Z</time>
      </trkpt>
      <trkpt lat="43.57247" lon="3.36341">
        <ele>157.4</ele>
        <time>2017-11-01T12:03:44Z</time>
      </trkpt>
      <trkpt lat="43.57238" lon="3.36338">
        <ele>157.6</ele>
        <time>2017-11-01T12:03:46Z</time>
      </trkpt>
      <trkpt lat="43.57228" lon="3.36337">
        <ele>157.4</ele>
        <time>2017-11-01T12:03:48Z</time>
      </trkpt>
      <trkpt lat="43.57219" lon="3.36334">
        <ele>157</ele>
        <time>2017-11-01T12:03:50Z</time>
      </trkpt>
      <trkpt lat="43.5721" lon="3.36332">
        <ele>156.7</ele>
        <time>2017-11-01T12:03:52Z</time>
      </trkpt>
      <trkpt lat="43.57201" lon="3.36329">
        <ele>156.9</ele>
        <time>2017-11-01T12:03:54Z</time>
      </trkpt>
      <trkpt lat="43.57193" lon="3.36325">
        <ele>157.1</ele>
        <time>2017-11-01T12:03:56Z</time>
      </trkpt>
      <trkpt lat="43.57183" lon="3.36323">
        <ele>157.6</ele>
        <time>2017-11-01T12:03:58Z</time>
      </trkpt>
      <trkpt lat="43.57174" lon="3.36321">
        <ele>157.9</ele>
        <time>2017-11-01T12:04:00Z</time>
      </trkpt>
      <trkpt lat="43.57164" lon="3.36319">
        <ele>158</ele>
        <time>2017-11-01T12:04:02Z</time>
      </trkpt>
      <trkpt lat="43.57155" lon="3.36317">
        <ele>158.1</ele>
        <time>2017-11-01T12:04:04Z</time>
      </trkpt>
      <trkpt lat="43.57146" lon="3.36313">
        <ele>158</ele>
        <time>2017-11-01T12:04:06Z</time>
      </trkpt>
      <trkpt lat="43.57137" lon="3.36309">
        <ele>158</ele>
        <time>2017-11-01T12:04:08Z</time>
      </trkpt>
      <trkpt lat="43.57131" lon="3.36303">
        <ele>157.9</ele>
        <time>2017-11-01T12:04:10Z</time>
      </trkpt>
      <trkpt lat="43.57124" lon="3.36298">
        <ele>157.9</ele>
        <time>2017-11-01T12:04:12Z</time>
      </trkpt>
      <trkpt lat="43.57117" lon="3.36292">
        <ele>157.8</ele>
        <time>2017-11-01T12:04:14Z</time>
      </trkpt>
      <trkpt lat="43.57111" lon="3.36287">
        <ele>157.8</ele>
        <time>2017-11-01T12:04:16Z</time>
      </trkpt>
      <trkpt lat="43.57104" lon="3.36284">
        <ele>157.8</ele>
        <time>2017-11-01T12:04:18Z</time>
      </trkpt>
      <trkpt lat="43.57097" lon="3.36282">
        <ele>157.9</ele>
        <time>2017-11-01T12:04:20Z</time>
      </trkpt>
      <trkpt lat="43.5709" lon="3.36279">
        <ele>157.9</ele>
        <time>2017-11-01T12:04:22Z</time>
      </trkpt>
      <trkpt lat="43.57081" lon="3.36277">
        <ele>158.1</ele>
        <time>2017-11-01T12:04:24Z</time>
      </trkpt>
      <trkpt lat="43.57072" lon="3.36275">
        <ele>158.2</ele>
        <time>2017-11-01T12:04:27Z</time>
      </trkpt>
      <trkpt lat="43.57063" lon="3.36273">
        <ele>158.2</ele>
        <time>2017-11-01T12:04:30Z</time>
      </trkpt>
      <trkpt lat="43.57056" lon="3.36271">
        <ele>158.5</ele>
        <time>2017-11-01T12:04:32Z</time>
      </trkpt>
      <trkpt lat="43.57047" lon="3.36269">
        <ele>159</ele>
        <time>2017-11-01T12:04:34Z</time>
      </trkpt>
      <trkpt lat="43.57038" lon="3.36267">
        <ele>159</ele>
        <time>2017-11-01T12:04:36Z</time>
      </trkpt>
      <trkpt lat="43.57027" lon="3.36266">
        <ele>158.9</ele>
        <time>2017-11-01T12:04:38Z</time>
      </trkpt>
      <trkpt lat="43.57018" lon="3.36264">
        <ele>158.6</ele>
        <time>2017-11-01T12:04:40Z</time>
      </trkpt>
      <trkpt lat="43.57008" lon="3.36262">
        <ele>158.3</ele>
        <time>2017-11-01T12:04:42Z</time>
      </trkpt>
      <trkpt lat="43.56999" lon="3.36259">
        <ele>158</ele>
        <time>2017-11-01T12:04:44Z</time>
      </trkpt>
      <trkpt lat="43.5699" lon="3.36257">
        <ele>157.8</ele>
        <time>2017-11-01T12:04:46Z</time>
      </trkpt>
      <trkpt lat="43.5698" lon="3.36257">
        <ele>157.6</ele>
        <time>2017-11-01T12:04:48Z</time>
      </trkpt>
      <trkpt lat="43.56972" lon="3.36257">
        <ele>157.4</ele>
        <time>2017-11-01T12:04:50Z</time>
      </trkpt>
      <trkpt lat="43.56965" lon="3.36259">
        <ele>157.3</ele>
        <time>2017-11-01T12:04:52Z</time>
      </trkpt>
      <trkpt lat="43.56958" lon="3.36263">
        <ele>157.3</ele>
        <time>2017-11-01T12:04:54Z</time>
      </trkpt>
      <trkpt lat="43.56948" lon="3.36268">
        <ele>157.4</ele>
        <time>2017-11-01T12:04:57Z</time>
      </trkpt>
      <trkpt lat="43.56938" lon="3.36274">
        <ele>157.6</ele>
        <time>2017-11-01T12:05:00Z</time>
      </trkpt>
      <trkpt lat="43.56929" lon="3.36278">
        <ele>157.8</ele>
        <time>2017-11-01T12:05:03Z</time>
      </trkpt>
      <trkpt lat="43.5692" lon="3.36279">
        <ele>158.1</ele>
        <time>2017-11-01T12:05:06Z</time>
      </trkpt>
      <trkpt lat="43.5691" lon="3.36281">
        <ele>158.3</ele>
        <time>2017-11-01T12:05:09Z</time>
      </trkpt>
      <trkpt lat="43.569" lon="3.36278">
        <ele>158.6</ele>
        <time>2017-11-01T12:05:12Z</time>
      </trkpt>
      <trkpt lat="43.56891" lon="3.36273">
        <ele>158.8</ele>
        <time>2017-11-01T12:05:15Z</time>
      </trkpt>
      <trkpt lat="43.56882" lon="3.36266">
        <ele>159</ele>
        <time>2017-11-01T12:05:18Z</time>
      </trkpt>
      <trkpt lat="43.56875" lon="3.36259">
        <ele>159.4</ele>
        <time>2017-11-01T12:05:21Z</time>
      </trkpt>
      <trkpt lat="43.56866" lon="3.36252">
        <ele>159.8</ele>
        <time>2017-11-01T12:05:24Z</time>
      </trkpt>
      <trkpt lat="43.56859" lon="3.36246">
        <ele>160.1</ele>
        <time>2017-11-01T12:05:27Z</time>
      </trkpt>
      <trkpt lat="43.5685" lon="3.3624">
        <ele>160.4</ele>
        <time>2017-11-01T12:05:30Z</time>
      </trkpt>
      <trkpt lat="43.56842" lon="3.36235">
        <ele>160.8</ele>
        <time>2017-11-01T12:05:33Z</time>
      </trkpt>
      <trkpt lat="43.56834" lon="3.36229">
        <ele>161.2</ele>
        <time>2017-11-01T12:05:36Z</time>
      </trkpt>
      <trkpt lat="43.56825" lon="3.3622">
        <ele>161.6</ele>
        <time>2017-11-01T12:05:39Z</time>
      </trkpt>
      <trkpt lat="43.5682" lon="3.36212">
        <ele>162</ele>
        <time>2017-11-01T12:05:42Z</time>
      </trkpt>
      <trkpt lat="43.56815" lon="3.36203">
        <ele>162.4</ele>
        <time>2017-11-01T12:05:45Z</time>
      </trkpt>
      <trkpt lat="43.5681" lon="3.36193">
        <ele>162.9</ele>
        <time>2017-11-01T12:05:48Z</time>
      </trkpt>
      <trkpt lat="43.56804" lon="3.36184">
        <ele>163.2</ele>
        <time>2017-11-01T12:05:51Z</time>
      </trkpt>
      <trkpt lat="43.56798" lon="3.36173">
        <ele>163.5</ele>
        <time>2017-11-01T12:05:54Z</time>
      </trkpt>
      <trkpt lat="43.56792" lon="3.36165">
        <ele>164.9</ele>
        <time>2017-11-01T12:05:56Z</time>
      </trkpt>
      <trkpt lat="43.56787" lon="3.36155">
        <ele>165.7</ele>
        <time>2017-11-01T12:05:58Z</time>
      </trkpt>
      <trkpt lat="43.5678" lon="3.36144">
        <ele>166</ele>
        <time>2017-11-01T12:06:00Z</time>
      </trkpt>
      <trkpt lat="43.56775" lon="3.36132">
        <ele>165.9</ele>
        <time>2017-11-01T12:06:02Z</time>
      </trkpt>
      <trkpt lat="43.56774" lon="3.36117">
        <ele>165.7</ele>
        <time>2017-11-01T12:06:04Z</time>
      </trkpt>
      <trkpt lat="43.56773" lon="3.36103">
        <ele>165.4</ele>
        <time>2017-11-01T12:06:06Z</time>
      </trkpt>
      <trkpt lat="43.56772" lon="3.36088">
        <ele>165.1</ele>
        <time>2017-11-01T12:06:08Z</time>
      </trkpt>
      <trkpt lat="43.56771" lon="3.36073">
        <ele>164.5</ele>
        <time>2017-11-01T12:06:10Z</time>
      </trkpt>
      <trkpt lat="43.56766" lon="3.3606">
        <ele>164</ele>
        <time>2017-11-01T12:06:12Z</time>
      </trkpt>
      <trkpt lat="43.56756" lon="3.36049">
        <ele>163.4</ele>
        <time>2017-11-01T12:06:14Z</time>
      </trkpt>
      <trkpt lat="43.56742" lon="3.36044">
        <ele>162.6</ele>
        <time>2017-11-01T12:06:16Z</time>
      </trkpt>
      <trkpt lat="43.56735" lon="3.36042">
        <ele>162.3</ele>
        <time>2017-11-01T12:06:17Z</time>
      </trkpt>
      <trkpt lat="43.56729" lon="3.36036">
        <ele>161.9</ele>
        <time>2017-11-01T12:06:18Z</time>
      </trkpt>
      <trkpt lat="43.56723" lon="3.3603">
        <ele>161.4</ele>
        <time>2017-11-01T12:06:19Z</time>
      </trkpt>
      <trkpt lat="43.56717" lon="3.36022">
        <ele>161</ele>
        <time>2017-11-01T12:06:20Z</time>
      </trkpt>
      <trkpt lat="43.56711" lon="3.36013">
        <ele>160.7</ele>
        <time>2017-11-01T12:06:21Z</time>
      </trkpt>
      <trkpt lat="43.56705" lon="3.36005">
        <ele>160.3</ele>
        <time>2017-11-01T12:06:22Z</time>
      </trkpt>
      <trkpt lat="43.56699" lon="3.35998">
        <ele>159.9</ele>
        <time>2017-11-01T12:06:23Z</time>
      </trkpt>
      <trkpt lat="43.56692" lon="3.3599">
        <ele>159.6</ele>
        <time>2017-11-01T12:06:24Z</time>
      </trkpt>
      <trkpt lat="43.56686" lon="3.35982">
        <ele>159.3</ele>
        <time>2017-11-01T12:06:25Z</time>
      </trkpt>
      <trkpt lat="43.5668" lon="3.35975">
        <ele>159</ele>
        <time>2017-11-01T12:06:26Z</time>
      </trkpt>
      <trkpt lat="43.56673" lon="3.35968">
        <ele>158.7</ele>
        <time>2017-11-01T12:06:27Z</time>
      </trkpt>
      <trkpt lat="43.56667" lon="3.35962">
        <ele>158.5</ele>
        <time>2017-11-01T12:06:28Z</time>
      </trkpt>
      <trkpt lat="43.5666" lon="3.35955">
        <ele>158.3</ele>
        <time>2017-11-01T12:06:29Z</time>
      </trkpt>
      <trkpt lat="43.56653" lon="3.35949">
        <ele>158.1</ele>
        <time>2017-11-01T12:06:30Z</time>
      </trkpt>
      <trkpt lat="43.56646" lon="3.35943">
        <ele>157.9</ele>
        <time>2017-11-01T12:06:31Z</time>
      </trkpt>
      <trkpt lat="43.56639" lon="3.35937">
        <ele>157.6</ele>
        <time>2017-11-01T12:06:32Z</time>
      </trkpt>
      <trkpt lat="43.56633" lon="3.35931">
        <ele>157.5</ele>
        <time>2017-11-01T12:06:33Z</time>
      </trkpt>
      <trkpt lat="43.56627" lon="3.35924">
        <ele>157.3</ele>
        <time>2017-11-01T12:06:34Z</time>
      </trkpt>
      <trkpt lat="43.56622" lon="3.35917">
        <ele>157.1</ele>
        <time>2017-11-01T12:06:35Z</time>
      </trkpt>
      <trkpt lat="43.56616" lon="3.35909">
        <ele>156.9</ele>
        <time>2017-11-01T12:06:36Z</time>
      </trkpt>
      <trkpt lat="43.56613" lon="3.359">
        <ele>156.8</ele>
        <time>2017-11-01T12:06:37Z</time>
      </trkpt>
      <trkpt lat="43.56604" lon="3.35885">
        <ele>156.4</ele>
        <time>2017-11-01T12:06:39Z</time>
      </trkpt>
      <trkpt lat="43.56595" lon="3.35871">
        <ele>156.1</ele>
        <time>2017-11-01T12:06:41Z</time>
      </trkpt>
      <trkpt lat="43.56588" lon="3.35857">
        <ele>155.8</ele>
        <time>2017-11-01T12:06:43Z</time>
      </trkpt>
      <trkpt lat="43.56581" lon="3.35842">
        <ele>155.6</ele>
        <time>2017-11-01T12:06:45Z</time>
      </trkpt>
      <trkpt lat="43.56578" lon="3.35826">
        <ele>155.4</ele>
        <time>2017-11-01T12:06:47Z</time>
      </trkpt>
      <trkpt lat="43.56577" lon="3.35811">
        <ele>155.4</ele>
        <time>2017-11-01T12:06:49Z</time>
      </trkpt>
      <trkpt lat="43.56576" lon="3.35801">
        <ele>155.4</ele>
        <time>2017-11-01T12:06:51Z</time>
      </trkpt>
      <trkpt lat="43.56575" lon="3.35789">
        <ele>155.5</ele>
        <time>2017-11-01T12:06:54Z</time>
      </trkpt>
      <trkpt lat="43.56575" lon="3.35777">
        <ele>155.5</ele>
        <time>2017-11-01T12:06:57Z</time>
      </trkpt>
      <trkpt lat="43.56573" lon="3.35763">
        <ele>155.5</ele>
        <time>2017-11-01T12:07:00Z</time>
      </trkpt>
      <trkpt lat="43.56571" lon="3.35752">
        <ele>156</ele>
        <time>2017-11-01T12:07:02Z</time>
      </trkpt>
      <trkpt lat="43.56569" lon="3.35741">
        <ele>156.1</ele>
        <time>2017-11-01T12:07:04Z</time>
      </trkpt>
      <trkpt lat="43.56566" lon="3.3573">
        <ele>156.1</ele>
        <time>2017-11-01T12:07:06Z</time>
      </trkpt>
      <trkpt lat="43.56563" lon="3.35718">
        <ele>156</ele>
        <time>2017-11-01T12:07:08Z</time>
      </trkpt>
      <trkpt lat="43.56561" lon="3.35707">
        <ele>156.1</ele>
        <time>2017-11-01T12:07:10Z</time>
      </trkpt>
      <trkpt lat="43.56557" lon="3.35696">
        <ele>156.1</ele>
        <time>2017-11-01T12:07:12Z</time>
      </trkpt>
      <trkpt lat="43.56553" lon="3.35687">
        <ele>156.1</ele>
        <time>2017-11-01T12:07:14Z</time>
      </trkpt>
      <trkpt lat="43.56548" lon="3.35679">
        <ele>156</ele>
        <time>2017-11-01T12:07:16Z</time>
      </trkpt>
      <trkpt lat="43.56542" lon="3.35668">
        <ele>156</ele>
        <time>2017-11-01T12:07:19Z</time>
      </trkpt>
      <trkpt lat="43.56537" lon="3.3566">
        <ele>156.1</ele>
        <time>2017-11-01T12:07:21Z</time>
      </trkpt>
      <trkpt lat="43.56533" lon="3.35652">
        <ele>156.1</ele>
        <time>2017-11-01T12:07:23Z</time>
      </trkpt>
      <trkpt lat="43.56528" lon="3.35644">
        <ele>156.3</ele>
        <time>2017-11-01T12:07:25Z</time>
      </trkpt>
      <trkpt lat="43.56523" lon="3.35634">
        <ele>156.5</ele>
        <time>2017-11-01T12:07:27Z</time>
      </trkpt>
      <trkpt lat="43.56518" lon="3.35625">
        <ele>156.7</ele>
        <time>2017-11-01T12:07:29Z</time>
      </trkpt>
      <trkpt lat="43.56514" lon="3.35615">
        <ele>156.8</ele>
        <time>2017-11-01T12:07:31Z</time>
      </trkpt>
      <trkpt lat="43.5651" lon="3.35606">
        <ele>157</ele>
        <time>2017-11-01T12:07:33Z</time>
      </trkpt>
      <trkpt lat="43.56507" lon="3.35596">
        <ele>157.1</ele>
        <time>2017-11-01T12:07:35Z</time>
      </trkpt>
      <trkpt lat="43.56503" lon="3.35585">
        <ele>157.2</ele>
        <time>2017-11-01T12:07:37Z</time>
      </trkpt>
      <trkpt lat="43.56501" lon="3.35574">
        <ele>157.2</ele>
        <time>2017-11-01T12:07:39Z</time>
      </trkpt>
      <trkpt lat="43.56499" lon="3.35564">
        <ele>157.2</ele>
        <time>2017-11-01T12:07:41Z</time>
      </trkpt>
      <trkpt lat="43.56497" lon="3.35553">
        <ele>157.2</ele>
        <time>2017-11-01T12:07:43Z</time>
      </trkpt>
      <trkpt lat="43.56497" lon="3.35542">
        <ele>157.1</ele>
        <time>2017-11-01T12:07:45Z</time>
      </trkpt>
      <trkpt lat="43.56499" lon="3.35532">
        <ele>156.9</ele>
        <time>2017-11-01T12:07:47Z</time>
      </trkpt>
      <trkpt lat="43.56501" lon="3.35522">
        <ele>156.9</ele>
        <time>2017-11-01T12:07:49Z</time>
      </trkpt>
      <trkpt lat="43.56503" lon="3.35507">
        <ele>156.9</ele>
        <time>2017-11-01T12:07:52Z</time>
      </trkpt>
      <trkpt lat="43.56501" lon="3.35494">
        <ele>157</ele>
        <time>2017-11-01T12:07:55Z</time>
      </trkpt>
      <trkpt lat="43.56495" lon="3.35482">
        <ele>157.2</ele>
        <time>2017-11-01T12:07:58Z</time>
      </trkpt>
      <trkpt lat="43.5649" lon="3.3547">
        <ele>157.3</ele>
        <time>2017-11-01T12:08:01Z</time>
      </trkpt>
      <trkpt lat="43.56487" lon="3.35461">
        <ele>157.4</ele>
        <time>2017-11-01T12:08:03Z</time>
      </trkpt>
      <trkpt lat="43.56481" lon="3.35448">
        <ele>157.6</ele>
        <time>2017-11-01T12:08:06Z</time>
      </trkpt>
      <trkpt lat="43.56478" lon="3.35435">
        <ele>157.7</ele>
        <time>2017-11-01T12:08:09Z</time>
      </trkpt>
      <trkpt lat="43.56474" lon="3.35426">
        <ele>157.8</ele>
        <time>2017-11-01T12:08:11Z</time>
      </trkpt>
      <trkpt lat="43.5647" lon="3.35412">
        <ele>158</ele>
        <time>2017-11-01T12:08:14Z</time>
      </trkpt>
      <trkpt lat="43.56467" lon="3.35398">
        <ele>158.2</ele>
        <time>2017-11-01T12:08:17Z</time>
      </trkpt>
      <trkpt lat="43.56463" lon="3.35384">
        <ele>159.2</ele>
        <time>2017-11-01T12:08:20Z</time>
      </trkpt>
      <trkpt lat="43.5646" lon="3.35375">
        <ele>160.1</ele>
        <time>2017-11-01T12:08:22Z</time>
      </trkpt>
      <trkpt lat="43.56457" lon="3.35366">
        <ele>160.2</ele>
        <time>2017-11-01T12:08:24Z</time>
      </trkpt>
      <trkpt lat="43.56454" lon="3.35352">
        <ele>160.5</ele>
        <time>2017-11-01T12:08:27Z</time>
      </trkpt>
      <trkpt lat="43.56453" lon="3.35342">
        <ele>160.6</ele>
        <time>2017-11-01T12:08:29Z</time>
      </trkpt>
      <trkpt lat="43.56453" lon="3.35332">
        <ele>161.5</ele>
        <time>2017-11-01T12:08:31Z</time>
      </trkpt>
      <trkpt lat="43.56453" lon="3.35321">
        <ele>162.3</ele>
        <time>2017-11-01T12:08:33Z</time>
      </trkpt>
      <trkpt lat="43.56454" lon="3.35311">
        <ele>162.4</ele>
        <time>2017-11-01T12:08:35Z</time>
      </trkpt>
      <trkpt lat="43.56455" lon="3.35296">
        <ele>162.6</ele>
        <time>2017-11-01T12:08:38Z</time>
      </trkpt>
      <trkpt lat="43.56456" lon="3.35286">
        <ele>162.8</ele>
        <time>2017-11-01T12:08:40Z</time>
      </trkpt>
      <trkpt lat="43.56455" lon="3.35275">
        <ele>162.9</ele>
        <time>2017-11-01T12:08:42Z</time>
      </trkpt>
      <trkpt lat="43.56454" lon="3.35266">
        <ele>163</ele>
        <time>2017-11-01T12:08:44Z</time>
      </trkpt>
      <trkpt lat="43.56451" lon="3.35252">
        <ele>163.3</ele>
        <time>2017-11-01T12:08:47Z</time>
      </trkpt>
      <trkpt lat="43.56446" lon="3.35239">
        <ele>163.5</ele>
        <time>2017-11-01T12:08:50Z</time>
      </trkpt>
      <trkpt lat="43.56441" lon="3.35229">
        <ele>165</ele>
        <time>2017-11-01T12:08:52Z</time>
      </trkpt>
      <trkpt lat="43.56436" lon="3.3522">
        <ele>166.1</ele>
        <time>2017-11-01T12:08:54Z</time>
      </trkpt>
      <trkpt lat="43.56434" lon="3.3521">
        <ele>166.8</ele>
        <time>2017-11-01T12:08:56Z</time>
      </trkpt>
      <trkpt lat="43.56432" lon="3.35199">
        <ele>167.4</ele>
        <time>2017-11-01T12:08:58Z</time>
      </trkpt>
      <trkpt lat="43.5643" lon="3.35188">
        <ele>167.8</ele>
        <time>2017-11-01T12:09:00Z</time>
      </trkpt>
      <trkpt lat="43.56427" lon="3.35177">
        <ele>168.1</ele>
        <time>2017-11-01T12:09:02Z</time>
      </trkpt>
      <trkpt lat="43.56425" lon="3.35166">
        <ele>168.3</ele>
        <time>2017-11-01T12:09:04Z</time>
      </trkpt>
      <trkpt lat="43.56423" lon="3.35156">
        <ele>168.5</ele>
        <time>2017-11-01T12:09:06Z</time>
      </trkpt>
      <trkpt lat="43.56419" lon="3.35145">
        <ele>168.6</ele>
        <time>2017-11-01T12:09:08Z</time>
      </trkpt>
      <trkpt lat="43.56417" lon="3.35134">
        <ele>168.7</ele>
        <time>2017-11-01T12:09:10Z</time>
      </trkpt>
      <trkpt lat="43.56414" lon="3.35124">
        <ele>169</ele>
        <time>2017-11-01T12:09:12Z</time>
      </trkpt>
      <trkpt lat="43.5641" lon="3.35114">
        <ele>169.2</ele>
        <time>2017-11-01T12:09:14Z</time>
      </trkpt>
      <trkpt lat="43.56407" lon="3.35104">
        <ele>169.4</ele>
        <time>2017-11-01T12:09:16Z</time>
      </trkpt>
      <trkpt lat="43.56404" lon="3.35094">
        <ele>169.7</ele>
        <time>2017-11-01T12:09:18Z</time>
      </trkpt>
      <trkpt lat="43.564" lon="3.35084">
        <ele>170</ele>
        <time>2017-11-01T12:09:20Z</time>
      </trkpt>
      <trkpt lat="43.56396" lon="3.35074">
        <ele>170.2</ele>
        <time>2017-11-01T12:09:22Z</time>
      </trkpt>
      <trkpt lat="43.56394" lon="3.35065">
        <ele>170.3</ele>
        <time>2017-11-01T12:09:24Z</time>
      </trkpt>
      <trkpt lat="43.56389" lon="3.35052">
        <ele>170.4</ele>
        <time>2017-11-01T12:09:27Z</time>
      </trkpt>
      <trkpt lat="43.56389" lon="3.35038">
        <ele>170.5</ele>
        <time>2017-11-01T12:09:30Z</time>
      </trkpt>
      <trkpt lat="43.56395" lon="3.35026">
        <ele>170.7</ele>
        <time>2017-11-01T12:09:33Z</time>
      </trkpt>
      <trkpt lat="43.56403" lon="3.35018">
        <ele>170.9</ele>
        <time>2017-11-01T12:09:36Z</time>
      </trkpt>
      <trkpt lat="43.56409" lon="3.35013">
        <ele>171</ele>
        <time>2017-11-01T12:09:38Z</time>
      </trkpt>
      <trkpt lat="43.56417" lon="3.35005">
        <ele>171.2</ele>
        <time>2017-11-01T12:09:41Z</time>
      </trkpt>
      <trkpt lat="43.56419" lon="3.34992">
        <ele>171.4</ele>
        <time>2017-11-01T12:09:44Z</time>
      </trkpt>
      <trkpt lat="43.56415" lon="3.34979">
        <ele>171.6</ele>
        <time>2017-11-01T12:09:47Z</time>
      </trkpt>
      <trkpt lat="43.5641" lon="3.34972">
        <ele>172</ele>
        <time>2017-11-01T12:09:49Z</time>
      </trkpt>
      <trkpt lat="43.56404" lon="3.34962">
        <ele>172.6</ele>
        <time>2017-11-01T12:09:51Z</time>
      </trkpt>
      <trkpt lat="43.56398" lon="3.34954">
        <ele>172.8</ele>
        <time>2017-11-01T12:09:53Z</time>
      </trkpt>
      <trkpt lat="43.56391" lon="3.34944">
        <ele>173</ele>
        <time>2017-11-01T12:09:55Z</time>
      </trkpt>
      <trkpt lat="43.56385" lon="3.34935">
        <ele>173</ele>
        <time>2017-11-01T12:09:57Z</time>
      </trkpt>
      <trkpt lat="43.56379" lon="3.34926">
        <ele>173</ele>
        <time>2017-11-01T12:09:59Z</time>
      </trkpt>
      <trkpt lat="43.56374" lon="3.34915">
        <ele>173</ele>
        <time>2017-11-01T12:10:01Z</time>
      </trkpt>
      <trkpt lat="43.56369" lon="3.34905">
        <ele>173</ele>
        <time>2017-11-01T12:10:03Z</time>
      </trkpt>
      <trkpt lat="43.56365" lon="3.34894">
        <ele>173</ele>
        <time>2017-11-01T12:10:05Z</time>
      </trkpt>
      <trkpt lat="43.56362" lon="3.34883">
        <ele>173.2</ele>
        <time>2017-11-01T12:10:07Z</time>
      </trkpt>
      <trkpt lat="43.56358" lon="3.34873">
        <ele>173.5</ele>
        <time>2017-11-01T12:10:09Z</time>
      </trkpt>
      <trkpt lat="43.56353" lon="3.34861">
        <ele>173.9</ele>
        <time>2017-11-01T12:10:12Z</time>
      </trkpt>
      <trkpt lat="43.56351" lon="3.34849">
        <ele>174</ele>
        <time>2017-11-01T12:10:15Z</time>
      </trkpt>
      <trkpt lat="43.56347" lon="3.34838">
        <ele>174.2</ele>
        <time>2017-11-01T12:10:18Z</time>
      </trkpt>
      <trkpt lat="43.56343" lon="3.34829">
        <ele>174.4</ele>
        <time>2017-11-01T12:10:21Z</time>
      </trkpt>
      <trkpt lat="43.56336" lon="3.34822">
        <ele>174.7</ele>
        <time>2017-11-01T12:10:25Z</time>
      </trkpt>
      <trkpt lat="43.56328" lon="3.34816">
        <ele>174.8</ele>
        <time>2017-11-01T12:10:28Z</time>
      </trkpt>
      <trkpt lat="43.56319" lon="3.34813">
        <ele>175</ele>
        <time>2017-11-01T12:10:31Z</time>
      </trkpt>
      <trkpt lat="43.56312" lon="3.3481">
        <ele>175.4</ele>
        <time>2017-11-01T12:10:33Z</time>
      </trkpt>
      <trkpt lat="43.56304" lon="3.34807">
        <ele>175.7</ele>
        <time>2017-11-01T12:10:35Z</time>
      </trkpt>
      <trkpt lat="43.56296" lon="3.34805">
        <ele>175.8</ele>
        <time>2017-11-01T12:10:37Z</time>
      </trkpt>
      <trkpt lat="43.56288" lon="3.34802">
        <ele>175.7</ele>
        <time>2017-11-01T12:10:39Z</time>
      </trkpt>
      <trkpt lat="43.56278" lon="3.34799">
        <ele>175.5</ele>
        <time>2017-11-01T12:10:41Z</time>
      </trkpt>
      <trkpt lat="43.56268" lon="3.34794">
        <ele>175.1</ele>
        <time>2017-11-01T12:10:43Z</time>
      </trkpt>
      <trkpt lat="43.56261" lon="3.34781">
        <ele>175</ele>
        <time>2017-11-01T12:10:45Z</time>
      </trkpt>
      <trkpt lat="43.5626" lon="3.34765">
        <ele>174.8</ele>
        <time>2017-11-01T12:10:47Z</time>
      </trkpt>
      <trkpt lat="43.56259" lon="3.34749">
        <ele>174.3</ele>
        <time>2017-11-01T12:10:49Z</time>
      </trkpt>
      <trkpt lat="43.56255" lon="3.34735">
        <ele>173.6</ele>
        <time>2017-11-01T12:10:51Z</time>
      </trkpt>
      <trkpt lat="43.5625" lon="3.34721">
        <ele>173.3</ele>
        <time>2017-11-01T12:10:53Z</time>
      </trkpt>
      <trkpt lat="43.56247" lon="3.34711">
        <ele>173.3</ele>
        <time>2017-11-01T12:10:55Z</time>
      </trkpt>
      <trkpt lat="43.56246" lon="3.34698">
        <ele>173.4</ele>
        <time>2017-11-01T12:10:58Z</time>
      </trkpt>
      <trkpt lat="43.56247" lon="3.34684">
        <ele>173.5</ele>
        <time>2017-11-01T12:11:01Z</time>
      </trkpt>
      <trkpt lat="43.56247" lon="3.34672">
        <ele>173.5</ele>
        <time>2017-11-01T12:11:03Z</time>
      </trkpt>
      <trkpt lat="43.56246" lon="3.34662">
        <ele>173.6</ele>
        <time>2017-11-01T12:11:05Z</time>
      </trkpt>
      <trkpt lat="43.56242" lon="3.3465">
        <ele>173.8</ele>
        <time>2017-11-01T12:11:08Z</time>
      </trkpt>
      <trkpt lat="43.56236" lon="3.34641">
        <ele>174</ele>
        <time>2017-11-01T12:11:11Z</time>
      </trkpt>
      <trkpt lat="43.56229" lon="3.34635">
        <ele>174.3</ele>
        <time>2017-11-01T12:11:14Z</time>
      </trkpt>
      <trkpt lat="43.56222" lon="3.34627">
        <ele>174.8</ele>
        <time>2017-11-01T12:11:18Z</time>
      </trkpt>
      <trkpt lat="43.56215" lon="3.34619">
        <ele>175.1</ele>
        <time>2017-11-01T12:11:21Z</time>
      </trkpt>
      <trkpt lat="43.56211" lon="3.34608">
        <ele>175.4</ele>
        <time>2017-11-01T12:11:24Z</time>
      </trkpt>
      <trkpt lat="43.56207" lon="3.34598">
        <ele>175.7</ele>
        <time>2017-11-01T12:11:27Z</time>
      </trkpt>
      <trkpt lat="43.56204" lon="3.34586">
        <ele>176</ele>
        <time>2017-11-01T12:11:30Z</time>
      </trkpt>
      <trkpt lat="43.56202" lon="3.34573">
        <ele>176.3</ele>
        <time>2017-11-01T12:11:33Z</time>
      </trkpt>
      <trkpt lat="43.56201" lon="3.34562">
        <ele>176.7</ele>
        <time>2017-11-01T12:11:36Z</time>
      </trkpt>
      <trkpt lat="43.56199" lon="3.34552">
        <ele>177.1</ele>
        <time>2017-11-01T12:11:39Z</time>
      </trkpt>
      <trkpt lat="43.56199" lon="3.34541">
        <ele>177.6</ele>
        <time>2017-11-01T12:11:43Z</time>
      </trkpt>
      <trkpt lat="43.56199" lon="3.34538">
        <ele>178</ele>
        <time>2017-11-01T12:11:50Z</time>
      </trkpt>
      <trkpt lat="43.56199" lon="3.34537">
        <ele>180.5</ele>
        <time>2017-11-01T12:14:42Z</time>
      </trkpt>
      <trkpt lat="43.56201" lon="3.34526">
        <ele>182.3</ele>
        <time>2017-11-01T12:16:54Z</time>
      </trkpt>
      <trkpt lat="43.56199" lon="3.34513">
        <ele>182.6</ele>
        <time>2017-11-01T12:16:57Z</time>
      </trkpt>
      <trkpt lat="43.56201" lon="3.345">
        <ele>182.8</ele>
        <time>2017-11-01T12:17:00Z</time>
      </trkpt>
      <trkpt lat="43.56201" lon="3.34484">
        <ele>182.9</ele>
        <time>2017-11-01T12:17:03Z</time>
      </trkpt>
      <trkpt lat="43.56203" lon="3.34473">
        <ele>183</ele>
        <time>2017-11-01T12:17:06Z</time>
      </trkpt>
      <trkpt lat="43.56205" lon="3.34459">
        <ele>183</ele>
        <time>2017-11-01T12:17:09Z</time>
      </trkpt>
      <trkpt lat="43.56207" lon="3.34445">
        <ele>182.9</ele>
        <time>2017-11-01T12:17:12Z</time>
      </trkpt>
      <trkpt lat="43.56207" lon="3.34435">
        <ele>182.9</ele>
        <time>2017-11-01T12:17:14Z</time>
      </trkpt>
      <trkpt lat="43.56207" lon="3.34425">
        <ele>182.4</ele>
        <time>2017-11-01T12:17:16Z</time>
      </trkpt>
      <trkpt lat="43.56207" lon="3.3441">
        <ele>182.3</ele>
        <time>2017-11-01T12:17:19Z</time>
      </trkpt>
      <trkpt lat="43.56207" lon="3.344">
        <ele>182.2</ele>
        <time>2017-11-01T12:17:21Z</time>
      </trkpt>
      <trkpt lat="43.56207" lon="3.3439">
        <ele>182.2</ele>
        <time>2017-11-01T12:17:23Z</time>
      </trkpt>
      <trkpt lat="43.56207" lon="3.34379">
        <ele>181.3</ele>
        <time>2017-11-01T12:17:25Z</time>
      </trkpt>
      <trkpt lat="43.56207" lon="3.34368">
        <ele>181.1</ele>
        <time>2017-11-01T12:17:27Z</time>
      </trkpt>
      <trkpt lat="43.56208" lon="3.34358">
        <ele>181.1</ele>
        <time>2017-11-01T12:17:29Z</time>
      </trkpt>
      <trkpt lat="43.56208" lon="3.34347">
        <ele>180.9</ele>
        <time>2017-11-01T12:17:31Z</time>
      </trkpt>
      <trkpt lat="43.56207" lon="3.34337">
        <ele>180.7</ele>
        <time>2017-11-01T12:17:33Z</time>
      </trkpt>
      <trkpt lat="43.56206" lon="3.34327">
        <ele>180.5</ele>
        <time>2017-11-01T12:17:35Z</time>
      </trkpt>
      <trkpt lat="43.56204" lon="3.34312">
        <ele>180.6</ele>
        <time>2017-11-01T12:17:38Z</time>
      </trkpt>
      <trkpt lat="43.56203" lon="3.34302">
        <ele>180.7</ele>
        <time>2017-11-01T12:17:40Z</time>
      </trkpt>
      <trkpt lat="43.56201" lon="3.34287">
        <ele>180.8</ele>
        <time>2017-11-01T12:17:43Z</time>
      </trkpt>
      <trkpt lat="43.56199" lon="3.34278">
        <ele>180.9</ele>
        <time>2017-11-01T12:17:46Z</time>
      </trkpt>
      <trkpt lat="43.56198" lon="3.34267">
        <ele>181.1</ele>
        <time>2017-11-01T12:17:47Z</time>
      </trkpt>
      <trkpt lat="43.56196" lon="3.34256">
        <ele>181.1</ele>
        <time>2017-11-01T12:17:49Z</time>
      </trkpt>
      <trkpt lat="43.56194" lon="3.34242">
        <ele>181.2</ele>
        <time>2017-11-01T12:17:52Z</time>
      </trkpt>
      <trkpt lat="43.56192" lon="3.34228">
        <ele>181.3</ele>
        <time>2017-11-01T12:17:55Z</time>
      </trkpt>
      <trkpt lat="43.56196" lon="3.34215">
        <ele>181.5</ele>
        <time>2017-11-01T12:17:58Z</time>
      </trkpt>
      <trkpt lat="43.56199" lon="3.34203">
        <ele>181.7</ele>
        <time>2017-11-01T12:18:01Z</time>
      </trkpt>
      <trkpt lat="43.56201" lon="3.3419">
        <ele>181.8</ele>
        <time>2017-11-01T12:18:04Z</time>
      </trkpt>
      <trkpt lat="43.56206" lon="3.34177">
        <ele>182</ele>
        <time>2017-11-01T12:18:07Z</time>
      </trkpt>
      <trkpt lat="43.5621" lon="3.34167">
        <ele>182.3</ele>
        <time>2017-11-01T12:18:10Z</time>
      </trkpt>
      <trkpt lat="43.56215" lon="3.34158">
        <ele>182.6</ele>
        <time>2017-11-01T12:18:12Z</time>
      </trkpt>
      <trkpt lat="43.5622" lon="3.3415">
        <ele>182.8</ele>
        <time>2017-11-01T12:18:14Z</time>
      </trkpt>
      <trkpt lat="43.56227" lon="3.34139">
        <ele>183.1</ele>
        <time>2017-11-01T12:18:17Z</time>
      </trkpt>
      <trkpt lat="43.56233" lon="3.34128">
        <ele>183.4</ele>
        <time>2017-11-01T12:18:20Z</time>
      </trkpt>
      <trkpt lat="43.56237" lon="3.34117">
        <ele>183.7</ele>
        <time>2017-11-01T12:18:23Z</time>
      </trkpt>
      <trkpt lat="43.56244" lon="3.34107">
        <ele>184</ele>
        <time>2017-11-01T12:18:26Z</time>
      </trkpt>
      <trkpt lat="43.5625" lon="3.34098">
        <ele>184.4</ele>
        <time>2017-11-01T12:18:29Z</time>
      </trkpt>
      <trkpt lat="43.56256" lon="3.3409">
        <ele>184.7</ele>
        <time>2017-11-01T12:18:32Z</time>
      </trkpt>
      <trkpt lat="43.56263" lon="3.34083">
        <ele>185.2</ele>
        <time>2017-11-01T12:18:35Z</time>
      </trkpt>
      <trkpt lat="43.5627" lon="3.34074">
        <ele>185.9</ele>
        <time>2017-11-01T12:18:38Z</time>
      </trkpt>
      <trkpt lat="43.56277" lon="3.34067">
        <ele>186.5</ele>
        <time>2017-11-01T12:18:41Z</time>
      </trkpt>
      <trkpt lat="43.56284" lon="3.34058">
        <ele>187.2</ele>
        <time>2017-11-01T12:18:44Z</time>
      </trkpt>
      <trkpt lat="43.5629" lon="3.34052">
        <ele>187.6</ele>
        <time>2017-11-01T12:18:46Z</time>
      </trkpt>
      <trkpt lat="43.56296" lon="3.34044">
        <ele>187.9</ele>
        <time>2017-11-01T12:18:48Z</time>
      </trkpt>
      <trkpt lat="43.56303" lon="3.34034">
        <ele>189.3</ele>
        <time>2017-11-01T12:18:51Z</time>
      </trkpt>
      <trkpt lat="43.5631" lon="3.34024">
        <ele>190.7</ele>
        <time>2017-11-01T12:18:53Z</time>
      </trkpt>
      <trkpt lat="43.5632" lon="3.34021">
        <ele>191</ele>
        <time>2017-11-01T12:18:55Z</time>
      </trkpt>
      <trkpt lat="43.5633" lon="3.34022">
        <ele>190.3</ele>
        <time>2017-11-01T12:18:57Z</time>
      </trkpt>
      <trkpt lat="43.56339" lon="3.34025">
        <ele>189.5</ele>
        <time>2017-11-01T12:18:59Z</time>
      </trkpt>
      <trkpt lat="43.5635" lon="3.34028">
        <ele>188.8</ele>
        <time>2017-11-01T12:19:01Z</time>
      </trkpt>
      <trkpt lat="43.56361" lon="3.34027">
        <ele>188.7</ele>
        <time>2017-11-01T12:19:03Z</time>
      </trkpt>
      <trkpt lat="43.56374" lon="3.34022">
        <ele>189.2</ele>
        <time>2017-11-01T12:19:05Z</time>
      </trkpt>
      <trkpt lat="43.5638" lon="3.34017">
        <ele>189.4</ele>
        <time>2017-11-01T12:19:06Z</time>
      </trkpt>
      <trkpt lat="43.56388" lon="3.34003">
        <ele>189.9</ele>
        <time>2017-11-01T12:19:08Z</time>
      </trkpt>
      <trkpt lat="43.56391" lon="3.33989">
        <ele>190.4</ele>
        <time>2017-11-01T12:19:10Z</time>
      </trkpt>
      <trkpt lat="43.56392" lon="3.33978">
        <ele>190.6</ele>
        <time>2017-11-01T12:19:12Z</time>
      </trkpt>
      <trkpt lat="43.56392" lon="3.33967">
        <ele>190.9</ele>
        <time>2017-11-01T12:19:14Z</time>
      </trkpt>
      <trkpt lat="43.56392" lon="3.33955">
        <ele>190.8</ele>
        <time>2017-11-01T12:19:16Z</time>
      </trkpt>
      <trkpt lat="43.56391" lon="3.33946">
        <ele>190.7</ele>
        <time>2017-11-01T12:19:18Z</time>
      </trkpt>
      <trkpt lat="43.56392" lon="3.33932">
        <ele>190.6</ele>
        <time>2017-11-01T12:19:21Z</time>
      </trkpt>
      <trkpt lat="43.56391" lon="3.33921">
        <ele>190.8</ele>
        <time>2017-11-01T12:19:23Z</time>
      </trkpt>
      <trkpt lat="43.56389" lon="3.3391">
        <ele>191</ele>
        <time>2017-11-01T12:19:25Z</time>
      </trkpt>
      <trkpt lat="43.56388" lon="3.33899">
        <ele>191</ele>
        <time>2017-11-01T12:19:27Z</time>
      </trkpt>
      <trkpt lat="43.56386" lon="3.33887">
        <ele>190.7</ele>
        <time>2017-11-01T12:19:29Z</time>
      </trkpt>
      <trkpt lat="43.56384" lon="3.33876">
        <ele>190.5</ele>
        <time>2017-11-01T12:19:31Z</time>
      </trkpt>
      <trkpt lat="43.56383" lon="3.33865">
        <ele>190.2</ele>
        <time>2017-11-01T12:19:33Z</time>
      </trkpt>
      <trkpt lat="43.56383" lon="3.33854">
        <ele>190</ele>
        <time>2017-11-01T12:19:35Z</time>
      </trkpt>
      <trkpt lat="43.56386" lon="3.33843">
        <ele>189.9</ele>
        <time>2017-11-01T12:19:37Z</time>
      </trkpt>
      <trkpt lat="43.56394" lon="3.33833">
        <ele>190.1</ele>
        <time>2017-11-01T12:19:40Z</time>
      </trkpt>
      <trkpt lat="43.56403" lon="3.33823">
        <ele>190.4</ele>
        <time>2017-11-01T12:19:43Z</time>
      </trkpt>
      <trkpt lat="43.5641" lon="3.33817">
        <ele>190.5</ele>
        <time>2017-11-01T12:19:45Z</time>
      </trkpt>
      <trkpt lat="43.56418" lon="3.33811">
        <ele>190.4</ele>
        <time>2017-11-01T12:19:47Z</time>
      </trkpt>
      <trkpt lat="43.56425" lon="3.33807">
        <ele>190.4</ele>
        <time>2017-11-01T12:19:49Z</time>
      </trkpt>
      <trkpt lat="43.56434" lon="3.33804">
        <ele>190.6</ele>
        <time>2017-11-01T12:19:51Z</time>
      </trkpt>
      <trkpt lat="43.56441" lon="3.33804">
        <ele>190.6</ele>
        <time>2017-11-01T12:19:53Z</time>
      </trkpt>
      <trkpt lat="43.56448" lon="3.33805">
        <ele>190.6</ele>
        <time>2017-11-01T12:19:55Z</time>
      </trkpt>
      <trkpt lat="43.56456" lon="3.33807">
        <ele>190.7</ele>
        <time>2017-11-01T12:19:57Z</time>
      </trkpt>
      <trkpt lat="43.56463" lon="3.33806">
        <ele>190.8</ele>
        <time>2017-11-01T12:19:59Z</time>
      </trkpt>
      <trkpt lat="43.56469" lon="3.338">
        <ele>191</ele>
        <time>2017-11-01T12:20:01Z</time>
      </trkpt>
      <trkpt lat="43.56476" lon="3.33795">
        <ele>191.1</ele>
        <time>2017-11-01T12:20:03Z</time>
      </trkpt>
      <trkpt lat="43.56483" lon="3.3379">
        <ele>191.6</ele>
        <time>2017-11-01T12:20:05Z</time>
      </trkpt>
      <trkpt lat="43.5649" lon="3.33784">
        <ele>192.2</ele>
        <time>2017-11-01T12:20:07Z</time>
      </trkpt>
      <trkpt lat="43.56495" lon="3.33779">
        <ele>192.6</ele>
        <time>2017-11-01T12:20:10Z</time>
      </trkpt>
      <trkpt lat="43.56503" lon="3.33769">
        <ele>192.7</ele>
        <time>2017-11-01T12:20:12Z</time>
      </trkpt>
      <trkpt lat="43.56509" lon="3.33762">
        <ele>193.7</ele>
        <time>2017-11-01T12:20:14Z</time>
      </trkpt>
      <trkpt lat="43.56517" lon="3.33752">
        <ele>193.8</ele>
        <time>2017-11-01T12:20:17Z</time>
      </trkpt>
      <trkpt lat="43.56523" lon="3.33745">
        <ele>193.9</ele>
        <time>2017-11-01T12:20:19Z</time>
      </trkpt>
      <trkpt lat="43.56528" lon="3.33736">
        <ele>194.7</ele>
        <time>2017-11-01T12:20:21Z</time>
      </trkpt>
      <trkpt lat="43.56531" lon="3.33726">
        <ele>195.3</ele>
        <time>2017-11-01T12:20:23Z</time>
      </trkpt>
      <trkpt lat="43.56531" lon="3.33715">
        <ele>195.4</ele>
        <time>2017-11-01T12:20:25Z</time>
      </trkpt>
      <trkpt lat="43.56529" lon="3.33701">
        <ele>195.5</ele>
        <time>2017-11-01T12:20:28Z</time>
      </trkpt>
      <trkpt lat="43.56525" lon="3.33688">
        <ele>195.6</ele>
        <time>2017-11-01T12:20:31Z</time>
      </trkpt>
      <trkpt lat="43.56521" lon="3.33676">
        <ele>195.9</ele>
        <time>2017-11-01T12:20:34Z</time>
      </trkpt>
      <trkpt lat="43.56518" lon="3.33664">
        <ele>196.3</ele>
        <time>2017-11-01T12:20:37Z</time>
      </trkpt>
      <trkpt lat="43.56514" lon="3.3365">
        <ele>196.7</ele>
        <time>2017-11-01T12:20:40Z</time>
      </trkpt>
      <trkpt lat="43.5651" lon="3.33639">
        <ele>197.2</ele>
        <time>2017-11-01T12:20:43Z</time>
      </trkpt>
      <trkpt lat="43.56507" lon="3.33628">
        <ele>197.7</ele>
        <time>2017-11-01T12:20:46Z</time>
      </trkpt>
      <trkpt lat="43.56501" lon="3.33616">
        <ele>198.2</ele>
        <time>2017-11-01T12:20:49Z</time>
      </trkpt>
      <trkpt lat="43.56495" lon="3.33606">
        <ele>198.6</ele>
        <time>2017-11-01T12:20:52Z</time>
      </trkpt>
      <trkpt lat="43.56488" lon="3.33594">
        <ele>199.1</ele>
        <time>2017-11-01T12:20:55Z</time>
      </trkpt>
      <trkpt lat="43.56481" lon="3.33584">
        <ele>199.7</ele>
        <time>2017-11-01T12:20:58Z</time>
      </trkpt>
      <trkpt lat="43.56477" lon="3.33574">
        <ele>200.2</ele>
        <time>2017-11-01T12:21:01Z</time>
      </trkpt>
      <trkpt lat="43.56472" lon="3.33562">
        <ele>200.7</ele>
        <time>2017-11-01T12:21:04Z</time>
      </trkpt>
      <trkpt lat="43.5647" lon="3.33553">
        <ele>201.1</ele>
        <time>2017-11-01T12:21:06Z</time>
      </trkpt>
      <trkpt lat="43.56465" lon="3.33541">
        <ele>201.5</ele>
        <time>2017-11-01T12:21:09Z</time>
      </trkpt>
      <trkpt lat="43.56461" lon="3.3353">
        <ele>202</ele>
        <time>2017-11-01T12:21:12Z</time>
      </trkpt>
      <trkpt lat="43.56455" lon="3.3352">
        <ele>202.5</ele>
        <time>2017-11-01T12:21:15Z</time>
      </trkpt>
      <trkpt lat="43.56448" lon="3.3351">
        <ele>202.9</ele>
        <time>2017-11-01T12:21:18Z</time>
      </trkpt>
      <trkpt lat="43.56442" lon="3.33501">
        <ele>203.3</ele>
        <time>2017-11-01T12:21:21Z</time>
      </trkpt>
      <trkpt lat="43.56436" lon="3.33492">
        <ele>203.9</ele>
        <time>2017-11-01T12:21:24Z</time>
      </trkpt>
      <trkpt lat="43.56431" lon="3.33483">
        <ele>204.4</ele>
        <time>2017-11-01T12:21:27Z</time>
      </trkpt>
      <trkpt lat="43.56426" lon="3.33474">
        <ele>207.4</ele>
        <time>2017-11-01T12:21:29Z</time>
      </trkpt>
      <trkpt lat="43.56419" lon="3.33461">
        <ele>208.9</ele>
        <time>2017-11-01T12:21:31Z</time>
      </trkpt>
      <trkpt lat="43.56411" lon="3.33447">
        <ele>209.2</ele>
        <time>2017-11-01T12:21:33Z</time>
      </trkpt>
      <trkpt lat="43.56403" lon="3.33433">
        <ele>208.7</ele>
        <time>2017-11-01T12:21:35Z</time>
      </trkpt>
      <trkpt lat="43.56395" lon="3.3342">
        <ele>208.2</ele>
        <time>2017-11-01T12:21:37Z</time>
      </trkpt>
      <trkpt lat="43.56387" lon="3.33406">
        <ele>207.7</ele>
        <time>2017-11-01T12:21:39Z</time>
      </trkpt>
      <trkpt lat="43.5638" lon="3.33392">
        <ele>207.2</ele>
        <time>2017-11-01T12:21:41Z</time>
      </trkpt>
      <trkpt lat="43.56373" lon="3.33379">
        <ele>207</ele>
        <time>2017-11-01T12:21:43Z</time>
      </trkpt>
      <trkpt lat="43.56367" lon="3.33364">
        <ele>207</ele>
        <time>2017-11-01T12:21:45Z</time>
      </trkpt>
      <trkpt lat="43.56364" lon="3.33351">
        <ele>207.1</ele>
        <time>2017-11-01T12:21:47Z</time>
      </trkpt>
      <trkpt lat="43.5636" lon="3.33337">
        <ele>207.2</ele>
        <time>2017-11-01T12:21:49Z</time>
      </trkpt>
      <trkpt lat="43.56355" lon="3.33326">
        <ele>207.6</ele>
        <time>2017-11-01T12:21:51Z</time>
      </trkpt>
      <trkpt lat="43.5635" lon="3.33316">
        <ele>208.2</ele>
        <time>2017-11-01T12:21:53Z</time>
      </trkpt>
      <trkpt lat="43.56346" lon="3.33303">
        <ele>208.9</ele>
        <time>2017-11-01T12:21:55Z</time>
      </trkpt>
      <trkpt lat="43.56342" lon="3.33291">
        <ele>209</ele>
        <time>2017-11-01T12:21:57Z</time>
      </trkpt>
      <trkpt lat="43.56337" lon="3.33282">
        <ele>209.3</ele>
        <time>2017-11-01T12:21:59Z</time>
      </trkpt>
      <trkpt lat="43.56333" lon="3.33273">
        <ele>209.4</ele>
        <time>2017-11-01T12:22:01Z</time>
      </trkpt>
      <trkpt lat="43.56329" lon="3.33262">
        <ele>209.7</ele>
        <time>2017-11-01T12:22:03Z</time>
      </trkpt>
      <trkpt lat="43.56326" lon="3.33251">
        <ele>209.6</ele>
        <time>2017-11-01T12:22:05Z</time>
      </trkpt>
      <trkpt lat="43.56323" lon="3.33239">
        <ele>209.5</ele>
        <time>2017-11-01T12:22:07Z</time>
      </trkpt>
      <trkpt lat="43.56321" lon="3.33227">
        <ele>209.3</ele>
        <time>2017-11-01T12:22:09Z</time>
      </trkpt>
      <trkpt lat="43.56318" lon="3.33216">
        <ele>209.1</ele>
        <time>2017-11-01T12:22:11Z</time>
      </trkpt>
      <trkpt lat="43.56315" lon="3.33204">
        <ele>209.3</ele>
        <time>2017-11-01T12:22:13Z</time>
      </trkpt>
      <trkpt lat="43.56313" lon="3.33191">
        <ele>210.1</ele>
        <time>2017-11-01T12:22:15Z</time>
      </trkpt>
      <trkpt lat="43.5631" lon="3.3318">
        <ele>211</ele>
        <time>2017-11-01T12:22:17Z</time>
      </trkpt>
      <trkpt lat="43.56308" lon="3.3317">
        <ele>211.9</ele>
        <time>2017-11-01T12:22:19Z</time>
      </trkpt>
      <trkpt lat="43.56305" lon="3.33155">
        <ele>212.1</ele>
        <time>2017-11-01T12:22:22Z</time>
      </trkpt>
      <trkpt lat="43.56303" lon="3.33143">
        <ele>212.2</ele>
        <time>2017-11-01T12:22:24Z</time>
      </trkpt>
      <trkpt lat="43.56301" lon="3.33131">
        <ele>213.3</ele>
        <time>2017-11-01T12:22:26Z</time>
      </trkpt>
      <trkpt lat="43.563" lon="3.33117">
        <ele>214.3</ele>
        <time>2017-11-01T12:22:28Z</time>
      </trkpt>
      <trkpt lat="43.56299" lon="3.33105">
        <ele>214.4</ele>
        <time>2017-11-01T12:22:30Z</time>
      </trkpt>
      <trkpt lat="43.56298" lon="3.33094">
        <ele>214.4</ele>
        <time>2017-11-01T12:22:32Z</time>
      </trkpt>
      <trkpt lat="43.56298" lon="3.33082">
        <ele>214.4</ele>
        <time>2017-11-01T12:22:35Z</time>
      </trkpt>
      <trkpt lat="43.563" lon="3.33067">
        <ele>214.4</ele>
        <time>2017-11-01T12:22:38Z</time>
      </trkpt>
      <trkpt lat="43.56302" lon="3.33057">
        <ele>214.3</ele>
        <time>2017-11-01T12:22:40Z</time>
      </trkpt>
      <trkpt lat="43.56304" lon="3.33044">
        <ele>214.3</ele>
        <time>2017-11-01T12:22:43Z</time>
      </trkpt>
      <trkpt lat="43.56305" lon="3.3303">
        <ele>214.1</ele>
        <time>2017-11-01T12:22:46Z</time>
      </trkpt>
      <trkpt lat="43.56305" lon="3.33016">
        <ele>213.9</ele>
        <time>2017-11-01T12:22:49Z</time>
      </trkpt>
      <trkpt lat="43.56304" lon="3.33006">
        <ele>213.8</ele>
        <time>2017-11-01T12:22:51Z</time>
      </trkpt>
      <trkpt lat="43.56301" lon="3.32996">
        <ele>212.4</ele>
        <time>2017-11-01T12:22:53Z</time>
      </trkpt>
      <trkpt lat="43.56296" lon="3.32986">
        <ele>211.5</ele>
        <time>2017-11-01T12:22:55Z</time>
      </trkpt>
      <trkpt lat="43.56289" lon="3.32978">
        <ele>210.9</ele>
        <time>2017-11-01T12:22:57Z</time>
      </trkpt>
      <trkpt lat="43.56283" lon="3.32972">
        <ele>210.5</ele>
        <time>2017-11-01T12:22:59Z</time>
      </trkpt>
      <trkpt lat="43.56275" lon="3.3297">
        <ele>210.4</ele>
        <time>2017-11-01T12:23:01Z</time>
      </trkpt>
      <trkpt lat="43.56267" lon="3.32967">
        <ele>210.3</ele>
        <time>2017-11-01T12:23:03Z</time>
      </trkpt>
      <trkpt lat="43.56262" lon="3.32956">
        <ele>210.4</ele>
        <time>2017-11-01T12:23:06Z</time>
      </trkpt>
      <trkpt lat="43.56263" lon="3.32944">
        <ele>210.3</ele>
        <time>2017-11-01T12:23:09Z</time>
      </trkpt>
      <trkpt lat="43.56265" lon="3.32932">
        <ele>210.3</ele>
        <time>2017-11-01T12:23:12Z</time>
      </trkpt>
      <trkpt lat="43.56265" lon="3.3292">
        <ele>210.2</ele>
        <time>2017-11-01T12:23:15Z</time>
      </trkpt>
      <trkpt lat="43.56265" lon="3.32908">
        <ele>210.2</ele>
        <time>2017-11-01T12:23:18Z</time>
      </trkpt>
      <trkpt lat="43.56265" lon="3.32896">
        <ele>210.2</ele>
        <time>2017-11-01T12:23:21Z</time>
      </trkpt>
      <trkpt lat="43.56263" lon="3.32883">
        <ele>210.3</ele>
        <time>2017-11-01T12:23:24Z</time>
      </trkpt>
      <trkpt lat="43.56262" lon="3.32873">
        <ele>210.5</ele>
        <time>2017-11-01T12:23:27Z</time>
      </trkpt>
      <trkpt lat="43.56261" lon="3.32861">
        <ele>210.7</ele>
        <time>2017-11-01T12:23:30Z</time>
      </trkpt>
      <trkpt lat="43.56262" lon="3.32849">
        <ele>210.9</ele>
        <time>2017-11-01T12:23:33Z</time>
      </trkpt>
      <trkpt lat="43.56263" lon="3.32837">
        <ele>211.2</ele>
        <time>2017-11-01T12:23:36Z</time>
      </trkpt>
      <trkpt lat="43.56263" lon="3.32824">
        <ele>211.5</ele>
        <time>2017-11-01T12:23:39Z</time>
      </trkpt>
      <trkpt lat="43.56263" lon="3.32812">
        <ele>211.8</ele>
        <time>2017-11-01T12:23:42Z</time>
      </trkpt>
      <trkpt lat="43.56263" lon="3.328">
        <ele>212.1</ele>
        <time>2017-11-01T12:23:45Z</time>
      </trkpt>
      <trkpt lat="43.56268" lon="3.32791">
        <ele>212.3</ele>
        <time>2017-11-01T12:23:48Z</time>
      </trkpt>
      <trkpt lat="43.56274" lon="3.32783">
        <ele>212.6</ele>
        <time>2017-11-01T12:23:51Z</time>
      </trkpt>
      <trkpt lat="43.56278" lon="3.32772">
        <ele>212.9</ele>
        <time>2017-11-01T12:23:54Z</time>
      </trkpt>
      <trkpt lat="43.56279" lon="3.32759">
        <ele>213.3</ele>
        <time>2017-11-01T12:23:57Z</time>
      </trkpt>
      <trkpt lat="43.56277" lon="3.32746">
        <ele>213.7</ele>
        <time>2017-11-01T12:24:00Z</time>
      </trkpt>
      <trkpt lat="43.56275" lon="3.32735">
        <ele>214.1</ele>
        <time>2017-11-01T12:24:03Z</time>
      </trkpt>
      <trkpt lat="43.56275" lon="3.32723">
        <ele>214.5</ele>
        <time>2017-11-01T12:24:06Z</time>
      </trkpt>
      <trkpt lat="43.56275" lon="3.32711">
        <ele>215</ele>
        <time>2017-11-01T12:24:09Z</time>
      </trkpt>
      <trkpt lat="43.56274" lon="3.32699">
        <ele>215.5</ele>
        <time>2017-11-01T12:24:12Z</time>
      </trkpt>
      <trkpt lat="43.56274" lon="3.32689">
        <ele>216</ele>
        <time>2017-11-01T12:24:15Z</time>
      </trkpt>
      <trkpt lat="43.56274" lon="3.32678">
        <ele>216.6</ele>
        <time>2017-11-01T12:24:18Z</time>
      </trkpt>
      <trkpt lat="43.56273" lon="3.32665">
        <ele>217.1</ele>
        <time>2017-11-01T12:24:21Z</time>
      </trkpt>
      <trkpt lat="43.56272" lon="3.32653">
        <ele>217.6</ele>
        <time>2017-11-01T12:24:24Z</time>
      </trkpt>
      <trkpt lat="43.56272" lon="3.32642">
        <ele>218.2</ele>
        <time>2017-11-01T12:24:27Z</time>
      </trkpt>
      <trkpt lat="43.56272" lon="3.3263">
        <ele>218.7</ele>
        <time>2017-11-01T12:24:30Z</time>
      </trkpt>
      <trkpt lat="43.56272" lon="3.32618">
        <ele>219.3</ele>
        <time>2017-11-01T12:24:33Z</time>
      </trkpt>
      <trkpt lat="43.56271" lon="3.32608">
        <ele>219.8</ele>
        <time>2017-11-01T12:24:36Z</time>
      </trkpt>
      <trkpt lat="43.56271" lon="3.32597">
        <ele>220.4</ele>
        <time>2017-11-01T12:24:39Z</time>
      </trkpt>
      <trkpt lat="43.5627" lon="3.32585">
        <ele>220.9</ele>
        <time>2017-11-01T12:24:42Z</time>
      </trkpt>
      <trkpt lat="43.56268" lon="3.32573">
        <ele>221.4</ele>
        <time>2017-11-01T12:24:45Z</time>
      </trkpt>
      <trkpt lat="43.56266" lon="3.32563">
        <ele>221.9</ele>
        <time>2017-11-01T12:24:48Z</time>
      </trkpt>
      <trkpt lat="43.56265" lon="3.32553">
        <ele>222.4</ele>
        <time>2017-11-01T12:24:51Z</time>
      </trkpt>
      <trkpt lat="43.56266" lon="3.3254">
        <ele>222.9</ele>
        <time>2017-11-01T12:24:54Z</time>
      </trkpt>
      <trkpt lat="43.56267" lon="3.32526">
        <ele>223.3</ele>
        <time>2017-11-01T12:24:57Z</time>
      </trkpt>
      <trkpt lat="43.56267" lon="3.32515">
        <ele>223.8</ele>
        <time>2017-11-01T12:25:00Z</time>
      </trkpt>
      <trkpt lat="43.56267" lon="3.32504">
        <ele>224.2</ele>
        <time>2017-11-01T12:25:03Z</time>
      </trkpt>
      <trkpt lat="43.56268" lon="3.32492">
        <ele>224.6</ele>
        <time>2017-11-01T12:25:06Z</time>
      </trkpt>
      <trkpt lat="43.5627" lon="3.32479">
        <ele>225.1</ele>
        <time>2017-11-01T12:25:10Z</time>
      </trkpt>
      <trkpt lat="43.56268" lon="3.32466">
        <ele>225.5</ele>
        <time>2017-11-01T12:25:13Z</time>
      </trkpt>
      <trkpt lat="43.5627" lon="3.32454">
        <ele>225.8</ele>
        <time>2017-11-01T12:25:16Z</time>
      </trkpt>
      <trkpt lat="43.56271" lon="3.32443">
        <ele>226.1</ele>
        <time>2017-11-01T12:25:19Z</time>
      </trkpt>
      <trkpt lat="43.56273" lon="3.32433">
        <ele>226.4</ele>
        <time>2017-11-01T12:25:22Z</time>
      </trkpt>
      <trkpt lat="43.56275" lon="3.32421">
        <ele>226.7</ele>
        <time>2017-11-01T12:25:25Z</time>
      </trkpt>
      <trkpt lat="43.56277" lon="3.32409">
        <ele>227.1</ele>
        <time>2017-11-01T12:25:28Z</time>
      </trkpt>
      <trkpt lat="43.5628" lon="3.32398">
        <ele>227.4</ele>
        <time>2017-11-01T12:25:31Z</time>
      </trkpt>
      <trkpt lat="43.56281" lon="3.32387">
        <ele>227.7</ele>
        <time>2017-11-01T12:25:34Z</time>
      </trkpt>
      <trkpt lat="43.56283" lon="3.32376">
        <ele>228.1</ele>
        <time>2017-11-01T12:25:37Z</time>
      </trkpt>
      <trkpt lat="43.56282" lon="3.32365">
        <ele>228.5</ele>
        <time>2017-11-01T12:25:41Z</time>
      </trkpt>
      <trkpt lat="43.56282" lon="3.32354">
        <ele>228.9</ele>
        <time>2017-11-01T12:25:45Z</time>
      </trkpt>
      <trkpt lat="43.56284" lon="3.32344">
        <ele>229.1</ele>
        <time>2017-11-01T12:25:48Z</time>
      </trkpt>
      <trkpt lat="43.5629" lon="3.32332">
        <ele>230</ele>
        <time>2017-11-01T12:25:51Z</time>
      </trkpt>
      <trkpt lat="43.56294" lon="3.32324">
        <ele>230.4</ele>
        <time>2017-11-01T12:25:53Z</time>
      </trkpt>
      <trkpt lat="43.563" lon="3.32312">
        <ele>231</ele>
        <time>2017-11-01T12:25:55Z</time>
      </trkpt>
      <trkpt lat="43.56304" lon="3.32297">
        <ele>231.6</ele>
        <time>2017-11-01T12:25:57Z</time>
      </trkpt>
      <trkpt lat="43.56309" lon="3.32285">
        <ele>232</ele>
        <time>2017-11-01T12:25:59Z</time>
      </trkpt>
      <trkpt lat="43.56313" lon="3.32274">
        <ele>232.5</ele>
        <time>2017-11-01T12:26:01Z</time>
      </trkpt>
      <trkpt lat="43.56318" lon="3.32262">
        <ele>232.8</ele>
        <time>2017-11-01T12:26:03Z</time>
      </trkpt>
      <trkpt lat="43.56321" lon="3.32251">
        <ele>232.6</ele>
        <time>2017-11-01T12:26:05Z</time>
      </trkpt>
      <trkpt lat="43.56321" lon="3.3224">
        <ele>232.5</ele>
        <time>2017-11-01T12:26:09Z</time>
      </trkpt>
      <trkpt lat="43.56317" lon="3.32231">
        <ele>232.4</ele>
        <time>2017-11-01T12:26:12Z</time>
      </trkpt>
      <trkpt lat="43.56309" lon="3.32224">
        <ele>232.3</ele>
        <time>2017-11-01T12:26:15Z</time>
      </trkpt>
      <trkpt lat="43.56303" lon="3.3222">
        <ele>232.2</ele>
        <time>2017-11-01T12:26:19Z</time>
      </trkpt>
      <trkpt lat="43.56298" lon="3.32212">
        <ele>232.1</ele>
        <time>2017-11-01T12:26:25Z</time>
      </trkpt>
      <trkpt lat="43.56291" lon="3.32205">
        <ele>232.1</ele>
        <time>2017-11-01T12:26:29Z</time>
      </trkpt>
      <trkpt lat="43.56286" lon="3.32197">
        <ele>232.1</ele>
        <time>2017-11-01T12:26:33Z</time>
      </trkpt>
      <trkpt lat="43.56283" lon="3.32188">
        <ele>232.2</ele>
        <time>2017-11-01T12:26:37Z</time>
      </trkpt>
      <trkpt lat="43.56283" lon="3.32178">
        <ele>232.2</ele>
        <time>2017-11-01T12:26:40Z</time>
      </trkpt>
      <trkpt lat="43.56283" lon="3.32163">
        <ele>232.3</ele>
        <time>2017-11-01T12:26:43Z</time>
      </trkpt>
      <trkpt lat="43.56281" lon="3.32151">
        <ele>232.4</ele>
        <time>2017-11-01T12:26:46Z</time>
      </trkpt>
      <trkpt lat="43.56278" lon="3.3214">
        <ele>232.6</ele>
        <time>2017-11-01T12:26:50Z</time>
      </trkpt>
      <trkpt lat="43.56279" lon="3.32129">
        <ele>232.9</ele>
        <time>2017-11-01T12:26:54Z</time>
      </trkpt>
      <trkpt lat="43.56279" lon="3.32118">
        <ele>233.4</ele>
        <time>2017-11-01T12:26:58Z</time>
      </trkpt>
      <trkpt lat="43.56277" lon="3.32108">
        <ele>233.8</ele>
        <time>2017-11-01T12:27:02Z</time>
      </trkpt>
      <trkpt lat="43.5627" lon="3.32098">
        <ele>234.3</ele>
        <time>2017-11-01T12:27:06Z</time>
      </trkpt>
      <trkpt lat="43.56264" lon="3.32092">
        <ele>234.8</ele>
        <time>2017-11-01T12:27:09Z</time>
      </trkpt>
      <trkpt lat="43.56258" lon="3.32084">
        <ele>235.4</ele>
        <time>2017-11-01T12:27:13Z</time>
      </trkpt>
      <trkpt lat="43.56251" lon="3.32079">
        <ele>236.3</ele>
        <time>2017-11-01T12:27:19Z</time>
      </trkpt>
      <trkpt lat="43.56242" lon="3.32078">
        <ele>237.3</ele>
        <time>2017-11-01T12:27:24Z</time>
      </trkpt>
      <trkpt lat="43.56237" lon="3.32068">
        <ele>238</ele>
        <time>2017-11-01T12:27:28Z</time>
      </trkpt>
      <trkpt lat="43.5623" lon="3.32062">
        <ele>238.8</ele>
        <time>2017-11-01T12:27:33Z</time>
      </trkpt>
      <trkpt lat="43.56225" lon="3.32053">
        <ele>239.9</ele>
        <time>2017-11-01T12:27:38Z</time>
      </trkpt>
      <trkpt lat="43.56215" lon="3.32049">
        <ele>241.1</ele>
        <time>2017-11-01T12:27:44Z</time>
      </trkpt>
      <trkpt lat="43.56211" lon="3.32041">
        <ele>242.1</ele>
        <time>2017-11-01T12:27:49Z</time>
      </trkpt>
      <trkpt lat="43.56214" lon="3.32032">
        <ele>243.2</ele>
        <time>2017-11-01T12:27:55Z</time>
      </trkpt>
      <trkpt lat="43.56217" lon="3.32021">
        <ele>243.8</ele>
        <time>2017-11-01T12:27:59Z</time>
      </trkpt>
      <trkpt lat="43.56211" lon="3.32012">
        <ele>244.4</ele>
        <time>2017-11-01T12:28:05Z</time>
      </trkpt>
      <trkpt lat="43.56207" lon="3.32001">
        <ele>244.9</ele>
        <time>2017-11-01T12:28:11Z</time>
      </trkpt>
      <trkpt lat="43.56202" lon="3.31994">
        <ele>245.3</ele>
        <time>2017-11-01T12:28:16Z</time>
      </trkpt>
      <trkpt lat="43.56197" lon="3.31986">
        <ele>245.7</ele>
        <time>2017-11-01T12:28:21Z</time>
      </trkpt>
      <trkpt lat="43.56192" lon="3.31978">
        <ele>246.3</ele>
        <time>2017-11-01T12:28:28Z</time>
      </trkpt>
      <trkpt lat="43.5619" lon="3.31977">
        <ele>247.1</ele>
        <time>2017-11-01T12:28:35Z</time>
      </trkpt>
      <trkpt lat="43.56186" lon="3.3197">
        <ele>248.1</ele>
        <time>2017-11-01T12:28:42Z</time>
      </trkpt>
      <trkpt lat="43.56184" lon="3.31969">
        <ele>248.6</ele>
        <time>2017-11-01T12:28:49Z</time>
      </trkpt>
      <trkpt lat="43.56177" lon="3.31961">
        <ele>249.5</ele>
        <time>2017-11-01T12:28:54Z</time>
      </trkpt>
      <trkpt lat="43.5617" lon="3.31954">
        <ele>250.2</ele>
        <time>2017-11-01T12:28:59Z</time>
      </trkpt>
      <trkpt lat="43.56173" lon="3.31943">
        <ele>251</ele>
        <time>2017-11-01T12:29:03Z</time>
      </trkpt>
      <trkpt lat="43.56175" lon="3.31933">
        <ele>252.3</ele>
        <time>2017-11-01T12:29:09Z</time>
      </trkpt>
      <trkpt lat="43.56167" lon="3.31936">
        <ele>253.5</ele>
        <time>2017-11-01T12:29:16Z</time>
      </trkpt>
      <trkpt lat="43.56164" lon="3.31928">
        <ele>254.4</ele>
        <time>2017-11-01T12:29:23Z</time>
      </trkpt>
      <trkpt lat="43.56163" lon="3.3192">
        <ele>255.1</ele>
        <time>2017-11-01T12:29:30Z</time>
      </trkpt>
      <trkpt lat="43.5616" lon="3.31912">
        <ele>256.1</ele>
        <time>2017-11-01T12:29:37Z</time>
      </trkpt>
      <trkpt lat="43.56156" lon="3.31906">
        <ele>257</ele>
        <time>2017-11-01T12:29:44Z</time>
      </trkpt>
      <trkpt lat="43.56154" lon="3.31907">
        <ele>257.9</ele>
        <time>2017-11-01T12:29:51Z</time>
      </trkpt>
      <trkpt lat="43.56152" lon="3.31898">
        <ele>258.7</ele>
        <time>2017-11-01T12:29:57Z</time>
      </trkpt>
      <trkpt lat="43.56146" lon="3.31888">
        <ele>259.3</ele>
        <time>2017-11-01T12:30:02Z</time>
      </trkpt>
      <trkpt lat="43.56145" lon="3.31885">
        <ele>259.8</ele>
        <time>2017-11-01T12:30:09Z</time>
      </trkpt>
      <trkpt lat="43.56136" lon="3.31873">
        <ele>262.2</ele>
        <time>2017-11-01T12:30:23Z</time>
      </trkpt>
      <trkpt lat="43.56135" lon="3.31872">
        <ele>262.9</ele>
        <time>2017-11-01T12:30:30Z</time>
      </trkpt>
      <trkpt lat="43.56132" lon="3.31861">
        <ele>264</ele>
        <time>2017-11-01T12:30:36Z</time>
      </trkpt>
      <trkpt lat="43.56127" lon="3.31853">
        <ele>264.9</ele>
        <time>2017-11-01T12:30:41Z</time>
      </trkpt>
      <trkpt lat="43.5612" lon="3.31847">
        <ele>265.6</ele>
        <time>2017-11-01T12:30:46Z</time>
      </trkpt>
      <trkpt lat="43.56114" lon="3.31839">
        <ele>266.3</ele>
        <time>2017-11-01T12:30:51Z</time>
      </trkpt>
      <trkpt lat="43.56108" lon="3.31831">
        <ele>267.3</ele>
        <time>2017-11-01T12:30:56Z</time>
      </trkpt>
      <trkpt lat="43.56101" lon="3.31826">
        <ele>268.2</ele>
        <time>2017-11-01T12:31:01Z</time>
      </trkpt>
      <trkpt lat="43.56096" lon="3.31817">
        <ele>269.2</ele>
        <time>2017-11-01T12:31:06Z</time>
      </trkpt>
      <trkpt lat="43.56094" lon="3.31807">
        <ele>270.1</ele>
        <time>2017-11-01T12:31:11Z</time>
      </trkpt>
      <trkpt lat="43.56089" lon="3.31796">
        <ele>271</ele>
        <time>2017-11-01T12:31:16Z</time>
      </trkpt>
      <trkpt lat="43.56084" lon="3.31785">
        <ele>271.5</ele>
        <time>2017-11-01T12:31:19Z</time>
      </trkpt>
      <trkpt lat="43.56077" lon="3.31776">
        <ele>272.2</ele>
        <time>2017-11-01T12:31:23Z</time>
      </trkpt>
      <trkpt lat="43.56075" lon="3.31765">
        <ele>273.1</ele>
        <time>2017-11-01T12:31:29Z</time>
      </trkpt>
      <trkpt lat="43.56067" lon="3.31759">
        <ele>273.7</ele>
        <time>2017-11-01T12:31:33Z</time>
      </trkpt>
      <trkpt lat="43.56061" lon="3.31752">
        <ele>274.6</ele>
        <time>2017-11-01T12:31:38Z</time>
      </trkpt>
      <trkpt lat="43.56054" lon="3.31745">
        <ele>275.6</ele>
        <time>2017-11-01T12:31:43Z</time>
      </trkpt>
      <trkpt lat="43.56046" lon="3.31742">
        <ele>276.3</ele>
        <time>2017-11-01T12:31:47Z</time>
      </trkpt>
      <trkpt lat="43.56038" lon="3.31739">
        <ele>277.2</ele>
        <time>2017-11-01T12:31:52Z</time>
      </trkpt>
      <trkpt lat="43.5603" lon="3.31736">
        <ele>278.1</ele>
        <time>2017-11-01T12:31:58Z</time>
      </trkpt>
      <trkpt lat="43.56025" lon="3.3173">
        <ele>279</ele>
        <time>2017-11-01T12:32:05Z</time>
      </trkpt>
      <trkpt lat="43.5602" lon="3.31724">
        <ele>280.2</ele>
        <time>2017-11-01T12:32:12Z</time>
      </trkpt>
      <trkpt lat="43.56016" lon="3.31718">
        <ele>281.3</ele>
        <time>2017-11-01T12:32:19Z</time>
      </trkpt>
      <trkpt lat="43.56011" lon="3.31707">
        <ele>281.8</ele>
        <time>2017-11-01T12:32:24Z</time>
      </trkpt>
      <trkpt lat="43.56008" lon="3.31696">
        <ele>282.3</ele>
        <time>2017-11-01T12:32:29Z</time>
      </trkpt>
      <trkpt lat="43.56004" lon="3.31685">
        <ele>283</ele>
        <time>2017-11-01T12:32:34Z</time>
      </trkpt>
      <trkpt lat="43.56" lon="3.31676">
        <ele>283.6</ele>
        <time>2017-11-01T12:32:38Z</time>
      </trkpt>
      <trkpt lat="43.56001" lon="3.31665">
        <ele>284.2</ele>
        <time>2017-11-01T12:32:43Z</time>
      </trkpt>
      <trkpt lat="43.56004" lon="3.31656">
        <ele>284.9</ele>
        <time>2017-11-01T12:32:48Z</time>
      </trkpt>
      <trkpt lat="43.56006" lon="3.31646">
        <ele>285.7</ele>
        <time>2017-11-01T12:32:54Z</time>
      </trkpt>
      <trkpt lat="43.56007" lon="3.31636">
        <ele>286.4</ele>
        <time>2017-11-01T12:32:58Z</time>
      </trkpt>
      <trkpt lat="43.56002" lon="3.31626">
        <ele>287.4</ele>
        <time>2017-11-01T12:33:05Z</time>
      </trkpt>
      <trkpt lat="43.56004" lon="3.31616">
        <ele>288</ele>
        <time>2017-11-01T12:33:08Z</time>
      </trkpt>
      <trkpt lat="43.5601" lon="3.3161">
        <ele>288.4</ele>
        <time>2017-11-01T12:33:10Z</time>
      </trkpt>
      <trkpt lat="43.56014" lon="3.31599">
        <ele>288.6</ele>
        <time>2017-11-01T12:33:12Z</time>
      </trkpt>
      <trkpt lat="43.56016" lon="3.31588">
        <ele>288.9</ele>
        <time>2017-11-01T12:33:17Z</time>
      </trkpt>
      <trkpt lat="43.56016" lon="3.31576">
        <ele>289.2</ele>
        <time>2017-11-01T12:33:22Z</time>
      </trkpt>
      <trkpt lat="43.56016" lon="3.31565">
        <ele>289.4</ele>
        <time>2017-11-01T12:33:26Z</time>
      </trkpt>
      <trkpt lat="43.56017" lon="3.31555">
        <ele>290</ele>
        <time>2017-11-01T12:33:31Z</time>
      </trkpt>
      <trkpt lat="43.56019" lon="3.31542">
        <ele>290.7</ele>
        <time>2017-11-01T12:33:37Z</time>
      </trkpt>
      <trkpt lat="43.56023" lon="3.3153">
        <ele>291.1</ele>
        <time>2017-11-01T12:33:40Z</time>
      </trkpt>
      <trkpt lat="43.56028" lon="3.31515">
        <ele>291.4</ele>
        <time>2017-11-01T12:33:43Z</time>
      </trkpt>
      <trkpt lat="43.56032" lon="3.31507">
        <ele>291.7</ele>
        <time>2017-11-01T12:33:46Z</time>
      </trkpt>
      <trkpt lat="43.56039" lon="3.31498">
        <ele>291.9</ele>
        <time>2017-11-01T12:33:49Z</time>
      </trkpt>
      <trkpt lat="43.56043" lon="3.31487">
        <ele>292.3</ele>
        <time>2017-11-01T12:33:52Z</time>
      </trkpt>
      <trkpt lat="43.56045" lon="3.31475">
        <ele>292.6</ele>
        <time>2017-11-01T12:33:56Z</time>
      </trkpt>
      <trkpt lat="43.56045" lon="3.31464">
        <ele>292.9</ele>
        <time>2017-11-01T12:33:59Z</time>
      </trkpt>
      <trkpt lat="43.56044" lon="3.31452">
        <ele>293.4</ele>
        <time>2017-11-01T12:34:03Z</time>
      </trkpt>
      <trkpt lat="43.56046" lon="3.31441">
        <ele>294</ele>
        <time>2017-11-01T12:34:07Z</time>
      </trkpt>
      <trkpt lat="43.56044" lon="3.31428">
        <ele>294.8</ele>
        <time>2017-11-01T12:34:12Z</time>
      </trkpt>
      <trkpt lat="43.56046" lon="3.31417">
        <ele>295.2</ele>
        <time>2017-11-01T12:34:15Z</time>
      </trkpt>
      <trkpt lat="43.56048" lon="3.31407">
        <ele>295.8</ele>
        <time>2017-11-01T12:34:19Z</time>
      </trkpt>
      <trkpt lat="43.56049" lon="3.31397">
        <ele>296.2</ele>
        <time>2017-11-01T12:34:23Z</time>
      </trkpt>
      <trkpt lat="43.5605" lon="3.31383">
        <ele>296.6</ele>
        <time>2017-11-01T12:34:27Z</time>
      </trkpt>
      <trkpt lat="43.56052" lon="3.31372">
        <ele>296.8</ele>
        <time>2017-11-01T12:34:30Z</time>
      </trkpt>
      <trkpt lat="43.56053" lon="3.31363">
        <ele>297.2</ele>
        <time>2017-11-01T12:34:33Z</time>
      </trkpt>
      <trkpt lat="43.56054" lon="3.31351">
        <ele>298.1</ele>
        <time>2017-11-01T12:34:38Z</time>
      </trkpt>
      <trkpt lat="43.56055" lon="3.31339">
        <ele>299.1</ele>
        <time>2017-11-01T12:34:42Z</time>
      </trkpt>
      <trkpt lat="43.56056" lon="3.31326">
        <ele>299.9</ele>
        <time>2017-11-01T12:34:46Z</time>
      </trkpt>
      <trkpt lat="43.56055" lon="3.31316">
        <ele>300.8</ele>
        <time>2017-11-01T12:34:51Z</time>
      </trkpt>
      <trkpt lat="43.56054" lon="3.31304">
        <ele>301.2</ele>
        <time>2017-11-01T12:34:54Z</time>
      </trkpt>
      <trkpt lat="43.56053" lon="3.31291">
        <ele>301.8</ele>
        <time>2017-11-01T12:35:00Z</time>
      </trkpt>
      <trkpt lat="43.56054" lon="3.3128">
        <ele>301.9</ele>
        <time>2017-11-01T12:35:03Z</time>
      </trkpt>
      <trkpt lat="43.56051" lon="3.3127">
        <ele>302</ele>
        <time>2017-11-01T12:35:07Z</time>
      </trkpt>
      <trkpt lat="43.56047" lon="3.31262">
        <ele>302</ele>
        <time>2017-11-01T12:35:11Z</time>
      </trkpt>
      <trkpt lat="43.5604" lon="3.3125">
        <ele>302.2</ele>
        <time>2017-11-01T12:35:16Z</time>
      </trkpt>
      <trkpt lat="43.56037" lon="3.31242">
        <ele>302.3</ele>
        <time>2017-11-01T12:35:19Z</time>
      </trkpt>
      <trkpt lat="43.56033" lon="3.31231">
        <ele>302.4</ele>
        <time>2017-11-01T12:35:24Z</time>
      </trkpt>
      <trkpt lat="43.5603" lon="3.31223">
        <ele>302.5</ele>
        <time>2017-11-01T12:35:27Z</time>
      </trkpt>
      <trkpt lat="43.56024" lon="3.31215">
        <ele>302.9</ele>
        <time>2017-11-01T12:35:32Z</time>
      </trkpt>
      <trkpt lat="43.56019" lon="3.31208">
        <ele>303.5</ele>
        <time>2017-11-01T12:35:37Z</time>
      </trkpt>
      <trkpt lat="43.56015" lon="3.31197">
        <ele>304.1</ele>
        <time>2017-11-01T12:35:41Z</time>
      </trkpt>
      <trkpt lat="43.56014" lon="3.31185">
        <ele>304.6</ele>
        <time>2017-11-01T12:35:45Z</time>
      </trkpt>
      <trkpt lat="43.56017" lon="3.31174">
        <ele>304.9</ele>
        <time>2017-11-01T12:35:49Z</time>
      </trkpt>
      <trkpt lat="43.56018" lon="3.31163">
        <ele>305.2</ele>
        <time>2017-11-01T12:35:53Z</time>
      </trkpt>
      <trkpt lat="43.56016" lon="3.31152">
        <ele>306</ele>
        <time>2017-11-01T12:35:59Z</time>
      </trkpt>
      <trkpt lat="43.56014" lon="3.3114">
        <ele>306.7</ele>
        <time>2017-11-01T12:36:04Z</time>
      </trkpt>
      <trkpt lat="43.56011" lon="3.31131">
        <ele>307.2</ele>
        <time>2017-11-01T12:36:08Z</time>
      </trkpt>
      <trkpt lat="43.5601" lon="3.31119">
        <ele>307.8</ele>
        <time>2017-11-01T12:36:12Z</time>
      </trkpt>
      <trkpt lat="43.56007" lon="3.31109">
        <ele>308.1</ele>
        <time>2017-11-01T12:36:16Z</time>
      </trkpt>
      <trkpt lat="43.56004" lon="3.31099">
        <ele>308.5</ele>
        <time>2017-11-01T12:36:21Z</time>
      </trkpt>
      <trkpt lat="43.56002" lon="3.31089">
        <ele>309.4</ele>
        <time>2017-11-01T12:36:27Z</time>
      </trkpt>
      <trkpt lat="43.55999" lon="3.31081">
        <ele>310.8</ele>
        <time>2017-11-01T12:36:34Z</time>
      </trkpt>
      <trkpt lat="43.55995" lon="3.31074">
        <ele>312.1</ele>
        <time>2017-11-01T12:36:41Z</time>
      </trkpt>
      <trkpt lat="43.55993" lon="3.31065">
        <ele>313.4</ele>
        <time>2017-11-01T12:36:48Z</time>
      </trkpt>
      <trkpt lat="43.55992" lon="3.3106">
        <ele>314.6</ele>
        <time>2017-11-01T12:36:55Z</time>
      </trkpt>
      <trkpt lat="43.55993" lon="3.31054">
        <ele>315.3</ele>
        <time>2017-11-01T12:37:02Z</time>
      </trkpt>
      <trkpt lat="43.55995" lon="3.31045">
        <ele>316.8</ele>
        <time>2017-11-01T12:37:11Z</time>
      </trkpt>
      <trkpt lat="43.56004" lon="3.31043">
        <ele>317.6</ele>
        <time>2017-11-01T12:37:16Z</time>
      </trkpt>
      <trkpt lat="43.56012" lon="3.31044">
        <ele>318.2</ele>
        <time>2017-11-01T12:37:19Z</time>
      </trkpt>
      <trkpt lat="43.56021" lon="3.31048">
        <ele>319</ele>
        <time>2017-11-01T12:37:23Z</time>
      </trkpt>
      <trkpt lat="43.56029" lon="3.31048">
        <ele>319.8</ele>
        <time>2017-11-01T12:37:27Z</time>
      </trkpt>
      <trkpt lat="43.56038" lon="3.31048">
        <ele>320.3</ele>
        <time>2017-11-01T12:37:31Z</time>
      </trkpt>
      <trkpt lat="43.56049" lon="3.31046">
        <ele>320.7</ele>
        <time>2017-11-01T12:37:35Z</time>
      </trkpt>
      <trkpt lat="43.56056" lon="3.31043">
        <ele>321</ele>
        <time>2017-11-01T12:37:37Z</time>
      </trkpt>
      <trkpt lat="43.56064" lon="3.31038">
        <ele>321</ele>
        <time>2017-11-01T12:37:39Z</time>
      </trkpt>
      <trkpt lat="43.56073" lon="3.31033">
        <ele>320.9</ele>
        <time>2017-11-01T12:37:41Z</time>
      </trkpt>
      <trkpt lat="43.56083" lon="3.31029">
        <ele>320.7</ele>
        <time>2017-11-01T12:37:43Z</time>
      </trkpt>
      <trkpt lat="43.56096" lon="3.31027">
        <ele>319.9</ele>
        <time>2017-11-01T12:37:45Z</time>
      </trkpt>
      <trkpt lat="43.56108" lon="3.31029">
        <ele>319.9</ele>
        <time>2017-11-01T12:37:47Z</time>
      </trkpt>
      <trkpt lat="43.56116" lon="3.31029">
        <ele>319.6</ele>
        <time>2017-11-01T12:37:48Z</time>
      </trkpt>
      <trkpt lat="43.56127" lon="3.31024">
        <ele>319.5</ele>
        <time>2017-11-01T12:37:50Z</time>
      </trkpt>
      <trkpt lat="43.56134" lon="3.31029">
        <ele>319.6</ele>
        <time>2017-11-01T12:37:53Z</time>
      </trkpt>
      <trkpt lat="43.56137" lon="3.31039">
        <ele>319.9</ele>
        <time>2017-11-01T12:37:58Z</time>
      </trkpt>
      <trkpt lat="43.56141" lon="3.3105">
        <ele>320.2</ele>
        <time>2017-11-01T12:38:04Z</time>
      </trkpt>
      <trkpt lat="43.56146" lon="3.31058">
        <ele>320.4</ele>
        <time>2017-11-01T12:38:08Z</time>
      </trkpt>
      <trkpt lat="43.56151" lon="3.31065">
        <ele>320.5</ele>
        <time>2017-11-01T12:38:12Z</time>
      </trkpt>
      <trkpt lat="43.56156" lon="3.31074">
        <ele>320.4</ele>
        <time>2017-11-01T12:38:16Z</time>
      </trkpt>
      <trkpt lat="43.5616" lon="3.31085">
        <ele>320.4</ele>
        <time>2017-11-01T12:38:20Z</time>
      </trkpt>
      <trkpt lat="43.56165" lon="3.31093">
        <ele>320.5</ele>
        <time>2017-11-01T12:38:24Z</time>
      </trkpt>
      <trkpt lat="43.5617" lon="3.311">
        <ele>320.5</ele>
        <time>2017-11-01T12:38:27Z</time>
      </trkpt>
      <trkpt lat="43.56174" lon="3.31109">
        <ele>320.6</ele>
        <time>2017-11-01T12:38:31Z</time>
      </trkpt>
      <trkpt lat="43.5618" lon="3.31119">
        <ele>320.9</ele>
        <time>2017-11-01T12:38:35Z</time>
      </trkpt>
      <trkpt lat="43.56186" lon="3.31127">
        <ele>321.2</ele>
        <time>2017-11-01T12:38:39Z</time>
      </trkpt>
      <trkpt lat="43.56191" lon="3.31137">
        <ele>321.1</ele>
        <time>2017-11-01T12:38:43Z</time>
      </trkpt>
      <trkpt lat="43.56196" lon="3.31147">
        <ele>320.9</ele>
        <time>2017-11-01T12:38:48Z</time>
      </trkpt>
      <trkpt lat="43.56199" lon="3.31156">
        <ele>320.7</ele>
        <time>2017-11-01T12:38:51Z</time>
      </trkpt>
      <trkpt lat="43.56204" lon="3.31165">
        <ele>320.5</ele>
        <time>2017-11-01T12:38:55Z</time>
      </trkpt>
      <trkpt lat="43.56211" lon="3.31172">
        <ele>320.5</ele>
        <time>2017-11-01T12:38:59Z</time>
      </trkpt>
      <trkpt lat="43.56218" lon="3.31179">
        <ele>320.7</ele>
        <time>2017-11-01T12:39:03Z</time>
      </trkpt>
      <trkpt lat="43.56226" lon="3.31186">
        <ele>321.3</ele>
        <time>2017-11-01T12:39:07Z</time>
      </trkpt>
      <trkpt lat="43.5623" lon="3.3119">
        <ele>322.1</ele>
        <time>2017-11-01T12:39:14Z</time>
      </trkpt>
      <trkpt lat="43.56233" lon="3.31193">
        <ele>322.5</ele>
        <time>2017-11-01T12:39:21Z</time>
      </trkpt>
      <trkpt lat="43.56237" lon="3.31206">
        <ele>324.3</ele>
        <time>2017-11-01T12:39:57Z</time>
      </trkpt>
      <trkpt lat="43.56242" lon="3.31215">
        <ele>325.2</ele>
        <time>2017-11-01T12:40:02Z</time>
      </trkpt>
      <trkpt lat="43.56247" lon="3.31222">
        <ele>325.8</ele>
        <time>2017-11-01T12:40:06Z</time>
      </trkpt>
      <trkpt lat="43.56255" lon="3.31229">
        <ele>326.5</ele>
        <time>2017-11-01T12:40:11Z</time>
      </trkpt>
      <trkpt lat="43.56262" lon="3.31236">
        <ele>326.9</ele>
        <time>2017-11-01T12:40:15Z</time>
      </trkpt>
      <trkpt lat="43.56267" lon="3.31243">
        <ele>327.5</ele>
        <time>2017-11-01T12:40:19Z</time>
      </trkpt>
      <trkpt lat="43.56273" lon="3.3125">
        <ele>328</ele>
        <time>2017-11-01T12:40:23Z</time>
      </trkpt>
      <trkpt lat="43.56279" lon="3.31258">
        <ele>328.6</ele>
        <time>2017-11-01T12:40:28Z</time>
      </trkpt>
      <trkpt lat="43.56284" lon="3.31266">
        <ele>329.4</ele>
        <time>2017-11-01T12:40:33Z</time>
      </trkpt>
      <trkpt lat="43.56292" lon="3.31269">
        <ele>330</ele>
        <time>2017-11-01T12:40:38Z</time>
      </trkpt>
      <trkpt lat="43.563" lon="3.31273">
        <ele>330.4</ele>
        <time>2017-11-01T12:40:44Z</time>
      </trkpt>
      <trkpt lat="43.56306" lon="3.31277">
        <ele>331.2</ele>
        <time>2017-11-01T12:40:49Z</time>
      </trkpt>
      <trkpt lat="43.56313" lon="3.3128">
        <ele>332.1</ele>
        <time>2017-11-01T12:40:54Z</time>
      </trkpt>
      <trkpt lat="43.56322" lon="3.31283">
        <ele>332.7</ele>
        <time>2017-11-01T12:40:57Z</time>
      </trkpt>
      <trkpt lat="43.56329" lon="3.3129">
        <ele>335.2</ele>
        <time>2017-11-01T12:40:59Z</time>
      </trkpt>
      <trkpt lat="43.56339" lon="3.31302">
        <ele>337.9</ele>
        <time>2017-11-01T12:41:01Z</time>
      </trkpt>
      <trkpt lat="43.56348" lon="3.31314">
        <ele>338.3</ele>
        <time>2017-11-01T12:41:03Z</time>
      </trkpt>
      <trkpt lat="43.56355" lon="3.31322">
        <ele>338</ele>
        <time>2017-11-01T12:41:04Z</time>
      </trkpt>
      <trkpt lat="43.56367" lon="3.31333">
        <ele>336.5</ele>
        <time>2017-11-01T12:41:06Z</time>
      </trkpt>
      <trkpt lat="43.56375" lon="3.3134">
        <ele>335.2</ele>
        <time>2017-11-01T12:41:08Z</time>
      </trkpt>
      <trkpt lat="43.56384" lon="3.3135">
        <ele>334.3</ele>
        <time>2017-11-01T12:41:10Z</time>
      </trkpt>
      <trkpt lat="43.56393" lon="3.31359">
        <ele>334.3</ele>
        <time>2017-11-01T12:41:12Z</time>
      </trkpt>
      <trkpt lat="43.56403" lon="3.31365">
        <ele>334.5</ele>
        <time>2017-11-01T12:41:14Z</time>
      </trkpt>
      <trkpt lat="43.56412" lon="3.3137">
        <ele>334.4</ele>
        <time>2017-11-01T12:41:16Z</time>
      </trkpt>
      <trkpt lat="43.56419" lon="3.31371">
        <ele>334</ele>
        <time>2017-11-01T12:41:17Z</time>
      </trkpt>
      <trkpt lat="43.5643" lon="3.31371">
        <ele>333.7</ele>
        <time>2017-11-01T12:41:19Z</time>
      </trkpt>
      <trkpt lat="43.5644" lon="3.31375">
        <ele>333.6</ele>
        <time>2017-11-01T12:41:21Z</time>
      </trkpt>
      <trkpt lat="43.5645" lon="3.31379">
        <ele>333.2</ele>
        <time>2017-11-01T12:41:24Z</time>
      </trkpt>
      <trkpt lat="43.56458" lon="3.3138">
        <ele>333.2</ele>
        <time>2017-11-01T12:41:25Z</time>
      </trkpt>
      <trkpt lat="43.56465" lon="3.31382">
        <ele>333.7</ele>
        <time>2017-11-01T12:41:27Z</time>
      </trkpt>
      <trkpt lat="43.56475" lon="3.31383">
        <ele>333.8</ele>
        <time>2017-11-01T12:41:29Z</time>
      </trkpt>
      <trkpt lat="43.56484" lon="3.31386">
        <ele>333.8</ele>
        <time>2017-11-01T12:41:31Z</time>
      </trkpt>
      <trkpt lat="43.56493" lon="3.31387">
        <ele>333.8</ele>
        <time>2017-11-01T12:41:34Z</time>
      </trkpt>
      <trkpt lat="43.565" lon="3.3139">
        <ele>333.8</ele>
        <time>2017-11-01T12:41:36Z</time>
      </trkpt>
      <trkpt lat="43.56509" lon="3.31388">
        <ele>333.8</ele>
        <time>2017-11-01T12:41:38Z</time>
      </trkpt>
      <trkpt lat="43.56517" lon="3.31387">
        <ele>333.9</ele>
        <time>2017-11-01T12:41:40Z</time>
      </trkpt>
      <trkpt lat="43.56526" lon="3.31389">
        <ele>333.9</ele>
        <time>2017-11-01T12:41:43Z</time>
      </trkpt>
      <trkpt lat="43.56536" lon="3.31392">
        <ele>334</ele>
        <time>2017-11-01T12:41:46Z</time>
      </trkpt>
      <trkpt lat="43.56547" lon="3.31394">
        <ele>334.2</ele>
        <time>2017-11-01T12:41:49Z</time>
      </trkpt>
      <trkpt lat="43.56556" lon="3.31397">
        <ele>334.5</ele>
        <time>2017-11-01T12:41:52Z</time>
      </trkpt>
      <trkpt lat="43.56564" lon="3.31402">
        <ele>334.7</ele>
        <time>2017-11-01T12:41:55Z</time>
      </trkpt>
      <trkpt lat="43.56571" lon="3.31405">
        <ele>335</ele>
        <time>2017-11-01T12:41:59Z</time>
      </trkpt>
      <trkpt lat="43.56579" lon="3.31405">
        <ele>335.3</ele>
        <time>2017-11-01T12:42:03Z</time>
      </trkpt>
      <trkpt lat="43.56586" lon="3.31407">
        <ele>335.5</ele>
        <time>2017-11-01T12:42:07Z</time>
      </trkpt>
      <trkpt lat="43.56593" lon="3.31405">
        <ele>335.7</ele>
        <time>2017-11-01T12:42:11Z</time>
      </trkpt>
      <trkpt lat="43.56604" lon="3.31405">
        <ele>335.8</ele>
        <time>2017-11-01T12:42:15Z</time>
      </trkpt>
      <trkpt lat="43.56611" lon="3.31407">
        <ele>335.9</ele>
        <time>2017-11-01T12:42:18Z</time>
      </trkpt>
      <trkpt lat="43.56616" lon="3.31416">
        <ele>335.7</ele>
        <time>2017-11-01T12:42:23Z</time>
      </trkpt>
      <trkpt lat="43.56624" lon="3.31416">
        <ele>335.4</ele>
        <time>2017-11-01T12:42:27Z</time>
      </trkpt>
      <trkpt lat="43.56631" lon="3.31421">
        <ele>335.1</ele>
        <time>2017-11-01T12:42:31Z</time>
      </trkpt>
      <trkpt lat="43.5664" lon="3.31415">
        <ele>334.9</ele>
        <time>2017-11-01T12:42:36Z</time>
      </trkpt>
      <trkpt lat="43.56647" lon="3.3141">
        <ele>334.7</ele>
        <time>2017-11-01T12:42:41Z</time>
      </trkpt>
      <trkpt lat="43.56654" lon="3.31405">
        <ele>334.6</ele>
        <time>2017-11-01T12:42:46Z</time>
      </trkpt>
      <trkpt lat="43.56662" lon="3.31403">
        <ele>334.6</ele>
        <time>2017-11-01T12:42:52Z</time>
      </trkpt>
      <trkpt lat="43.56671" lon="3.31402">
        <ele>335.1</ele>
        <time>2017-11-01T12:42:57Z</time>
      </trkpt>
      <trkpt lat="43.56678" lon="3.314">
        <ele>335.5</ele>
        <time>2017-11-01T12:43:01Z</time>
      </trkpt>
      <trkpt lat="43.56687" lon="3.31398">
        <ele>336</ele>
        <time>2017-11-01T12:43:05Z</time>
      </trkpt>
      <trkpt lat="43.56695" lon="3.31398">
        <ele>336.4</ele>
        <time>2017-11-01T12:43:08Z</time>
      </trkpt>
      <trkpt lat="43.56702" lon="3.31399">
        <ele>336.8</ele>
        <time>2017-11-01T12:43:11Z</time>
      </trkpt>
      <trkpt lat="43.56711" lon="3.31403">
        <ele>337</ele>
        <time>2017-11-01T12:43:14Z</time>
      </trkpt>
      <trkpt lat="43.56718" lon="3.31404">
        <ele>337.2</ele>
        <time>2017-11-01T12:43:18Z</time>
      </trkpt>
      <trkpt lat="43.56727" lon="3.31406">
        <ele>337.4</ele>
        <time>2017-11-01T12:43:22Z</time>
      </trkpt>
      <trkpt lat="43.56735" lon="3.31409">
        <ele>337.5</ele>
        <time>2017-11-01T12:43:26Z</time>
      </trkpt>
      <trkpt lat="43.56745" lon="3.31412">
        <ele>337.5</ele>
        <time>2017-11-01T12:43:30Z</time>
      </trkpt>
      <trkpt lat="43.56753" lon="3.31414">
        <ele>337.7</ele>
        <time>2017-11-01T12:43:34Z</time>
      </trkpt>
      <trkpt lat="43.5676" lon="3.31409">
        <ele>338.2</ele>
        <time>2017-11-01T12:43:38Z</time>
      </trkpt>
      <trkpt lat="43.56767" lon="3.31405">
        <ele>338.8</ele>
        <time>2017-11-01T12:43:42Z</time>
      </trkpt>
      <trkpt lat="43.56773" lon="3.31403">
        <ele>339.3</ele>
        <time>2017-11-01T12:43:49Z</time>
      </trkpt>
      <trkpt lat="43.56779" lon="3.31399">
        <ele>339.6</ele>
        <time>2017-11-01T12:43:56Z</time>
      </trkpt>
      <trkpt lat="43.56786" lon="3.31395">
        <ele>340.1</ele>
        <time>2017-11-01T12:44:00Z</time>
      </trkpt>
      <trkpt lat="43.56795" lon="3.31388">
        <ele>340.9</ele>
        <time>2017-11-01T12:44:06Z</time>
      </trkpt>
      <trkpt lat="43.56802" lon="3.31382">
        <ele>341.4</ele>
        <time>2017-11-01T12:44:10Z</time>
      </trkpt>
      <trkpt lat="43.56809" lon="3.3138">
        <ele>342</ele>
        <time>2017-11-01T12:44:14Z</time>
      </trkpt>
      <trkpt lat="43.56817" lon="3.31382">
        <ele>342.4</ele>
        <time>2017-11-01T12:44:18Z</time>
      </trkpt>
      <trkpt lat="43.56825" lon="3.31386">
        <ele>343</ele>
        <time>2017-11-01T12:44:23Z</time>
      </trkpt>
      <trkpt lat="43.56833" lon="3.31386">
        <ele>343.5</ele>
        <time>2017-11-01T12:44:28Z</time>
      </trkpt>
      <trkpt lat="43.5684" lon="3.31383">
        <ele>344.1</ele>
        <time>2017-11-01T12:44:33Z</time>
      </trkpt>
      <trkpt lat="43.56848" lon="3.3138">
        <ele>344.5</ele>
        <time>2017-11-01T12:44:36Z</time>
      </trkpt>
      <trkpt lat="43.56855" lon="3.31379">
        <ele>345.1</ele>
        <time>2017-11-01T12:44:40Z</time>
      </trkpt>
      <trkpt lat="43.56864" lon="3.31379">
        <ele>346.1</ele>
        <time>2017-11-01T12:44:46Z</time>
      </trkpt>
      <trkpt lat="43.56872" lon="3.3138">
        <ele>346.6</ele>
        <time>2017-11-01T12:44:50Z</time>
      </trkpt>
      <trkpt lat="43.5688" lon="3.3138">
        <ele>347.2</ele>
        <time>2017-11-01T12:44:54Z</time>
      </trkpt>
      <trkpt lat="43.56889" lon="3.31377">
        <ele>347.9</ele>
        <time>2017-11-01T12:44:58Z</time>
      </trkpt>
      <trkpt lat="43.56897" lon="3.31377">
        <ele>348.7</ele>
        <time>2017-11-01T12:45:02Z</time>
      </trkpt>
      <trkpt lat="43.56906" lon="3.31374">
        <ele>349.5</ele>
        <time>2017-11-01T12:45:05Z</time>
      </trkpt>
      <trkpt lat="43.56914" lon="3.31371">
        <ele>349.9</ele>
        <time>2017-11-01T12:45:08Z</time>
      </trkpt>
      <trkpt lat="43.56923" lon="3.31367">
        <ele>350.1</ele>
        <time>2017-11-01T12:45:11Z</time>
      </trkpt>
      <trkpt lat="43.5693" lon="3.31359">
        <ele>350</ele>
        <time>2017-11-01T12:45:14Z</time>
      </trkpt>
      <trkpt lat="43.56937" lon="3.31351">
        <ele>350.2</ele>
        <time>2017-11-01T12:45:17Z</time>
      </trkpt>
      <trkpt lat="43.56944" lon="3.31344">
        <ele>350.4</ele>
        <time>2017-11-01T12:45:22Z</time>
      </trkpt>
      <trkpt lat="43.5695" lon="3.31337">
        <ele>350.5</ele>
        <time>2017-11-01T12:45:26Z</time>
      </trkpt>
      <trkpt lat="43.56957" lon="3.31332">
        <ele>350.6</ele>
        <time>2017-11-01T12:45:29Z</time>
      </trkpt>
      <trkpt lat="43.56964" lon="3.31326">
        <ele>350.7</ele>
        <time>2017-11-01T12:45:33Z</time>
      </trkpt>
      <trkpt lat="43.56971" lon="3.3132">
        <ele>351</ele>
        <time>2017-11-01T12:45:38Z</time>
      </trkpt>
      <trkpt lat="43.56978" lon="3.31316">
        <ele>351.4</ele>
        <time>2017-11-01T12:45:42Z</time>
      </trkpt>
      <trkpt lat="43.56985" lon="3.31311">
        <ele>352</ele>
        <time>2017-11-01T12:45:46Z</time>
      </trkpt>
      <trkpt lat="43.56992" lon="3.3131">
        <ele>352.4</ele>
        <time>2017-11-01T12:45:50Z</time>
      </trkpt>
      <trkpt lat="43.57" lon="3.31307">
        <ele>352.7</ele>
        <time>2017-11-01T12:45:55Z</time>
      </trkpt>
      <trkpt lat="43.57008" lon="3.31302">
        <ele>352.9</ele>
        <time>2017-11-01T12:46:00Z</time>
      </trkpt>
      <trkpt lat="43.57016" lon="3.31302">
        <ele>353</ele>
        <time>2017-11-01T12:46:04Z</time>
      </trkpt>
      <trkpt lat="43.57024" lon="3.31306">
        <ele>352.9</ele>
        <time>2017-11-01T12:46:07Z</time>
      </trkpt>
      <trkpt lat="43.57031" lon="3.31302">
        <ele>352.8</ele>
        <time>2017-11-01T12:46:12Z</time>
      </trkpt>
      <trkpt lat="43.57038" lon="3.31296">
        <ele>352.9</ele>
        <time>2017-11-01T12:46:17Z</time>
      </trkpt>
      <trkpt lat="43.57045" lon="3.3129">
        <ele>353</ele>
        <time>2017-11-01T12:46:21Z</time>
      </trkpt>
      <trkpt lat="43.57053" lon="3.31287">
        <ele>353.1</ele>
        <time>2017-11-01T12:46:24Z</time>
      </trkpt>
      <trkpt lat="43.57061" lon="3.31285">
        <ele>353.1</ele>
        <time>2017-11-01T12:46:28Z</time>
      </trkpt>
      <trkpt lat="43.5707" lon="3.31286">
        <ele>353</ele>
        <time>2017-11-01T12:46:31Z</time>
      </trkpt>
      <trkpt lat="43.57076" lon="3.31293">
        <ele>352.8</ele>
        <time>2017-11-01T12:46:36Z</time>
      </trkpt>
      <trkpt lat="43.57081" lon="3.31302">
        <ele>352.9</ele>
        <time>2017-11-01T12:46:41Z</time>
      </trkpt>
      <trkpt lat="43.57086" lon="3.31311">
        <ele>352.9</ele>
        <time>2017-11-01T12:46:45Z</time>
      </trkpt>
      <trkpt lat="43.57091" lon="3.3132">
        <ele>353.3</ele>
        <time>2017-11-01T12:46:51Z</time>
      </trkpt>
      <trkpt lat="43.57096" lon="3.31328">
        <ele>353.6</ele>
        <time>2017-11-01T12:46:55Z</time>
      </trkpt>
      <trkpt lat="43.57101" lon="3.31336">
        <ele>353.9</ele>
        <time>2017-11-01T12:46:59Z</time>
      </trkpt>
      <trkpt lat="43.57109" lon="3.31342">
        <ele>354.3</ele>
        <time>2017-11-01T12:47:04Z</time>
      </trkpt>
      <trkpt lat="43.57116" lon="3.3135">
        <ele>354.7</ele>
        <time>2017-11-01T12:47:09Z</time>
      </trkpt>
      <trkpt lat="43.57123" lon="3.31357">
        <ele>355.4</ele>
        <time>2017-11-01T12:47:14Z</time>
      </trkpt>
      <trkpt lat="43.57129" lon="3.31363">
        <ele>356.5</ele>
        <time>2017-11-01T12:47:20Z</time>
      </trkpt>
      <trkpt lat="43.57136" lon="3.31368">
        <ele>357.7</ele>
        <time>2017-11-01T12:47:25Z</time>
      </trkpt>
      <trkpt lat="43.57144" lon="3.31372">
        <ele>359.7</ele>
        <time>2017-11-01T12:47:31Z</time>
      </trkpt>
      <trkpt lat="43.57151" lon="3.31379">
        <ele>360.9</ele>
        <time>2017-11-01T12:47:35Z</time>
      </trkpt>
      <trkpt lat="43.57158" lon="3.31383">
        <ele>362</ele>
        <time>2017-11-01T12:47:40Z</time>
      </trkpt>
      <trkpt lat="43.57167" lon="3.31386">
        <ele>363.1</ele>
        <time>2017-11-01T12:47:46Z</time>
      </trkpt>
      <trkpt lat="43.57174" lon="3.3139">
        <ele>363.7</ele>
        <time>2017-11-01T12:47:50Z</time>
      </trkpt>
      <trkpt lat="43.57181" lon="3.31395">
        <ele>364.6</ele>
        <time>2017-11-01T12:47:56Z</time>
      </trkpt>
      <trkpt lat="43.57188" lon="3.31397">
        <ele>366.2</ele>
        <time>2017-11-01T12:48:02Z</time>
      </trkpt>
      <trkpt lat="43.57198" lon="3.31398">
        <ele>367.7</ele>
        <time>2017-11-01T12:48:07Z</time>
      </trkpt>
      <trkpt lat="43.57207" lon="3.31399">
        <ele>369</ele>
        <time>2017-11-01T12:48:11Z</time>
      </trkpt>
      <trkpt lat="43.57215" lon="3.31398">
        <ele>370.5</ele>
        <time>2017-11-01T12:48:15Z</time>
      </trkpt>
      <trkpt lat="43.57222" lon="3.31399">
        <ele>371.5</ele>
        <time>2017-11-01T12:48:18Z</time>
      </trkpt>
      <trkpt lat="43.57233" lon="3.31401">
        <ele>372.4</ele>
        <time>2017-11-01T12:48:21Z</time>
      </trkpt>
      <trkpt lat="43.57241" lon="3.31399">
        <ele>373</ele>
        <time>2017-11-01T12:48:24Z</time>
      </trkpt>
      <trkpt lat="43.57249" lon="3.31399">
        <ele>373.7</ele>
        <time>2017-11-01T12:48:27Z</time>
      </trkpt>
      <trkpt lat="43.57257" lon="3.31401">
        <ele>374.3</ele>
        <time>2017-11-01T12:48:30Z</time>
      </trkpt>
      <trkpt lat="43.57267" lon="3.31402">
        <ele>375.3</ele>
        <time>2017-11-01T12:48:34Z</time>
      </trkpt>
      <trkpt lat="43.57275" lon="3.31399">
        <ele>376.1</ele>
        <time>2017-11-01T12:48:38Z</time>
      </trkpt>
      <trkpt lat="43.57283" lon="3.31398">
        <ele>377</ele>
        <time>2017-11-01T12:48:42Z</time>
      </trkpt>
      <trkpt lat="43.5729" lon="3.31397">
        <ele>377.7</ele>
        <time>2017-11-01T12:48:45Z</time>
      </trkpt>
      <trkpt lat="43.57298" lon="3.31395">
        <ele>378.1</ele>
        <time>2017-11-01T12:48:48Z</time>
      </trkpt>
      <trkpt lat="43.57307" lon="3.31395">
        <ele>378.8</ele>
        <time>2017-11-01T12:48:52Z</time>
      </trkpt>
      <trkpt lat="43.57315" lon="3.31395">
        <ele>379.2</ele>
        <time>2017-11-01T12:48:55Z</time>
      </trkpt>
      <trkpt lat="43.57323" lon="3.31395">
        <ele>379.6</ele>
        <time>2017-11-01T12:48:58Z</time>
      </trkpt>
      <trkpt lat="43.57331" lon="3.31396">
        <ele>379.7</ele>
        <time>2017-11-01T12:49:02Z</time>
      </trkpt>
      <trkpt lat="43.57339" lon="3.31398">
        <ele>380</ele>
        <time>2017-11-01T12:49:07Z</time>
      </trkpt>
      <trkpt lat="43.57347" lon="3.31402">
        <ele>380.2</ele>
        <time>2017-11-01T12:49:11Z</time>
      </trkpt>
      <trkpt lat="43.57355" lon="3.31403">
        <ele>380.5</ele>
        <time>2017-11-01T12:49:15Z</time>
      </trkpt>
      <trkpt lat="43.57362" lon="3.31405">
        <ele>380.7</ele>
        <time>2017-11-01T12:49:18Z</time>
      </trkpt>
      <trkpt lat="43.57367" lon="3.31412">
        <ele>380.9</ele>
        <time>2017-11-01T12:49:22Z</time>
      </trkpt>
      <trkpt lat="43.57371" lon="3.31423">
        <ele>381</ele>
        <time>2017-11-01T12:49:26Z</time>
      </trkpt>
      <trkpt lat="43.57374" lon="3.31432">
        <ele>380.9</ele>
        <time>2017-11-01T12:49:30Z</time>
      </trkpt>
      <trkpt lat="43.5738" lon="3.31441">
        <ele>380.9</ele>
        <time>2017-11-01T12:49:34Z</time>
      </trkpt>
      <trkpt lat="43.57385" lon="3.31451">
        <ele>381.1</ele>
        <time>2017-11-01T12:49:39Z</time>
      </trkpt>
      <trkpt lat="43.57387" lon="3.31461">
        <ele>381.6</ele>
        <time>2017-11-01T12:49:44Z</time>
      </trkpt>
      <trkpt lat="43.57387" lon="3.31472">
        <ele>382.3</ele>
        <time>2017-11-01T12:49:49Z</time>
      </trkpt>
      <trkpt lat="43.57388" lon="3.31483">
        <ele>382.8</ele>
        <time>2017-11-01T12:49:53Z</time>
      </trkpt>
      <trkpt lat="43.5739" lon="3.31494">
        <ele>383.4</ele>
        <time>2017-11-01T12:49:57Z</time>
      </trkpt>
      <trkpt lat="43.57392" lon="3.31505">
        <ele>383.8</ele>
        <time>2017-11-01T12:50:01Z</time>
      </trkpt>
      <trkpt lat="43.57393" lon="3.31515">
        <ele>384.1</ele>
        <time>2017-11-01T12:50:05Z</time>
      </trkpt>
      <trkpt lat="43.57391" lon="3.31526">
        <ele>384.5</ele>
        <time>2017-11-01T12:50:09Z</time>
      </trkpt>
      <trkpt lat="43.57388" lon="3.31537">
        <ele>384.9</ele>
        <time>2017-11-01T12:50:12Z</time>
      </trkpt>
      <trkpt lat="43.57383" lon="3.31547">
        <ele>385.2</ele>
        <time>2017-11-01T12:50:15Z</time>
      </trkpt>
      <trkpt lat="43.5738" lon="3.31556">
        <ele>385.5</ele>
        <time>2017-11-01T12:50:18Z</time>
      </trkpt>
      <trkpt lat="43.57374" lon="3.31567">
        <ele>385.8</ele>
        <time>2017-11-01T12:50:22Z</time>
      </trkpt>
      <trkpt lat="43.5737" lon="3.31576">
        <ele>386.1</ele>
        <time>2017-11-01T12:50:26Z</time>
      </trkpt>
      <trkpt lat="43.57367" lon="3.31585">
        <ele>386.3</ele>
        <time>2017-11-01T12:50:30Z</time>
      </trkpt>
      <trkpt lat="43.57366" lon="3.31596">
        <ele>386.5</ele>
        <time>2017-11-01T12:50:34Z</time>
      </trkpt>
      <trkpt lat="43.57364" lon="3.31609">
        <ele>387.2</ele>
        <time>2017-11-01T12:50:39Z</time>
      </trkpt>
      <trkpt lat="43.57366" lon="3.31621">
        <ele>388</ele>
        <time>2017-11-01T12:50:43Z</time>
      </trkpt>
      <trkpt lat="43.5737" lon="3.31631">
        <ele>388.6</ele>
        <time>2017-11-01T12:50:46Z</time>
      </trkpt>
      <trkpt lat="43.57374" lon="3.31641">
        <ele>389.2</ele>
        <time>2017-11-01T12:50:49Z</time>
      </trkpt>
      <trkpt lat="43.57377" lon="3.31652">
        <ele>389.7</ele>
        <time>2017-11-01T12:50:52Z</time>
      </trkpt>
      <trkpt lat="43.57381" lon="3.31661">
        <ele>390.2</ele>
        <time>2017-11-01T12:50:55Z</time>
      </trkpt>
      <trkpt lat="43.57383" lon="3.31673">
        <ele>390.9</ele>
        <time>2017-11-01T12:50:59Z</time>
      </trkpt>
      <trkpt lat="43.57384" lon="3.31683">
        <ele>391.4</ele>
        <time>2017-11-01T12:51:02Z</time>
      </trkpt>
      <trkpt lat="43.57383" lon="3.31696">
        <ele>391.8</ele>
        <time>2017-11-01T12:51:06Z</time>
      </trkpt>
      <trkpt lat="43.57383" lon="3.3171">
        <ele>392</ele>
        <time>2017-11-01T12:51:09Z</time>
      </trkpt>
      <trkpt lat="43.57382" lon="3.31721">
        <ele>392.2</ele>
        <time>2017-11-01T12:51:11Z</time>
      </trkpt>
      <trkpt lat="43.57382" lon="3.31733">
        <ele>392</ele>
        <time>2017-11-01T12:51:13Z</time>
      </trkpt>
      <trkpt lat="43.57383" lon="3.31746">
        <ele>391.6</ele>
        <time>2017-11-01T12:51:15Z</time>
      </trkpt>
      <trkpt lat="43.57386" lon="3.31759">
        <ele>391.5</ele>
        <time>2017-11-01T12:51:17Z</time>
      </trkpt>
      <trkpt lat="43.57392" lon="3.31772">
        <ele>391.6</ele>
        <time>2017-11-01T12:51:19Z</time>
      </trkpt>
      <trkpt lat="43.57399" lon="3.31784">
        <ele>391.6</ele>
        <time>2017-11-01T12:51:21Z</time>
      </trkpt>
      <trkpt lat="43.57405" lon="3.31799">
        <ele>391.5</ele>
        <time>2017-11-01T12:51:23Z</time>
      </trkpt>
      <trkpt lat="43.57412" lon="3.31814">
        <ele>391.2</ele>
        <time>2017-11-01T12:51:25Z</time>
      </trkpt>
      <trkpt lat="43.57416" lon="3.31824">
        <ele>390.8</ele>
        <time>2017-11-01T12:51:26Z</time>
      </trkpt>
      <trkpt lat="43.57419" lon="3.31832">
        <ele>390.2</ele>
        <time>2017-11-01T12:51:27Z</time>
      </trkpt>
      <trkpt lat="43.57427" lon="3.31844">
        <ele>389.6</ele>
        <time>2017-11-01T12:51:29Z</time>
      </trkpt>
      <trkpt lat="43.57435" lon="3.31847">
        <ele>389.4</ele>
        <time>2017-11-01T12:51:32Z</time>
      </trkpt>
      <trkpt lat="43.57442" lon="3.31841">
        <ele>389.1</ele>
        <time>2017-11-01T12:51:35Z</time>
      </trkpt>
      <trkpt lat="43.57446" lon="3.31832">
        <ele>388.7</ele>
        <time>2017-11-01T12:51:40Z</time>
      </trkpt>
      <trkpt lat="43.5745" lon="3.31822">
        <ele>388.5</ele>
        <time>2017-11-01T12:51:45Z</time>
      </trkpt>
      <trkpt lat="43.57454" lon="3.31811">
        <ele>388.4</ele>
        <time>2017-11-01T12:51:50Z</time>
      </trkpt>
      <trkpt lat="43.57457" lon="3.318">
        <ele>388.4</ele>
        <time>2017-11-01T12:51:54Z</time>
      </trkpt>
      <trkpt lat="43.57462" lon="3.31789">
        <ele>388.4</ele>
        <time>2017-11-01T12:51:59Z</time>
      </trkpt>
      <trkpt lat="43.57466" lon="3.31781">
        <ele>388.5</ele>
        <time>2017-11-01T12:52:03Z</time>
      </trkpt>
      <trkpt lat="43.57469" lon="3.31771">
        <ele>388.5</ele>
        <time>2017-11-01T12:52:06Z</time>
      </trkpt>
      <trkpt lat="43.57472" lon="3.31761">
        <ele>388.7</ele>
        <time>2017-11-01T12:52:11Z</time>
      </trkpt>
      <trkpt lat="43.57475" lon="3.31752">
        <ele>388.9</ele>
        <time>2017-11-01T12:52:15Z</time>
      </trkpt>
      <trkpt lat="43.57478" lon="3.31742">
        <ele>389.1</ele>
        <time>2017-11-01T12:52:20Z</time>
      </trkpt>
      <trkpt lat="43.5748" lon="3.3173">
        <ele>389.3</ele>
        <time>2017-11-01T12:52:24Z</time>
      </trkpt>
      <trkpt lat="43.57483" lon="3.3172">
        <ele>389.6</ele>
        <time>2017-11-01T12:52:28Z</time>
      </trkpt>
      <trkpt lat="43.57485" lon="3.3171">
        <ele>389.8</ele>
        <time>2017-11-01T12:52:32Z</time>
      </trkpt>
      <trkpt lat="43.57487" lon="3.317">
        <ele>390.1</ele>
        <time>2017-11-01T12:52:37Z</time>
      </trkpt>
      <trkpt lat="43.57488" lon="3.3169">
        <ele>390.4</ele>
        <time>2017-11-01T12:52:41Z</time>
      </trkpt>
      <trkpt lat="43.57493" lon="3.31679">
        <ele>390.6</ele>
        <time>2017-11-01T12:52:45Z</time>
      </trkpt>
      <trkpt lat="43.57495" lon="3.31669">
        <ele>390.9</ele>
        <time>2017-11-01T12:52:50Z</time>
      </trkpt>
      <trkpt lat="43.575" lon="3.3166">
        <ele>391.3</ele>
        <time>2017-11-01T12:52:56Z</time>
      </trkpt>
      <trkpt lat="43.57504" lon="3.31649">
        <ele>392.2</ele>
        <time>2017-11-01T12:53:03Z</time>
      </trkpt>
      <trkpt lat="43.57508" lon="3.31641">
        <ele>393.1</ele>
        <time>2017-11-01T12:53:08Z</time>
      </trkpt>
      <trkpt lat="43.57512" lon="3.31629">
        <ele>394.1</ele>
        <time>2017-11-01T12:53:13Z</time>
      </trkpt>
      <trkpt lat="43.57516" lon="3.31619">
        <ele>395</ele>
        <time>2017-11-01T12:53:17Z</time>
      </trkpt>
      <trkpt lat="43.5752" lon="3.3161">
        <ele>396.3</ele>
        <time>2017-11-01T12:53:22Z</time>
      </trkpt>
      <trkpt lat="43.57528" lon="3.316">
        <ele>397.8</ele>
        <time>2017-11-01T12:53:28Z</time>
      </trkpt>
      <trkpt lat="43.57532" lon="3.31591">
        <ele>398.6</ele>
        <time>2017-11-01T12:53:31Z</time>
      </trkpt>
      <trkpt lat="43.57538" lon="3.31581">
        <ele>399.6</ele>
        <time>2017-11-01T12:53:35Z</time>
      </trkpt>
      <trkpt lat="43.57543" lon="3.31573">
        <ele>400.5</ele>
        <time>2017-11-01T12:53:39Z</time>
      </trkpt>
      <trkpt lat="43.57549" lon="3.31565">
        <ele>401.3</ele>
        <time>2017-11-01T12:53:43Z</time>
      </trkpt>
      <trkpt lat="43.57554" lon="3.31558">
        <ele>402.1</ele>
        <time>2017-11-01T12:53:47Z</time>
      </trkpt>
      <trkpt lat="43.5756" lon="3.31549">
        <ele>402.9</ele>
        <time>2017-11-01T12:53:51Z</time>
      </trkpt>
      <trkpt lat="43.57567" lon="3.31542">
        <ele>403.7</ele>
        <time>2017-11-01T12:53:55Z</time>
      </trkpt>
      <trkpt lat="43.57577" lon="3.31536">
        <ele>404.3</ele>
        <time>2017-11-01T12:53:58Z</time>
      </trkpt>
      <trkpt lat="43.57584" lon="3.31533">
        <ele>404.6</ele>
        <time>2017-11-01T12:54:00Z</time>
      </trkpt>
      <trkpt lat="43.57594" lon="3.31529">
        <ele>405</ele>
        <time>2017-11-01T12:54:03Z</time>
      </trkpt>
      <trkpt lat="43.57604" lon="3.31526">
        <ele>405.4</ele>
        <time>2017-11-01T12:54:06Z</time>
      </trkpt>
      <trkpt lat="43.57613" lon="3.31522">
        <ele>405.9</ele>
        <time>2017-11-01T12:54:10Z</time>
      </trkpt>
      <trkpt lat="43.5762" lon="3.31518">
        <ele>406.3</ele>
        <time>2017-11-01T12:54:14Z</time>
      </trkpt>
      <trkpt lat="43.57628" lon="3.31515">
        <ele>406.7</ele>
        <time>2017-11-01T12:54:18Z</time>
      </trkpt>
      <trkpt lat="43.57635" lon="3.31517">
        <ele>407.2</ele>
        <time>2017-11-01T12:54:22Z</time>
      </trkpt>
      <trkpt lat="43.57643" lon="3.31519">
        <ele>407.4</ele>
        <time>2017-11-01T12:54:25Z</time>
      </trkpt>
      <trkpt lat="43.57651" lon="3.31519">
        <ele>407.6</ele>
        <time>2017-11-01T12:54:28Z</time>
      </trkpt>
      <trkpt lat="43.57659" lon="3.31514">
        <ele>407.7</ele>
        <time>2017-11-01T12:54:31Z</time>
      </trkpt>
      <trkpt lat="43.57666" lon="3.31506">
        <ele>406.6</ele>
        <time>2017-11-01T12:54:33Z</time>
      </trkpt>
      <trkpt lat="43.57674" lon="3.31497">
        <ele>405.5</ele>
        <time>2017-11-01T12:54:35Z</time>
      </trkpt>
      <trkpt lat="43.5768" lon="3.31487">
        <ele>404.8</ele>
        <time>2017-11-01T12:54:37Z</time>
      </trkpt>
      <trkpt lat="43.57688" lon="3.31474">
        <ele>404.2</ele>
        <time>2017-11-01T12:54:39Z</time>
      </trkpt>
      <trkpt lat="43.577" lon="3.31468">
        <ele>403.8</ele>
        <time>2017-11-01T12:54:41Z</time>
      </trkpt>
      <trkpt lat="43.57711" lon="3.31458">
        <ele>403.7</ele>
        <time>2017-11-01T12:54:43Z</time>
      </trkpt>
      <trkpt lat="43.57719" lon="3.31447">
        <ele>403.5</ele>
        <time>2017-11-01T12:54:45Z</time>
      </trkpt>
      <trkpt lat="43.57726" lon="3.31436">
        <ele>403.4</ele>
        <time>2017-11-01T12:54:47Z</time>
      </trkpt>
      <trkpt lat="43.57732" lon="3.31427">
        <ele>403.4</ele>
        <time>2017-11-01T12:54:49Z</time>
      </trkpt>
      <trkpt lat="43.57739" lon="3.3142">
        <ele>403.4</ele>
        <time>2017-11-01T12:54:51Z</time>
      </trkpt>
      <trkpt lat="43.57745" lon="3.31414">
        <ele>403.5</ele>
        <time>2017-11-01T12:54:53Z</time>
      </trkpt>
      <trkpt lat="43.57752" lon="3.31404">
        <ele>403.7</ele>
        <time>2017-11-01T12:54:56Z</time>
      </trkpt>
      <trkpt lat="43.57759" lon="3.31394">
        <ele>404</ele>
        <time>2017-11-01T12:54:59Z</time>
      </trkpt>
      <trkpt lat="43.57765" lon="3.31388">
        <ele>404.5</ele>
        <time>2017-11-01T12:55:03Z</time>
      </trkpt>
      <trkpt lat="43.57771" lon="3.31382">
        <ele>405.2</ele>
        <time>2017-11-01T12:55:07Z</time>
      </trkpt>
      <trkpt lat="43.57779" lon="3.31374">
        <ele>406</ele>
        <time>2017-11-01T12:55:11Z</time>
      </trkpt>
      <trkpt lat="43.57784" lon="3.31366">
        <ele>406.7</ele>
        <time>2017-11-01T12:55:15Z</time>
      </trkpt>
      <trkpt lat="43.57789" lon="3.31357">
        <ele>407.3</ele>
        <time>2017-11-01T12:55:19Z</time>
      </trkpt>
      <trkpt lat="43.57794" lon="3.31347">
        <ele>408</ele>
        <time>2017-11-01T12:55:24Z</time>
      </trkpt>
      <trkpt lat="43.57799" lon="3.31337">
        <ele>408.5</ele>
        <time>2017-11-01T12:55:28Z</time>
      </trkpt>
      <trkpt lat="43.57803" lon="3.31328">
        <ele>408.9</ele>
        <time>2017-11-01T12:55:31Z</time>
      </trkpt>
      <trkpt lat="43.57808" lon="3.3132">
        <ele>409.1</ele>
        <time>2017-11-01T12:55:34Z</time>
      </trkpt>
      <trkpt lat="43.57813" lon="3.31313">
        <ele>409.4</ele>
        <time>2017-11-01T12:55:38Z</time>
      </trkpt>
      <trkpt lat="43.57821" lon="3.31305">
        <ele>409.8</ele>
        <time>2017-11-01T12:55:43Z</time>
      </trkpt>
      <trkpt lat="43.57826" lon="3.31298">
        <ele>410.3</ele>
        <time>2017-11-01T12:55:48Z</time>
      </trkpt>
      <trkpt lat="43.57833" lon="3.3129">
        <ele>410.7</ele>
        <time>2017-11-01T12:55:52Z</time>
      </trkpt>
      <trkpt lat="43.5784" lon="3.31284">
        <ele>411</ele>
        <time>2017-11-01T12:55:56Z</time>
      </trkpt>
      <trkpt lat="43.57844" lon="3.31276">
        <ele>411.4</ele>
        <time>2017-11-01T12:56:00Z</time>
      </trkpt>
      <trkpt lat="43.57851" lon="3.3127">
        <ele>411.9</ele>
        <time>2017-11-01T12:56:04Z</time>
      </trkpt>
      <trkpt lat="43.57857" lon="3.31263">
        <ele>412.3</ele>
        <time>2017-11-01T12:56:07Z</time>
      </trkpt>
      <trkpt lat="43.57865" lon="3.31254">
        <ele>412.9</ele>
        <time>2017-11-01T12:56:11Z</time>
      </trkpt>
      <trkpt lat="43.57873" lon="3.31245">
        <ele>413.4</ele>
        <time>2017-11-01T12:56:14Z</time>
      </trkpt>
      <trkpt lat="43.5788" lon="3.31233">
        <ele>413.8</ele>
        <time>2017-11-01T12:56:17Z</time>
      </trkpt>
      <trkpt lat="43.57886" lon="3.31221">
        <ele>414.3</ele>
        <time>2017-11-01T12:56:20Z</time>
      </trkpt>
      <trkpt lat="43.57891" lon="3.3121">
        <ele>414.7</ele>
        <time>2017-11-01T12:56:23Z</time>
      </trkpt>
      <trkpt lat="43.57896" lon="3.31198">
        <ele>415.1</ele>
        <time>2017-11-01T12:56:26Z</time>
      </trkpt>
      <trkpt lat="43.57901" lon="3.31191">
        <ele>415.2</ele>
        <time>2017-11-01T12:56:28Z</time>
      </trkpt>
      <trkpt lat="43.57905" lon="3.31179">
        <ele>415.3</ele>
        <time>2017-11-01T12:56:31Z</time>
      </trkpt>
      <trkpt lat="43.57907" lon="3.31169">
        <ele>415.4</ele>
        <time>2017-11-01T12:56:34Z</time>
      </trkpt>
      <trkpt lat="43.57907" lon="3.31156">
        <ele>415.4</ele>
        <time>2017-11-01T12:56:38Z</time>
      </trkpt>
      <trkpt lat="43.57909" lon="3.31145">
        <ele>415.4</ele>
        <time>2017-11-01T12:56:42Z</time>
      </trkpt>
      <trkpt lat="43.57911" lon="3.31132">
        <ele>415.6</ele>
        <time>2017-11-01T12:56:45Z</time>
      </trkpt>
      <trkpt lat="43.57912" lon="3.3112">
        <ele>415.7</ele>
        <time>2017-11-01T12:56:48Z</time>
      </trkpt>
      <trkpt lat="43.57915" lon="3.31106">
        <ele>415.8</ele>
        <time>2017-11-01T12:56:51Z</time>
      </trkpt>
      <trkpt lat="43.57916" lon="3.31091">
        <ele>416</ele>
        <time>2017-11-01T12:56:54Z</time>
      </trkpt>
      <trkpt lat="43.57918" lon="3.31081">
        <ele>416.2</ele>
        <time>2017-11-01T12:56:57Z</time>
      </trkpt>
      <trkpt lat="43.5792" lon="3.31069">
        <ele>416.3</ele>
        <time>2017-11-01T12:57:00Z</time>
      </trkpt>
      <trkpt lat="43.57924" lon="3.31057">
        <ele>416.4</ele>
        <time>2017-11-01T12:57:03Z</time>
      </trkpt>
      <trkpt lat="43.57927" lon="3.31045">
        <ele>416.5</ele>
        <time>2017-11-01T12:57:06Z</time>
      </trkpt>
      <trkpt lat="43.57927" lon="3.31032">
        <ele>416.5</ele>
        <time>2017-11-01T12:57:09Z</time>
      </trkpt>
      <trkpt lat="43.57932" lon="3.31021">
        <ele>416.3</ele>
        <time>2017-11-01T12:57:12Z</time>
      </trkpt>
      <trkpt lat="43.57933" lon="3.31008">
        <ele>416.2</ele>
        <time>2017-11-01T12:57:15Z</time>
      </trkpt>
      <trkpt lat="43.57935" lon="3.30997">
        <ele>416.1</ele>
        <time>2017-11-01T12:57:18Z</time>
      </trkpt>
      <trkpt lat="43.57936" lon="3.30984">
        <ele>416.1</ele>
        <time>2017-11-01T12:57:21Z</time>
      </trkpt>
      <trkpt lat="43.57938" lon="3.3097">
        <ele>416.1</ele>
        <time>2017-11-01T12:57:24Z</time>
      </trkpt>
      <trkpt lat="43.57941" lon="3.30961">
        <ele>416.1</ele>
        <time>2017-11-01T12:57:27Z</time>
      </trkpt>
      <trkpt lat="43.57945" lon="3.30951">
        <ele>416.2</ele>
        <time>2017-11-01T12:57:30Z</time>
      </trkpt>
      <trkpt lat="43.5795" lon="3.30943">
        <ele>416.3</ele>
        <time>2017-11-01T12:57:33Z</time>
      </trkpt>
      <trkpt lat="43.57956" lon="3.30935">
        <ele>416.5</ele>
        <time>2017-11-01T12:57:37Z</time>
      </trkpt>
      <trkpt lat="43.57961" lon="3.30926">
        <ele>416.8</ele>
        <time>2017-11-01T12:57:40Z</time>
      </trkpt>
      <trkpt lat="43.57967" lon="3.30916">
        <ele>417.1</ele>
        <time>2017-11-01T12:57:44Z</time>
      </trkpt>
      <trkpt lat="43.57971" lon="3.30905">
        <ele>417.4</ele>
        <time>2017-11-01T12:57:48Z</time>
      </trkpt>
      <trkpt lat="43.57974" lon="3.30895">
        <ele>417.7</ele>
        <time>2017-11-01T12:57:51Z</time>
      </trkpt>
      <trkpt lat="43.57976" lon="3.30885">
        <ele>418</ele>
        <time>2017-11-01T12:57:55Z</time>
      </trkpt>
      <trkpt lat="43.57979" lon="3.30876">
        <ele>418.3</ele>
        <time>2017-11-01T12:57:59Z</time>
      </trkpt>
      <trkpt lat="43.57984" lon="3.30868">
        <ele>418.7</ele>
        <time>2017-11-01T12:58:03Z</time>
      </trkpt>
      <trkpt lat="43.5799" lon="3.30858">
        <ele>419.2</ele>
        <time>2017-11-01T12:58:07Z</time>
      </trkpt>
      <trkpt lat="43.57995" lon="3.30849">
        <ele>419.8</ele>
        <time>2017-11-01T12:58:11Z</time>
      </trkpt>
      <trkpt lat="43.58002" lon="3.30841">
        <ele>420.8</ele>
        <time>2017-11-01T12:58:16Z</time>
      </trkpt>
      <trkpt lat="43.58008" lon="3.30834">
        <ele>421.9</ele>
        <time>2017-11-01T12:58:21Z</time>
      </trkpt>
      <trkpt lat="43.58014" lon="3.30828">
        <ele>423</ele>
        <time>2017-11-01T12:58:25Z</time>
      </trkpt>
      <trkpt lat="43.58022" lon="3.30824">
        <ele>424</ele>
        <time>2017-11-01T12:58:29Z</time>
      </trkpt>
      <trkpt lat="43.58028" lon="3.30816">
        <ele>425.3</ele>
        <time>2017-11-01T12:58:35Z</time>
      </trkpt>
      <trkpt lat="43.58033" lon="3.30807">
        <ele>426.2</ele>
        <time>2017-11-01T12:58:38Z</time>
      </trkpt>
      <trkpt lat="43.58039" lon="3.30797">
        <ele>427.4</ele>
        <time>2017-11-01T12:58:43Z</time>
      </trkpt>
      <trkpt lat="43.58044" lon="3.3079">
        <ele>428.4</ele>
        <time>2017-11-01T12:58:48Z</time>
      </trkpt>
      <trkpt lat="43.58051" lon="3.30786">
        <ele>429.5</ele>
        <time>2017-11-01T12:58:54Z</time>
      </trkpt>
      <trkpt lat="43.58058" lon="3.30781">
        <ele>430.5</ele>
        <time>2017-11-01T12:58:59Z</time>
      </trkpt>
      <trkpt lat="43.58066" lon="3.30775">
        <ele>431.4</ele>
        <time>2017-11-01T12:59:04Z</time>
      </trkpt>
      <trkpt lat="43.58072" lon="3.30769">
        <ele>431.9</ele>
        <time>2017-11-01T12:59:08Z</time>
      </trkpt>
      <trkpt lat="43.58079" lon="3.30767">
        <ele>432.5</ele>
        <time>2017-11-01T12:59:12Z</time>
      </trkpt>
      <trkpt lat="43.58086" lon="3.30762">
        <ele>433.1</ele>
        <time>2017-11-01T12:59:16Z</time>
      </trkpt>
      <trkpt lat="43.58094" lon="3.30759">
        <ele>434.2</ele>
        <time>2017-11-01T12:59:22Z</time>
      </trkpt>
      <trkpt lat="43.58101" lon="3.30753">
        <ele>435.1</ele>
        <time>2017-11-01T12:59:26Z</time>
      </trkpt>
      <trkpt lat="43.58109" lon="3.30752">
        <ele>436.1</ele>
        <time>2017-11-01T12:59:30Z</time>
      </trkpt>
      <trkpt lat="43.58115" lon="3.30758">
        <ele>437</ele>
        <time>2017-11-01T12:59:34Z</time>
      </trkpt>
      <trkpt lat="43.58114" lon="3.30769">
        <ele>438.1</ele>
        <time>2017-11-01T12:59:39Z</time>
      </trkpt>
      <trkpt lat="43.58116" lon="3.30779">
        <ele>439.2</ele>
        <time>2017-11-01T12:59:44Z</time>
      </trkpt>
      <trkpt lat="43.5812" lon="3.30787">
        <ele>440.3</ele>
        <time>2017-11-01T12:59:51Z</time>
      </trkpt>
      <trkpt lat="43.58123" lon="3.30786">
        <ele>440.5</ele>
        <time>2017-11-01T12:59:58Z</time>
      </trkpt>
      <trkpt lat="43.58123" lon="3.30789">
        <ele>440.2</ele>
        <time>2017-11-01T13:00:05Z</time>
      </trkpt>
      <trkpt lat="43.58127" lon="3.30801">
        <ele>440.3</ele>
        <time>2017-11-01T13:00:11Z</time>
      </trkpt>
      <trkpt lat="43.58131" lon="3.30809">
        <ele>440.4</ele>
        <time>2017-11-01T13:00:14Z</time>
      </trkpt>
      <trkpt lat="43.5814" lon="3.30818">
        <ele>440.5</ele>
        <time>2017-11-01T13:00:17Z</time>
      </trkpt>
      <trkpt lat="43.58146" lon="3.30824">
        <ele>440.5</ele>
        <time>2017-11-01T13:00:19Z</time>
      </trkpt>
      <trkpt lat="43.58153" lon="3.3083">
        <ele>440.7</ele>
        <time>2017-11-01T13:00:21Z</time>
      </trkpt>
      <trkpt lat="43.5816" lon="3.30835">
        <ele>440.9</ele>
        <time>2017-11-01T13:00:23Z</time>
      </trkpt>
      <trkpt lat="43.58169" lon="3.30841">
        <ele>441.4</ele>
        <time>2017-11-01T13:00:26Z</time>
      </trkpt>
      <trkpt lat="43.58177" lon="3.30845">
        <ele>442</ele>
        <time>2017-11-01T13:00:29Z</time>
      </trkpt>
      <trkpt lat="43.58185" lon="3.30849">
        <ele>442.6</ele>
        <time>2017-11-01T13:00:33Z</time>
      </trkpt>
      <trkpt lat="43.58194" lon="3.30854">
        <ele>443.3</ele>
        <time>2017-11-01T13:00:35Z</time>
      </trkpt>
      <trkpt lat="43.58202" lon="3.30856">
        <ele>443.9</ele>
        <time>2017-11-01T13:00:38Z</time>
      </trkpt>
      <trkpt lat="43.5821" lon="3.30854">
        <ele>444.4</ele>
        <time>2017-11-01T13:00:41Z</time>
      </trkpt>
      <trkpt lat="43.58216" lon="3.30847">
        <ele>445.1</ele>
        <time>2017-11-01T13:00:45Z</time>
      </trkpt>
      <trkpt lat="43.58222" lon="3.30838">
        <ele>445.8</ele>
        <time>2017-11-01T13:00:49Z</time>
      </trkpt>
      <trkpt lat="43.5823" lon="3.30831">
        <ele>446.5</ele>
        <time>2017-11-01T13:00:53Z</time>
      </trkpt>
      <trkpt lat="43.58236" lon="3.30826">
        <ele>447.1</ele>
        <time>2017-11-01T13:00:56Z</time>
      </trkpt>
      <trkpt lat="43.58245" lon="3.3082">
        <ele>448.1</ele>
        <time>2017-11-01T13:01:00Z</time>
      </trkpt>
      <trkpt lat="43.58254" lon="3.30813">
        <ele>448.8</ele>
        <time>2017-11-01T13:01:03Z</time>
      </trkpt>
      <trkpt lat="43.58261" lon="3.30809">
        <ele>449.3</ele>
        <time>2017-11-01T13:01:06Z</time>
      </trkpt>
      <trkpt lat="43.58268" lon="3.30804">
        <ele>449.6</ele>
        <time>2017-11-01T13:01:08Z</time>
      </trkpt>
      <trkpt lat="43.58275" lon="3.30796">
        <ele>449.9</ele>
        <time>2017-11-01T13:01:11Z</time>
      </trkpt>
      <trkpt lat="43.58283" lon="3.30787">
        <ele>450.6</ele>
        <time>2017-11-01T13:01:15Z</time>
      </trkpt>
      <trkpt lat="43.58292" lon="3.3078">
        <ele>451</ele>
        <time>2017-11-01T13:01:17Z</time>
      </trkpt>
      <trkpt lat="43.583" lon="3.30775">
        <ele>451.4</ele>
        <time>2017-11-01T13:01:19Z</time>
      </trkpt>
      <trkpt lat="43.58306" lon="3.30769">
        <ele>451.7</ele>
        <time>2017-11-01T13:01:21Z</time>
      </trkpt>
      <trkpt lat="43.58313" lon="3.30764">
        <ele>451.9</ele>
        <time>2017-11-01T13:01:23Z</time>
      </trkpt>
      <trkpt lat="43.5832" lon="3.30759">
        <ele>452.2</ele>
        <time>2017-11-01T13:01:25Z</time>
      </trkpt>
      <trkpt lat="43.58328" lon="3.30755">
        <ele>453.2</ele>
        <time>2017-11-01T13:01:27Z</time>
      </trkpt>
      <trkpt lat="43.58335" lon="3.30753">
        <ele>453.6</ele>
        <time>2017-11-01T13:01:28Z</time>
      </trkpt>
      <trkpt lat="43.58344" lon="3.30753">
        <ele>453.8</ele>
        <time>2017-11-01T13:01:29Z</time>
      </trkpt>
      <trkpt lat="43.58352" lon="3.30752">
        <ele>454</ele>
        <time>2017-11-01T13:01:30Z</time>
      </trkpt>
      <trkpt lat="43.58359" lon="3.30752">
        <ele>454</ele>
        <time>2017-11-01T13:01:31Z</time>
      </trkpt>
      <trkpt lat="43.5837" lon="3.30749">
        <ele>453.4</ele>
        <time>2017-11-01T13:01:32Z</time>
      </trkpt>
      <trkpt lat="43.58377" lon="3.30746">
        <ele>452.7</ele>
        <time>2017-11-01T13:01:33Z</time>
      </trkpt>
      <trkpt lat="43.58386" lon="3.30743">
        <ele>452.2</ele>
        <time>2017-11-01T13:01:34Z</time>
      </trkpt>
      <trkpt lat="43.58394" lon="3.30741">
        <ele>451.5</ele>
        <time>2017-11-01T13:01:35Z</time>
      </trkpt>
      <trkpt lat="43.58402" lon="3.30743">
        <ele>450.9</ele>
        <time>2017-11-01T13:01:36Z</time>
      </trkpt>
      <trkpt lat="43.58409" lon="3.30746">
        <ele>450.5</ele>
        <time>2017-11-01T13:01:37Z</time>
      </trkpt>
      <trkpt lat="43.5842" lon="3.30757">
        <ele>449.3</ele>
        <time>2017-11-01T13:01:39Z</time>
      </trkpt>
      <trkpt lat="43.58426" lon="3.30763">
        <ele>448.7</ele>
        <time>2017-11-01T13:01:40Z</time>
      </trkpt>
      <trkpt lat="43.58431" lon="3.3077">
        <ele>447.9</ele>
        <time>2017-11-01T13:01:41Z</time>
      </trkpt>
      <trkpt lat="43.58437" lon="3.30779">
        <ele>447.4</ele>
        <time>2017-11-01T13:01:42Z</time>
      </trkpt>
      <trkpt lat="43.58442" lon="3.30787">
        <ele>447</ele>
        <time>2017-11-01T13:01:43Z</time>
      </trkpt>
      <trkpt lat="43.58448" lon="3.30794">
        <ele>446.5</ele>
        <time>2017-11-01T13:01:44Z</time>
      </trkpt>
      <trkpt lat="43.5846" lon="3.30804">
        <ele>446</ele>
        <time>2017-11-01T13:01:46Z</time>
      </trkpt>
      <trkpt lat="43.5847" lon="3.30815">
        <ele>445.1</ele>
        <time>2017-11-01T13:01:48Z</time>
      </trkpt>
      <trkpt lat="43.58477" lon="3.30832">
        <ele>444.5</ele>
        <time>2017-11-01T13:01:50Z</time>
      </trkpt>
      <trkpt lat="43.5848" lon="3.30841">
        <ele>443.9</ele>
        <time>2017-11-01T13:01:51Z</time>
      </trkpt>
      <trkpt lat="43.58487" lon="3.30848">
        <ele>443.2</ele>
        <time>2017-11-01T13:01:52Z</time>
      </trkpt>
      <trkpt lat="43.58494" lon="3.30855">
        <ele>442.4</ele>
        <time>2017-11-01T13:01:53Z</time>
      </trkpt>
      <trkpt lat="43.585" lon="3.3086">
        <ele>441.6</ele>
        <time>2017-11-01T13:01:54Z</time>
      </trkpt>
      <trkpt lat="43.58509" lon="3.30869">
        <ele>440.2</ele>
        <time>2017-11-01T13:01:56Z</time>
      </trkpt>
      <trkpt lat="43.58515" lon="3.30872">
        <ele>439.9</ele>
        <time>2017-11-01T13:02:03Z</time>
      </trkpt>
      <trkpt lat="43.58521" lon="3.30865">
        <ele>439.6</ele>
        <time>2017-11-01T13:02:17Z</time>
      </trkpt>
      <trkpt lat="43.58528" lon="3.30856">
        <ele>439.7</ele>
        <time>2017-11-01T13:02:21Z</time>
      </trkpt>
      <trkpt lat="43.58535" lon="3.30849">
        <ele>439.7</ele>
        <time>2017-11-01T13:02:24Z</time>
      </trkpt>
      <trkpt lat="43.58542" lon="3.30841">
        <ele>439.9</ele>
        <time>2017-11-01T13:02:27Z</time>
      </trkpt>
      <trkpt lat="43.58549" lon="3.3083">
        <ele>440.7</ele>
        <time>2017-11-01T13:02:29Z</time>
      </trkpt>
      <trkpt lat="43.58555" lon="3.30818">
        <ele>441.2</ele>
        <time>2017-11-01T13:02:31Z</time>
      </trkpt>
      <trkpt lat="43.58562" lon="3.30804">
        <ele>441.4</ele>
        <time>2017-11-01T13:02:33Z</time>
      </trkpt>
      <trkpt lat="43.5857" lon="3.308">
        <ele>443.2</ele>
        <time>2017-11-01T13:02:36Z</time>
      </trkpt>
      <trkpt lat="43.58574" lon="3.30811">
        <ele>443.5</ele>
        <time>2017-11-01T13:02:39Z</time>
      </trkpt>
      <trkpt lat="43.58575" lon="3.30824">
        <ele>443.7</ele>
        <time>2017-11-01T13:02:42Z</time>
      </trkpt>
      <trkpt lat="43.58578" lon="3.3084">
        <ele>444.1</ele>
        <time>2017-11-01T13:02:45Z</time>
      </trkpt>
      <trkpt lat="43.58581" lon="3.3085">
        <ele>444.4</ele>
        <time>2017-11-01T13:02:47Z</time>
      </trkpt>
      <trkpt lat="43.58584" lon="3.3086">
        <ele>444.5</ele>
        <time>2017-11-01T13:02:49Z</time>
      </trkpt>
      <trkpt lat="43.58587" lon="3.30871">
        <ele>444.7</ele>
        <time>2017-11-01T13:02:51Z</time>
      </trkpt>
      <trkpt lat="43.58591" lon="3.30883">
        <ele>445.5</ele>
        <time>2017-11-01T13:02:53Z</time>
      </trkpt>
      <trkpt lat="43.58596" lon="3.30893">
        <ele>445.6</ele>
        <time>2017-11-01T13:02:55Z</time>
      </trkpt>
      <trkpt lat="43.58603" lon="3.30901">
        <ele>445.5</ele>
        <time>2017-11-01T13:02:57Z</time>
      </trkpt>
      <trkpt lat="43.58609" lon="3.30909">
        <ele>445.5</ele>
        <time>2017-11-01T13:02:59Z</time>
      </trkpt>
      <trkpt lat="43.58616" lon="3.30916">
        <ele>445.3</ele>
        <time>2017-11-01T13:03:01Z</time>
      </trkpt>
      <trkpt lat="43.58622" lon="3.30923">
        <ele>445.2</ele>
        <time>2017-11-01T13:03:03Z</time>
      </trkpt>
      <trkpt lat="43.58628" lon="3.3093">
        <ele>444.7</ele>
        <time>2017-11-01T13:03:05Z</time>
      </trkpt>
      <trkpt lat="43.58634" lon="3.30937">
        <ele>444.7</ele>
        <time>2017-11-01T13:03:07Z</time>
      </trkpt>
      <trkpt lat="43.58643" lon="3.30946">
        <ele>444.6</ele>
        <time>2017-11-01T13:03:10Z</time>
      </trkpt>
      <trkpt lat="43.58648" lon="3.30953">
        <ele>444.6</ele>
        <time>2017-11-01T13:03:12Z</time>
      </trkpt>
      <trkpt lat="43.58657" lon="3.30961">
        <ele>444.7</ele>
        <time>2017-11-01T13:03:15Z</time>
      </trkpt>
      <trkpt lat="43.58664" lon="3.30967">
        <ele>444.8</ele>
        <time>2017-11-01T13:03:18Z</time>
      </trkpt>
      <trkpt lat="43.5867" lon="3.3097">
        <ele>445</ele>
        <time>2017-11-01T13:03:21Z</time>
      </trkpt>
      <trkpt lat="43.58679" lon="3.30973">
        <ele>445.2</ele>
        <time>2017-11-01T13:03:24Z</time>
      </trkpt>
      <trkpt lat="43.58688" lon="3.30972">
        <ele>445.4</ele>
        <time>2017-11-01T13:03:27Z</time>
      </trkpt>
      <trkpt lat="43.58696" lon="3.30968">
        <ele>445.5</ele>
        <time>2017-11-01T13:03:30Z</time>
      </trkpt>
      <trkpt lat="43.58705" lon="3.30965">
        <ele>445.6</ele>
        <time>2017-11-01T13:03:34Z</time>
      </trkpt>
      <trkpt lat="43.58712" lon="3.30961">
        <ele>445.7</ele>
        <time>2017-11-01T13:03:37Z</time>
      </trkpt>
      <trkpt lat="43.5872" lon="3.30955">
        <ele>445.8</ele>
        <time>2017-11-01T13:03:40Z</time>
      </trkpt>
      <trkpt lat="43.58728" lon="3.30948">
        <ele>445.8</ele>
        <time>2017-11-01T13:03:43Z</time>
      </trkpt>
      <trkpt lat="43.58734" lon="3.3094">
        <ele>445.8</ele>
        <time>2017-11-01T13:03:46Z</time>
      </trkpt>
      <trkpt lat="43.58741" lon="3.30932">
        <ele>445.6</ele>
        <time>2017-11-01T13:03:49Z</time>
      </trkpt>
      <trkpt lat="43.5875" lon="3.30922">
        <ele>445.5</ele>
        <time>2017-11-01T13:03:52Z</time>
      </trkpt>
      <trkpt lat="43.58755" lon="3.30914">
        <ele>445.3</ele>
        <time>2017-11-01T13:03:54Z</time>
      </trkpt>
      <trkpt lat="43.58762" lon="3.30905">
        <ele>445.1</ele>
        <time>2017-11-01T13:03:57Z</time>
      </trkpt>
      <trkpt lat="43.58768" lon="3.30895">
        <ele>444.9</ele>
        <time>2017-11-01T13:04:00Z</time>
      </trkpt>
      <trkpt lat="43.58774" lon="3.30884">
        <ele>444.8</ele>
        <time>2017-11-01T13:04:04Z</time>
      </trkpt>
      <trkpt lat="43.58777" lon="3.30872">
        <ele>444.7</ele>
        <time>2017-11-01T13:04:07Z</time>
      </trkpt>
      <trkpt lat="43.58778" lon="3.3086">
        <ele>444.5</ele>
        <time>2017-11-01T13:04:10Z</time>
      </trkpt>
      <trkpt lat="43.58779" lon="3.30849">
        <ele>444.3</ele>
        <time>2017-11-01T13:04:14Z</time>
      </trkpt>
      <trkpt lat="43.58784" lon="3.3084">
        <ele>443.9</ele>
        <time>2017-11-01T13:04:19Z</time>
      </trkpt>
      <trkpt lat="43.5879" lon="3.30833">
        <ele>443.8</ele>
        <time>2017-11-01T13:04:23Z</time>
      </trkpt>
      <trkpt lat="43.58794" lon="3.30824">
        <ele>443.8</ele>
        <time>2017-11-01T13:04:26Z</time>
      </trkpt>
      <trkpt lat="43.588" lon="3.30813">
        <ele>443.8</ele>
        <time>2017-11-01T13:04:29Z</time>
      </trkpt>
      <trkpt lat="43.58803" lon="3.30804">
        <ele>443.8</ele>
        <time>2017-11-01T13:04:31Z</time>
      </trkpt>
      <trkpt lat="43.58807" lon="3.30793">
        <ele>443.7</ele>
        <time>2017-11-01T13:04:34Z</time>
      </trkpt>
      <trkpt lat="43.5881" lon="3.30784">
        <ele>443.6</ele>
        <time>2017-11-01T13:04:37Z</time>
      </trkpt>
      <trkpt lat="43.58814" lon="3.30775">
        <ele>443.3</ele>
        <time>2017-11-01T13:04:41Z</time>
      </trkpt>
      <trkpt lat="43.58821" lon="3.30767">
        <ele>443.1</ele>
        <time>2017-11-01T13:04:45Z</time>
      </trkpt>
      <trkpt lat="43.58827" lon="3.30758">
        <ele>443</ele>
        <time>2017-11-01T13:04:49Z</time>
      </trkpt>
      <trkpt lat="43.58832" lon="3.3075">
        <ele>443.1</ele>
        <time>2017-11-01T13:04:52Z</time>
      </trkpt>
      <trkpt lat="43.58836" lon="3.30738">
        <ele>443.3</ele>
        <time>2017-11-01T13:04:56Z</time>
      </trkpt>
      <trkpt lat="43.58838" lon="3.30728">
        <ele>443.5</ele>
        <time>2017-11-01T13:05:00Z</time>
      </trkpt>
      <trkpt lat="43.58841" lon="3.30717">
        <ele>443.6</ele>
        <time>2017-11-01T13:05:03Z</time>
      </trkpt>
      <trkpt lat="43.58842" lon="3.30707">
        <ele>443.6</ele>
        <time>2017-11-01T13:05:05Z</time>
      </trkpt>
      <trkpt lat="43.58843" lon="3.30696">
        <ele>443.5</ele>
        <time>2017-11-01T13:05:08Z</time>
      </trkpt>
      <trkpt lat="43.58844" lon="3.30683">
        <ele>443.3</ele>
        <time>2017-11-01T13:05:12Z</time>
      </trkpt>
      <trkpt lat="43.58844" lon="3.30672">
        <ele>443.2</ele>
        <time>2017-11-01T13:05:15Z</time>
      </trkpt>
      <trkpt lat="43.58844" lon="3.30662">
        <ele>443.1</ele>
        <time>2017-11-01T13:05:19Z</time>
      </trkpt>
      <trkpt lat="43.58845" lon="3.3065">
        <ele>443</ele>
        <time>2017-11-01T13:05:23Z</time>
      </trkpt>
      <trkpt lat="43.58847" lon="3.30636">
        <ele>443</ele>
        <time>2017-11-01T13:05:27Z</time>
      </trkpt>
      <trkpt lat="43.58849" lon="3.30625">
        <ele>443.1</ele>
        <time>2017-11-01T13:05:31Z</time>
      </trkpt>
      <trkpt lat="43.58851" lon="3.30614">
        <ele>443.2</ele>
        <time>2017-11-01T13:05:34Z</time>
      </trkpt>
      <trkpt lat="43.58852" lon="3.30605">
        <ele>443.3</ele>
        <time>2017-11-01T13:05:37Z</time>
      </trkpt>
      <trkpt lat="43.58852" lon="3.30592">
        <ele>443.6</ele>
        <time>2017-11-01T13:05:41Z</time>
      </trkpt>
      <trkpt lat="43.58852" lon="3.30581">
        <ele>444</ele>
        <time>2017-11-01T13:05:45Z</time>
      </trkpt>
      <trkpt lat="43.58854" lon="3.30569">
        <ele>444.5</ele>
        <time>2017-11-01T13:05:49Z</time>
      </trkpt>
      <trkpt lat="43.58856" lon="3.30556">
        <ele>444.9</ele>
        <time>2017-11-01T13:05:53Z</time>
      </trkpt>
      <trkpt lat="43.58857" lon="3.30546">
        <ele>445.2</ele>
        <time>2017-11-01T13:05:56Z</time>
      </trkpt>
      <trkpt lat="43.58858" lon="3.30534">
        <ele>445.7</ele>
        <time>2017-11-01T13:06:00Z</time>
      </trkpt>
      <trkpt lat="43.58859" lon="3.30521">
        <ele>446.1</ele>
        <time>2017-11-01T13:06:04Z</time>
      </trkpt>
      <trkpt lat="43.58862" lon="3.30509">
        <ele>446.6</ele>
        <time>2017-11-01T13:06:08Z</time>
      </trkpt>
      <trkpt lat="43.58863" lon="3.30499">
        <ele>447</ele>
        <time>2017-11-01T13:06:11Z</time>
      </trkpt>
      <trkpt lat="43.58863" lon="3.30488">
        <ele>447.4</ele>
        <time>2017-11-01T13:06:14Z</time>
      </trkpt>
      <trkpt lat="43.58863" lon="3.30475">
        <ele>447.9</ele>
        <time>2017-11-01T13:06:18Z</time>
      </trkpt>
      <trkpt lat="43.58863" lon="3.30464">
        <ele>448.4</ele>
        <time>2017-11-01T13:06:22Z</time>
      </trkpt>
      <trkpt lat="43.58863" lon="3.30452">
        <ele>448.9</ele>
        <time>2017-11-01T13:06:26Z</time>
      </trkpt>
      <trkpt lat="43.58862" lon="3.30441">
        <ele>449.2</ele>
        <time>2017-11-01T13:06:29Z</time>
      </trkpt>
      <trkpt lat="43.58859" lon="3.30429">
        <ele>449.5</ele>
        <time>2017-11-01T13:06:33Z</time>
      </trkpt>
      <trkpt lat="43.58855" lon="3.30418">
        <ele>449.9</ele>
        <time>2017-11-01T13:06:37Z</time>
      </trkpt>
      <trkpt lat="43.5885" lon="3.30411">
        <ele>450.4</ele>
        <time>2017-11-01T13:06:41Z</time>
      </trkpt>
      <trkpt lat="43.58843" lon="3.30403">
        <ele>450.9</ele>
        <time>2017-11-01T13:06:45Z</time>
      </trkpt>
      <trkpt lat="43.58836" lon="3.30396">
        <ele>451.3</ele>
        <time>2017-11-01T13:06:48Z</time>
      </trkpt>
      <trkpt lat="43.58831" lon="3.3039">
        <ele>451.6</ele>
        <time>2017-11-01T13:06:51Z</time>
      </trkpt>
      <trkpt lat="43.58825" lon="3.30383">
        <ele>452</ele>
        <time>2017-11-01T13:06:54Z</time>
      </trkpt>
      <trkpt lat="43.58818" lon="3.30375">
        <ele>452.5</ele>
        <time>2017-11-01T13:06:58Z</time>
      </trkpt>
      <trkpt lat="43.58811" lon="3.30371">
        <ele>453</ele>
        <time>2017-11-01T13:07:01Z</time>
      </trkpt>
      <trkpt lat="43.58804" lon="3.30365">
        <ele>453.3</ele>
        <time>2017-11-01T13:07:04Z</time>
      </trkpt>
      <trkpt lat="43.58797" lon="3.30358">
        <ele>453.8</ele>
        <time>2017-11-01T13:07:08Z</time>
      </trkpt>
      <trkpt lat="43.58791" lon="3.30352">
        <ele>454.1</ele>
        <time>2017-11-01T13:07:11Z</time>
      </trkpt>
      <trkpt lat="43.58786" lon="3.30344">
        <ele>454.7</ele>
        <time>2017-11-01T13:07:15Z</time>
      </trkpt>
      <trkpt lat="43.58782" lon="3.3033">
        <ele>455.4</ele>
        <time>2017-11-01T13:07:19Z</time>
      </trkpt>
      <trkpt lat="43.5878" lon="3.3032">
        <ele>455.9</ele>
        <time>2017-11-01T13:07:22Z</time>
      </trkpt>
      <trkpt lat="43.58779" lon="3.3031">
        <ele>456.7</ele>
        <time>2017-11-01T13:07:26Z</time>
      </trkpt>
      <trkpt lat="43.58779" lon="3.30299">
        <ele>457.1</ele>
        <time>2017-11-01T13:07:29Z</time>
      </trkpt>
      <trkpt lat="43.58777" lon="3.30289">
        <ele>457.5</ele>
        <time>2017-11-01T13:07:32Z</time>
      </trkpt>
      <trkpt lat="43.58776" lon="3.30279">
        <ele>458</ele>
        <time>2017-11-01T13:07:35Z</time>
      </trkpt>
      <trkpt lat="43.58774" lon="3.30268">
        <ele>458.5</ele>
        <time>2017-11-01T13:07:38Z</time>
      </trkpt>
      <trkpt lat="43.5877" lon="3.30259">
        <ele>459.2</ele>
        <time>2017-11-01T13:07:42Z</time>
      </trkpt>
      <trkpt lat="43.58765" lon="3.30247">
        <ele>459.7</ele>
        <time>2017-11-01T13:07:46Z</time>
      </trkpt>
      <trkpt lat="43.5876" lon="3.30239">
        <ele>460.2</ele>
        <time>2017-11-01T13:07:49Z</time>
      </trkpt>
      <trkpt lat="43.58755" lon="3.3023">
        <ele>460.8</ele>
        <time>2017-11-01T13:07:53Z</time>
      </trkpt>
      <trkpt lat="43.58751" lon="3.30217">
        <ele>461.5</ele>
        <time>2017-11-01T13:07:57Z</time>
      </trkpt>
      <trkpt lat="43.58745" lon="3.30208">
        <ele>462.2</ele>
        <time>2017-11-01T13:08:01Z</time>
      </trkpt>
      <trkpt lat="43.58739" lon="3.302">
        <ele>463.1</ele>
        <time>2017-11-01T13:08:05Z</time>
      </trkpt>
      <trkpt lat="43.58732" lon="3.30194">
        <ele>463.9</ele>
        <time>2017-11-01T13:08:09Z</time>
      </trkpt>
      <trkpt lat="43.58725" lon="3.30185">
        <ele>464.7</ele>
        <time>2017-11-01T13:08:13Z</time>
      </trkpt>
      <trkpt lat="43.5872" lon="3.30177">
        <ele>465.1</ele>
        <time>2017-11-01T13:08:16Z</time>
      </trkpt>
      <trkpt lat="43.58715" lon="3.30168">
        <ele>465.5</ele>
        <time>2017-11-01T13:08:19Z</time>
      </trkpt>
      <trkpt lat="43.58708" lon="3.30162">
        <ele>465.9</ele>
        <time>2017-11-01T13:08:23Z</time>
      </trkpt>
      <trkpt lat="43.58701" lon="3.30159">
        <ele>466.4</ele>
        <time>2017-11-01T13:08:27Z</time>
      </trkpt>
      <trkpt lat="43.58692" lon="3.30158">
        <ele>467.1</ele>
        <time>2017-11-01T13:08:32Z</time>
      </trkpt>
      <trkpt lat="43.58682" lon="3.30156">
        <ele>467.4</ele>
        <time>2017-11-01T13:08:35Z</time>
      </trkpt>
      <trkpt lat="43.58672" lon="3.30154">
        <ele>468</ele>
        <time>2017-11-01T13:08:39Z</time>
      </trkpt>
      <trkpt lat="43.58663" lon="3.30155">
        <ele>468.3</ele>
        <time>2017-11-01T13:08:42Z</time>
      </trkpt>
      <trkpt lat="43.58654" lon="3.30151">
        <ele>468.6</ele>
        <time>2017-11-01T13:08:47Z</time>
      </trkpt>
      <trkpt lat="43.58647" lon="3.30149">
        <ele>468.8</ele>
        <time>2017-11-01T13:08:50Z</time>
      </trkpt>
      <trkpt lat="43.58643" lon="3.3014">
        <ele>469.1</ele>
        <time>2017-11-01T13:08:53Z</time>
      </trkpt>
      <trkpt lat="43.58641" lon="3.30129">
        <ele>469.3</ele>
        <time>2017-11-01T13:08:56Z</time>
      </trkpt>
      <trkpt lat="43.58644" lon="3.30116">
        <ele>469.8</ele>
        <time>2017-11-01T13:09:00Z</time>
      </trkpt>
      <trkpt lat="43.58647" lon="3.30106">
        <ele>470.2</ele>
        <time>2017-11-01T13:09:04Z</time>
      </trkpt>
      <trkpt lat="43.58648" lon="3.30096">
        <ele>470.4</ele>
        <time>2017-11-01T13:09:07Z</time>
      </trkpt>
      <trkpt lat="43.58651" lon="3.30085">
        <ele>470.8</ele>
        <time>2017-11-01T13:09:11Z</time>
      </trkpt>
      <trkpt lat="43.58655" lon="3.30075">
        <ele>471.2</ele>
        <time>2017-11-01T13:09:15Z</time>
      </trkpt>
      <trkpt lat="43.5866" lon="3.30065">
        <ele>471.4</ele>
        <time>2017-11-01T13:09:17Z</time>
      </trkpt>
      <trkpt lat="43.58665" lon="3.30057">
        <ele>471.5</ele>
        <time>2017-11-01T13:09:21Z</time>
      </trkpt>
      <trkpt lat="43.58672" lon="3.30053">
        <ele>471.9</ele>
        <time>2017-11-01T13:09:26Z</time>
      </trkpt>
      <trkpt lat="43.58682" lon="3.30049">
        <ele>472.5</ele>
        <time>2017-11-01T13:09:30Z</time>
      </trkpt>
      <trkpt lat="43.58689" lon="3.30044">
        <ele>473</ele>
        <time>2017-11-01T13:09:33Z</time>
      </trkpt>
      <trkpt lat="43.58698" lon="3.30046">
        <ele>473.6</ele>
        <time>2017-11-01T13:09:37Z</time>
      </trkpt>
      <trkpt lat="43.58706" lon="3.30044">
        <ele>474.2</ele>
        <time>2017-11-01T13:09:40Z</time>
      </trkpt>
      <trkpt lat="43.58715" lon="3.30044">
        <ele>475.1</ele>
        <time>2017-11-01T13:09:44Z</time>
      </trkpt>
      <trkpt lat="43.58722" lon="3.30041">
        <ele>475.8</ele>
        <time>2017-11-01T13:09:47Z</time>
      </trkpt>
      <trkpt lat="43.58731" lon="3.30038">
        <ele>476.8</ele>
        <time>2017-11-01T13:09:51Z</time>
      </trkpt>
      <trkpt lat="43.58739" lon="3.30035">
        <ele>477.3</ele>
        <time>2017-11-01T13:09:53Z</time>
      </trkpt>
      <trkpt lat="43.58746" lon="3.30033">
        <ele>478.1</ele>
        <time>2017-11-01T13:09:56Z</time>
      </trkpt>
      <trkpt lat="43.58753" lon="3.30027">
        <ele>478.9</ele>
        <time>2017-11-01T13:10:00Z</time>
      </trkpt>
      <trkpt lat="43.58759" lon="3.30017">
        <ele>479.7</ele>
        <time>2017-11-01T13:10:03Z</time>
      </trkpt>
      <trkpt lat="43.58765" lon="3.3001">
        <ele>480.2</ele>
        <time>2017-11-01T13:10:05Z</time>
      </trkpt>
      <trkpt lat="43.58769" lon="3.30001">
        <ele>480.8</ele>
        <time>2017-11-01T13:10:08Z</time>
      </trkpt>
      <trkpt lat="43.58773" lon="3.29988">
        <ele>481.3</ele>
        <time>2017-11-01T13:10:12Z</time>
      </trkpt>
      <trkpt lat="43.58777" lon="3.29978">
        <ele>481.5</ele>
        <time>2017-11-01T13:10:15Z</time>
      </trkpt>
      <trkpt lat="43.58783" lon="3.29966">
        <ele>481.9</ele>
        <time>2017-11-01T13:10:18Z</time>
      </trkpt>
      <trkpt lat="43.58785" lon="3.29956">
        <ele>482.1</ele>
        <time>2017-11-01T13:10:21Z</time>
      </trkpt>
      <trkpt lat="43.58788" lon="3.29946">
        <ele>482.3</ele>
        <time>2017-11-01T13:10:24Z</time>
      </trkpt>
      <trkpt lat="43.58789" lon="3.29934">
        <ele>482.3</ele>
        <time>2017-11-01T13:10:27Z</time>
      </trkpt>
      <trkpt lat="43.58789" lon="3.29923">
        <ele>482.3</ele>
        <time>2017-11-01T13:10:30Z</time>
      </trkpt>
      <trkpt lat="43.58788" lon="3.29912">
        <ele>482.2</ele>
        <time>2017-11-01T13:10:33Z</time>
      </trkpt>
      <trkpt lat="43.58785" lon="3.29901">
        <ele>482.3</ele>
        <time>2017-11-01T13:10:36Z</time>
      </trkpt>
      <trkpt lat="43.58781" lon="3.29891">
        <ele>482.6</ele>
        <time>2017-11-01T13:10:40Z</time>
      </trkpt>
      <trkpt lat="43.58775" lon="3.29884">
        <ele>482.9</ele>
        <time>2017-11-01T13:10:43Z</time>
      </trkpt>
      <trkpt lat="43.58768" lon="3.29881">
        <ele>483.2</ele>
        <time>2017-11-01T13:10:46Z</time>
      </trkpt>
      <trkpt lat="43.58758" lon="3.2988">
        <ele>483.4</ele>
        <time>2017-11-01T13:10:50Z</time>
      </trkpt>
      <trkpt lat="43.5875" lon="3.2988">
        <ele>483.6</ele>
        <time>2017-11-01T13:10:53Z</time>
      </trkpt>
      <trkpt lat="43.58742" lon="3.29882">
        <ele>483.8</ele>
        <time>2017-11-01T13:10:56Z</time>
      </trkpt>
      <trkpt lat="43.58734" lon="3.29884">
        <ele>484</ele>
        <time>2017-11-01T13:10:59Z</time>
      </trkpt>
      <trkpt lat="43.58726" lon="3.29885">
        <ele>484.4</ele>
        <time>2017-11-01T13:11:03Z</time>
      </trkpt>
      <trkpt lat="43.58717" lon="3.29885">
        <ele>484.8</ele>
        <time>2017-11-01T13:11:06Z</time>
      </trkpt>
      <trkpt lat="43.58708" lon="3.29885">
        <ele>485.5</ele>
        <time>2017-11-01T13:11:10Z</time>
      </trkpt>
      <trkpt lat="43.587" lon="3.29884">
        <ele>485.9</ele>
        <time>2017-11-01T13:11:13Z</time>
      </trkpt>
      <trkpt lat="43.58692" lon="3.29882">
        <ele>486.3</ele>
        <time>2017-11-01T13:11:16Z</time>
      </trkpt>
      <trkpt lat="43.58684" lon="3.29882">
        <ele>486.6</ele>
        <time>2017-11-01T13:11:19Z</time>
      </trkpt>
      <trkpt lat="43.58675" lon="3.29884">
        <ele>487.1</ele>
        <time>2017-11-01T13:11:23Z</time>
      </trkpt>
      <trkpt lat="43.58666" lon="3.29884">
        <ele>487.7</ele>
        <time>2017-11-01T13:11:27Z</time>
      </trkpt>
      <trkpt lat="43.58657" lon="3.29885">
        <ele>488.3</ele>
        <time>2017-11-01T13:11:31Z</time>
      </trkpt>
      <trkpt lat="43.58648" lon="3.29886">
        <ele>488.9</ele>
        <time>2017-11-01T13:11:36Z</time>
      </trkpt>
      <trkpt lat="43.58639" lon="3.29888">
        <ele>489.5</ele>
        <time>2017-11-01T13:11:40Z</time>
      </trkpt>
      <trkpt lat="43.58632" lon="3.2989">
        <ele>490.1</ele>
        <time>2017-11-01T13:11:44Z</time>
      </trkpt>
      <trkpt lat="43.58624" lon="3.29892">
        <ele>490.7</ele>
        <time>2017-11-01T13:11:49Z</time>
      </trkpt>
      <trkpt lat="43.58616" lon="3.29891">
        <ele>491</ele>
        <time>2017-11-01T13:11:53Z</time>
      </trkpt>
      <trkpt lat="43.58612" lon="3.299">
        <ele>491.6</ele>
        <time>2017-11-01T13:12:00Z</time>
      </trkpt>
      <trkpt lat="43.58605" lon="3.29899">
        <ele>492.5</ele>
        <time>2017-11-01T13:12:07Z</time>
      </trkpt>
      <trkpt lat="43.58596" lon="3.29895">
        <ele>493</ele>
        <time>2017-11-01T13:12:11Z</time>
      </trkpt>
      <trkpt lat="43.5859" lon="3.29889">
        <ele>493.4</ele>
        <time>2017-11-01T13:12:14Z</time>
      </trkpt>
      <trkpt lat="43.58586" lon="3.2988">
        <ele>494.1</ele>
        <time>2017-11-01T13:12:20Z</time>
      </trkpt>
      <trkpt lat="43.58588" lon="3.29866">
        <ele>494.4</ele>
        <time>2017-11-01T13:12:23Z</time>
      </trkpt>
      <trkpt lat="43.58586" lon="3.29854">
        <ele>494.8</ele>
        <time>2017-11-01T13:12:27Z</time>
      </trkpt>
      <trkpt lat="43.58585" lon="3.29843">
        <ele>495.6</ele>
        <time>2017-11-01T13:12:32Z</time>
      </trkpt>
      <trkpt lat="43.58581" lon="3.29833">
        <ele>496.2</ele>
        <time>2017-11-01T13:12:35Z</time>
      </trkpt>
      <trkpt lat="43.58576" lon="3.29824">
        <ele>497.4</ele>
        <time>2017-11-01T13:12:41Z</time>
      </trkpt>
      <trkpt lat="43.58576" lon="3.29813">
        <ele>497.8</ele>
        <time>2017-11-01T13:12:44Z</time>
      </trkpt>
      <trkpt lat="43.58574" lon="3.29803">
        <ele>498.4</ele>
        <time>2017-11-01T13:12:49Z</time>
      </trkpt>
      <trkpt lat="43.58567" lon="3.298">
        <ele>498.8</ele>
        <time>2017-11-01T13:12:53Z</time>
      </trkpt>
      <trkpt lat="43.5856" lon="3.29803">
        <ele>499.2</ele>
        <time>2017-11-01T13:12:57Z</time>
      </trkpt>
      <trkpt lat="43.58553" lon="3.29804">
        <ele>499.9</ele>
        <time>2017-11-01T13:13:04Z</time>
      </trkpt>
      <trkpt lat="43.58545" lon="3.29797">
        <ele>500.5</ele>
        <time>2017-11-01T13:13:08Z</time>
      </trkpt>
      <trkpt lat="43.58538" lon="3.29792">
        <ele>501.6</ele>
        <time>2017-11-01T13:13:13Z</time>
      </trkpt>
      <trkpt lat="43.58531" lon="3.29798">
        <ele>502.8</ele>
        <time>2017-11-01T13:13:19Z</time>
      </trkpt>
      <trkpt lat="43.58525" lon="3.29803">
        <ele>503.8</ele>
        <time>2017-11-01T13:13:24Z</time>
      </trkpt>
      <trkpt lat="43.58516" lon="3.29805">
        <ele>505.8</ele>
        <time>2017-11-01T13:13:30Z</time>
      </trkpt>
      <trkpt lat="43.5851" lon="3.29799">
        <ele>507.4</ele>
        <time>2017-11-01T13:13:36Z</time>
      </trkpt>
      <trkpt lat="43.58506" lon="3.29786">
        <ele>508.2</ele>
        <time>2017-11-01T13:13:40Z</time>
      </trkpt>
      <trkpt lat="43.58502" lon="3.29775">
        <ele>509</ele>
        <time>2017-11-01T13:13:44Z</time>
      </trkpt>
      <trkpt lat="43.58496" lon="3.29768">
        <ele>509.6</ele>
        <time>2017-11-01T13:13:47Z</time>
      </trkpt>
      <trkpt lat="43.58489" lon="3.29758">
        <ele>510.2</ele>
        <time>2017-11-01T13:13:50Z</time>
      </trkpt>
      <trkpt lat="43.58482" lon="3.2975">
        <ele>513</ele>
        <time>2017-11-01T13:13:52Z</time>
      </trkpt>
      <trkpt lat="43.58476" lon="3.29742">
        <ele>514.4</ele>
        <time>2017-11-01T13:13:54Z</time>
      </trkpt>
      <trkpt lat="43.58468" lon="3.29733">
        <ele>514.2</ele>
        <time>2017-11-01T13:13:56Z</time>
      </trkpt>
      <trkpt lat="43.58462" lon="3.29721">
        <ele>513.8</ele>
        <time>2017-11-01T13:13:58Z</time>
      </trkpt>
      <trkpt lat="43.58454" lon="3.29712">
        <ele>513</ele>
        <time>2017-11-01T13:14:00Z</time>
      </trkpt>
      <trkpt lat="43.58451" lon="3.29702">
        <ele>513</ele>
        <time>2017-11-01T13:14:02Z</time>
      </trkpt>
      <trkpt lat="43.58449" lon="3.29692">
        <ele>513</ele>
        <time>2017-11-01T13:14:05Z</time>
      </trkpt>
      <trkpt lat="43.58448" lon="3.2969">
        <ele>513</ele>
        <time>2017-11-01T13:14:12Z</time>
      </trkpt>
      <trkpt lat="43.58446" lon="3.2969">
        <ele>513.1</ele>
        <time>2017-11-01T13:14:19Z</time>
      </trkpt>
      <trkpt lat="43.58449" lon="3.29692">
        <ele>513.1</ele>
        <time>2017-11-01T13:14:32Z</time>
      </trkpt>
      <trkpt lat="43.58451" lon="3.29693">
        <ele>513.3</ele>
        <time>2017-11-01T13:14:39Z</time>
      </trkpt>
      <trkpt lat="43.5845" lon="3.29693">
        <ele>513.3</ele>
        <time>2017-11-01T13:14:51Z</time>
      </trkpt>
      <trkpt lat="43.58448" lon="3.29695">
        <ele>514</ele>
        <time>2017-11-01T13:15:21Z</time>
      </trkpt>
      <trkpt lat="43.58448" lon="3.29694">
        <ele>514.2</ele>
        <time>2017-11-01T13:15:28Z</time>
      </trkpt>
      <trkpt lat="43.58448" lon="3.29692">
        <ele>514.4</ele>
        <time>2017-11-01T13:15:35Z</time>
      </trkpt>
      <trkpt lat="43.58448" lon="3.29692">
        <ele>514.8</ele>
        <time>2017-11-01T13:16:04Z</time>
      </trkpt>
      <trkpt lat="43.58447" lon="3.29681">
        <ele>514.6</ele>
        <time>2017-11-01T13:16:22Z</time>
      </trkpt>
      <trkpt lat="43.58444" lon="3.29669">
        <ele>514.6</ele>
        <time>2017-11-01T13:16:26Z</time>
      </trkpt>
      <trkpt lat="43.58444" lon="3.29658">
        <ele>514.4</ele>
        <time>2017-11-01T13:16:30Z</time>
      </trkpt>
      <trkpt lat="43.58447" lon="3.29648">
        <ele>514.2</ele>
        <time>2017-11-01T13:16:33Z</time>
      </trkpt>
      <trkpt lat="43.58449" lon="3.29633">
        <ele>514.2</ele>
        <time>2017-11-01T13:16:36Z</time>
      </trkpt>
      <trkpt lat="43.5845" lon="3.29621">
        <ele>513.9</ele>
        <time>2017-11-01T13:16:38Z</time>
      </trkpt>
      <trkpt lat="43.58449" lon="3.29607">
        <ele>513.8</ele>
        <time>2017-11-01T13:16:40Z</time>
      </trkpt>
      <trkpt lat="43.58447" lon="3.29595">
        <ele>513.6</ele>
        <time>2017-11-01T13:16:42Z</time>
      </trkpt>
      <trkpt lat="43.58444" lon="3.29583">
        <ele>513.5</ele>
        <time>2017-11-01T13:16:44Z</time>
      </trkpt>
      <trkpt lat="43.58442" lon="3.29572">
        <ele>513.4</ele>
        <time>2017-11-01T13:16:46Z</time>
      </trkpt>
      <trkpt lat="43.58442" lon="3.2956">
        <ele>513.4</ele>
        <time>2017-11-01T13:16:48Z</time>
      </trkpt>
      <trkpt lat="43.58441" lon="3.29547">
        <ele>513.1</ele>
        <time>2017-11-01T13:16:51Z</time>
      </trkpt>
      <trkpt lat="43.58442" lon="3.29534">
        <ele>512.2</ele>
        <time>2017-11-01T13:16:53Z</time>
      </trkpt>
      <trkpt lat="43.58442" lon="3.29521">
        <ele>510.6</ele>
        <time>2017-11-01T13:16:55Z</time>
      </trkpt>
      <trkpt lat="43.58444" lon="3.29506">
        <ele>509.1</ele>
        <time>2017-11-01T13:16:57Z</time>
      </trkpt>
      <trkpt lat="43.58444" lon="3.29491">
        <ele>507.2</ele>
        <time>2017-11-01T13:16:59Z</time>
      </trkpt>
      <trkpt lat="43.58449" lon="3.29472">
        <ele>504.9</ele>
        <time>2017-11-01T13:17:01Z</time>
      </trkpt>
      <trkpt lat="43.58451" lon="3.29461">
        <ele>503.7</ele>
        <time>2017-11-01T13:17:02Z</time>
      </trkpt>
      <trkpt lat="43.58453" lon="3.2945">
        <ele>502.6</ele>
        <time>2017-11-01T13:17:03Z</time>
      </trkpt>
      <trkpt lat="43.58454" lon="3.2944">
        <ele>501.7</ele>
        <time>2017-11-01T13:17:04Z</time>
      </trkpt>
      <trkpt lat="43.58456" lon="3.2943">
        <ele>500.7</ele>
        <time>2017-11-01T13:17:05Z</time>
      </trkpt>
      <trkpt lat="43.58457" lon="3.29418">
        <ele>499.9</ele>
        <time>2017-11-01T13:17:06Z</time>
      </trkpt>
      <trkpt lat="43.58458" lon="3.29407">
        <ele>499.3</ele>
        <time>2017-11-01T13:17:07Z</time>
      </trkpt>
      <trkpt lat="43.58459" lon="3.29395">
        <ele>498.9</ele>
        <time>2017-11-01T13:17:08Z</time>
      </trkpt>
      <trkpt lat="43.5846" lon="3.29385">
        <ele>498.4</ele>
        <time>2017-11-01T13:17:09Z</time>
      </trkpt>
      <trkpt lat="43.58465" lon="3.29369">
        <ele>497.5</ele>
        <time>2017-11-01T13:17:11Z</time>
      </trkpt>
      <trkpt lat="43.58476" lon="3.29359">
        <ele>496.3</ele>
        <time>2017-11-01T13:17:13Z</time>
      </trkpt>
      <trkpt lat="43.58486" lon="3.29353">
        <ele>495.3</ele>
        <time>2017-11-01T13:17:15Z</time>
      </trkpt>
      <trkpt lat="43.58498" lon="3.29346">
        <ele>495</ele>
        <time>2017-11-01T13:17:17Z</time>
      </trkpt>
      <trkpt lat="43.58505" lon="3.29341">
        <ele>494.9</ele>
        <time>2017-11-01T13:17:18Z</time>
      </trkpt>
      <trkpt lat="43.58511" lon="3.29331">
        <ele>494.5</ele>
        <time>2017-11-01T13:17:19Z</time>
      </trkpt>
      <trkpt lat="43.58518" lon="3.2932">
        <ele>493.8</ele>
        <time>2017-11-01T13:17:20Z</time>
      </trkpt>
      <trkpt lat="43.58525" lon="3.2931">
        <ele>493</ele>
        <time>2017-11-01T13:17:21Z</time>
      </trkpt>
      <trkpt lat="43.58531" lon="3.29299">
        <ele>492.2</ele>
        <time>2017-11-01T13:17:22Z</time>
      </trkpt>
      <trkpt lat="43.58537" lon="3.29289">
        <ele>491.4</ele>
        <time>2017-11-01T13:17:23Z</time>
      </trkpt>
      <trkpt lat="43.58542" lon="3.29279">
        <ele>490.6</ele>
        <time>2017-11-01T13:17:24Z</time>
      </trkpt>
      <trkpt lat="43.58548" lon="3.29268">
        <ele>489.9</ele>
        <time>2017-11-01T13:17:25Z</time>
      </trkpt>
      <trkpt lat="43.58554" lon="3.29258">
        <ele>489.2</ele>
        <time>2017-11-01T13:17:26Z</time>
      </trkpt>
      <trkpt lat="43.58558" lon="3.29248">
        <ele>488.5</ele>
        <time>2017-11-01T13:17:27Z</time>
      </trkpt>
      <trkpt lat="43.58563" lon="3.29237">
        <ele>487.8</ele>
        <time>2017-11-01T13:17:28Z</time>
      </trkpt>
      <trkpt lat="43.58567" lon="3.29226">
        <ele>487.1</ele>
        <time>2017-11-01T13:17:29Z</time>
      </trkpt>
      <trkpt lat="43.58571" lon="3.29215">
        <ele>486.4</ele>
        <time>2017-11-01T13:17:30Z</time>
      </trkpt>
      <trkpt lat="43.58573" lon="3.29204">
        <ele>485.7</ele>
        <time>2017-11-01T13:17:31Z</time>
      </trkpt>
      <trkpt lat="43.58575" lon="3.29194">
        <ele>485.1</ele>
        <time>2017-11-01T13:17:32Z</time>
      </trkpt>
      <trkpt lat="43.58574" lon="3.29175">
        <ele>483.8</ele>
        <time>2017-11-01T13:17:34Z</time>
      </trkpt>
      <trkpt lat="43.58571" lon="3.29159">
        <ele>482.9</ele>
        <time>2017-11-01T13:17:36Z</time>
      </trkpt>
      <trkpt lat="43.58561" lon="3.29144">
        <ele>481.8</ele>
        <time>2017-11-01T13:17:38Z</time>
      </trkpt>
      <trkpt lat="43.58556" lon="3.29134">
        <ele>481.5</ele>
        <time>2017-11-01T13:17:39Z</time>
      </trkpt>
      <trkpt lat="43.58554" lon="3.29123">
        <ele>481</ele>
        <time>2017-11-01T13:17:40Z</time>
      </trkpt>
      <trkpt lat="43.58553" lon="3.29111">
        <ele>480.5</ele>
        <time>2017-11-01T13:17:41Z</time>
      </trkpt>
      <trkpt lat="43.58551" lon="3.29098">
        <ele>480</ele>
        <time>2017-11-01T13:17:42Z</time>
      </trkpt>
      <trkpt lat="43.58549" lon="3.29086">
        <ele>479.6</ele>
        <time>2017-11-01T13:17:43Z</time>
      </trkpt>
      <trkpt lat="43.58544" lon="3.29078">
        <ele>479</ele>
        <time>2017-11-01T13:17:44Z</time>
      </trkpt>
      <trkpt lat="43.58541" lon="3.29067">
        <ele>478.5</ele>
        <time>2017-11-01T13:17:45Z</time>
      </trkpt>
      <trkpt lat="43.58537" lon="3.29058">
        <ele>477.8</ele>
        <time>2017-11-01T13:17:46Z</time>
      </trkpt>
      <trkpt lat="43.58532" lon="3.29048">
        <ele>477.3</ele>
        <time>2017-11-01T13:17:47Z</time>
      </trkpt>
      <trkpt lat="43.58528" lon="3.29039">
        <ele>476.5</ele>
        <time>2017-11-01T13:17:48Z</time>
      </trkpt>
      <trkpt lat="43.58524" lon="3.29029">
        <ele>475.8</ele>
        <time>2017-11-01T13:17:49Z</time>
      </trkpt>
      <trkpt lat="43.58523" lon="3.29018">
        <ele>474.9</ele>
        <time>2017-11-01T13:17:50Z</time>
      </trkpt>
      <trkpt lat="43.58524" lon="3.29007">
        <ele>474.2</ele>
        <time>2017-11-01T13:17:51Z</time>
      </trkpt>
      <trkpt lat="43.58525" lon="3.28996">
        <ele>473.6</ele>
        <time>2017-11-01T13:17:52Z</time>
      </trkpt>
      <trkpt lat="43.58527" lon="3.28984">
        <ele>473</ele>
        <time>2017-11-01T13:17:53Z</time>
      </trkpt>
      <trkpt lat="43.58529" lon="3.28973">
        <ele>472.5</ele>
        <time>2017-11-01T13:17:54Z</time>
      </trkpt>
      <trkpt lat="43.58531" lon="3.28961">
        <ele>471.9</ele>
        <time>2017-11-01T13:17:55Z</time>
      </trkpt>
      <trkpt lat="43.58532" lon="3.28949">
        <ele>471.3</ele>
        <time>2017-11-01T13:17:56Z</time>
      </trkpt>
      <trkpt lat="43.58534" lon="3.28937">
        <ele>470.9</ele>
        <time>2017-11-01T13:17:57Z</time>
      </trkpt>
      <trkpt lat="43.58538" lon="3.28926">
        <ele>470.5</ele>
        <time>2017-11-01T13:17:58Z</time>
      </trkpt>
      <trkpt lat="43.58541" lon="3.28915">
        <ele>470</ele>
        <time>2017-11-01T13:17:59Z</time>
      </trkpt>
      <trkpt lat="43.58544" lon="3.28903">
        <ele>469.4</ele>
        <time>2017-11-01T13:18:00Z</time>
      </trkpt>
      <trkpt lat="43.58547" lon="3.28892">
        <ele>468.8</ele>
        <time>2017-11-01T13:18:01Z</time>
      </trkpt>
      <trkpt lat="43.58549" lon="3.2888">
        <ele>468</ele>
        <time>2017-11-01T13:18:02Z</time>
      </trkpt>
      <trkpt lat="43.58549" lon="3.28869">
        <ele>467.2</ele>
        <time>2017-11-01T13:18:03Z</time>
      </trkpt>
      <trkpt lat="43.58548" lon="3.28857">
        <ele>466.3</ele>
        <time>2017-11-01T13:18:04Z</time>
      </trkpt>
      <trkpt lat="43.58547" lon="3.28846">
        <ele>465.5</ele>
        <time>2017-11-01T13:18:05Z</time>
      </trkpt>
      <trkpt lat="43.58545" lon="3.28834">
        <ele>464.8</ele>
        <time>2017-11-01T13:18:06Z</time>
      </trkpt>
      <trkpt lat="43.58543" lon="3.28824">
        <ele>464.1</ele>
        <time>2017-11-01T13:18:07Z</time>
      </trkpt>
      <trkpt lat="43.58541" lon="3.28813">
        <ele>463.4</ele>
        <time>2017-11-01T13:18:08Z</time>
      </trkpt>
      <trkpt lat="43.58538" lon="3.28802">
        <ele>462.7</ele>
        <time>2017-11-01T13:18:09Z</time>
      </trkpt>
      <trkpt lat="43.58536" lon="3.28792">
        <ele>461.9</ele>
        <time>2017-11-01T13:18:10Z</time>
      </trkpt>
      <trkpt lat="43.58536" lon="3.28781">
        <ele>461.4</ele>
        <time>2017-11-01T13:18:11Z</time>
      </trkpt>
      <trkpt lat="43.58534" lon="3.2877">
        <ele>460.8</ele>
        <time>2017-11-01T13:18:12Z</time>
      </trkpt>
      <trkpt lat="43.58534" lon="3.28755">
        <ele>460.2</ele>
        <time>2017-11-01T13:18:14Z</time>
      </trkpt>
      <trkpt lat="43.58535" lon="3.28741">
        <ele>459.6</ele>
        <time>2017-11-01T13:18:21Z</time>
      </trkpt>
      <trkpt lat="43.58531" lon="3.28752">
        <ele>459.4</ele>
        <time>2017-11-01T13:18:33Z</time>
      </trkpt>
      <trkpt lat="43.58526" lon="3.2876">
        <ele>459.4</ele>
        <time>2017-11-01T13:18:36Z</time>
      </trkpt>
      <trkpt lat="43.58524" lon="3.2877">
        <ele>459.3</ele>
        <time>2017-11-01T13:18:38Z</time>
      </trkpt>
      <trkpt lat="43.5852" lon="3.28781">
        <ele>459.3</ele>
        <time>2017-11-01T13:18:40Z</time>
      </trkpt>
      <trkpt lat="43.58516" lon="3.28794">
        <ele>457.5</ele>
        <time>2017-11-01T13:18:42Z</time>
      </trkpt>
      <trkpt lat="43.5851" lon="3.28807">
        <ele>455.6</ele>
        <time>2017-11-01T13:18:44Z</time>
      </trkpt>
      <trkpt lat="43.58504" lon="3.28822">
        <ele>453.3</ele>
        <time>2017-11-01T13:18:46Z</time>
      </trkpt>
      <trkpt lat="43.58499" lon="3.2884">
        <ele>451.1</ele>
        <time>2017-11-01T13:18:48Z</time>
      </trkpt>
      <trkpt lat="43.58496" lon="3.28856">
        <ele>449.5</ele>
        <time>2017-11-01T13:18:50Z</time>
      </trkpt>
      <trkpt lat="43.58492" lon="3.28867">
        <ele>447.6</ele>
        <time>2017-11-01T13:18:52Z</time>
      </trkpt>
      <trkpt lat="43.58485" lon="3.2888">
        <ele>445.8</ele>
        <time>2017-11-01T13:18:54Z</time>
      </trkpt>
      <trkpt lat="43.5848" lon="3.28887">
        <ele>444.9</ele>
        <time>2017-11-01T13:18:55Z</time>
      </trkpt>
      <trkpt lat="43.58476" lon="3.28896">
        <ele>444.1</ele>
        <time>2017-11-01T13:18:56Z</time>
      </trkpt>
      <trkpt lat="43.58471" lon="3.28905">
        <ele>443.2</ele>
        <time>2017-11-01T13:18:57Z</time>
      </trkpt>
      <trkpt lat="43.58462" lon="3.28918">
        <ele>441.5</ele>
        <time>2017-11-01T13:18:59Z</time>
      </trkpt>
      <trkpt lat="43.58458" lon="3.28926">
        <ele>440.9</ele>
        <time>2017-11-01T13:19:00Z</time>
      </trkpt>
      <trkpt lat="43.5845" lon="3.28941">
        <ele>439.1</ele>
        <time>2017-11-01T13:19:02Z</time>
      </trkpt>
      <trkpt lat="43.58444" lon="3.28956">
        <ele>436.9</ele>
        <time>2017-11-01T13:19:04Z</time>
      </trkpt>
      <trkpt lat="43.58434" lon="3.28965">
        <ele>435</ele>
        <time>2017-11-01T13:19:06Z</time>
      </trkpt>
      <trkpt lat="43.58424" lon="3.28973">
        <ele>433.3</ele>
        <time>2017-11-01T13:19:08Z</time>
      </trkpt>
      <trkpt lat="43.58413" lon="3.2898">
        <ele>432.5</ele>
        <time>2017-11-01T13:19:10Z</time>
      </trkpt>
      <trkpt lat="43.58402" lon="3.28985">
        <ele>431.6</ele>
        <time>2017-11-01T13:19:12Z</time>
      </trkpt>
      <trkpt lat="43.58391" lon="3.28986">
        <ele>431.2</ele>
        <time>2017-11-01T13:19:14Z</time>
      </trkpt>
      <trkpt lat="43.58382" lon="3.28982">
        <ele>430.9</ele>
        <time>2017-11-01T13:19:16Z</time>
      </trkpt>
      <trkpt lat="43.5837" lon="3.28978">
        <ele>430.2</ele>
        <time>2017-11-01T13:19:18Z</time>
      </trkpt>
      <trkpt lat="43.58359" lon="3.28973">
        <ele>429</ele>
        <time>2017-11-01T13:19:20Z</time>
      </trkpt>
      <trkpt lat="43.58347" lon="3.28965">
        <ele>427.6</ele>
        <time>2017-11-01T13:19:22Z</time>
      </trkpt>
      <trkpt lat="43.5834" lon="3.28959">
        <ele>426.7</ele>
        <time>2017-11-01T13:19:23Z</time>
      </trkpt>
      <trkpt lat="43.58334" lon="3.28954">
        <ele>425.8</ele>
        <time>2017-11-01T13:19:24Z</time>
      </trkpt>
      <trkpt lat="43.58321" lon="3.28948">
        <ele>424.1</ele>
        <time>2017-11-01T13:19:26Z</time>
      </trkpt>
      <trkpt lat="43.58313" lon="3.28943">
        <ele>422.8</ele>
        <time>2017-11-01T13:19:28Z</time>
      </trkpt>
      <trkpt lat="43.58304" lon="3.28946">
        <ele>421.2</ele>
        <time>2017-11-01T13:19:31Z</time>
      </trkpt>
      <trkpt lat="43.58295" lon="3.28949">
        <ele>420.1</ele>
        <time>2017-11-01T13:19:33Z</time>
      </trkpt>
      <trkpt lat="43.58283" lon="3.2895">
        <ele>418.7</ele>
        <time>2017-11-01T13:19:35Z</time>
      </trkpt>
      <trkpt lat="43.58271" lon="3.28952">
        <ele>417.1</ele>
        <time>2017-11-01T13:19:37Z</time>
      </trkpt>
      <trkpt lat="43.58264" lon="3.28954">
        <ele>416.3</ele>
        <time>2017-11-01T13:19:38Z</time>
      </trkpt>
      <trkpt lat="43.58255" lon="3.28955">
        <ele>416.2</ele>
        <time>2017-11-01T13:19:39Z</time>
      </trkpt>
      <trkpt lat="43.58244" lon="3.28955">
        <ele>415.9</ele>
        <time>2017-11-01T13:19:41Z</time>
      </trkpt>
      <trkpt lat="43.58235" lon="3.28956">
        <ele>415.5</ele>
        <time>2017-11-01T13:19:43Z</time>
      </trkpt>
      <trkpt lat="43.58225" lon="3.28956">
        <ele>415.1</ele>
        <time>2017-11-01T13:19:45Z</time>
      </trkpt>
      <trkpt lat="43.58216" lon="3.28955">
        <ele>414.6</ele>
        <time>2017-11-01T13:19:47Z</time>
      </trkpt>
      <trkpt lat="43.58207" lon="3.28953">
        <ele>414</ele>
        <time>2017-11-01T13:19:49Z</time>
      </trkpt>
      <trkpt lat="43.58197" lon="3.2895">
        <ele>407.5</ele>
        <time>2017-11-01T13:19:51Z</time>
      </trkpt>
      <trkpt lat="43.58189" lon="3.2895">
        <ele>407</ele>
        <time>2017-11-01T13:19:53Z</time>
      </trkpt>
      <trkpt lat="43.58181" lon="3.2895">
        <ele>406.4</ele>
        <time>2017-11-01T13:19:55Z</time>
      </trkpt>
      <trkpt lat="43.58171" lon="3.2895">
        <ele>405.7</ele>
        <time>2017-11-01T13:19:57Z</time>
      </trkpt>
      <trkpt lat="43.58162" lon="3.2895">
        <ele>404.9</ele>
        <time>2017-11-01T13:19:59Z</time>
      </trkpt>
      <trkpt lat="43.58154" lon="3.28945">
        <ele>404.1</ele>
        <time>2017-11-01T13:20:01Z</time>
      </trkpt>
      <trkpt lat="43.58149" lon="3.28937">
        <ele>403.3</ele>
        <time>2017-11-01T13:20:03Z</time>
      </trkpt>
      <trkpt lat="43.58147" lon="3.28926">
        <ele>402.5</ele>
        <time>2017-11-01T13:20:05Z</time>
      </trkpt>
      <trkpt lat="43.58142" lon="3.28918">
        <ele>401.1</ele>
        <time>2017-11-01T13:20:08Z</time>
      </trkpt>
      <trkpt lat="43.58136" lon="3.28911">
        <ele>399.1</ele>
        <time>2017-11-01T13:20:12Z</time>
      </trkpt>
      <trkpt lat="43.58128" lon="3.28911">
        <ele>396.4</ele>
        <time>2017-11-01T13:20:18Z</time>
      </trkpt>
      <trkpt lat="43.58119" lon="3.28914">
        <ele>395</ele>
        <time>2017-11-01T13:20:21Z</time>
      </trkpt>
      <trkpt lat="43.58109" lon="3.28912">
        <ele>393.7</ele>
        <time>2017-11-01T13:20:24Z</time>
      </trkpt>
      <trkpt lat="43.581" lon="3.2891">
        <ele>392.1</ele>
        <time>2017-11-01T13:20:27Z</time>
      </trkpt>
      <trkpt lat="43.5809" lon="3.28912">
        <ele>390.6</ele>
        <time>2017-11-01T13:20:30Z</time>
      </trkpt>
      <trkpt lat="43.58086" lon="3.28911">
        <ele>389.4</ele>
        <time>2017-11-01T13:20:37Z</time>
      </trkpt>
      <trkpt lat="43.58079" lon="3.28905">
        <ele>387.7</ele>
        <time>2017-11-01T13:20:41Z</time>
      </trkpt>
      <trkpt lat="43.5807" lon="3.28904">
        <ele>380</ele>
        <time>2017-11-01T13:20:43Z</time>
      </trkpt>
      <trkpt lat="43.58059" lon="3.28897">
        <ele>374.6</ele>
        <time>2017-11-01T13:20:45Z</time>
      </trkpt>
      <trkpt lat="43.58048" lon="3.28892">
        <ele>372.3</ele>
        <time>2017-11-01T13:20:47Z</time>
      </trkpt>
      <trkpt lat="43.58041" lon="3.28887">
        <ele>371.6</ele>
        <time>2017-11-01T13:20:50Z</time>
      </trkpt>
      <trkpt lat="43.58032" lon="3.28884">
        <ele>370.9</ele>
        <time>2017-11-01T13:20:53Z</time>
      </trkpt>
      <trkpt lat="43.58024" lon="3.28883">
        <ele>367.8</ele>
        <time>2017-11-01T13:20:55Z</time>
      </trkpt>
      <trkpt lat="43.58014" lon="3.28877">
        <ele>363.5</ele>
        <time>2017-11-01T13:20:57Z</time>
      </trkpt>
      <trkpt lat="43.58003" lon="3.28873">
        <ele>360.2</ele>
        <time>2017-11-01T13:20:59Z</time>
      </trkpt>
      <trkpt lat="43.57991" lon="3.28871">
        <ele>357.3</ele>
        <time>2017-11-01T13:21:01Z</time>
      </trkpt>
      <trkpt lat="43.57981" lon="3.28865">
        <ele>355.1</ele>
        <time>2017-11-01T13:21:03Z</time>
      </trkpt>
      <trkpt lat="43.57974" lon="3.28861">
        <ele>353.8</ele>
        <time>2017-11-01T13:21:04Z</time>
      </trkpt>
      <trkpt lat="43.57961" lon="3.28851">
        <ele>351.6</ele>
        <time>2017-11-01T13:21:06Z</time>
      </trkpt>
      <trkpt lat="43.57955" lon="3.28846">
        <ele>350.6</ele>
        <time>2017-11-01T13:21:07Z</time>
      </trkpt>
      <trkpt lat="43.57948" lon="3.2884">
        <ele>349.7</ele>
        <time>2017-11-01T13:21:08Z</time>
      </trkpt>
      <trkpt lat="43.57941" lon="3.28834">
        <ele>348.7</ele>
        <time>2017-11-01T13:21:09Z</time>
      </trkpt>
      <trkpt lat="43.57935" lon="3.28828">
        <ele>347.8</ele>
        <time>2017-11-01T13:21:10Z</time>
      </trkpt>
      <trkpt lat="43.57929" lon="3.28821">
        <ele>347</ele>
        <time>2017-11-01T13:21:11Z</time>
      </trkpt>
      <trkpt lat="43.57922" lon="3.28815">
        <ele>346.2</ele>
        <time>2017-11-01T13:21:12Z</time>
      </trkpt>
      <trkpt lat="43.57916" lon="3.2881">
        <ele>345.5</ele>
        <time>2017-11-01T13:21:13Z</time>
      </trkpt>
      <trkpt lat="43.5791" lon="3.28805">
        <ele>344.9</ele>
        <time>2017-11-01T13:21:14Z</time>
      </trkpt>
      <trkpt lat="43.579" lon="3.28796">
        <ele>343.7</ele>
        <time>2017-11-01T13:21:16Z</time>
      </trkpt>
      <trkpt lat="43.57896" lon="3.28787">
        <ele>343.5</ele>
        <time>2017-11-01T13:21:18Z</time>
      </trkpt>
      <trkpt lat="43.579" lon="3.28776">
        <ele>340.5</ele>
        <time>2017-11-01T13:23:36Z</time>
      </trkpt>
      <trkpt lat="43.57906" lon="3.28769">
        <ele>340.4</ele>
        <time>2017-11-01T13:23:39Z</time>
      </trkpt>
      <trkpt lat="43.57914" lon="3.28761">
        <ele>340.3</ele>
        <time>2017-11-01T13:23:42Z</time>
      </trkpt>
      <trkpt lat="43.57922" lon="3.28754">
        <ele>340.2</ele>
        <time>2017-11-01T13:23:45Z</time>
      </trkpt>
      <trkpt lat="43.57931" lon="3.28749">
        <ele>340.1</ele>
        <time>2017-11-01T13:23:48Z</time>
      </trkpt>
      <trkpt lat="43.57939" lon="3.28746">
        <ele>340</ele>
        <time>2017-11-01T13:23:50Z</time>
      </trkpt>
      <trkpt lat="43.57946" lon="3.28743">
        <ele>340</ele>
        <time>2017-11-01T13:23:52Z</time>
      </trkpt>
      <trkpt lat="43.57953" lon="3.2874">
        <ele>339.9</ele>
        <time>2017-11-01T13:23:54Z</time>
      </trkpt>
      <trkpt lat="43.57961" lon="3.28738">
        <ele>339.9</ele>
        <time>2017-11-01T13:23:56Z</time>
      </trkpt>
      <trkpt lat="43.57967" lon="3.28736">
        <ele>339.9</ele>
        <time>2017-11-01T13:23:58Z</time>
      </trkpt>
      <trkpt lat="43.57978" lon="3.28734">
        <ele>339.9</ele>
        <time>2017-11-01T13:24:01Z</time>
      </trkpt>
      <trkpt lat="43.57988" lon="3.28733">
        <ele>339.9</ele>
        <time>2017-11-01T13:24:04Z</time>
      </trkpt>
      <trkpt lat="43.57998" lon="3.28731">
        <ele>340</ele>
        <time>2017-11-01T13:24:07Z</time>
      </trkpt>
      <trkpt lat="43.58008" lon="3.28729">
        <ele>340.2</ele>
        <time>2017-11-01T13:24:10Z</time>
      </trkpt>
      <trkpt lat="43.58017" lon="3.28726">
        <ele>340.4</ele>
        <time>2017-11-01T13:24:13Z</time>
      </trkpt>
      <trkpt lat="43.58024" lon="3.28722">
        <ele>340.8</ele>
        <time>2017-11-01T13:24:16Z</time>
      </trkpt>
      <trkpt lat="43.58033" lon="3.28716">
        <ele>341.2</ele>
        <time>2017-11-01T13:24:19Z</time>
      </trkpt>
      <trkpt lat="43.58041" lon="3.28711">
        <ele>341.7</ele>
        <time>2017-11-01T13:24:22Z</time>
      </trkpt>
      <trkpt lat="43.5805" lon="3.28706">
        <ele>342.2</ele>
        <time>2017-11-01T13:24:25Z</time>
      </trkpt>
      <trkpt lat="43.58057" lon="3.28702">
        <ele>342.9</ele>
        <time>2017-11-01T13:24:28Z</time>
      </trkpt>
      <trkpt lat="43.58065" lon="3.28698">
        <ele>343.5</ele>
        <time>2017-11-01T13:24:31Z</time>
      </trkpt>
      <trkpt lat="43.58073" lon="3.28695">
        <ele>344.1</ele>
        <time>2017-11-01T13:24:34Z</time>
      </trkpt>
      <trkpt lat="43.58081" lon="3.28692">
        <ele>344.7</ele>
        <time>2017-11-01T13:24:37Z</time>
      </trkpt>
      <trkpt lat="43.58088" lon="3.28689">
        <ele>345.2</ele>
        <time>2017-11-01T13:24:40Z</time>
      </trkpt>
      <trkpt lat="43.58095" lon="3.28687">
        <ele>345.8</ele>
        <time>2017-11-01T13:24:43Z</time>
      </trkpt>
      <trkpt lat="43.58102" lon="3.28686">
        <ele>346.2</ele>
        <time>2017-11-01T13:24:46Z</time>
      </trkpt>
      <trkpt lat="43.5811" lon="3.28685">
        <ele>346.5</ele>
        <time>2017-11-01T13:24:49Z</time>
      </trkpt>
      <trkpt lat="43.58119" lon="3.28684">
        <ele>346.8</ele>
        <time>2017-11-01T13:24:52Z</time>
      </trkpt>
      <trkpt lat="43.58126" lon="3.28684">
        <ele>347.1</ele>
        <time>2017-11-01T13:24:55Z</time>
      </trkpt>
      <trkpt lat="43.58136" lon="3.28683">
        <ele>347.4</ele>
        <time>2017-11-01T13:24:58Z</time>
      </trkpt>
      <trkpt lat="43.58146" lon="3.28684">
        <ele>347.7</ele>
        <time>2017-11-01T13:25:01Z</time>
      </trkpt>
      <trkpt lat="43.58155" lon="3.28686">
        <ele>348.1</ele>
        <time>2017-11-01T13:25:04Z</time>
      </trkpt>
      <trkpt lat="43.58164" lon="3.28689">
        <ele>348.4</ele>
        <time>2017-11-01T13:25:07Z</time>
      </trkpt>
      <trkpt lat="43.58171" lon="3.28694">
        <ele>348.8</ele>
        <time>2017-11-01T13:25:10Z</time>
      </trkpt>
      <trkpt lat="43.5818" lon="3.28699">
        <ele>349.2</ele>
        <time>2017-11-01T13:25:13Z</time>
      </trkpt>
      <trkpt lat="43.58189" lon="3.28704">
        <ele>349.6</ele>
        <time>2017-11-01T13:25:16Z</time>
      </trkpt>
      <trkpt lat="43.58198" lon="3.28709">
        <ele>350</ele>
        <time>2017-11-01T13:25:19Z</time>
      </trkpt>
      <trkpt lat="43.58207" lon="3.28714">
        <ele>350.2</ele>
        <time>2017-11-01T13:25:22Z</time>
      </trkpt>
      <trkpt lat="43.58216" lon="3.28719">
        <ele>350.4</ele>
        <time>2017-11-01T13:25:25Z</time>
      </trkpt>
      <trkpt lat="43.58225" lon="3.28725">
        <ele>350.7</ele>
        <time>2017-11-01T13:25:28Z</time>
      </trkpt>
      <trkpt lat="43.58232" lon="3.28725">
        <ele>350.8</ele>
        <time>2017-11-01T13:25:30Z</time>
      </trkpt>
      <trkpt lat="43.5824" lon="3.28721">
        <ele>350.9</ele>
        <time>2017-11-01T13:25:32Z</time>
      </trkpt>
      <trkpt lat="43.58243" lon="3.28711">
        <ele>351.7</ele>
        <time>2017-11-01T13:25:34Z</time>
      </trkpt>
      <trkpt lat="43.58242" lon="3.28699">
        <ele>351.8</ele>
        <time>2017-11-01T13:25:37Z</time>
      </trkpt>
      <trkpt lat="43.58238" lon="3.28687">
        <ele>352.1</ele>
        <time>2017-11-01T13:25:40Z</time>
      </trkpt>
      <trkpt lat="43.58235" lon="3.28675">
        <ele>352.4</ele>
        <time>2017-11-01T13:25:43Z</time>
      </trkpt>
      <trkpt lat="43.58232" lon="3.28662">
        <ele>352.8</ele>
        <time>2017-11-01T13:25:46Z</time>
      </trkpt>
      <trkpt lat="43.5823" lon="3.28649">
        <ele>353</ele>
        <time>2017-11-01T13:25:49Z</time>
      </trkpt>
      <trkpt lat="43.58228" lon="3.28635">
        <ele>353.1</ele>
        <time>2017-11-01T13:25:52Z</time>
      </trkpt>
      <trkpt lat="43.58225" lon="3.28624">
        <ele>353.1</ele>
        <time>2017-11-01T13:25:55Z</time>
      </trkpt>
      <trkpt lat="43.58223" lon="3.28613">
        <ele>353.1</ele>
        <time>2017-11-01T13:25:58Z</time>
      </trkpt>
      <trkpt lat="43.5822" lon="3.286">
        <ele>353.2</ele>
        <time>2017-11-01T13:26:01Z</time>
      </trkpt>
      <trkpt lat="43.58217" lon="3.28589">
        <ele>353.3</ele>
        <time>2017-11-01T13:26:04Z</time>
      </trkpt>
      <trkpt lat="43.58216" lon="3.28578">
        <ele>353.5</ele>
        <time>2017-11-01T13:26:07Z</time>
      </trkpt>
      <trkpt lat="43.58219" lon="3.28565">
        <ele>353.7</ele>
        <time>2017-11-01T13:26:10Z</time>
      </trkpt>
      <trkpt lat="43.58222" lon="3.28552">
        <ele>353.7</ele>
        <time>2017-11-01T13:26:13Z</time>
      </trkpt>
      <trkpt lat="43.58227" lon="3.28542">
        <ele>353.7</ele>
        <time>2017-11-01T13:26:16Z</time>
      </trkpt>
      <trkpt lat="43.58234" lon="3.28532">
        <ele>353.7</ele>
        <time>2017-11-01T13:26:19Z</time>
      </trkpt>
      <trkpt lat="43.58238" lon="3.28524">
        <ele>353.5</ele>
        <time>2017-11-01T13:26:22Z</time>
      </trkpt>
      <trkpt lat="43.58245" lon="3.28515">
        <ele>353.5</ele>
        <time>2017-11-01T13:26:25Z</time>
      </trkpt>
      <trkpt lat="43.58245" lon="3.28502">
        <ele>353.6</ele>
        <time>2017-11-01T13:26:29Z</time>
      </trkpt>
      <trkpt lat="43.58238" lon="3.28495">
        <ele>354</ele>
        <time>2017-11-01T13:26:32Z</time>
      </trkpt>
      <trkpt lat="43.5823" lon="3.28489">
        <ele>354.3</ele>
        <time>2017-11-01T13:26:35Z</time>
      </trkpt>
      <trkpt lat="43.58223" lon="3.28483">
        <ele>354.7</ele>
        <time>2017-11-01T13:26:38Z</time>
      </trkpt>
      <trkpt lat="43.58216" lon="3.28475">
        <ele>355.4</ele>
        <time>2017-11-01T13:26:42Z</time>
      </trkpt>
      <trkpt lat="43.58211" lon="3.28468">
        <ele>355.8</ele>
        <time>2017-11-01T13:26:45Z</time>
      </trkpt>
      <trkpt lat="43.58203" lon="3.2846">
        <ele>356.4</ele>
        <time>2017-11-01T13:26:49Z</time>
      </trkpt>
      <trkpt lat="43.58197" lon="3.28451">
        <ele>356.8</ele>
        <time>2017-11-01T13:26:52Z</time>
      </trkpt>
      <trkpt lat="43.58194" lon="3.2844">
        <ele>357.4</ele>
        <time>2017-11-01T13:26:56Z</time>
      </trkpt>
      <trkpt lat="43.58196" lon="3.28428">
        <ele>358.1</ele>
        <time>2017-11-01T13:27:00Z</time>
      </trkpt>
      <trkpt lat="43.58198" lon="3.28415">
        <ele>358.5</ele>
        <time>2017-11-01T13:27:03Z</time>
      </trkpt>
      <trkpt lat="43.582" lon="3.28406">
        <ele>358.8</ele>
        <time>2017-11-01T13:27:06Z</time>
      </trkpt>
      <trkpt lat="43.58206" lon="3.28395">
        <ele>358.9</ele>
        <time>2017-11-01T13:27:10Z</time>
      </trkpt>
      <trkpt lat="43.58212" lon="3.28388">
        <ele>359.1</ele>
        <time>2017-11-01T13:27:13Z</time>
      </trkpt>
      <trkpt lat="43.5822" lon="3.28384">
        <ele>359.2</ele>
        <time>2017-11-01T13:27:17Z</time>
      </trkpt>
      <trkpt lat="43.58228" lon="3.28382">
        <ele>359.3</ele>
        <time>2017-11-01T13:27:20Z</time>
      </trkpt>
      <trkpt lat="43.58238" lon="3.2838">
        <ele>359.6</ele>
        <time>2017-11-01T13:27:24Z</time>
      </trkpt>
      <trkpt lat="43.58245" lon="3.28379">
        <ele>359.8</ele>
        <time>2017-11-01T13:27:27Z</time>
      </trkpt>
      <trkpt lat="43.58254" lon="3.28378">
        <ele>359.9</ele>
        <time>2017-11-01T13:27:30Z</time>
      </trkpt>
      <trkpt lat="43.58262" lon="3.28379">
        <ele>360</ele>
        <time>2017-11-01T13:27:33Z</time>
      </trkpt>
      <trkpt lat="43.58271" lon="3.28379">
        <ele>360.3</ele>
        <time>2017-11-01T13:27:37Z</time>
      </trkpt>
      <trkpt lat="43.58279" lon="3.28376">
        <ele>360.9</ele>
        <time>2017-11-01T13:27:41Z</time>
      </trkpt>
      <trkpt lat="43.58288" lon="3.28373">
        <ele>361.7</ele>
        <time>2017-11-01T13:27:45Z</time>
      </trkpt>
      <trkpt lat="43.58296" lon="3.28371">
        <ele>362.3</ele>
        <time>2017-11-01T13:27:48Z</time>
      </trkpt>
      <trkpt lat="43.58302" lon="3.28367">
        <ele>362.7</ele>
        <time>2017-11-01T13:27:50Z</time>
      </trkpt>
      <trkpt lat="43.5831" lon="3.28365">
        <ele>363</ele>
        <time>2017-11-01T13:27:53Z</time>
      </trkpt>
      <trkpt lat="43.5832" lon="3.28361">
        <ele>363.4</ele>
        <time>2017-11-01T13:27:57Z</time>
      </trkpt>
      <trkpt lat="43.58327" lon="3.28356">
        <ele>363.6</ele>
        <time>2017-11-01T13:28:00Z</time>
      </trkpt>
      <trkpt lat="43.58335" lon="3.28348">
        <ele>364</ele>
        <time>2017-11-01T13:28:04Z</time>
      </trkpt>
      <trkpt lat="43.58343" lon="3.28341">
        <ele>364.3</ele>
        <time>2017-11-01T13:28:07Z</time>
      </trkpt>
      <trkpt lat="43.58349" lon="3.28337">
        <ele>364.7</ele>
        <time>2017-11-01T13:28:10Z</time>
      </trkpt>
      <trkpt lat="43.58357" lon="3.28332">
        <ele>365.3</ele>
        <time>2017-11-01T13:28:14Z</time>
      </trkpt>
      <trkpt lat="43.58364" lon="3.28328">
        <ele>365.8</ele>
        <time>2017-11-01T13:28:17Z</time>
      </trkpt>
      <trkpt lat="43.58372" lon="3.28322">
        <ele>366.6</ele>
        <time>2017-11-01T13:28:21Z</time>
      </trkpt>
      <trkpt lat="43.58381" lon="3.28319">
        <ele>367.4</ele>
        <time>2017-11-01T13:28:25Z</time>
      </trkpt>
      <trkpt lat="43.58389" lon="3.28313">
        <ele>368.2</ele>
        <time>2017-11-01T13:28:29Z</time>
      </trkpt>
      <trkpt lat="43.58397" lon="3.28309">
        <ele>369</ele>
        <time>2017-11-01T13:28:33Z</time>
      </trkpt>
      <trkpt lat="43.58406" lon="3.28304">
        <ele>369.7</ele>
        <time>2017-11-01T13:28:37Z</time>
      </trkpt>
      <trkpt lat="43.58413" lon="3.28299">
        <ele>370.4</ele>
        <time>2017-11-01T13:28:40Z</time>
      </trkpt>
      <trkpt lat="43.58422" lon="3.28293">
        <ele>371.3</ele>
        <time>2017-11-01T13:28:44Z</time>
      </trkpt>
      <trkpt lat="43.58428" lon="3.28288">
        <ele>372</ele>
        <time>2017-11-01T13:28:47Z</time>
      </trkpt>
      <trkpt lat="43.58435" lon="3.28283">
        <ele>373</ele>
        <time>2017-11-01T13:28:51Z</time>
      </trkpt>
      <trkpt lat="43.58445" lon="3.2828">
        <ele>374</ele>
        <time>2017-11-01T13:28:55Z</time>
      </trkpt>
      <trkpt lat="43.58454" lon="3.28277">
        <ele>374.8</ele>
        <time>2017-11-01T13:28:59Z</time>
      </trkpt>
      <trkpt lat="43.58462" lon="3.28271">
        <ele>375.5</ele>
        <time>2017-11-01T13:29:03Z</time>
      </trkpt>
      <trkpt lat="43.5847" lon="3.28265">
        <ele>376.3</ele>
        <time>2017-11-01T13:29:07Z</time>
      </trkpt>
      <trkpt lat="43.58478" lon="3.28259">
        <ele>376.9</ele>
        <time>2017-11-01T13:29:11Z</time>
      </trkpt>
      <trkpt lat="43.58486" lon="3.28256">
        <ele>377.5</ele>
        <time>2017-11-01T13:29:15Z</time>
      </trkpt>
      <trkpt lat="43.58495" lon="3.28259">
        <ele>378.1</ele>
        <time>2017-11-01T13:29:19Z</time>
      </trkpt>
      <trkpt lat="43.58493" lon="3.28271">
        <ele>379.1</ele>
        <time>2017-11-01T13:29:25Z</time>
      </trkpt>
      <trkpt lat="43.58486" lon="3.28274">
        <ele>379.8</ele>
        <time>2017-11-01T13:29:29Z</time>
      </trkpt>
      <trkpt lat="43.58479" lon="3.28279">
        <ele>380.6</ele>
        <time>2017-11-01T13:29:33Z</time>
      </trkpt>
      <trkpt lat="43.58472" lon="3.28286">
        <ele>381.5</ele>
        <time>2017-11-01T13:29:37Z</time>
      </trkpt>
      <trkpt lat="43.58465" lon="3.28293">
        <ele>382.4</ele>
        <time>2017-11-01T13:29:41Z</time>
      </trkpt>
      <trkpt lat="43.58459" lon="3.28301">
        <ele>383.2</ele>
        <time>2017-11-01T13:29:45Z</time>
      </trkpt>
      <trkpt lat="43.58453" lon="3.28309">
        <ele>384</ele>
        <time>2017-11-01T13:29:49Z</time>
      </trkpt>
      <trkpt lat="43.58447" lon="3.28317">
        <ele>384.8</ele>
        <time>2017-11-01T13:29:53Z</time>
      </trkpt>
      <trkpt lat="43.58441" lon="3.28322">
        <ele>385.4</ele>
        <time>2017-11-01T13:29:56Z</time>
      </trkpt>
      <trkpt lat="43.58435" lon="3.2833">
        <ele>386.1</ele>
        <time>2017-11-01T13:29:59Z</time>
      </trkpt>
      <trkpt lat="43.58427" lon="3.28338">
        <ele>387</ele>
        <time>2017-11-01T13:30:03Z</time>
      </trkpt>
      <trkpt lat="43.58422" lon="3.28345">
        <ele>387.6</ele>
        <time>2017-11-01T13:30:06Z</time>
      </trkpt>
      <trkpt lat="43.58415" lon="3.28354">
        <ele>388.5</ele>
        <time>2017-11-01T13:30:10Z</time>
      </trkpt>
      <trkpt lat="43.5841" lon="3.2836">
        <ele>389</ele>
        <time>2017-11-01T13:30:13Z</time>
      </trkpt>
      <trkpt lat="43.58403" lon="3.28368">
        <ele>389.8</ele>
        <time>2017-11-01T13:30:17Z</time>
      </trkpt>
      <trkpt lat="43.58396" lon="3.28378">
        <ele>390.9</ele>
        <time>2017-11-01T13:30:22Z</time>
      </trkpt>
      <trkpt lat="43.58391" lon="3.28387">
        <ele>391.4</ele>
        <time>2017-11-01T13:30:25Z</time>
      </trkpt>
      <trkpt lat="43.58387" lon="3.28395">
        <ele>391.6</ele>
        <time>2017-11-01T13:30:28Z</time>
      </trkpt>
      <trkpt lat="43.58384" lon="3.28407">
        <ele>391.8</ele>
        <time>2017-11-01T13:30:32Z</time>
      </trkpt>
      <trkpt lat="43.58386" lon="3.2842">
        <ele>392</ele>
        <time>2017-11-01T13:30:36Z</time>
      </trkpt>
      <trkpt lat="43.58393" lon="3.28429">
        <ele>392.3</ele>
        <time>2017-11-01T13:30:40Z</time>
      </trkpt>
      <trkpt lat="43.58401" lon="3.28432">
        <ele>392.6</ele>
        <time>2017-11-01T13:30:44Z</time>
      </trkpt>
      <trkpt lat="43.58409" lon="3.28428">
        <ele>392.8</ele>
        <time>2017-11-01T13:30:48Z</time>
      </trkpt>
      <trkpt lat="43.58414" lon="3.2842">
        <ele>393.1</ele>
        <time>2017-11-01T13:30:52Z</time>
      </trkpt>
      <trkpt lat="43.5842" lon="3.28411">
        <ele>393.3</ele>
        <time>2017-11-01T13:30:56Z</time>
      </trkpt>
      <trkpt lat="43.58426" lon="3.28402">
        <ele>393.7</ele>
        <time>2017-11-01T13:31:00Z</time>
      </trkpt>
      <trkpt lat="43.58433" lon="3.28395">
        <ele>394</ele>
        <time>2017-11-01T13:31:04Z</time>
      </trkpt>
      <trkpt lat="43.58441" lon="3.2839">
        <ele>394.5</ele>
        <time>2017-11-01T13:31:08Z</time>
      </trkpt>
      <trkpt lat="43.58449" lon="3.28386">
        <ele>394.9</ele>
        <time>2017-11-01T13:31:12Z</time>
      </trkpt>
      <trkpt lat="43.58457" lon="3.28383">
        <ele>395.3</ele>
        <time>2017-11-01T13:31:16Z</time>
      </trkpt>
      <trkpt lat="43.58465" lon="3.2838">
        <ele>395.7</ele>
        <time>2017-11-01T13:31:20Z</time>
      </trkpt>
      <trkpt lat="43.58473" lon="3.28376">
        <ele>396.1</ele>
        <time>2017-11-01T13:31:24Z</time>
      </trkpt>
      <trkpt lat="43.58482" lon="3.28374">
        <ele>396.5</ele>
        <time>2017-11-01T13:31:28Z</time>
      </trkpt>
      <trkpt lat="43.58491" lon="3.2837">
        <ele>397</ele>
        <time>2017-11-01T13:31:32Z</time>
      </trkpt>
      <trkpt lat="43.58499" lon="3.28367">
        <ele>397.5</ele>
        <time>2017-11-01T13:31:36Z</time>
      </trkpt>
      <trkpt lat="43.58507" lon="3.28363">
        <ele>398.1</ele>
        <time>2017-11-01T13:31:40Z</time>
      </trkpt>
      <trkpt lat="43.58515" lon="3.28358">
        <ele>398.6</ele>
        <time>2017-11-01T13:31:43Z</time>
      </trkpt>
      <trkpt lat="43.58522" lon="3.28355">
        <ele>399.3</ele>
        <time>2017-11-01T13:31:46Z</time>
      </trkpt>
      <trkpt lat="43.5853" lon="3.28351">
        <ele>400.3</ele>
        <time>2017-11-01T13:31:50Z</time>
      </trkpt>
      <trkpt lat="43.58538" lon="3.28349">
        <ele>401.4</ele>
        <time>2017-11-01T13:31:54Z</time>
      </trkpt>
      <trkpt lat="43.58547" lon="3.28348">
        <ele>402.5</ele>
        <time>2017-11-01T13:31:58Z</time>
      </trkpt>
      <trkpt lat="43.58555" lon="3.28348">
        <ele>403.5</ele>
        <time>2017-11-01T13:32:02Z</time>
      </trkpt>
      <trkpt lat="43.58564" lon="3.28347">
        <ele>404.4</ele>
        <time>2017-11-01T13:32:06Z</time>
      </trkpt>
      <trkpt lat="43.58572" lon="3.28344">
        <ele>405.3</ele>
        <time>2017-11-01T13:32:10Z</time>
      </trkpt>
      <trkpt lat="43.58581" lon="3.2834">
        <ele>406.1</ele>
        <time>2017-11-01T13:32:14Z</time>
      </trkpt>
      <trkpt lat="43.5859" lon="3.28336">
        <ele>407</ele>
        <time>2017-11-01T13:32:18Z</time>
      </trkpt>
      <trkpt lat="43.58596" lon="3.28332">
        <ele>407.6</ele>
        <time>2017-11-01T13:32:21Z</time>
      </trkpt>
      <trkpt lat="43.58605" lon="3.28326">
        <ele>408.6</ele>
        <time>2017-11-01T13:32:25Z</time>
      </trkpt>
      <trkpt lat="43.58613" lon="3.2832">
        <ele>409.5</ele>
        <time>2017-11-01T13:32:29Z</time>
      </trkpt>
      <trkpt lat="43.58621" lon="3.28314">
        <ele>410.4</ele>
        <time>2017-11-01T13:32:33Z</time>
      </trkpt>
      <trkpt lat="43.58629" lon="3.2831">
        <ele>411.2</ele>
        <time>2017-11-01T13:32:37Z</time>
      </trkpt>
      <trkpt lat="43.58638" lon="3.28306">
        <ele>412.3</ele>
        <time>2017-11-01T13:32:42Z</time>
      </trkpt>
      <trkpt lat="43.58645" lon="3.28304">
        <ele>413.2</ele>
        <time>2017-11-01T13:32:46Z</time>
      </trkpt>
      <trkpt lat="43.58654" lon="3.28303">
        <ele>414.2</ele>
        <time>2017-11-01T13:32:50Z</time>
      </trkpt>
      <trkpt lat="43.58662" lon="3.28303">
        <ele>415.2</ele>
        <time>2017-11-01T13:32:54Z</time>
      </trkpt>
      <trkpt lat="43.5867" lon="3.28306">
        <ele>416</ele>
        <time>2017-11-01T13:32:58Z</time>
      </trkpt>
      <trkpt lat="43.58679" lon="3.28313">
        <ele>416.8</ele>
        <time>2017-11-01T13:33:02Z</time>
      </trkpt>
      <trkpt lat="43.58685" lon="3.28322">
        <ele>417.6</ele>
        <time>2017-11-01T13:33:06Z</time>
      </trkpt>
      <trkpt lat="43.58689" lon="3.28333">
        <ele>418.3</ele>
        <time>2017-11-01T13:33:10Z</time>
      </trkpt>
      <trkpt lat="43.58693" lon="3.28344">
        <ele>418.8</ele>
        <time>2017-11-01T13:33:14Z</time>
      </trkpt>
      <trkpt lat="43.587" lon="3.28354">
        <ele>419.2</ele>
        <time>2017-11-01T13:33:18Z</time>
      </trkpt>
      <trkpt lat="43.58706" lon="3.28362">
        <ele>419.5</ele>
        <time>2017-11-01T13:33:22Z</time>
      </trkpt>
      <trkpt lat="43.58714" lon="3.28368">
        <ele>419.8</ele>
        <time>2017-11-01T13:33:26Z</time>
      </trkpt>
      <trkpt lat="43.58722" lon="3.28374">
        <ele>420.1</ele>
        <time>2017-11-01T13:33:30Z</time>
      </trkpt>
      <trkpt lat="43.5873" lon="3.28376">
        <ele>420.5</ele>
        <time>2017-11-01T13:33:34Z</time>
      </trkpt>
      <trkpt lat="43.58738" lon="3.2838">
        <ele>421.1</ele>
        <time>2017-11-01T13:33:38Z</time>
      </trkpt>
      <trkpt lat="43.58745" lon="3.28383">
        <ele>421.6</ele>
        <time>2017-11-01T13:33:41Z</time>
      </trkpt>
      <trkpt lat="43.58753" lon="3.28387">
        <ele>422.3</ele>
        <time>2017-11-01T13:33:45Z</time>
      </trkpt>
      <trkpt lat="43.58762" lon="3.28391">
        <ele>423</ele>
        <time>2017-11-01T13:33:49Z</time>
      </trkpt>
      <trkpt lat="43.58769" lon="3.28395">
        <ele>423.9</ele>
        <time>2017-11-01T13:33:53Z</time>
      </trkpt>
      <trkpt lat="43.58778" lon="3.28398">
        <ele>424.7</ele>
        <time>2017-11-01T13:33:57Z</time>
      </trkpt>
      <trkpt lat="43.58785" lon="3.28402">
        <ele>425.7</ele>
        <time>2017-11-01T13:34:01Z</time>
      </trkpt>
      <trkpt lat="43.58793" lon="3.28406">
        <ele>426.4</ele>
        <time>2017-11-01T13:34:04Z</time>
      </trkpt>
      <trkpt lat="43.588" lon="3.28411">
        <ele>426.8</ele>
        <time>2017-11-01T13:34:07Z</time>
      </trkpt>
      <trkpt lat="43.58808" lon="3.28417">
        <ele>427.1</ele>
        <time>2017-11-01T13:34:12Z</time>
      </trkpt>
      <trkpt lat="43.5882" lon="3.28417">
        <ele>427.4</ele>
        <time>2017-11-01T13:34:16Z</time>
      </trkpt>
      <trkpt lat="43.58828" lon="3.28413">
        <ele>427.7</ele>
        <time>2017-11-01T13:34:19Z</time>
      </trkpt>
      <trkpt lat="43.58833" lon="3.28403">
        <ele>428.2</ele>
        <time>2017-11-01T13:34:22Z</time>
      </trkpt>
      <trkpt lat="43.58833" lon="3.28393">
        <ele>428.8</ele>
        <time>2017-11-01T13:34:25Z</time>
      </trkpt>
      <trkpt lat="43.58836" lon="3.28382">
        <ele>429.2</ele>
        <time>2017-11-01T13:34:28Z</time>
      </trkpt>
      <trkpt lat="43.5884" lon="3.28373">
        <ele>429.3</ele>
        <time>2017-11-01T13:34:31Z</time>
      </trkpt>
      <trkpt lat="43.58848" lon="3.28365">
        <ele>429.3</ele>
        <time>2017-11-01T13:34:34Z</time>
      </trkpt>
      <trkpt lat="43.58856" lon="3.2836">
        <ele>429.1</ele>
        <time>2017-11-01T13:34:38Z</time>
      </trkpt>
      <trkpt lat="43.58863" lon="3.28354">
        <ele>428.9</ele>
        <time>2017-11-01T13:34:41Z</time>
      </trkpt>
      <trkpt lat="43.58871" lon="3.28348">
        <ele>428.8</ele>
        <time>2017-11-01T13:34:44Z</time>
      </trkpt>
      <trkpt lat="43.58877" lon="3.28343">
        <ele>428.9</ele>
        <time>2017-11-01T13:34:47Z</time>
      </trkpt>
      <trkpt lat="43.58883" lon="3.28336">
        <ele>429</ele>
        <time>2017-11-01T13:34:50Z</time>
      </trkpt>
      <trkpt lat="43.58883" lon="3.28326">
        <ele>429.2</ele>
        <time>2017-11-01T13:34:54Z</time>
      </trkpt>
      <trkpt lat="43.58886" lon="3.28315">
        <ele>429.5</ele>
        <time>2017-11-01T13:34:57Z</time>
      </trkpt>
      <trkpt lat="43.58891" lon="3.28305">
        <ele>429.6</ele>
        <time>2017-11-01T13:35:00Z</time>
      </trkpt>
      <trkpt lat="43.58895" lon="3.28295">
        <ele>429.7</ele>
        <time>2017-11-01T13:35:04Z</time>
      </trkpt>
      <trkpt lat="43.58896" lon="3.28285">
        <ele>429.8</ele>
        <time>2017-11-01T13:35:08Z</time>
      </trkpt>
      <trkpt lat="43.58896" lon="3.28274">
        <ele>430</ele>
        <time>2017-11-01T13:35:11Z</time>
      </trkpt>
      <trkpt lat="43.58898" lon="3.28263">
        <ele>430.4</ele>
        <time>2017-11-01T13:35:15Z</time>
      </trkpt>
      <trkpt lat="43.58899" lon="3.28252">
        <ele>430.5</ele>
        <time>2017-11-01T13:35:17Z</time>
      </trkpt>
      <trkpt lat="43.589" lon="3.28241">
        <ele>430.5</ele>
        <time>2017-11-01T13:35:20Z</time>
      </trkpt>
      <trkpt lat="43.58904" lon="3.28232">
        <ele>430.5</ele>
        <time>2017-11-01T13:35:23Z</time>
      </trkpt>
      <trkpt lat="43.58905" lon="3.2822">
        <ele>430.6</ele>
        <time>2017-11-01T13:35:26Z</time>
      </trkpt>
      <trkpt lat="43.58909" lon="3.28208">
        <ele>430.6</ele>
        <time>2017-11-01T13:35:30Z</time>
      </trkpt>
      <trkpt lat="43.5891" lon="3.28197">
        <ele>430.7</ele>
        <time>2017-11-01T13:35:33Z</time>
      </trkpt>
      <trkpt lat="43.58914" lon="3.28187">
        <ele>430.9</ele>
        <time>2017-11-01T13:35:37Z</time>
      </trkpt>
      <trkpt lat="43.58919" lon="3.28179">
        <ele>431</ele>
        <time>2017-11-01T13:35:40Z</time>
      </trkpt>
      <trkpt lat="43.58926" lon="3.2817">
        <ele>431.2</ele>
        <time>2017-11-01T13:35:43Z</time>
      </trkpt>
      <trkpt lat="43.58932" lon="3.2816">
        <ele>431.4</ele>
        <time>2017-11-01T13:35:46Z</time>
      </trkpt>
      <trkpt lat="43.5894" lon="3.28149">
        <ele>431.6</ele>
        <time>2017-11-01T13:35:49Z</time>
      </trkpt>
      <trkpt lat="43.58946" lon="3.28141">
        <ele>433.2</ele>
        <time>2017-11-01T13:35:51Z</time>
      </trkpt>
      <trkpt lat="43.5895" lon="3.28129">
        <ele>433.7</ele>
        <time>2017-11-01T13:35:53Z</time>
      </trkpt>
      <trkpt lat="43.58952" lon="3.28118">
        <ele>433.7</ele>
        <time>2017-11-01T13:35:55Z</time>
      </trkpt>
      <trkpt lat="43.58952" lon="3.28106">
        <ele>433.7</ele>
        <time>2017-11-01T13:35:57Z</time>
      </trkpt>
      <trkpt lat="43.58952" lon="3.28094">
        <ele>433.5</ele>
        <time>2017-11-01T13:35:59Z</time>
      </trkpt>
      <trkpt lat="43.58952" lon="3.28082">
        <ele>433</ele>
        <time>2017-11-01T13:36:02Z</time>
      </trkpt>
      <trkpt lat="43.58955" lon="3.28069">
        <ele>432.6</ele>
        <time>2017-11-01T13:36:05Z</time>
      </trkpt>
      <trkpt lat="43.58961" lon="3.28057">
        <ele>432.1</ele>
        <time>2017-11-01T13:36:08Z</time>
      </trkpt>
      <trkpt lat="43.58968" lon="3.2805">
        <ele>431.7</ele>
        <time>2017-11-01T13:36:10Z</time>
      </trkpt>
      <trkpt lat="43.58974" lon="3.28043">
        <ele>431.3</ele>
        <time>2017-11-01T13:36:12Z</time>
      </trkpt>
      <trkpt lat="43.5898" lon="3.28027">
        <ele>430.9</ele>
        <time>2017-11-01T13:36:14Z</time>
      </trkpt>
      <trkpt lat="43.5898" lon="3.28013">
        <ele>430.6</ele>
        <time>2017-11-01T13:36:16Z</time>
      </trkpt>
      <trkpt lat="43.5898" lon="3.28004">
        <ele>430.4</ele>
        <time>2017-11-01T13:36:18Z</time>
      </trkpt>
      <trkpt lat="43.58979" lon="3.27993">
        <ele>430.3</ele>
        <time>2017-11-01T13:36:20Z</time>
      </trkpt>
      <trkpt lat="43.58983" lon="3.27982">
        <ele>430.2</ele>
        <time>2017-11-01T13:36:23Z</time>
      </trkpt>
      <trkpt lat="43.58992" lon="3.27982">
        <ele>430.1</ele>
        <time>2017-11-01T13:36:27Z</time>
      </trkpt>
      <trkpt lat="43.59" lon="3.27979">
        <ele>430</ele>
        <time>2017-11-01T13:36:30Z</time>
      </trkpt>
      <trkpt lat="43.59007" lon="3.27974">
        <ele>429.9</ele>
        <time>2017-11-01T13:36:33Z</time>
      </trkpt>
      <trkpt lat="43.59015" lon="3.27968">
        <ele>429.8</ele>
        <time>2017-11-01T13:36:35Z</time>
      </trkpt>
      <trkpt lat="43.59023" lon="3.27962">
        <ele>429.6</ele>
        <time>2017-11-01T13:36:38Z</time>
      </trkpt>
      <trkpt lat="43.59031" lon="3.27956">
        <ele>429.4</ele>
        <time>2017-11-01T13:36:40Z</time>
      </trkpt>
      <trkpt lat="43.59039" lon="3.2795">
        <ele>429.2</ele>
        <time>2017-11-01T13:36:42Z</time>
      </trkpt>
      <trkpt lat="43.59045" lon="3.27941">
        <ele>428.8</ele>
        <time>2017-11-01T13:36:46Z</time>
      </trkpt>
      <trkpt lat="43.59048" lon="3.27934">
        <ele>428.2</ele>
        <time>2017-11-01T13:37:17Z</time>
      </trkpt>
      <trkpt lat="43.59046" lon="3.27936">
        <ele>428.1</ele>
        <time>2017-11-01T13:37:38Z</time>
      </trkpt>
      <trkpt lat="43.59048" lon="3.27935">
        <ele>427.4</ele>
        <time>2017-11-01T13:37:52Z</time>
      </trkpt>
      <trkpt lat="43.59049" lon="3.27933">
        <ele>427.7</ele>
        <time>2017-11-01T13:38:22Z</time>
      </trkpt>
      <trkpt lat="43.59048" lon="3.27933">
        <ele>427.8</ele>
        <time>2017-11-01T13:38:34Z</time>
      </trkpt>
      <trkpt lat="43.59042" lon="3.27936">
        <ele>427.4</ele>
        <time>2017-11-01T13:38:13Z</time>
      </trkpt>
      <trkpt lat="43.59049" lon="3.27936">
        <ele>427.5</ele>
        <time>2017-11-01T13:39:25Z</time>
      </trkpt>
      <trkpt lat="43.59057" lon="3.27931">
        <ele>427.5</ele>
        <time>2017-11-01T13:39:28Z</time>
      </trkpt>
      <trkpt lat="43.59068" lon="3.27925">
        <ele>427.5</ele>
        <time>2017-11-01T13:39:30Z</time>
      </trkpt>
      <trkpt lat="43.59078" lon="3.27919">
        <ele>427.5</ele>
        <time>2017-11-01T13:39:32Z</time>
      </trkpt>
      <trkpt lat="43.59085" lon="3.27913">
        <ele>427</ele>
        <time>2017-11-01T13:39:34Z</time>
      </trkpt>
      <trkpt lat="43.59096" lon="3.27909">
        <ele>426.1</ele>
        <time>2017-11-01T13:39:36Z</time>
      </trkpt>
      <trkpt lat="43.59109" lon="3.27901">
        <ele>425.9</ele>
        <time>2017-11-01T13:39:38Z</time>
      </trkpt>
      <trkpt lat="43.59115" lon="3.27897">
        <ele>424.8</ele>
        <time>2017-11-01T13:39:39Z</time>
      </trkpt>
      <trkpt lat="43.59124" lon="3.27887">
        <ele>424.5</ele>
        <time>2017-11-01T13:39:41Z</time>
      </trkpt>
      <trkpt lat="43.5913" lon="3.2788">
        <ele>424.2</ele>
        <time>2017-11-01T13:39:43Z</time>
      </trkpt>
      <trkpt lat="43.59138" lon="3.27871">
        <ele>423.5</ele>
        <time>2017-11-01T13:39:46Z</time>
      </trkpt>
      <trkpt lat="43.59147" lon="3.27866">
        <ele>422.6</ele>
        <time>2017-11-01T13:39:49Z</time>
      </trkpt>
      <trkpt lat="43.59154" lon="3.27862">
        <ele>418.4</ele>
        <time>2017-11-01T13:39:51Z</time>
      </trkpt>
      <trkpt lat="43.59161" lon="3.27857">
        <ele>417.7</ele>
        <time>2017-11-01T13:39:53Z</time>
      </trkpt>
      <trkpt lat="43.59169" lon="3.27852">
        <ele>416.6</ele>
        <time>2017-11-01T13:39:56Z</time>
      </trkpt>
      <trkpt lat="43.59179" lon="3.27849">
        <ele>411.6</ele>
        <time>2017-11-01T13:39:59Z</time>
      </trkpt>
      <trkpt lat="43.59187" lon="3.27846">
        <ele>410.9</ele>
        <time>2017-11-01T13:40:01Z</time>
      </trkpt>
      <trkpt lat="43.59194" lon="3.27841">
        <ele>407</ele>
        <time>2017-11-01T13:40:03Z</time>
      </trkpt>
      <trkpt lat="43.59203" lon="3.27836">
        <ele>401.4</ele>
        <time>2017-11-01T13:40:05Z</time>
      </trkpt>
      <trkpt lat="43.5921" lon="3.27833">
        <ele>396.9</ele>
        <time>2017-11-01T13:40:07Z</time>
      </trkpt>
      <trkpt lat="43.59219" lon="3.2783">
        <ele>394.8</ele>
        <time>2017-11-01T13:40:09Z</time>
      </trkpt>
      <trkpt lat="43.59227" lon="3.27834">
        <ele>394.2</ele>
        <time>2017-11-01T13:40:12Z</time>
      </trkpt>
      <trkpt lat="43.59235" lon="3.27831">
        <ele>393.6</ele>
        <time>2017-11-01T13:40:15Z</time>
      </trkpt>
      <trkpt lat="43.59242" lon="3.27833">
        <ele>393</ele>
        <time>2017-11-01T13:40:18Z</time>
      </trkpt>
      <trkpt lat="43.59251" lon="3.27833">
        <ele>392</ele>
        <time>2017-11-01T13:40:23Z</time>
      </trkpt>
      <trkpt lat="43.59261" lon="3.27834">
        <ele>391.6</ele>
        <time>2017-11-01T13:40:25Z</time>
      </trkpt>
      <trkpt lat="43.59271" lon="3.27838">
        <ele>391.2</ele>
        <time>2017-11-01T13:40:27Z</time>
      </trkpt>
      <trkpt lat="43.59278" lon="3.27842">
        <ele>389</ele>
        <time>2017-11-01T13:40:28Z</time>
      </trkpt>
      <trkpt lat="43.59287" lon="3.27849">
        <ele>386.9</ele>
        <time>2017-11-01T13:40:30Z</time>
      </trkpt>
      <trkpt lat="43.59295" lon="3.27851">
        <ele>386.6</ele>
        <time>2017-11-01T13:40:32Z</time>
      </trkpt>
      <trkpt lat="43.59304" lon="3.27849">
        <ele>385.8</ele>
        <time>2017-11-01T13:40:35Z</time>
      </trkpt>
      <trkpt lat="43.59315" lon="3.27847">
        <ele>385.1</ele>
        <time>2017-11-01T13:40:38Z</time>
      </trkpt>
      <trkpt lat="43.59324" lon="3.27852">
        <ele>384.4</ele>
        <time>2017-11-01T13:40:41Z</time>
      </trkpt>
      <trkpt lat="43.59334" lon="3.27855">
        <ele>383.4</ele>
        <time>2017-11-01T13:40:44Z</time>
      </trkpt>
      <trkpt lat="43.59343" lon="3.27853">
        <ele>382.3</ele>
        <time>2017-11-01T13:40:47Z</time>
      </trkpt>
      <trkpt lat="43.59347" lon="3.27865">
        <ele>381.2</ele>
        <time>2017-11-01T13:40:50Z</time>
      </trkpt>
      <trkpt lat="43.59353" lon="3.27874">
        <ele>380</ele>
        <time>2017-11-01T13:40:53Z</time>
      </trkpt>
      <trkpt lat="43.5936" lon="3.2788">
        <ele>379.2</ele>
        <time>2017-11-01T13:40:55Z</time>
      </trkpt>
      <trkpt lat="43.59368" lon="3.27887">
        <ele>377.8</ele>
        <time>2017-11-01T13:40:58Z</time>
      </trkpt>
      <trkpt lat="43.59378" lon="3.27892">
        <ele>376.2</ele>
        <time>2017-11-01T13:41:01Z</time>
      </trkpt>
      <trkpt lat="43.59386" lon="3.27895">
        <ele>375.1</ele>
        <time>2017-11-01T13:41:03Z</time>
      </trkpt>
      <trkpt lat="43.59394" lon="3.27898">
        <ele>373.9</ele>
        <time>2017-11-01T13:41:05Z</time>
      </trkpt>
      <trkpt lat="43.59401" lon="3.27906">
        <ele>371.9</ele>
        <time>2017-11-01T13:41:08Z</time>
      </trkpt>
      <trkpt lat="43.59412" lon="3.27908">
        <ele>369.4</ele>
        <time>2017-11-01T13:41:12Z</time>
      </trkpt>
      <trkpt lat="43.59419" lon="3.27913">
        <ele>368.1</ele>
        <time>2017-11-01T13:41:14Z</time>
      </trkpt>
      <trkpt lat="43.59427" lon="3.2792">
        <ele>366.8</ele>
        <time>2017-11-01T13:41:16Z</time>
      </trkpt>
      <trkpt lat="43.59434" lon="3.27929">
        <ele>363.9</ele>
        <time>2017-11-01T13:41:20Z</time>
      </trkpt>
      <trkpt lat="43.59443" lon="3.27932">
        <ele>361.7</ele>
        <time>2017-11-01T13:41:23Z</time>
      </trkpt>
      <trkpt lat="43.59455" lon="3.27927">
        <ele>359.1</ele>
        <time>2017-11-01T13:41:27Z</time>
      </trkpt>
      <trkpt lat="43.59462" lon="3.27923">
        <ele>357.9</ele>
        <time>2017-11-01T13:41:29Z</time>
      </trkpt>
      <trkpt lat="43.59467" lon="3.27914">
        <ele>355.5</ele>
        <time>2017-11-01T13:41:33Z</time>
      </trkpt>
      <trkpt lat="43.59465" lon="3.27919">
        <ele>354.1</ele>
        <time>2017-11-01T13:41:40Z</time>
      </trkpt>
      <trkpt lat="43.59463" lon="3.27923">
        <ele>351.6</ele>
        <time>2017-11-01T13:41:47Z</time>
      </trkpt>
      <trkpt lat="43.59465" lon="3.27922">
        <ele>350.8</ele>
        <time>2017-11-01T13:41:54Z</time>
      </trkpt>
      <trkpt lat="43.59462" lon="3.27926">
        <ele>338.5</ele>
        <time>2017-11-01T13:44:16Z</time>
      </trkpt>
      <trkpt lat="43.5946" lon="3.27925">
        <ele>335.1</ele>
        <time>2017-11-01T13:46:32Z</time>
      </trkpt>
      <trkpt lat="43.59462" lon="3.27927">
        <ele>332</ele>
        <time>2017-11-01T13:46:24Z</time>
      </trkpt>
      <trkpt lat="43.59464" lon="3.27938">
        <ele>331</ele>
        <time>2017-11-01T13:47:34Z</time>
      </trkpt>
      <trkpt lat="43.59463" lon="3.27949">
        <ele>330.1</ele>
        <time>2017-11-01T13:47:39Z</time>
      </trkpt>
      <trkpt lat="43.59461" lon="3.27959">
        <ele>329.6</ele>
        <time>2017-11-01T13:47:44Z</time>
      </trkpt>
      <trkpt lat="43.59457" lon="3.27968">
        <ele>329.5</ele>
        <time>2017-11-01T13:47:48Z</time>
      </trkpt>
      <trkpt lat="43.59453" lon="3.27978">
        <ele>329.4</ele>
        <time>2017-11-01T13:47:51Z</time>
      </trkpt>
      <trkpt lat="43.59448" lon="3.27986">
        <ele>329.4</ele>
        <time>2017-11-01T13:47:56Z</time>
      </trkpt>
      <trkpt lat="43.59443" lon="3.27994">
        <ele>329.6</ele>
        <time>2017-11-01T13:48:00Z</time>
      </trkpt>
      <trkpt lat="43.59436" lon="3.28002">
        <ele>329.8</ele>
        <time>2017-11-01T13:48:04Z</time>
      </trkpt>
      <trkpt lat="43.59433" lon="3.28009">
        <ele>330.4</ele>
        <time>2017-11-01T13:48:11Z</time>
      </trkpt>
      <trkpt lat="43.59432" lon="3.28014">
        <ele>330.5</ele>
        <time>2017-11-01T13:48:18Z</time>
      </trkpt>
      <trkpt lat="43.59429" lon="3.28024">
        <ele>332</ele>
        <time>2017-11-01T13:48:35Z</time>
      </trkpt>
      <trkpt lat="43.59429" lon="3.28032">
        <ele>332.1</ele>
        <time>2017-11-01T13:48:42Z</time>
      </trkpt>
      <trkpt lat="43.59424" lon="3.28038">
        <ele>334.1</ele>
        <time>2017-11-01T13:50:41Z</time>
      </trkpt>
      <trkpt lat="43.59419" lon="3.28047">
        <ele>334.6</ele>
        <time>2017-11-01T13:50:46Z</time>
      </trkpt>
      <trkpt lat="43.59412" lon="3.28054">
        <ele>334.9</ele>
        <time>2017-11-01T13:50:51Z</time>
      </trkpt>
      <trkpt lat="43.59404" lon="3.28057">
        <ele>335.2</ele>
        <time>2017-11-01T13:50:56Z</time>
      </trkpt>
      <trkpt lat="43.59396" lon="3.2806">
        <ele>335.7</ele>
        <time>2017-11-01T13:51:01Z</time>
      </trkpt>
      <trkpt lat="43.59387" lon="3.28062">
        <ele>336.1</ele>
        <time>2017-11-01T13:51:06Z</time>
      </trkpt>
      <trkpt lat="43.5938" lon="3.28069">
        <ele>336.5</ele>
        <time>2017-11-01T13:51:11Z</time>
      </trkpt>
      <trkpt lat="43.59374" lon="3.28077">
        <ele>337</ele>
        <time>2017-11-01T13:51:16Z</time>
      </trkpt>
      <trkpt lat="43.59367" lon="3.28082">
        <ele>337.5</ele>
        <time>2017-11-01T13:51:20Z</time>
      </trkpt>
      <trkpt lat="43.59361" lon="3.28088">
        <ele>338</ele>
        <time>2017-11-01T13:51:24Z</time>
      </trkpt>
      <trkpt lat="43.59354" lon="3.28095">
        <ele>338.4</ele>
        <time>2017-11-01T13:51:28Z</time>
      </trkpt>
      <trkpt lat="43.59348" lon="3.28102">
        <ele>338.7</ele>
        <time>2017-11-01T13:51:31Z</time>
      </trkpt>
      <trkpt lat="43.59343" lon="3.28109">
        <ele>339.2</ele>
        <time>2017-11-01T13:51:35Z</time>
      </trkpt>
      <trkpt lat="43.59337" lon="3.28116">
        <ele>339.7</ele>
        <time>2017-11-01T13:51:38Z</time>
      </trkpt>
      <trkpt lat="43.59332" lon="3.28136">
        <ele>341.2</ele>
        <time>2017-11-01T13:51:47Z</time>
      </trkpt>
      <trkpt lat="43.59327" lon="3.28146">
        <ele>341.5</ele>
        <time>2017-11-01T13:51:49Z</time>
      </trkpt>
      <trkpt lat="43.59324" lon="3.28156">
        <ele>341.9</ele>
        <time>2017-11-01T13:51:52Z</time>
      </trkpt>
      <trkpt lat="43.59315" lon="3.2816">
        <ele>342.3</ele>
        <time>2017-11-01T13:51:57Z</time>
      </trkpt>
      <trkpt lat="43.5931" lon="3.28168">
        <ele>342.7</ele>
        <time>2017-11-01T13:52:01Z</time>
      </trkpt>
      <trkpt lat="43.59309" lon="3.28178">
        <ele>342.9</ele>
        <time>2017-11-01T13:52:04Z</time>
      </trkpt>
      <trkpt lat="43.59315" lon="3.28187">
        <ele>343.1</ele>
        <time>2017-11-01T13:52:09Z</time>
      </trkpt>
      <trkpt lat="43.59324" lon="3.28189">
        <ele>343.5</ele>
        <time>2017-11-01T13:52:14Z</time>
      </trkpt>
      <trkpt lat="43.59332" lon="3.28185">
        <ele>343.8</ele>
        <time>2017-11-01T13:52:18Z</time>
      </trkpt>
      <trkpt lat="43.59337" lon="3.28178">
        <ele>344.5</ele>
        <time>2017-11-01T13:52:23Z</time>
      </trkpt>
      <trkpt lat="43.59343" lon="3.2817">
        <ele>345.5</ele>
        <time>2017-11-01T13:52:28Z</time>
      </trkpt>
      <trkpt lat="43.59349" lon="3.28163">
        <ele>346.8</ele>
        <time>2017-11-01T13:52:33Z</time>
      </trkpt>
      <trkpt lat="43.59356" lon="3.28157">
        <ele>347.9</ele>
        <time>2017-11-01T13:52:37Z</time>
      </trkpt>
      <trkpt lat="43.59363" lon="3.28152">
        <ele>349.1</ele>
        <time>2017-11-01T13:52:41Z</time>
      </trkpt>
      <trkpt lat="43.59371" lon="3.28148">
        <ele>350.4</ele>
        <time>2017-11-01T13:52:46Z</time>
      </trkpt>
      <trkpt lat="43.59379" lon="3.28151">
        <ele>352.2</ele>
        <time>2017-11-01T13:52:53Z</time>
      </trkpt>
      <trkpt lat="43.59373" lon="3.28158">
        <ele>353.4</ele>
        <time>2017-11-01T13:52:58Z</time>
      </trkpt>
      <trkpt lat="43.59367" lon="3.28165">
        <ele>354.2</ele>
        <time>2017-11-01T13:53:02Z</time>
      </trkpt>
      <trkpt lat="43.59364" lon="3.28177">
        <ele>354.8</ele>
        <time>2017-11-01T13:53:05Z</time>
      </trkpt>
      <trkpt lat="43.59371" lon="3.28179">
        <ele>355.7</ele>
        <time>2017-11-01T13:53:12Z</time>
      </trkpt>
      <trkpt lat="43.59379" lon="3.28175">
        <ele>356.4</ele>
        <time>2017-11-01T13:53:16Z</time>
      </trkpt>
      <trkpt lat="43.59387" lon="3.2817">
        <ele>357.2</ele>
        <time>2017-11-01T13:53:20Z</time>
      </trkpt>
      <trkpt lat="43.59395" lon="3.28173">
        <ele>358</ele>
        <time>2017-11-01T13:53:24Z</time>
      </trkpt>
      <trkpt lat="43.59403" lon="3.28177">
        <ele>359</ele>
        <time>2017-11-01T13:53:28Z</time>
      </trkpt>
      <trkpt lat="43.5941" lon="3.28184">
        <ele>359.9</ele>
        <time>2017-11-01T13:53:32Z</time>
      </trkpt>
      <trkpt lat="43.59417" lon="3.28189">
        <ele>360.8</ele>
        <time>2017-11-01T13:53:36Z</time>
      </trkpt>
      <trkpt lat="43.59426" lon="3.28192">
        <ele>361.8</ele>
        <time>2017-11-01T13:53:40Z</time>
      </trkpt>
      <trkpt lat="43.59435" lon="3.28191">
        <ele>362.6</ele>
        <time>2017-11-01T13:53:44Z</time>
      </trkpt>
      <trkpt lat="43.59443" lon="3.28186">
        <ele>363.2</ele>
        <time>2017-11-01T13:53:48Z</time>
      </trkpt>
      <trkpt lat="43.59451" lon="3.28185">
        <ele>363.7</ele>
        <time>2017-11-01T13:53:51Z</time>
      </trkpt>
      <trkpt lat="43.59458" lon="3.28183">
        <ele>364.1</ele>
        <time>2017-11-01T13:53:54Z</time>
      </trkpt>
      <trkpt lat="43.59467" lon="3.28185">
        <ele>364.7</ele>
        <time>2017-11-01T13:53:58Z</time>
      </trkpt>
      <trkpt lat="43.59473" lon="3.28192">
        <ele>365.1</ele>
        <time>2017-11-01T13:54:01Z</time>
      </trkpt>
      <trkpt lat="43.59479" lon="3.28202">
        <ele>365.8</ele>
        <time>2017-11-01T13:54:05Z</time>
      </trkpt>
      <trkpt lat="43.59483" lon="3.2821">
        <ele>366.3</ele>
        <time>2017-11-01T13:54:08Z</time>
      </trkpt>
      <trkpt lat="43.59488" lon="3.28219">
        <ele>366.9</ele>
        <time>2017-11-01T13:54:11Z</time>
      </trkpt>
      <trkpt lat="43.5949" lon="3.2823">
        <ele>367.5</ele>
        <time>2017-11-01T13:54:14Z</time>
      </trkpt>
      <trkpt lat="43.59492" lon="3.28241">
        <ele>367.9</ele>
        <time>2017-11-01T13:54:17Z</time>
      </trkpt>
      <trkpt lat="43.59494" lon="3.28254">
        <ele>368.1</ele>
        <time>2017-11-01T13:54:20Z</time>
      </trkpt>
      <trkpt lat="43.59488" lon="3.28262">
        <ele>368.2</ele>
        <time>2017-11-01T13:54:23Z</time>
      </trkpt>
      <trkpt lat="43.59482" lon="3.28272">
        <ele>368.3</ele>
        <time>2017-11-01T13:54:26Z</time>
      </trkpt>
      <trkpt lat="43.5948" lon="3.28282">
        <ele>368.5</ele>
        <time>2017-11-01T13:54:29Z</time>
      </trkpt>
      <trkpt lat="43.59479" lon="3.28292">
        <ele>368.7</ele>
        <time>2017-11-01T13:54:32Z</time>
      </trkpt>
      <trkpt lat="43.59479" lon="3.28304">
        <ele>369</ele>
        <time>2017-11-01T13:54:35Z</time>
      </trkpt>
      <trkpt lat="43.5948" lon="3.28316">
        <ele>369.5</ele>
        <time>2017-11-01T13:54:38Z</time>
      </trkpt>
      <trkpt lat="43.59482" lon="3.28328">
        <ele>369.9</ele>
        <time>2017-11-01T13:54:41Z</time>
      </trkpt>
      <trkpt lat="43.59484" lon="3.2834">
        <ele>370.3</ele>
        <time>2017-11-01T13:54:44Z</time>
      </trkpt>
      <trkpt lat="43.59485" lon="3.28351">
        <ele>370.7</ele>
        <time>2017-11-01T13:54:47Z</time>
      </trkpt>
      <trkpt lat="43.59486" lon="3.28364">
        <ele>371</ele>
        <time>2017-11-01T13:54:50Z</time>
      </trkpt>
      <trkpt lat="43.59485" lon="3.28375">
        <ele>371.3</ele>
        <time>2017-11-01T13:54:53Z</time>
      </trkpt>
      <trkpt lat="43.59484" lon="3.28387">
        <ele>371.5</ele>
        <time>2017-11-01T13:54:56Z</time>
      </trkpt>
      <trkpt lat="43.59481" lon="3.28399">
        <ele>371.6</ele>
        <time>2017-11-01T13:54:59Z</time>
      </trkpt>
      <trkpt lat="43.59478" lon="3.28409">
        <ele>371.6</ele>
        <time>2017-11-01T13:55:02Z</time>
      </trkpt>
      <trkpt lat="43.59474" lon="3.28421">
        <ele>371.7</ele>
        <time>2017-11-01T13:55:05Z</time>
      </trkpt>
      <trkpt lat="43.59469" lon="3.28432">
        <ele>371.8</ele>
        <time>2017-11-01T13:55:08Z</time>
      </trkpt>
      <trkpt lat="43.59465" lon="3.28441">
        <ele>372</ele>
        <time>2017-11-01T13:55:11Z</time>
      </trkpt>
      <trkpt lat="43.5946" lon="3.2845">
        <ele>372.3</ele>
        <time>2017-11-01T13:55:14Z</time>
      </trkpt>
      <trkpt lat="43.59454" lon="3.2846">
        <ele>372.7</ele>
        <time>2017-11-01T13:55:18Z</time>
      </trkpt>
      <trkpt lat="43.59449" lon="3.28468">
        <ele>373.2</ele>
        <time>2017-11-01T13:55:21Z</time>
      </trkpt>
      <trkpt lat="43.59443" lon="3.28475">
        <ele>373.8</ele>
        <time>2017-11-01T13:55:24Z</time>
      </trkpt>
      <trkpt lat="43.59435" lon="3.28481">
        <ele>374.4</ele>
        <time>2017-11-01T13:55:27Z</time>
      </trkpt>
      <trkpt lat="43.59427" lon="3.28487">
        <ele>374.9</ele>
        <time>2017-11-01T13:55:30Z</time>
      </trkpt>
      <trkpt lat="43.5942" lon="3.2849">
        <ele>375.3</ele>
        <time>2017-11-01T13:55:33Z</time>
      </trkpt>
      <trkpt lat="43.59411" lon="3.28489">
        <ele>375.9</ele>
        <time>2017-11-01T13:55:37Z</time>
      </trkpt>
      <trkpt lat="43.59402" lon="3.28489">
        <ele>376.3</ele>
        <time>2017-11-01T13:55:40Z</time>
      </trkpt>
      <trkpt lat="43.59393" lon="3.28491">
        <ele>376.9</ele>
        <time>2017-11-01T13:55:44Z</time>
      </trkpt>
      <trkpt lat="43.59382" lon="3.28492">
        <ele>377.5</ele>
        <time>2017-11-01T13:55:48Z</time>
      </trkpt>
      <trkpt lat="43.59374" lon="3.28495">
        <ele>378.1</ele>
        <time>2017-11-01T13:55:51Z</time>
      </trkpt>
      <trkpt lat="43.59359" lon="3.28496">
        <ele>378.9</ele>
        <time>2017-11-01T13:55:56Z</time>
      </trkpt>
      <trkpt lat="43.5935" lon="3.28499">
        <ele>379.5</ele>
        <time>2017-11-01T13:55:59Z</time>
      </trkpt>
      <trkpt lat="43.59342" lon="3.28502">
        <ele>380.2</ele>
        <time>2017-11-01T13:56:02Z</time>
      </trkpt>
      <trkpt lat="43.59333" lon="3.28507">
        <ele>380.9</ele>
        <time>2017-11-01T13:56:05Z</time>
      </trkpt>
      <trkpt lat="43.59327" lon="3.2851">
        <ele>381.4</ele>
        <time>2017-11-01T13:56:08Z</time>
      </trkpt>
      <trkpt lat="43.59319" lon="3.28515">
        <ele>381.8</ele>
        <time>2017-11-01T13:56:11Z</time>
      </trkpt>
      <trkpt lat="43.5931" lon="3.28517">
        <ele>382.2</ele>
        <time>2017-11-01T13:56:14Z</time>
      </trkpt>
      <trkpt lat="43.59302" lon="3.28521">
        <ele>382.4</ele>
        <time>2017-11-01T13:56:16Z</time>
      </trkpt>
      <trkpt lat="43.59292" lon="3.2853">
        <ele>384.2</ele>
        <time>2017-11-01T13:56:18Z</time>
      </trkpt>
      <trkpt lat="43.59284" lon="3.28542">
        <ele>385.3</ele>
        <time>2017-11-01T13:56:20Z</time>
      </trkpt>
      <trkpt lat="43.59279" lon="3.28552">
        <ele>385.5</ele>
        <time>2017-11-01T13:56:21Z</time>
      </trkpt>
      <trkpt lat="43.59273" lon="3.28563">
        <ele>385.3</ele>
        <time>2017-11-01T13:56:22Z</time>
      </trkpt>
      <trkpt lat="43.59265" lon="3.2858">
        <ele>384.2</ele>
        <time>2017-11-01T13:56:24Z</time>
      </trkpt>
      <trkpt lat="43.59259" lon="3.28597">
        <ele>382.9</ele>
        <time>2017-11-01T13:56:26Z</time>
      </trkpt>
      <trkpt lat="43.59253" lon="3.28606">
        <ele>382.2</ele>
        <time>2017-11-01T13:56:27Z</time>
      </trkpt>
      <trkpt lat="43.59247" lon="3.28615">
        <ele>381.7</ele>
        <time>2017-11-01T13:56:28Z</time>
      </trkpt>
      <trkpt lat="43.59242" lon="3.28625">
        <ele>381.1</ele>
        <time>2017-11-01T13:56:29Z</time>
      </trkpt>
      <trkpt lat="43.59236" lon="3.28636">
        <ele>380.4</ele>
        <time>2017-11-01T13:56:30Z</time>
      </trkpt>
      <trkpt lat="43.5923" lon="3.28648">
        <ele>379.6</ele>
        <time>2017-11-01T13:56:31Z</time>
      </trkpt>
      <trkpt lat="43.59225" lon="3.2866">
        <ele>378.5</ele>
        <time>2017-11-01T13:56:32Z</time>
      </trkpt>
      <trkpt lat="43.59219" lon="3.2867">
        <ele>377.3</ele>
        <time>2017-11-01T13:56:33Z</time>
      </trkpt>
      <trkpt lat="43.59213" lon="3.28679">
        <ele>376.1</ele>
        <time>2017-11-01T13:56:34Z</time>
      </trkpt>
      <trkpt lat="43.59206" lon="3.28688">
        <ele>374.8</ele>
        <time>2017-11-01T13:56:35Z</time>
      </trkpt>
      <trkpt lat="43.592" lon="3.28696">
        <ele>373.8</ele>
        <time>2017-11-01T13:56:36Z</time>
      </trkpt>
      <trkpt lat="43.59193" lon="3.28704">
        <ele>372.8</ele>
        <time>2017-11-01T13:56:37Z</time>
      </trkpt>
      <trkpt lat="43.59187" lon="3.28713">
        <ele>371.7</ele>
        <time>2017-11-01T13:56:38Z</time>
      </trkpt>
      <trkpt lat="43.59181" lon="3.28722">
        <ele>370.7</ele>
        <time>2017-11-01T13:56:39Z</time>
      </trkpt>
      <trkpt lat="43.59175" lon="3.2873">
        <ele>370</ele>
        <time>2017-11-01T13:56:40Z</time>
      </trkpt>
      <trkpt lat="43.59169" lon="3.28739">
        <ele>369.3</ele>
        <time>2017-11-01T13:56:41Z</time>
      </trkpt>
      <trkpt lat="43.59162" lon="3.28748">
        <ele>368.7</ele>
        <time>2017-11-01T13:56:42Z</time>
      </trkpt>
      <trkpt lat="43.59155" lon="3.28756">
        <ele>368.1</ele>
        <time>2017-11-01T13:56:43Z</time>
      </trkpt>
      <trkpt lat="43.59147" lon="3.28765">
        <ele>367.6</ele>
        <time>2017-11-01T13:56:44Z</time>
      </trkpt>
      <trkpt lat="43.59142" lon="3.28773">
        <ele>367.2</ele>
        <time>2017-11-01T13:56:45Z</time>
      </trkpt>
      <trkpt lat="43.59136" lon="3.28781">
        <ele>366.9</ele>
        <time>2017-11-01T13:56:46Z</time>
      </trkpt>
      <trkpt lat="43.59132" lon="3.28791">
        <ele>366.6</ele>
        <time>2017-11-01T13:56:47Z</time>
      </trkpt>
      <trkpt lat="43.59128" lon="3.28799">
        <ele>366.3</ele>
        <time>2017-11-01T13:56:48Z</time>
      </trkpt>
      <trkpt lat="43.5912" lon="3.28814">
        <ele>365.8</ele>
        <time>2017-11-01T13:56:50Z</time>
      </trkpt>
      <trkpt lat="43.59109" lon="3.28821">
        <ele>365.7</ele>
        <time>2017-11-01T13:56:52Z</time>
      </trkpt>
      <trkpt lat="43.591" lon="3.28814">
        <ele>365.7</ele>
        <time>2017-11-01T13:56:54Z</time>
      </trkpt>
      <trkpt lat="43.5909" lon="3.28813">
        <ele>365.8</ele>
        <time>2017-11-01T13:56:56Z</time>
      </trkpt>
      <trkpt lat="43.59081" lon="3.28814">
        <ele>365.8</ele>
        <time>2017-11-01T13:56:58Z</time>
      </trkpt>
      <trkpt lat="43.59074" lon="3.28815">
        <ele>365.8</ele>
        <time>2017-11-01T13:57:00Z</time>
      </trkpt>
      <trkpt lat="43.59064" lon="3.28815">
        <ele>365.9</ele>
        <time>2017-11-01T13:57:03Z</time>
      </trkpt>
      <trkpt lat="43.59054" lon="3.2882">
        <ele>366.4</ele>
        <time>2017-11-01T13:57:06Z</time>
      </trkpt>
      <trkpt lat="43.59044" lon="3.28824">
        <ele>366.5</ele>
        <time>2017-11-01T13:57:09Z</time>
      </trkpt>
      <trkpt lat="43.59035" lon="3.28828">
        <ele>366.6</ele>
        <time>2017-11-01T13:57:12Z</time>
      </trkpt>
      <trkpt lat="43.59028" lon="3.28832">
        <ele>366.9</ele>
        <time>2017-11-01T13:57:15Z</time>
      </trkpt>
      <trkpt lat="43.5902" lon="3.28839">
        <ele>367.1</ele>
        <time>2017-11-01T13:57:18Z</time>
      </trkpt>
      <trkpt lat="43.59013" lon="3.28845">
        <ele>367.4</ele>
        <time>2017-11-01T13:57:21Z</time>
      </trkpt>
      <trkpt lat="43.59006" lon="3.28853">
        <ele>367.7</ele>
        <time>2017-11-01T13:57:24Z</time>
      </trkpt>
      <trkpt lat="43.58999" lon="3.2886">
        <ele>368</ele>
        <time>2017-11-01T13:57:27Z</time>
      </trkpt>
      <trkpt lat="43.58992" lon="3.28866">
        <ele>368.3</ele>
        <time>2017-11-01T13:57:30Z</time>
      </trkpt>
      <trkpt lat="43.58984" lon="3.28874">
        <ele>368.7</ele>
        <time>2017-11-01T13:57:34Z</time>
      </trkpt>
      <trkpt lat="43.58977" lon="3.28881">
        <ele>369.1</ele>
        <time>2017-11-01T13:57:37Z</time>
      </trkpt>
      <trkpt lat="43.5897" lon="3.28887">
        <ele>369.5</ele>
        <time>2017-11-01T13:57:40Z</time>
      </trkpt>
      <trkpt lat="43.58963" lon="3.28893">
        <ele>369.9</ele>
        <time>2017-11-01T13:57:43Z</time>
      </trkpt>
      <trkpt lat="43.58956" lon="3.28901">
        <ele>370.4</ele>
        <time>2017-11-01T13:57:46Z</time>
      </trkpt>
      <trkpt lat="43.58949" lon="3.28908">
        <ele>371</ele>
        <time>2017-11-01T13:57:49Z</time>
      </trkpt>
      <trkpt lat="43.58941" lon="3.28914">
        <ele>371.6</ele>
        <time>2017-11-01T13:57:52Z</time>
      </trkpt>
      <trkpt lat="43.58933" lon="3.28911">
        <ele>372.2</ele>
        <time>2017-11-01T13:57:56Z</time>
      </trkpt>
      <trkpt lat="43.58936" lon="3.28901">
        <ele>372.8</ele>
        <time>2017-11-01T13:57:59Z</time>
      </trkpt>
      <trkpt lat="43.5894" lon="3.28893">
        <ele>373.2</ele>
        <time>2017-11-01T13:58:02Z</time>
      </trkpt>
      <trkpt lat="43.58945" lon="3.28883">
        <ele>373.5</ele>
        <time>2017-11-01T13:58:05Z</time>
      </trkpt>
      <trkpt lat="43.58949" lon="3.28873">
        <ele>373.6</ele>
        <time>2017-11-01T13:58:08Z</time>
      </trkpt>
      <trkpt lat="43.58952" lon="3.28864">
        <ele>373.7</ele>
        <time>2017-11-01T13:58:11Z</time>
      </trkpt>
      <trkpt lat="43.58955" lon="3.28851">
        <ele>373.9</ele>
        <time>2017-11-01T13:58:15Z</time>
      </trkpt>
      <trkpt lat="43.58958" lon="3.28843">
        <ele>374.1</ele>
        <time>2017-11-01T13:58:18Z</time>
      </trkpt>
      <trkpt lat="43.58962" lon="3.28834">
        <ele>374.3</ele>
        <time>2017-11-01T13:58:21Z</time>
      </trkpt>
      <trkpt lat="43.58966" lon="3.28826">
        <ele>374.5</ele>
        <time>2017-11-01T13:58:24Z</time>
      </trkpt>
      <trkpt lat="43.58972" lon="3.28817">
        <ele>375</ele>
        <time>2017-11-01T13:58:28Z</time>
      </trkpt>
      <trkpt lat="43.58979" lon="3.2881">
        <ele>375.5</ele>
        <time>2017-11-01T13:58:32Z</time>
      </trkpt>
      <trkpt lat="43.58983" lon="3.288">
        <ele>376.2</ele>
        <time>2017-11-01T13:58:36Z</time>
      </trkpt>
      <trkpt lat="43.58988" lon="3.2879">
        <ele>376.9</ele>
        <time>2017-11-01T13:58:40Z</time>
      </trkpt>
      <trkpt lat="43.58993" lon="3.28782">
        <ele>377.5</ele>
        <time>2017-11-01T13:58:43Z</time>
      </trkpt>
      <trkpt lat="43.58996" lon="3.28773">
        <ele>378.1</ele>
        <time>2017-11-01T13:58:46Z</time>
      </trkpt>
      <trkpt lat="43.59001" lon="3.28764">
        <ele>378.9</ele>
        <time>2017-11-01T13:58:50Z</time>
      </trkpt>
      <trkpt lat="43.59005" lon="3.28754">
        <ele>379.7</ele>
        <time>2017-11-01T13:58:54Z</time>
      </trkpt>
      <trkpt lat="43.59008" lon="3.28743">
        <ele>380.5</ele>
        <time>2017-11-01T13:58:58Z</time>
      </trkpt>
      <trkpt lat="43.59006" lon="3.28733">
        <ele>381.2</ele>
        <time>2017-11-01T13:59:02Z</time>
      </trkpt>
      <trkpt lat="43.59" lon="3.28727">
        <ele>382</ele>
        <time>2017-11-01T13:59:06Z</time>
      </trkpt>
      <trkpt lat="43.58992" lon="3.28725">
        <ele>382.8</ele>
        <time>2017-11-01T13:59:10Z</time>
      </trkpt>
      <trkpt lat="43.58984" lon="3.28721">
        <ele>383.6</ele>
        <time>2017-11-01T13:59:14Z</time>
      </trkpt>
      <trkpt lat="43.58978" lon="3.28716">
        <ele>384.5</ele>
        <time>2017-11-01T13:59:18Z</time>
      </trkpt>
      <trkpt lat="43.58971" lon="3.2871">
        <ele>385.8</ele>
        <time>2017-11-01T13:59:23Z</time>
      </trkpt>
      <trkpt lat="43.58965" lon="3.28705">
        <ele>386.9</ele>
        <time>2017-11-01T13:59:27Z</time>
      </trkpt>
      <trkpt lat="43.58958" lon="3.287">
        <ele>388.2</ele>
        <time>2017-11-01T13:59:31Z</time>
      </trkpt>
      <trkpt lat="43.5895" lon="3.28698">
        <ele>389.4</ele>
        <time>2017-11-01T13:59:35Z</time>
      </trkpt>
      <trkpt lat="43.58942" lon="3.28696">
        <ele>390.7</ele>
        <time>2017-11-01T13:59:39Z</time>
      </trkpt>
      <trkpt lat="43.58934" lon="3.28696">
        <ele>391.9</ele>
        <time>2017-11-01T13:59:43Z</time>
      </trkpt>
      <trkpt lat="43.58925" lon="3.28694">
        <ele>393.1</ele>
        <time>2017-11-01T13:59:47Z</time>
      </trkpt>
      <trkpt lat="43.58916" lon="3.28692">
        <ele>394.4</ele>
        <time>2017-11-01T13:59:51Z</time>
      </trkpt>
      <trkpt lat="43.58907" lon="3.28689">
        <ele>395.6</ele>
        <time>2017-11-01T13:59:55Z</time>
      </trkpt>
      <trkpt lat="43.58898" lon="3.28688">
        <ele>396.8</ele>
        <time>2017-11-01T13:59:59Z</time>
      </trkpt>
      <trkpt lat="43.5889" lon="3.28687">
        <ele>397.6</ele>
        <time>2017-11-01T14:00:02Z</time>
      </trkpt>
      <trkpt lat="43.58883" lon="3.28686">
        <ele>398.6</ele>
        <time>2017-11-01T14:00:06Z</time>
      </trkpt>
      <trkpt lat="43.58876" lon="3.28686">
        <ele>399.4</ele>
        <time>2017-11-01T14:00:09Z</time>
      </trkpt>
      <trkpt lat="43.58867" lon="3.28688">
        <ele>400.7</ele>
        <time>2017-11-01T14:00:14Z</time>
      </trkpt>
      <trkpt lat="43.58859" lon="3.28689">
        <ele>401.7</ele>
        <time>2017-11-01T14:00:18Z</time>
      </trkpt>
      <trkpt lat="43.58851" lon="3.28692">
        <ele>402.7</ele>
        <time>2017-11-01T14:00:22Z</time>
      </trkpt>
      <trkpt lat="43.58844" lon="3.28692">
        <ele>403.5</ele>
        <time>2017-11-01T14:00:25Z</time>
      </trkpt>
      <trkpt lat="43.58836" lon="3.28687">
        <ele>404.5</ele>
        <time>2017-11-01T14:00:29Z</time>
      </trkpt>
      <trkpt lat="43.58832" lon="3.28677">
        <ele>405.6</ele>
        <time>2017-11-01T14:00:33Z</time>
      </trkpt>
      <trkpt lat="43.58826" lon="3.28669">
        <ele>406.5</ele>
        <time>2017-11-01T14:00:37Z</time>
      </trkpt>
      <trkpt lat="43.58819" lon="3.28662">
        <ele>407.5</ele>
        <time>2017-11-01T14:00:41Z</time>
      </trkpt>
      <trkpt lat="43.58813" lon="3.28658">
        <ele>408.3</ele>
        <time>2017-11-01T14:00:44Z</time>
      </trkpt>
      <trkpt lat="43.58804" lon="3.28653">
        <ele>408.9</ele>
        <time>2017-11-01T14:00:47Z</time>
      </trkpt>
      <trkpt lat="43.58795" lon="3.2865">
        <ele>409.5</ele>
        <time>2017-11-01T14:00:50Z</time>
      </trkpt>
      <trkpt lat="43.58788" lon="3.28647">
        <ele>409.9</ele>
        <time>2017-11-01T14:00:53Z</time>
      </trkpt>
      <trkpt lat="43.58779" lon="3.28645">
        <ele>410.4</ele>
        <time>2017-11-01T14:00:57Z</time>
      </trkpt>
      <trkpt lat="43.58771" lon="3.28645">
        <ele>411</ele>
        <time>2017-11-01T14:01:01Z</time>
      </trkpt>
      <trkpt lat="43.58762" lon="3.28645">
        <ele>412.1</ele>
        <time>2017-11-01T14:01:06Z</time>
      </trkpt>
      <trkpt lat="43.58753" lon="3.28643">
        <ele>413.2</ele>
        <time>2017-11-01T14:01:10Z</time>
      </trkpt>
      <trkpt lat="43.58746" lon="3.28637">
        <ele>414.1</ele>
        <time>2017-11-01T14:01:13Z</time>
      </trkpt>
      <trkpt lat="43.58742" lon="3.28629">
        <ele>414.8</ele>
        <time>2017-11-01T14:01:16Z</time>
      </trkpt>
      <trkpt lat="43.58736" lon="3.28622">
        <ele>415.7</ele>
        <time>2017-11-01T14:01:20Z</time>
      </trkpt>
      <trkpt lat="43.5873" lon="3.28614">
        <ele>416.6</ele>
        <time>2017-11-01T14:01:24Z</time>
      </trkpt>
      <trkpt lat="43.58729" lon="3.28604">
        <ele>417.4</ele>
        <time>2017-11-01T14:01:28Z</time>
      </trkpt>
      <trkpt lat="43.58731" lon="3.28592">
        <ele>418.2</ele>
        <time>2017-11-01T14:01:32Z</time>
      </trkpt>
      <trkpt lat="43.58737" lon="3.28583">
        <ele>419</ele>
        <time>2017-11-01T14:01:36Z</time>
      </trkpt>
      <trkpt lat="43.5874" lon="3.28573">
        <ele>420.4</ele>
        <time>2017-11-01T14:01:42Z</time>
      </trkpt>
      <trkpt lat="43.58748" lon="3.2857">
        <ele>421.4</ele>
        <time>2017-11-01T14:01:46Z</time>
      </trkpt>
      <trkpt lat="43.58756" lon="3.28567">
        <ele>422.1</ele>
        <time>2017-11-01T14:01:49Z</time>
      </trkpt>
      <trkpt lat="43.58762" lon="3.28561">
        <ele>422.6</ele>
        <time>2017-11-01T14:01:51Z</time>
      </trkpt>
      <trkpt lat="43.58769" lon="3.28554">
        <ele>422.9</ele>
        <time>2017-11-01T14:01:53Z</time>
      </trkpt>
      <trkpt lat="43.58776" lon="3.28545">
        <ele>423.2</ele>
        <time>2017-11-01T14:01:56Z</time>
      </trkpt>
      <trkpt lat="43.58781" lon="3.28537">
        <ele>423.3</ele>
        <time>2017-11-01T14:01:59Z</time>
      </trkpt>
      <trkpt lat="43.58787" lon="3.28531">
        <ele>423.4</ele>
        <time>2017-11-01T14:02:02Z</time>
      </trkpt>
      <trkpt lat="43.58791" lon="3.28522">
        <ele>423.4</ele>
        <time>2017-11-01T14:02:06Z</time>
      </trkpt>
      <trkpt lat="43.58798" lon="3.28511">
        <ele>423.5</ele>
        <time>2017-11-01T14:02:10Z</time>
      </trkpt>
      <trkpt lat="43.58803" lon="3.28502">
        <ele>423.6</ele>
        <time>2017-11-01T14:02:13Z</time>
      </trkpt>
      <trkpt lat="43.58806" lon="3.28492">
        <ele>423.8</ele>
        <time>2017-11-01T14:02:16Z</time>
      </trkpt>
      <trkpt lat="43.58809" lon="3.28481">
        <ele>424</ele>
        <time>2017-11-01T14:02:20Z</time>
      </trkpt>
      <trkpt lat="43.58812" lon="3.2847">
        <ele>424.3</ele>
        <time>2017-11-01T14:02:24Z</time>
      </trkpt>
      <trkpt lat="43.58816" lon="3.28458">
        <ele>424.8</ele>
        <time>2017-11-01T14:02:28Z</time>
      </trkpt>
      <trkpt lat="43.58817" lon="3.28447">
        <ele>425.4</ele>
        <time>2017-11-01T14:02:32Z</time>
      </trkpt>
      <trkpt lat="43.58812" lon="3.28438">
        <ele>425.8</ele>
        <time>2017-11-01T14:02:35Z</time>
      </trkpt>
      <trkpt lat="43.58804" lon="3.2844">
        <ele>426</ele>
        <time>2017-11-01T14:02:39Z</time>
      </trkpt>
      <trkpt lat="43.58798" lon="3.28447">
        <ele>426.4</ele>
        <time>2017-11-01T14:02:43Z</time>
      </trkpt>
      <trkpt lat="43.5879" lon="3.28453">
        <ele>426.8</ele>
        <time>2017-11-01T14:02:47Z</time>
      </trkpt>
      <trkpt lat="43.58782" lon="3.28457">
        <ele>427.4</ele>
        <time>2017-11-01T14:02:51Z</time>
      </trkpt>
      <trkpt lat="43.58775" lon="3.28462">
        <ele>428.1</ele>
        <time>2017-11-01T14:02:55Z</time>
      </trkpt>
      <trkpt lat="43.58768" lon="3.28468">
        <ele>429</ele>
        <time>2017-11-01T14:02:59Z</time>
      </trkpt>
      <trkpt lat="43.5876" lon="3.28475">
        <ele>429.9</ele>
        <time>2017-11-01T14:03:03Z</time>
      </trkpt>
      <trkpt lat="43.58753" lon="3.28481">
        <ele>430.6</ele>
        <time>2017-11-01T14:03:06Z</time>
      </trkpt>
      <trkpt lat="43.58745" lon="3.28486">
        <ele>431</ele>
        <time>2017-11-01T14:03:09Z</time>
      </trkpt>
      <trkpt lat="43.58738" lon="3.28491">
        <ele>431.6</ele>
        <time>2017-11-01T14:03:13Z</time>
      </trkpt>
      <trkpt lat="43.58732" lon="3.28496">
        <ele>432</ele>
        <time>2017-11-01T14:03:16Z</time>
      </trkpt>
      <trkpt lat="43.58726" lon="3.28502">
        <ele>432.4</ele>
        <time>2017-11-01T14:03:19Z</time>
      </trkpt>
      <trkpt lat="43.58719" lon="3.28508">
        <ele>432.8</ele>
        <time>2017-11-01T14:03:22Z</time>
      </trkpt>
      <trkpt lat="43.58712" lon="3.28513">
        <ele>433.2</ele>
        <time>2017-11-01T14:03:25Z</time>
      </trkpt>
      <trkpt lat="43.58706" lon="3.28519">
        <ele>433.6</ele>
        <time>2017-11-01T14:03:28Z</time>
      </trkpt>
      <trkpt lat="43.58699" lon="3.28524">
        <ele>434.1</ele>
        <time>2017-11-01T14:03:31Z</time>
      </trkpt>
      <trkpt lat="43.58691" lon="3.28528">
        <ele>434.5</ele>
        <time>2017-11-01T14:03:34Z</time>
      </trkpt>
      <trkpt lat="43.58683" lon="3.28535">
        <ele>434.9</ele>
        <time>2017-11-01T14:03:37Z</time>
      </trkpt>
      <trkpt lat="43.58676" lon="3.2854">
        <ele>435.3</ele>
        <time>2017-11-01T14:03:40Z</time>
      </trkpt>
      <trkpt lat="43.58668" lon="3.28544">
        <ele>435.7</ele>
        <time>2017-11-01T14:03:43Z</time>
      </trkpt>
      <trkpt lat="43.58661" lon="3.28548">
        <ele>436.2</ele>
        <time>2017-11-01T14:03:46Z</time>
      </trkpt>
      <trkpt lat="43.58651" lon="3.2855">
        <ele>436.6</ele>
        <time>2017-11-01T14:03:49Z</time>
      </trkpt>
      <trkpt lat="43.58643" lon="3.28554">
        <ele>437</ele>
        <time>2017-11-01T14:03:52Z</time>
      </trkpt>
      <trkpt lat="43.58635" lon="3.28557">
        <ele>437.5</ele>
        <time>2017-11-01T14:03:55Z</time>
      </trkpt>
      <trkpt lat="43.58626" lon="3.2856">
        <ele>437.8</ele>
        <time>2017-11-01T14:03:58Z</time>
      </trkpt>
      <trkpt lat="43.58619" lon="3.28563">
        <ele>438.2</ele>
        <time>2017-11-01T14:04:01Z</time>
      </trkpt>
      <trkpt lat="43.58611" lon="3.28565">
        <ele>438.6</ele>
        <time>2017-11-01T14:04:04Z</time>
      </trkpt>
      <trkpt lat="43.58603" lon="3.28568">
        <ele>439.1</ele>
        <time>2017-11-01T14:04:07Z</time>
      </trkpt>
      <trkpt lat="43.58594" lon="3.28571">
        <ele>439.7</ele>
        <time>2017-11-01T14:04:10Z</time>
      </trkpt>
      <trkpt lat="43.58586" lon="3.28576">
        <ele>440.2</ele>
        <time>2017-11-01T14:04:13Z</time>
      </trkpt>
      <trkpt lat="43.58578" lon="3.28584">
        <ele>440.8</ele>
        <time>2017-11-01T14:04:16Z</time>
      </trkpt>
      <trkpt lat="43.58572" lon="3.28594">
        <ele>441.4</ele>
        <time>2017-11-01T14:04:19Z</time>
      </trkpt>
      <trkpt lat="43.58567" lon="3.28603">
        <ele>442.1</ele>
        <time>2017-11-01T14:04:22Z</time>
      </trkpt>
      <trkpt lat="43.58565" lon="3.28614">
        <ele>442.7</ele>
        <time>2017-11-01T14:04:25Z</time>
      </trkpt>
      <trkpt lat="43.58564" lon="3.28625">
        <ele>443.2</ele>
        <time>2017-11-01T14:04:28Z</time>
      </trkpt>
      <trkpt lat="43.58561" lon="3.28637">
        <ele>443.7</ele>
        <time>2017-11-01T14:04:31Z</time>
      </trkpt>
      <trkpt lat="43.58558" lon="3.28648">
        <ele>444.2</ele>
        <time>2017-11-01T14:04:34Z</time>
      </trkpt>
      <trkpt lat="43.58556" lon="3.28662">
        <ele>444.7</ele>
        <time>2017-11-01T14:04:37Z</time>
      </trkpt>
      <trkpt lat="43.58554" lon="3.28673">
        <ele>445.1</ele>
        <time>2017-11-01T14:04:40Z</time>
      </trkpt>
      <trkpt lat="43.58549" lon="3.28686">
        <ele>445.3</ele>
        <time>2017-11-01T14:04:43Z</time>
      </trkpt>
      <trkpt lat="43.58547" lon="3.28697">
        <ele>445.7</ele>
        <time>2017-11-01T14:04:47Z</time>
      </trkpt>
      <trkpt lat="43.58541" lon="3.28708">
        <ele>446.4</ele>
        <time>2017-11-01T14:04:51Z</time>
      </trkpt>
      <trkpt lat="43.58538" lon="3.28722">
        <ele>447.1</ele>
        <time>2017-11-01T14:04:54Z</time>
      </trkpt>
      <trkpt lat="43.58537" lon="3.28737">
        <ele>447.5</ele>
        <time>2017-11-01T14:04:57Z</time>
      </trkpt>
      <trkpt lat="43.58536" lon="3.2875">
        <ele>447.9</ele>
        <time>2017-11-01T14:05:00Z</time>
      </trkpt>
      <trkpt lat="43.58537" lon="3.28764">
        <ele>448.1</ele>
        <time>2017-11-01T14:05:03Z</time>
      </trkpt>
      <trkpt lat="43.58537" lon="3.28776">
        <ele>448.2</ele>
        <time>2017-11-01T14:05:06Z</time>
      </trkpt>
      <trkpt lat="43.58538" lon="3.28788">
        <ele>448.3</ele>
        <time>2017-11-01T14:05:09Z</time>
      </trkpt>
      <trkpt lat="43.58541" lon="3.28801">
        <ele>448.4</ele>
        <time>2017-11-01T14:05:12Z</time>
      </trkpt>
      <trkpt lat="43.58543" lon="3.28815">
        <ele>448.6</ele>
        <time>2017-11-01T14:05:15Z</time>
      </trkpt>
      <trkpt lat="43.58546" lon="3.28829">
        <ele>448.9</ele>
        <time>2017-11-01T14:05:18Z</time>
      </trkpt>
      <trkpt lat="43.58548" lon="3.28843">
        <ele>449.2</ele>
        <time>2017-11-01T14:05:21Z</time>
      </trkpt>
      <trkpt lat="43.58548" lon="3.28857">
        <ele>449.5</ele>
        <time>2017-11-01T14:05:24Z</time>
      </trkpt>
      <trkpt lat="43.58549" lon="3.28869">
        <ele>449.7</ele>
        <time>2017-11-01T14:05:27Z</time>
      </trkpt>
      <trkpt lat="43.58551" lon="3.28884">
        <ele>450</ele>
        <time>2017-11-01T14:05:30Z</time>
      </trkpt>
      <trkpt lat="43.58549" lon="3.28896">
        <ele>450.3</ele>
        <time>2017-11-01T14:05:33Z</time>
      </trkpt>
      <trkpt lat="43.58548" lon="3.28912">
        <ele>450.6</ele>
        <time>2017-11-01T14:05:36Z</time>
      </trkpt>
      <trkpt lat="43.58545" lon="3.28923">
        <ele>450.9</ele>
        <time>2017-11-01T14:05:39Z</time>
      </trkpt>
      <trkpt lat="43.5854" lon="3.28935">
        <ele>451.3</ele>
        <time>2017-11-01T14:05:42Z</time>
      </trkpt>
      <trkpt lat="43.58536" lon="3.28944">
        <ele>451.6</ele>
        <time>2017-11-01T14:05:44Z</time>
      </trkpt>
      <trkpt lat="43.58534" lon="3.28954">
        <ele>451.9</ele>
        <time>2017-11-01T14:05:46Z</time>
      </trkpt>
      <trkpt lat="43.58531" lon="3.28967">
        <ele>452.3</ele>
        <time>2017-11-01T14:05:49Z</time>
      </trkpt>
      <trkpt lat="43.58529" lon="3.28978">
        <ele>452.6</ele>
        <time>2017-11-01T14:05:52Z</time>
      </trkpt>
      <trkpt lat="43.5853" lon="3.28996">
        <ele>453.1</ele>
        <time>2017-11-01T14:05:56Z</time>
      </trkpt>
      <trkpt lat="43.58531" lon="3.29005">
        <ele>453.4</ele>
        <time>2017-11-01T14:05:58Z</time>
      </trkpt>
      <trkpt lat="43.58534" lon="3.29019">
        <ele>454</ele>
        <time>2017-11-01T14:06:01Z</time>
      </trkpt>
      <trkpt lat="43.58538" lon="3.29032">
        <ele>454.6</ele>
        <time>2017-11-01T14:06:04Z</time>
      </trkpt>
      <trkpt lat="43.58544" lon="3.29043">
        <ele>455.3</ele>
        <time>2017-11-01T14:06:07Z</time>
      </trkpt>
      <trkpt lat="43.58548" lon="3.29052">
        <ele>455.8</ele>
        <time>2017-11-01T14:06:09Z</time>
      </trkpt>
      <trkpt lat="43.58554" lon="3.2906">
        <ele>456.2</ele>
        <time>2017-11-01T14:06:11Z</time>
      </trkpt>
      <trkpt lat="43.58558" lon="3.29068">
        <ele>456.6</ele>
        <time>2017-11-01T14:06:13Z</time>
      </trkpt>
      <trkpt lat="43.58564" lon="3.29078">
        <ele>458.8</ele>
        <time>2017-11-01T14:06:15Z</time>
      </trkpt>
      <trkpt lat="43.58571" lon="3.2909">
        <ele>460.4</ele>
        <time>2017-11-01T14:06:18Z</time>
      </trkpt>
      <trkpt lat="43.58577" lon="3.29102">
        <ele>460.8</ele>
        <time>2017-11-01T14:06:21Z</time>
      </trkpt>
      <trkpt lat="43.58583" lon="3.29111">
        <ele>461</ele>
        <time>2017-11-01T14:06:23Z</time>
      </trkpt>
      <trkpt lat="43.58589" lon="3.29119">
        <ele>462.3</ele>
        <time>2017-11-01T14:06:25Z</time>
      </trkpt>
      <trkpt lat="43.58593" lon="3.29126">
        <ele>462.5</ele>
        <time>2017-11-01T14:06:27Z</time>
      </trkpt>
      <trkpt lat="43.58598" lon="3.29134">
        <ele>464</ele>
        <time>2017-11-01T14:06:29Z</time>
      </trkpt>
      <trkpt lat="43.58603" lon="3.29143">
        <ele>464.1</ele>
        <time>2017-11-01T14:06:31Z</time>
      </trkpt>
      <trkpt lat="43.58607" lon="3.29153">
        <ele>465.4</ele>
        <time>2017-11-01T14:06:33Z</time>
      </trkpt>
      <trkpt lat="43.58608" lon="3.29164">
        <ele>465.9</ele>
        <time>2017-11-01T14:06:35Z</time>
      </trkpt>
      <trkpt lat="43.58609" lon="3.29174">
        <ele>466.2</ele>
        <time>2017-11-01T14:06:37Z</time>
      </trkpt>
      <trkpt lat="43.58608" lon="3.29185">
        <ele>466.6</ele>
        <time>2017-11-01T14:06:39Z</time>
      </trkpt>
      <trkpt lat="43.58607" lon="3.29195">
        <ele>466.8</ele>
        <time>2017-11-01T14:06:41Z</time>
      </trkpt>
      <trkpt lat="43.58605" lon="3.29205">
        <ele>466.9</ele>
        <time>2017-11-01T14:06:43Z</time>
      </trkpt>
      <trkpt lat="43.58602" lon="3.29219">
        <ele>467</ele>
        <time>2017-11-01T14:06:46Z</time>
      </trkpt>
      <trkpt lat="43.58599" lon="3.29233">
        <ele>467.1</ele>
        <time>2017-11-01T14:06:49Z</time>
      </trkpt>
      <trkpt lat="43.58596" lon="3.29243">
        <ele>467.3</ele>
        <time>2017-11-01T14:06:51Z</time>
      </trkpt>
      <trkpt lat="43.58594" lon="3.29253">
        <ele>467.4</ele>
        <time>2017-11-01T14:06:53Z</time>
      </trkpt>
      <trkpt lat="43.58593" lon="3.29263">
        <ele>468.6</ele>
        <time>2017-11-01T14:06:55Z</time>
      </trkpt>
      <trkpt lat="43.5859" lon="3.29272">
        <ele>469</ele>
        <time>2017-11-01T14:06:57Z</time>
      </trkpt>
      <trkpt lat="43.58588" lon="3.29282">
        <ele>469.8</ele>
        <time>2017-11-01T14:06:59Z</time>
      </trkpt>
      <trkpt lat="43.58585" lon="3.29291">
        <ele>470.2</ele>
        <time>2017-11-01T14:07:01Z</time>
      </trkpt>
      <trkpt lat="43.58581" lon="3.29299">
        <ele>470.9</ele>
        <time>2017-11-01T14:07:03Z</time>
      </trkpt>
      <trkpt lat="43.58576" lon="3.29309">
        <ele>471.1</ele>
        <time>2017-11-01T14:07:05Z</time>
      </trkpt>
      <trkpt lat="43.58572" lon="3.29317">
        <ele>471.1</ele>
        <time>2017-11-01T14:07:07Z</time>
      </trkpt>
      <trkpt lat="43.58568" lon="3.29326">
        <ele>471.2</ele>
        <time>2017-11-01T14:07:09Z</time>
      </trkpt>
      <trkpt lat="43.58564" lon="3.29335">
        <ele>471.8</ele>
        <time>2017-11-01T14:07:11Z</time>
      </trkpt>
      <trkpt lat="43.58558" lon="3.29348">
        <ele>472.8</ele>
        <time>2017-11-01T14:07:14Z</time>
      </trkpt>
      <trkpt lat="43.58553" lon="3.2936">
        <ele>472.9</ele>
        <time>2017-11-01T14:07:17Z</time>
      </trkpt>
      <trkpt lat="43.58548" lon="3.29371">
        <ele>473.2</ele>
        <time>2017-11-01T14:07:20Z</time>
      </trkpt>
      <trkpt lat="43.58548" lon="3.29387">
        <ele>473.9</ele>
        <time>2017-11-01T14:07:23Z</time>
      </trkpt>
      <trkpt lat="43.58551" lon="3.29398">
        <ele>474.1</ele>
        <time>2017-11-01T14:07:25Z</time>
      </trkpt>
      <trkpt lat="43.58554" lon="3.29407">
        <ele>474.4</ele>
        <time>2017-11-01T14:07:27Z</time>
      </trkpt>
      <trkpt lat="43.58558" lon="3.29417">
        <ele>474.8</ele>
        <time>2017-11-01T14:07:29Z</time>
      </trkpt>
      <trkpt lat="43.5856" lon="3.29427">
        <ele>475.2</ele>
        <time>2017-11-01T14:07:31Z</time>
      </trkpt>
      <trkpt lat="43.58562" lon="3.29443">
        <ele>477.5</ele>
        <time>2017-11-01T14:07:34Z</time>
      </trkpt>
      <trkpt lat="43.58564" lon="3.29452">
        <ele>477.9</ele>
        <time>2017-11-01T14:07:36Z</time>
      </trkpt>
      <trkpt lat="43.58563" lon="3.29463">
        <ele>478.2</ele>
        <time>2017-11-01T14:07:38Z</time>
      </trkpt>
      <trkpt lat="43.58562" lon="3.29473">
        <ele>478.5</ele>
        <time>2017-11-01T14:07:40Z</time>
      </trkpt>
      <trkpt lat="43.5856" lon="3.29483">
        <ele>478.8</ele>
        <time>2017-11-01T14:07:42Z</time>
      </trkpt>
      <trkpt lat="43.58556" lon="3.29497">
        <ele>479.3</ele>
        <time>2017-11-01T14:07:45Z</time>
      </trkpt>
      <trkpt lat="43.58555" lon="3.29506">
        <ele>479.7</ele>
        <time>2017-11-01T14:07:47Z</time>
      </trkpt>
      <trkpt lat="43.58552" lon="3.29521">
        <ele>480.2</ele>
        <time>2017-11-01T14:07:50Z</time>
      </trkpt>
      <trkpt lat="43.58549" lon="3.29533">
        <ele>480.7</ele>
        <time>2017-11-01T14:07:53Z</time>
      </trkpt>
      <trkpt lat="43.58547" lon="3.29547">
        <ele>481.2</ele>
        <time>2017-11-01T14:07:56Z</time>
      </trkpt>
      <trkpt lat="43.58544" lon="3.2956">
        <ele>481.7</ele>
        <time>2017-11-01T14:07:59Z</time>
      </trkpt>
      <trkpt lat="43.58541" lon="3.29574">
        <ele>482.1</ele>
        <time>2017-11-01T14:08:02Z</time>
      </trkpt>
      <trkpt lat="43.58541" lon="3.29584">
        <ele>482.5</ele>
        <time>2017-11-01T14:08:04Z</time>
      </trkpt>
      <trkpt lat="43.58541" lon="3.296">
        <ele>482.9</ele>
        <time>2017-11-01T14:08:07Z</time>
      </trkpt>
      <trkpt lat="43.58541" lon="3.29611">
        <ele>483.2</ele>
        <time>2017-11-01T14:08:09Z</time>
      </trkpt>
      <trkpt lat="43.58541" lon="3.29622">
        <ele>483.4</ele>
        <time>2017-11-01T14:08:11Z</time>
      </trkpt>
      <trkpt lat="43.58544" lon="3.29636">
        <ele>483.7</ele>
        <time>2017-11-01T14:08:14Z</time>
      </trkpt>
      <trkpt lat="43.58548" lon="3.29646">
        <ele>483.9</ele>
        <time>2017-11-01T14:08:17Z</time>
      </trkpt>
      <trkpt lat="43.58555" lon="3.29657">
        <ele>484.1</ele>
        <time>2017-11-01T14:08:20Z</time>
      </trkpt>
      <trkpt lat="43.58559" lon="3.29665">
        <ele>484.3</ele>
        <time>2017-11-01T14:08:22Z</time>
      </trkpt>
      <trkpt lat="43.58565" lon="3.29675">
        <ele>484.5</ele>
        <time>2017-11-01T14:08:25Z</time>
      </trkpt>
      <trkpt lat="43.58572" lon="3.29684">
        <ele>484.8</ele>
        <time>2017-11-01T14:08:28Z</time>
      </trkpt>
      <trkpt lat="43.58578" lon="3.29694">
        <ele>485.2</ele>
        <time>2017-11-01T14:08:31Z</time>
      </trkpt>
      <trkpt lat="43.58584" lon="3.29703">
        <ele>485.7</ele>
        <time>2017-11-01T14:08:34Z</time>
      </trkpt>
      <trkpt lat="43.58591" lon="3.29712">
        <ele>486.1</ele>
        <time>2017-11-01T14:08:37Z</time>
      </trkpt>
      <trkpt lat="43.58596" lon="3.29725">
        <ele>486.5</ele>
        <time>2017-11-01T14:08:40Z</time>
      </trkpt>
      <trkpt lat="43.58599" lon="3.29734">
        <ele>486.7</ele>
        <time>2017-11-01T14:08:42Z</time>
      </trkpt>
      <trkpt lat="43.58603" lon="3.29745">
        <ele>487.1</ele>
        <time>2017-11-01T14:08:45Z</time>
      </trkpt>
      <trkpt lat="43.58607" lon="3.29755">
        <ele>487.2</ele>
        <time>2017-11-01T14:08:47Z</time>
      </trkpt>
      <trkpt lat="43.58607" lon="3.29765">
        <ele>487.9</ele>
        <time>2017-11-01T14:08:49Z</time>
      </trkpt>
      <trkpt lat="43.58609" lon="3.29779">
        <ele>488</ele>
        <time>2017-11-01T14:08:52Z</time>
      </trkpt>
      <trkpt lat="43.5861" lon="3.29793">
        <ele>488.2</ele>
        <time>2017-11-01T14:08:55Z</time>
      </trkpt>
      <trkpt lat="43.5861" lon="3.29803">
        <ele>488.3</ele>
        <time>2017-11-01T14:08:57Z</time>
      </trkpt>
      <trkpt lat="43.5861" lon="3.29817">
        <ele>488.5</ele>
        <time>2017-11-01T14:09:00Z</time>
      </trkpt>
      <trkpt lat="43.58607" lon="3.29831">
        <ele>488.8</ele>
        <time>2017-11-01T14:09:03Z</time>
      </trkpt>
      <trkpt lat="43.58605" lon="3.29845">
        <ele>489.1</ele>
        <time>2017-11-01T14:09:06Z</time>
      </trkpt>
      <trkpt lat="43.58605" lon="3.29858">
        <ele>489.4</ele>
        <time>2017-11-01T14:09:09Z</time>
      </trkpt>
      <trkpt lat="43.58606" lon="3.29868">
        <ele>489.6</ele>
        <time>2017-11-01T14:09:11Z</time>
      </trkpt>
      <trkpt lat="43.58608" lon="3.29878">
        <ele>489.9</ele>
        <time>2017-11-01T14:09:13Z</time>
      </trkpt>
      <trkpt lat="43.58612" lon="3.29889">
        <ele>490.5</ele>
        <time>2017-11-01T14:09:16Z</time>
      </trkpt>
      <trkpt lat="43.58616" lon="3.29901">
        <ele>491</ele>
        <time>2017-11-01T14:09:19Z</time>
      </trkpt>
      <trkpt lat="43.5862" lon="3.29913">
        <ele>491.5</ele>
        <time>2017-11-01T14:09:22Z</time>
      </trkpt>
      <trkpt lat="43.58619" lon="3.29923">
        <ele>492</ele>
        <time>2017-11-01T14:09:25Z</time>
      </trkpt>
      <trkpt lat="43.58612" lon="3.29929">
        <ele>492.6</ele>
        <time>2017-11-01T14:09:30Z</time>
      </trkpt>
      <trkpt lat="43.58601" lon="3.29928">
        <ele>493.1</ele>
        <time>2017-11-01T14:09:35Z</time>
      </trkpt>
      <trkpt lat="43.58594" lon="3.29934">
        <ele>493.6</ele>
        <time>2017-11-01T14:09:39Z</time>
      </trkpt>
      <trkpt lat="43.58591" lon="3.29943">
        <ele>494.4</ele>
        <time>2017-11-01T14:09:46Z</time>
      </trkpt>
      <trkpt lat="43.58591" lon="3.29947">
        <ele>494.9</ele>
        <time>2017-11-01T14:10:10Z</time>
      </trkpt>
      <trkpt lat="43.58591" lon="3.29946">
        <ele>495.9</ele>
        <time>2017-11-01T14:10:48Z</time>
      </trkpt>
      <trkpt lat="43.58587" lon="3.29956">
        <ele>497.1</ele>
        <time>2017-11-01T14:11:03Z</time>
      </trkpt>
      <trkpt lat="43.58584" lon="3.29967">
        <ele>497.3</ele>
        <time>2017-11-01T14:11:06Z</time>
      </trkpt>
      <trkpt lat="43.58582" lon="3.29978">
        <ele>497.4</ele>
        <time>2017-11-01T14:11:09Z</time>
      </trkpt>
      <trkpt lat="43.58578" lon="3.29989">
        <ele>497.6</ele>
        <time>2017-11-01T14:11:12Z</time>
      </trkpt>
      <trkpt lat="43.58574" lon="3.29998">
        <ele>497.7</ele>
        <time>2017-11-01T14:11:14Z</time>
      </trkpt>
      <trkpt lat="43.58571" lon="3.30008">
        <ele>497.8</ele>
        <time>2017-11-01T14:11:17Z</time>
      </trkpt>
      <trkpt lat="43.58567" lon="3.30017">
        <ele>497.9</ele>
        <time>2017-11-01T14:11:19Z</time>
      </trkpt>
      <trkpt lat="43.58563" lon="3.30027">
        <ele>497.9</ele>
        <time>2017-11-01T14:11:21Z</time>
      </trkpt>
      <trkpt lat="43.5856" lon="3.30035">
        <ele>498</ele>
        <time>2017-11-01T14:11:23Z</time>
      </trkpt>
      <trkpt lat="43.58556" lon="3.30044">
        <ele>498.1</ele>
        <time>2017-11-01T14:11:25Z</time>
      </trkpt>
      <trkpt lat="43.58549" lon="3.30056">
        <ele>498.1</ele>
        <time>2017-11-01T14:11:28Z</time>
      </trkpt>
      <trkpt lat="43.58545" lon="3.30065">
        <ele>498.3</ele>
        <time>2017-11-01T14:11:30Z</time>
      </trkpt>
      <trkpt lat="43.5854" lon="3.30073">
        <ele>498.4</ele>
        <time>2017-11-01T14:11:32Z</time>
      </trkpt>
      <trkpt lat="43.58533" lon="3.30086">
        <ele>498.4</ele>
        <time>2017-11-01T14:11:35Z</time>
      </trkpt>
      <trkpt lat="43.58529" lon="3.30094">
        <ele>498.5</ele>
        <time>2017-11-01T14:11:37Z</time>
      </trkpt>
      <trkpt lat="43.58523" lon="3.30105">
        <ele>498.8</ele>
        <time>2017-11-01T14:11:39Z</time>
      </trkpt>
      <trkpt lat="43.58517" lon="3.30116">
        <ele>498.9</ele>
        <time>2017-11-01T14:11:41Z</time>
      </trkpt>
      <trkpt lat="43.58511" lon="3.30124">
        <ele>498.9</ele>
        <time>2017-11-01T14:11:43Z</time>
      </trkpt>
      <trkpt lat="43.58502" lon="3.30132">
        <ele>499.2</ele>
        <time>2017-11-01T14:11:45Z</time>
      </trkpt>
      <trkpt lat="43.58493" lon="3.30143">
        <ele>499.9</ele>
        <time>2017-11-01T14:11:47Z</time>
      </trkpt>
      <trkpt lat="43.58486" lon="3.30152">
        <ele>500.2</ele>
        <time>2017-11-01T14:11:49Z</time>
      </trkpt>
      <trkpt lat="43.5848" lon="3.30164">
        <ele>499.5</ele>
        <time>2017-11-01T14:11:51Z</time>
      </trkpt>
      <trkpt lat="43.58473" lon="3.30176">
        <ele>498.5</ele>
        <time>2017-11-01T14:11:53Z</time>
      </trkpt>
      <trkpt lat="43.58465" lon="3.30186">
        <ele>497.5</ele>
        <time>2017-11-01T14:11:55Z</time>
      </trkpt>
      <trkpt lat="43.5846" lon="3.30192">
        <ele>497.1</ele>
        <time>2017-11-01T14:11:56Z</time>
      </trkpt>
      <trkpt lat="43.58452" lon="3.302">
        <ele>496.2</ele>
        <time>2017-11-01T14:11:58Z</time>
      </trkpt>
      <trkpt lat="43.58442" lon="3.30208">
        <ele>494.9</ele>
        <time>2017-11-01T14:12:00Z</time>
      </trkpt>
      <trkpt lat="43.58432" lon="3.30213">
        <ele>493.6</ele>
        <time>2017-11-01T14:12:02Z</time>
      </trkpt>
      <trkpt lat="43.58421" lon="3.30217">
        <ele>492.6</ele>
        <time>2017-11-01T14:12:04Z</time>
      </trkpt>
      <trkpt lat="43.5841" lon="3.30221">
        <ele>491.7</ele>
        <time>2017-11-01T14:12:06Z</time>
      </trkpt>
      <trkpt lat="43.58401" lon="3.30224">
        <ele>491.4</ele>
        <time>2017-11-01T14:12:08Z</time>
      </trkpt>
      <trkpt lat="43.58391" lon="3.30228">
        <ele>491.7</ele>
        <time>2017-11-01T14:12:10Z</time>
      </trkpt>
      <trkpt lat="43.5838" lon="3.30231">
        <ele>491.8</ele>
        <time>2017-11-01T14:12:12Z</time>
      </trkpt>
      <trkpt lat="43.58371" lon="3.30232">
        <ele>492.7</ele>
        <time>2017-11-01T14:12:14Z</time>
      </trkpt>
      <trkpt lat="43.58359" lon="3.30237">
        <ele>492.4</ele>
        <time>2017-11-01T14:12:16Z</time>
      </trkpt>
      <trkpt lat="43.58348" lon="3.30241">
        <ele>491.8</ele>
        <time>2017-11-01T14:12:18Z</time>
      </trkpt>
      <trkpt lat="43.58333" lon="3.30249">
        <ele>490.5</ele>
        <time>2017-11-01T14:12:20Z</time>
      </trkpt>
      <trkpt lat="43.58326" lon="3.30252">
        <ele>489.7</ele>
        <time>2017-11-01T14:12:21Z</time>
      </trkpt>
      <trkpt lat="43.58314" lon="3.30265">
        <ele>488.7</ele>
        <time>2017-11-01T14:12:23Z</time>
      </trkpt>
      <trkpt lat="43.5831" lon="3.30276">
        <ele>488.2</ele>
        <time>2017-11-01T14:12:24Z</time>
      </trkpt>
      <trkpt lat="43.58307" lon="3.30286">
        <ele>488</ele>
        <time>2017-11-01T14:12:25Z</time>
      </trkpt>
      <trkpt lat="43.58299" lon="3.303">
        <ele>487.3</ele>
        <time>2017-11-01T14:12:27Z</time>
      </trkpt>
      <trkpt lat="43.58298" lon="3.30311">
        <ele>487.2</ele>
        <time>2017-11-01T14:12:28Z</time>
      </trkpt>
      <trkpt lat="43.58297" lon="3.30322">
        <ele>486.6</ele>
        <time>2017-11-01T14:12:29Z</time>
      </trkpt>
      <trkpt lat="43.58298" lon="3.30333">
        <ele>486.2</ele>
        <time>2017-11-01T14:12:30Z</time>
      </trkpt>
      <trkpt lat="43.58299" lon="3.30346">
        <ele>485.9</ele>
        <time>2017-11-01T14:12:31Z</time>
      </trkpt>
      <trkpt lat="43.58298" lon="3.30359">
        <ele>485.5</ele>
        <time>2017-11-01T14:12:32Z</time>
      </trkpt>
      <trkpt lat="43.58299" lon="3.30372">
        <ele>485.1</ele>
        <time>2017-11-01T14:12:33Z</time>
      </trkpt>
      <trkpt lat="43.58299" lon="3.30386">
        <ele>484.8</ele>
        <time>2017-11-01T14:12:34Z</time>
      </trkpt>
      <trkpt lat="43.58297" lon="3.30398">
        <ele>484.8</ele>
        <time>2017-11-01T14:12:35Z</time>
      </trkpt>
      <trkpt lat="43.58296" lon="3.3041">
        <ele>484.6</ele>
        <time>2017-11-01T14:12:36Z</time>
      </trkpt>
      <trkpt lat="43.58296" lon="3.30422">
        <ele>484.4</ele>
        <time>2017-11-01T14:12:37Z</time>
      </trkpt>
      <trkpt lat="43.58295" lon="3.30436">
        <ele>483.9</ele>
        <time>2017-11-01T14:12:38Z</time>
      </trkpt>
      <trkpt lat="43.58294" lon="3.30451">
        <ele>483.3</ele>
        <time>2017-11-01T14:12:39Z</time>
      </trkpt>
      <trkpt lat="43.58295" lon="3.30462">
        <ele>482.9</ele>
        <time>2017-11-01T14:12:40Z</time>
      </trkpt>
      <trkpt lat="43.58298" lon="3.30481">
        <ele>482.4</ele>
        <time>2017-11-01T14:12:42Z</time>
      </trkpt>
      <trkpt lat="43.58299" lon="3.30499">
        <ele>481.9</ele>
        <time>2017-11-01T14:12:44Z</time>
      </trkpt>
      <trkpt lat="43.58301" lon="3.30517">
        <ele>481.8</ele>
        <time>2017-11-01T14:12:46Z</time>
      </trkpt>
      <trkpt lat="43.58303" lon="3.30526">
        <ele>481.5</ele>
        <time>2017-11-01T14:12:47Z</time>
      </trkpt>
      <trkpt lat="43.58305" lon="3.30544">
        <ele>481.8</ele>
        <time>2017-11-01T14:12:49Z</time>
      </trkpt>
      <trkpt lat="43.58306" lon="3.30554">
        <ele>481.5</ele>
        <time>2017-11-01T14:12:50Z</time>
      </trkpt>
      <trkpt lat="43.58305" lon="3.30572">
        <ele>481.6</ele>
        <time>2017-11-01T14:12:52Z</time>
      </trkpt>
      <trkpt lat="43.58301" lon="3.30584">
        <ele>481.3</ele>
        <time>2017-11-01T14:12:54Z</time>
      </trkpt>
      <trkpt lat="43.58296" lon="3.30599">
        <ele>481.3</ele>
        <time>2017-11-01T14:12:56Z</time>
      </trkpt>
      <trkpt lat="43.58289" lon="3.30612">
        <ele>481.7</ele>
        <time>2017-11-01T14:12:58Z</time>
      </trkpt>
      <trkpt lat="43.58283" lon="3.30624">
        <ele>482</ele>
        <time>2017-11-01T14:13:00Z</time>
      </trkpt>
      <trkpt lat="43.58276" lon="3.30641">
        <ele>481.6</ele>
        <time>2017-11-01T14:13:02Z</time>
      </trkpt>
      <trkpt lat="43.58273" lon="3.30653">
        <ele>481.1</ele>
        <time>2017-11-01T14:13:03Z</time>
      </trkpt>
      <trkpt lat="43.58267" lon="3.30666">
        <ele>480.2</ele>
        <time>2017-11-01T14:13:04Z</time>
      </trkpt>
      <trkpt lat="43.58261" lon="3.30679">
        <ele>479</ele>
        <time>2017-11-01T14:13:05Z</time>
      </trkpt>
      <trkpt lat="43.58254" lon="3.30692">
        <ele>477.9</ele>
        <time>2017-11-01T14:13:06Z</time>
      </trkpt>
      <trkpt lat="43.58249" lon="3.30706">
        <ele>476.8</ele>
        <time>2017-11-01T14:13:07Z</time>
      </trkpt>
      <trkpt lat="43.58243" lon="3.30718">
        <ele>475.9</ele>
        <time>2017-11-01T14:13:08Z</time>
      </trkpt>
      <trkpt lat="43.58236" lon="3.30726">
        <ele>475.1</ele>
        <time>2017-11-01T14:13:09Z</time>
      </trkpt>
      <trkpt lat="43.58227" lon="3.30734">
        <ele>474.1</ele>
        <time>2017-11-01T14:13:10Z</time>
      </trkpt>
      <trkpt lat="43.58219" lon="3.30743">
        <ele>473.3</ele>
        <time>2017-11-01T14:13:11Z</time>
      </trkpt>
      <trkpt lat="43.58209" lon="3.30749">
        <ele>472.5</ele>
        <time>2017-11-01T14:13:12Z</time>
      </trkpt>
      <trkpt lat="43.582" lon="3.30754">
        <ele>471.6</ele>
        <time>2017-11-01T14:13:13Z</time>
      </trkpt>
      <trkpt lat="43.5819" lon="3.30757">
        <ele>470.6</ele>
        <time>2017-11-01T14:13:14Z</time>
      </trkpt>
      <trkpt lat="43.58178" lon="3.30758">
        <ele>469.3</ele>
        <time>2017-11-01T14:13:15Z</time>
      </trkpt>
      <trkpt lat="43.58168" lon="3.30763">
        <ele>467.7</ele>
        <time>2017-11-01T14:13:16Z</time>
      </trkpt>
      <trkpt lat="43.58158" lon="3.30768">
        <ele>466.4</ele>
        <time>2017-11-01T14:13:17Z</time>
      </trkpt>
      <trkpt lat="43.58147" lon="3.30772">
        <ele>465.3</ele>
        <time>2017-11-01T14:13:18Z</time>
      </trkpt>
      <trkpt lat="43.58139" lon="3.30776">
        <ele>464.1</ele>
        <time>2017-11-01T14:13:19Z</time>
      </trkpt>
      <trkpt lat="43.58127" lon="3.30781">
        <ele>462.9</ele>
        <time>2017-11-01T14:13:21Z</time>
      </trkpt>
      <trkpt lat="43.58122" lon="3.3077">
        <ele>460.5</ele>
        <time>2017-11-01T14:13:25Z</time>
      </trkpt>
      <trkpt lat="43.5812" lon="3.30757">
        <ele>458.3</ele>
        <time>2017-11-01T14:13:27Z</time>
      </trkpt>
      <trkpt lat="43.58111" lon="3.30757">
        <ele>454.3</ele>
        <time>2017-11-01T14:13:29Z</time>
      </trkpt>
      <trkpt lat="43.58099" lon="3.3076">
        <ele>450.8</ele>
        <time>2017-11-01T14:13:31Z</time>
      </trkpt>
      <trkpt lat="43.58085" lon="3.30762">
        <ele>447.8</ele>
        <time>2017-11-01T14:13:33Z</time>
      </trkpt>
      <trkpt lat="43.58077" lon="3.30765">
        <ele>446.4</ele>
        <time>2017-11-01T14:13:34Z</time>
      </trkpt>
      <trkpt lat="43.58069" lon="3.3077">
        <ele>445.1</ele>
        <time>2017-11-01T14:13:35Z</time>
      </trkpt>
      <trkpt lat="43.58063" lon="3.30776">
        <ele>443.9</ele>
        <time>2017-11-01T14:13:36Z</time>
      </trkpt>
      <trkpt lat="43.58056" lon="3.30781">
        <ele>442.9</ele>
        <time>2017-11-01T14:13:37Z</time>
      </trkpt>
      <trkpt lat="43.58047" lon="3.30788">
        <ele>441.8</ele>
        <time>2017-11-01T14:13:38Z</time>
      </trkpt>
      <trkpt lat="43.58041" lon="3.30796">
        <ele>440.9</ele>
        <time>2017-11-01T14:13:39Z</time>
      </trkpt>
      <trkpt lat="43.58038" lon="3.30807">
        <ele>440</ele>
        <time>2017-11-01T14:13:40Z</time>
      </trkpt>
      <trkpt lat="43.58033" lon="3.30816">
        <ele>439.2</ele>
        <time>2017-11-01T14:13:41Z</time>
      </trkpt>
      <trkpt lat="43.58026" lon="3.30821">
        <ele>438.4</ele>
        <time>2017-11-01T14:13:42Z</time>
      </trkpt>
      <trkpt lat="43.58018" lon="3.30824">
        <ele>437.6</ele>
        <time>2017-11-01T14:13:43Z</time>
      </trkpt>
      <trkpt lat="43.5801" lon="3.30831">
        <ele>436.5</ele>
        <time>2017-11-01T14:13:44Z</time>
      </trkpt>
      <trkpt lat="43.58003" lon="3.30841">
        <ele>435.6</ele>
        <time>2017-11-01T14:13:45Z</time>
      </trkpt>
      <trkpt lat="43.57997" lon="3.30851">
        <ele>434.7</ele>
        <time>2017-11-01T14:13:46Z</time>
      </trkpt>
      <trkpt lat="43.5799" lon="3.3086">
        <ele>434</ele>
        <time>2017-11-01T14:13:47Z</time>
      </trkpt>
      <trkpt lat="43.57985" lon="3.30869">
        <ele>433.2</ele>
        <time>2017-11-01T14:13:48Z</time>
      </trkpt>
      <trkpt lat="43.57979" lon="3.3088">
        <ele>433</ele>
        <time>2017-11-01T14:13:49Z</time>
      </trkpt>
      <trkpt lat="43.57974" lon="3.30891">
        <ele>432.7</ele>
        <time>2017-11-01T14:13:50Z</time>
      </trkpt>
      <trkpt lat="43.57972" lon="3.30902">
        <ele>432.3</ele>
        <time>2017-11-01T14:13:51Z</time>
      </trkpt>
      <trkpt lat="43.57968" lon="3.30912">
        <ele>431.7</ele>
        <time>2017-11-01T14:13:52Z</time>
      </trkpt>
      <trkpt lat="43.57964" lon="3.30922">
        <ele>431.2</ele>
        <time>2017-11-01T14:13:53Z</time>
      </trkpt>
      <trkpt lat="43.57957" lon="3.30929">
        <ele>430.9</ele>
        <time>2017-11-01T14:13:54Z</time>
      </trkpt>
      <trkpt lat="43.57952" lon="3.30935">
        <ele>430.6</ele>
        <time>2017-11-01T14:13:55Z</time>
      </trkpt>
      <trkpt lat="43.57943" lon="3.3095">
        <ele>429.5</ele>
        <time>2017-11-01T14:13:57Z</time>
      </trkpt>
      <trkpt lat="43.57939" lon="3.30959">
        <ele>428.8</ele>
        <time>2017-11-01T14:13:58Z</time>
      </trkpt>
      <trkpt lat="43.57936" lon="3.30979">
        <ele>427.5</ele>
        <time>2017-11-01T14:14:00Z</time>
      </trkpt>
      <trkpt lat="43.57934" lon="3.30996">
        <ele>426.6</ele>
        <time>2017-11-01T14:14:02Z</time>
      </trkpt>
      <trkpt lat="43.5793" lon="3.31016">
        <ele>425.1</ele>
        <time>2017-11-01T14:14:04Z</time>
      </trkpt>
      <trkpt lat="43.57929" lon="3.31027">
        <ele>424.2</ele>
        <time>2017-11-01T14:14:05Z</time>
      </trkpt>
      <trkpt lat="43.57927" lon="3.31038">
        <ele>423.4</ele>
        <time>2017-11-01T14:14:06Z</time>
      </trkpt>
      <trkpt lat="43.57926" lon="3.31048">
        <ele>422.9</ele>
        <time>2017-11-01T14:14:07Z</time>
      </trkpt>
      <trkpt lat="43.57925" lon="3.31066">
        <ele>422.4</ele>
        <time>2017-11-01T14:14:09Z</time>
      </trkpt>
      <trkpt lat="43.57923" lon="3.31084">
        <ele>422.6</ele>
        <time>2017-11-01T14:14:11Z</time>
      </trkpt>
      <trkpt lat="43.57919" lon="3.31102">
        <ele>422.2</ele>
        <time>2017-11-01T14:14:13Z</time>
      </trkpt>
      <trkpt lat="43.57918" lon="3.31112">
        <ele>422.1</ele>
        <time>2017-11-01T14:14:14Z</time>
      </trkpt>
      <trkpt lat="43.57916" lon="3.31129">
        <ele>421.3</ele>
        <time>2017-11-01T14:14:16Z</time>
      </trkpt>
      <trkpt lat="43.57916" lon="3.3114">
        <ele>420.7</ele>
        <time>2017-11-01T14:14:17Z</time>
      </trkpt>
      <trkpt lat="43.57917" lon="3.3115">
        <ele>420.2</ele>
        <time>2017-11-01T14:14:18Z</time>
      </trkpt>
      <trkpt lat="43.57914" lon="3.31161">
        <ele>419.8</ele>
        <time>2017-11-01T14:14:19Z</time>
      </trkpt>
      <trkpt lat="43.5791" lon="3.31173">
        <ele>419.3</ele>
        <time>2017-11-01T14:14:20Z</time>
      </trkpt>
      <trkpt lat="43.57905" lon="3.31183">
        <ele>419.1</ele>
        <time>2017-11-01T14:14:21Z</time>
      </trkpt>
      <trkpt lat="43.57901" lon="3.31193">
        <ele>419</ele>
        <time>2017-11-01T14:14:22Z</time>
      </trkpt>
      <trkpt lat="43.57897" lon="3.31203">
        <ele>419.1</ele>
        <time>2017-11-01T14:14:23Z</time>
      </trkpt>
      <trkpt lat="43.57893" lon="3.31214">
        <ele>419.3</ele>
        <time>2017-11-01T14:14:24Z</time>
      </trkpt>
      <trkpt lat="43.57889" lon="3.31221">
        <ele>419.5</ele>
        <time>2017-11-01T14:14:25Z</time>
      </trkpt>
      <trkpt lat="43.57879" lon="3.31235">
        <ele>420.5</ele>
        <time>2017-11-01T14:14:27Z</time>
      </trkpt>
      <trkpt lat="43.57872" lon="3.31242">
        <ele>420.7</ele>
        <time>2017-11-01T14:14:28Z</time>
      </trkpt>
      <trkpt lat="43.57867" lon="3.3125">
        <ele>420.7</ele>
        <time>2017-11-01T14:14:29Z</time>
      </trkpt>
      <trkpt lat="43.57861" lon="3.31256">
        <ele>420.7</ele>
        <time>2017-11-01T14:14:30Z</time>
      </trkpt>
      <trkpt lat="43.57856" lon="3.31264">
        <ele>420.8</ele>
        <time>2017-11-01T14:14:31Z</time>
      </trkpt>
      <trkpt lat="43.5785" lon="3.31272">
        <ele>420.5</ele>
        <time>2017-11-01T14:14:32Z</time>
      </trkpt>
      <trkpt lat="43.57838" lon="3.31283">
        <ele>420.2</ele>
        <time>2017-11-01T14:14:34Z</time>
      </trkpt>
      <trkpt lat="43.57831" lon="3.31291">
        <ele>419.8</ele>
        <time>2017-11-01T14:14:35Z</time>
      </trkpt>
      <trkpt lat="43.57825" lon="3.31301">
        <ele>419.3</ele>
        <time>2017-11-01T14:14:36Z</time>
      </trkpt>
      <trkpt lat="43.57819" lon="3.31309">
        <ele>418.6</ele>
        <time>2017-11-01T14:14:37Z</time>
      </trkpt>
      <trkpt lat="43.57813" lon="3.31316">
        <ele>417.4</ele>
        <time>2017-11-01T14:14:38Z</time>
      </trkpt>
      <trkpt lat="43.5781" lon="3.31326">
        <ele>416</ele>
        <time>2017-11-01T14:14:39Z</time>
      </trkpt>
      <trkpt lat="43.57804" lon="3.31341">
        <ele>413.9</ele>
        <time>2017-11-01T14:14:41Z</time>
      </trkpt>
      <trkpt lat="43.578" lon="3.31349">
        <ele>413.3</ele>
        <time>2017-11-01T14:14:42Z</time>
      </trkpt>
      <trkpt lat="43.57795" lon="3.31359">
        <ele>412.6</ele>
        <time>2017-11-01T14:14:43Z</time>
      </trkpt>
      <trkpt lat="43.57788" lon="3.31366">
        <ele>411.8</ele>
        <time>2017-11-01T14:14:44Z</time>
      </trkpt>
      <trkpt lat="43.57776" lon="3.31377">
        <ele>410.8</ele>
        <time>2017-11-01T14:14:46Z</time>
      </trkpt>
      <trkpt lat="43.57768" lon="3.31383">
        <ele>410.1</ele>
        <time>2017-11-01T14:14:47Z</time>
      </trkpt>
      <trkpt lat="43.57762" lon="3.31389">
        <ele>409.6</ele>
        <time>2017-11-01T14:14:48Z</time>
      </trkpt>
      <trkpt lat="43.57754" lon="3.31402">
        <ele>408.6</ele>
        <time>2017-11-01T14:14:50Z</time>
      </trkpt>
      <trkpt lat="43.57745" lon="3.31414">
        <ele>407.8</ele>
        <time>2017-11-01T14:14:52Z</time>
      </trkpt>
      <trkpt lat="43.57739" lon="3.31422">
        <ele>407.9</ele>
        <time>2017-11-01T14:14:53Z</time>
      </trkpt>
      <trkpt lat="43.57734" lon="3.3143">
        <ele>408.1</ele>
        <time>2017-11-01T14:14:54Z</time>
      </trkpt>
      <trkpt lat="43.57729" lon="3.3144">
        <ele>408.1</ele>
        <time>2017-11-01T14:14:55Z</time>
      </trkpt>
      <trkpt lat="43.5772" lon="3.31454">
        <ele>408.8</ele>
        <time>2017-11-01T14:14:57Z</time>
      </trkpt>
      <trkpt lat="43.57713" lon="3.31459">
        <ele>409.1</ele>
        <time>2017-11-01T14:14:58Z</time>
      </trkpt>
      <trkpt lat="43.57701" lon="3.31465">
        <ele>409.5</ele>
        <time>2017-11-01T14:15:00Z</time>
      </trkpt>
      <trkpt lat="43.57692" lon="3.31472">
        <ele>409.8</ele>
        <time>2017-11-01T14:15:02Z</time>
      </trkpt>
      <trkpt lat="43.57688" lon="3.31482">
        <ele>409.8</ele>
        <time>2017-11-01T14:15:05Z</time>
      </trkpt>
      <trkpt lat="43.57682" lon="3.3149">
        <ele>409.9</ele>
        <time>2017-11-01T14:15:07Z</time>
      </trkpt>
      <trkpt lat="43.57676" lon="3.31499">
        <ele>409.9</ele>
        <time>2017-11-01T14:15:09Z</time>
      </trkpt>
      <trkpt lat="43.5767" lon="3.31506">
        <ele>410</ele>
        <time>2017-11-01T14:15:11Z</time>
      </trkpt>
      <trkpt lat="43.57663" lon="3.31511">
        <ele>410.1</ele>
        <time>2017-11-01T14:15:14Z</time>
      </trkpt>
      <trkpt lat="43.57653" lon="3.31513">
        <ele>410.3</ele>
        <time>2017-11-01T14:15:18Z</time>
      </trkpt>
      <trkpt lat="43.57646" lon="3.3151">
        <ele>410.6</ele>
        <time>2017-11-01T14:15:22Z</time>
      </trkpt>
      <trkpt lat="43.57636" lon="3.31512">
        <ele>412.7</ele>
        <time>2017-11-01T14:15:25Z</time>
      </trkpt>
      <trkpt lat="43.57624" lon="3.31515">
        <ele>414</ele>
        <time>2017-11-01T14:15:27Z</time>
      </trkpt>
      <trkpt lat="43.57616" lon="3.31517">
        <ele>414.4</ele>
        <time>2017-11-01T14:15:28Z</time>
      </trkpt>
      <trkpt lat="43.57609" lon="3.31519">
        <ele>414.7</ele>
        <time>2017-11-01T14:15:29Z</time>
      </trkpt>
      <trkpt lat="43.57603" lon="3.31523">
        <ele>414.7</ele>
        <time>2017-11-01T14:15:30Z</time>
      </trkpt>
      <trkpt lat="43.57591" lon="3.3153">
        <ele>414.9</ele>
        <time>2017-11-01T14:15:32Z</time>
      </trkpt>
      <trkpt lat="43.5758" lon="3.31536">
        <ele>414.9</ele>
        <time>2017-11-01T14:15:34Z</time>
      </trkpt>
      <trkpt lat="43.57573" lon="3.31545">
        <ele>413.7</ele>
        <time>2017-11-01T14:15:36Z</time>
      </trkpt>
      <trkpt lat="43.57563" lon="3.31555">
        <ele>413.4</ele>
        <time>2017-11-01T14:15:38Z</time>
      </trkpt>
      <trkpt lat="43.57556" lon="3.31565">
        <ele>413.2</ele>
        <time>2017-11-01T14:15:40Z</time>
      </trkpt>
      <trkpt lat="43.57547" lon="3.31574">
        <ele>412.8</ele>
        <time>2017-11-01T14:15:42Z</time>
      </trkpt>
      <trkpt lat="43.57538" lon="3.31587">
        <ele>412.7</ele>
        <time>2017-11-01T14:15:44Z</time>
      </trkpt>
      <trkpt lat="43.57531" lon="3.31602">
        <ele>413.2</ele>
        <time>2017-11-01T14:15:46Z</time>
      </trkpt>
      <trkpt lat="43.57528" lon="3.31611">
        <ele>413.2</ele>
        <time>2017-11-01T14:15:47Z</time>
      </trkpt>
      <trkpt lat="43.57525" lon="3.31619">
        <ele>413.4</ele>
        <time>2017-11-01T14:15:48Z</time>
      </trkpt>
      <trkpt lat="43.5752" lon="3.31629">
        <ele>413.7</ele>
        <time>2017-11-01T14:15:49Z</time>
      </trkpt>
      <trkpt lat="43.57516" lon="3.31638">
        <ele>414.1</ele>
        <time>2017-11-01T14:15:50Z</time>
      </trkpt>
      <trkpt lat="43.5751" lon="3.31649">
        <ele>413.9</ele>
        <time>2017-11-01T14:15:51Z</time>
      </trkpt>
      <trkpt lat="43.57504" lon="3.31663">
        <ele>413</ele>
        <time>2017-11-01T14:15:52Z</time>
      </trkpt>
      <trkpt lat="43.57499" lon="3.31675">
        <ele>412.2</ele>
        <time>2017-11-01T14:15:53Z</time>
      </trkpt>
      <trkpt lat="43.57494" lon="3.31687">
        <ele>410.9</ele>
        <time>2017-11-01T14:15:54Z</time>
      </trkpt>
      <trkpt lat="43.57488" lon="3.317">
        <ele>409.3</ele>
        <time>2017-11-01T14:15:55Z</time>
      </trkpt>
      <trkpt lat="43.57484" lon="3.31714">
        <ele>407.7</ele>
        <time>2017-11-01T14:15:56Z</time>
      </trkpt>
      <trkpt lat="43.5748" lon="3.31728">
        <ele>406</ele>
        <time>2017-11-01T14:15:57Z</time>
      </trkpt>
      <trkpt lat="43.57476" lon="3.31739">
        <ele>404.4</ele>
        <time>2017-11-01T14:15:58Z</time>
      </trkpt>
      <trkpt lat="43.57471" lon="3.31753">
        <ele>403.1</ele>
        <time>2017-11-01T14:15:59Z</time>
      </trkpt>
      <trkpt lat="43.57466" lon="3.31778">
        <ele>400.8</ele>
        <time>2017-11-01T14:16:02Z</time>
      </trkpt>
      <trkpt lat="43.57463" lon="3.31791">
        <ele>399.7</ele>
        <time>2017-11-01T14:16:02Z</time>
      </trkpt>
      <trkpt lat="43.57459" lon="3.31802">
        <ele>398.6</ele>
        <time>2017-11-01T14:16:03Z</time>
      </trkpt>
      <trkpt lat="43.57457" lon="3.31815">
        <ele>397.7</ele>
        <time>2017-11-01T14:16:04Z</time>
      </trkpt>
      <trkpt lat="43.57455" lon="3.31825">
        <ele>397.2</ele>
        <time>2017-11-01T14:16:05Z</time>
      </trkpt>
      <trkpt lat="43.57444" lon="3.31838">
        <ele>395.9</ele>
        <time>2017-11-01T14:16:07Z</time>
      </trkpt>
      <trkpt lat="43.5744" lon="3.31852">
        <ele>395.2</ele>
        <time>2017-11-01T14:16:09Z</time>
      </trkpt>
      <trkpt lat="43.57433" lon="3.31858">
        <ele>395</ele>
        <time>2017-11-01T14:16:11Z</time>
      </trkpt>
      <trkpt lat="43.57425" lon="3.31862">
        <ele>393.3</ele>
        <time>2017-11-01T14:16:40Z</time>
      </trkpt>
      <trkpt lat="43.57416" lon="3.31862">
        <ele>392.9</ele>
        <time>2017-11-01T14:16:43Z</time>
      </trkpt>
      <trkpt lat="43.57408" lon="3.31867">
        <ele>390.3</ele>
        <time>2017-11-01T14:16:45Z</time>
      </trkpt>
      <trkpt lat="43.57397" lon="3.31874">
        <ele>388.4</ele>
        <time>2017-11-01T14:16:47Z</time>
      </trkpt>
      <trkpt lat="43.57387" lon="3.31881">
        <ele>386.8</ele>
        <time>2017-11-01T14:16:49Z</time>
      </trkpt>
      <trkpt lat="43.57374" lon="3.31889">
        <ele>385.6</ele>
        <time>2017-11-01T14:16:51Z</time>
      </trkpt>
      <trkpt lat="43.57363" lon="3.31897">
        <ele>384.4</ele>
        <time>2017-11-01T14:16:53Z</time>
      </trkpt>
      <trkpt lat="43.5735" lon="3.31901">
        <ele>383.4</ele>
        <time>2017-11-01T14:16:55Z</time>
      </trkpt>
      <trkpt lat="43.57338" lon="3.31896">
        <ele>382.5</ele>
        <time>2017-11-01T14:16:57Z</time>
      </trkpt>
      <trkpt lat="43.57332" lon="3.31885">
        <ele>381.6</ele>
        <time>2017-11-01T14:16:59Z</time>
      </trkpt>
      <trkpt lat="43.57326" lon="3.31874">
        <ele>380.7</ele>
        <time>2017-11-01T14:17:01Z</time>
      </trkpt>
      <trkpt lat="43.5732" lon="3.31863">
        <ele>380</ele>
        <time>2017-11-01T14:17:03Z</time>
      </trkpt>
      <trkpt lat="43.57314" lon="3.31849">
        <ele>379.4</ele>
        <time>2017-11-01T14:17:05Z</time>
      </trkpt>
      <trkpt lat="43.57308" lon="3.31836">
        <ele>378.9</ele>
        <time>2017-11-01T14:17:07Z</time>
      </trkpt>
      <trkpt lat="43.573" lon="3.3182">
        <ele>378.5</ele>
        <time>2017-11-01T14:17:09Z</time>
      </trkpt>
      <trkpt lat="43.57291" lon="3.31812">
        <ele>377.9</ele>
        <time>2017-11-01T14:17:11Z</time>
      </trkpt>
      <trkpt lat="43.57282" lon="3.31809">
        <ele>377.7</ele>
        <time>2017-11-01T14:17:13Z</time>
      </trkpt>
      <trkpt lat="43.5728" lon="3.31809">
        <ele>377.5</ele>
        <time>2017-11-01T14:17:20Z</time>
      </trkpt>
      <trkpt lat="43.57271" lon="3.31808">
        <ele>378.7</ele>
        <time>2017-11-01T14:16:52Z</time>
      </trkpt>
      <trkpt lat="43.5726" lon="3.31809">
        <ele>379.3</ele>
        <time>2017-11-01T14:18:01Z</time>
      </trkpt>
      <trkpt lat="43.57251" lon="3.31806">
        <ele>380</ele>
        <time>2017-11-01T14:18:05Z</time>
      </trkpt>
      <trkpt lat="43.57244" lon="3.31803">
        <ele>380.3</ele>
        <time>2017-11-01T14:18:07Z</time>
      </trkpt>
      <trkpt lat="43.57235" lon="3.31801">
        <ele>380.9</ele>
        <time>2017-11-01T14:18:10Z</time>
      </trkpt>
      <trkpt lat="43.57227" lon="3.31796">
        <ele>381.3</ele>
        <time>2017-11-01T14:18:13Z</time>
      </trkpt>
      <trkpt lat="43.5722" lon="3.31792">
        <ele>381.5</ele>
        <time>2017-11-01T14:18:15Z</time>
      </trkpt>
      <trkpt lat="43.57214" lon="3.31784">
        <ele>381.8</ele>
        <time>2017-11-01T14:18:18Z</time>
      </trkpt>
      <trkpt lat="43.57207" lon="3.31775">
        <ele>382.1</ele>
        <time>2017-11-01T14:18:22Z</time>
      </trkpt>
      <trkpt lat="43.57201" lon="3.31764">
        <ele>382.6</ele>
        <time>2017-11-01T14:18:27Z</time>
      </trkpt>
      <trkpt lat="43.57198" lon="3.31754">
        <ele>383</ele>
        <time>2017-11-01T14:18:30Z</time>
      </trkpt>
      <trkpt lat="43.57193" lon="3.31744">
        <ele>383.2</ele>
        <time>2017-11-01T14:18:32Z</time>
      </trkpt>
      <trkpt lat="43.57192" lon="3.31734">
        <ele>383.4</ele>
        <time>2017-11-01T14:18:34Z</time>
      </trkpt>
      <trkpt lat="43.57188" lon="3.31722">
        <ele>383.5</ele>
        <time>2017-11-01T14:18:36Z</time>
      </trkpt>
      <trkpt lat="43.57183" lon="3.31708">
        <ele>384</ele>
        <time>2017-11-01T14:18:38Z</time>
      </trkpt>
      <trkpt lat="43.5718" lon="3.31699">
        <ele>384.1</ele>
        <time>2017-11-01T14:18:40Z</time>
      </trkpt>
      <trkpt lat="43.57176" lon="3.31688">
        <ele>384.7</ele>
        <time>2017-11-01T14:18:42Z</time>
      </trkpt>
      <trkpt lat="43.57176" lon="3.31672">
        <ele>384.3</ele>
        <time>2017-11-01T14:18:44Z</time>
      </trkpt>
      <trkpt lat="43.57176" lon="3.31658">
        <ele>383.9</ele>
        <time>2017-11-01T14:18:45Z</time>
      </trkpt>
      <trkpt lat="43.57177" lon="3.31645">
        <ele>382.8</ele>
        <time>2017-11-01T14:18:46Z</time>
      </trkpt>
      <trkpt lat="43.57179" lon="3.31633">
        <ele>381.5</ele>
        <time>2017-11-01T14:18:47Z</time>
      </trkpt>
      <trkpt lat="43.57179" lon="3.31622">
        <ele>380</ele>
        <time>2017-11-01T14:18:48Z</time>
      </trkpt>
      <trkpt lat="43.57184" lon="3.31607">
        <ele>377.3</ele>
        <time>2017-11-01T14:18:50Z</time>
      </trkpt>
      <trkpt lat="43.5719" lon="3.31591">
        <ele>374.7</ele>
        <time>2017-11-01T14:18:52Z</time>
      </trkpt>
      <trkpt lat="43.57195" lon="3.31573">
        <ele>372.2</ele>
        <time>2017-11-01T14:18:54Z</time>
      </trkpt>
      <trkpt lat="43.57203" lon="3.31556">
        <ele>369.6</ele>
        <time>2017-11-01T14:18:56Z</time>
      </trkpt>
      <trkpt lat="43.57207" lon="3.31549">
        <ele>368.5</ele>
        <time>2017-11-01T14:18:57Z</time>
      </trkpt>
      <trkpt lat="43.57214" lon="3.31541">
        <ele>367.5</ele>
        <time>2017-11-01T14:18:58Z</time>
      </trkpt>
      <trkpt lat="43.5722" lon="3.31534">
        <ele>366.8</ele>
        <time>2017-11-01T14:18:59Z</time>
      </trkpt>
      <trkpt lat="43.5723" lon="3.31525">
        <ele>365.7</ele>
        <time>2017-11-01T14:19:01Z</time>
      </trkpt>
      <trkpt lat="43.5724" lon="3.31515">
        <ele>363.8</ele>
        <time>2017-11-01T14:19:03Z</time>
      </trkpt>
      <trkpt lat="43.57251" lon="3.31503">
        <ele>362.7</ele>
        <time>2017-11-01T14:19:05Z</time>
      </trkpt>
      <trkpt lat="43.57262" lon="3.31495">
        <ele>361.8</ele>
        <time>2017-11-01T14:19:07Z</time>
      </trkpt>
      <trkpt lat="43.57276" lon="3.31488">
        <ele>361.5</ele>
        <time>2017-11-01T14:19:09Z</time>
      </trkpt>
      <trkpt lat="43.57281" lon="3.3148">
        <ele>361.4</ele>
        <time>2017-11-01T14:19:12Z</time>
      </trkpt>
      <trkpt lat="43.57272" lon="3.31483">
        <ele>361.3</ele>
        <time>2017-11-01T14:19:15Z</time>
      </trkpt>
      <trkpt lat="43.5726" lon="3.3148">
        <ele>360.5</ele>
        <time>2017-11-01T14:19:18Z</time>
      </trkpt>
      <trkpt lat="43.57248" lon="3.31479">
        <ele>359.7</ele>
        <time>2017-11-01T14:19:20Z</time>
      </trkpt>
      <trkpt lat="43.57239" lon="3.3148">
        <ele>359.3</ele>
        <time>2017-11-01T14:19:21Z</time>
      </trkpt>
      <trkpt lat="43.57231" lon="3.31482">
        <ele>359.2</ele>
        <time>2017-11-01T14:19:22Z</time>
      </trkpt>
      <trkpt lat="43.57217" lon="3.3148">
        <ele>358.2</ele>
        <time>2017-11-01T14:19:24Z</time>
      </trkpt>
      <trkpt lat="43.57203" lon="3.31482">
        <ele>357.6</ele>
        <time>2017-11-01T14:19:26Z</time>
      </trkpt>
      <trkpt lat="43.5719" lon="3.31481">
        <ele>357</ele>
        <time>2017-11-01T14:19:28Z</time>
      </trkpt>
      <trkpt lat="43.5718" lon="3.31482">
        <ele>355.8</ele>
        <time>2017-11-01T14:19:30Z</time>
      </trkpt>
      <trkpt lat="43.57166" lon="3.31484">
        <ele>354.3</ele>
        <time>2017-11-01T14:19:32Z</time>
      </trkpt>
      <trkpt lat="43.57155" lon="3.31485">
        <ele>353.4</ele>
        <time>2017-11-01T14:19:33Z</time>
      </trkpt>
      <trkpt lat="43.57147" lon="3.31488">
        <ele>352.4</ele>
        <time>2017-11-01T14:19:34Z</time>
      </trkpt>
      <trkpt lat="43.57139" lon="3.3149">
        <ele>351.3</ele>
        <time>2017-11-01T14:19:35Z</time>
      </trkpt>
      <trkpt lat="43.57127" lon="3.31492">
        <ele>349.6</ele>
        <time>2017-11-01T14:19:37Z</time>
      </trkpt>
      <trkpt lat="43.57114" lon="3.31491">
        <ele>347.4</ele>
        <time>2017-11-01T14:19:39Z</time>
      </trkpt>
      <trkpt lat="43.57101" lon="3.31491">
        <ele>347</ele>
        <time>2017-11-01T14:19:41Z</time>
      </trkpt>
      <trkpt lat="43.57093" lon="3.31497">
        <ele>345</ele>
        <time>2017-11-01T14:19:43Z</time>
      </trkpt>
      <trkpt lat="43.57085" lon="3.31504">
        <ele>342.2</ele>
        <time>2017-11-01T14:19:45Z</time>
      </trkpt>
      <trkpt lat="43.57075" lon="3.3151">
        <ele>341.9</ele>
        <time>2017-11-01T14:19:47Z</time>
      </trkpt>
      <trkpt lat="43.57067" lon="3.31515">
        <ele>341.6</ele>
        <time>2017-11-01T14:19:49Z</time>
      </trkpt>
      <trkpt lat="43.57056" lon="3.3152">
        <ele>341.2</ele>
        <time>2017-11-01T14:19:51Z</time>
      </trkpt>
      <trkpt lat="43.57047" lon="3.31531">
        <ele>339.3</ele>
        <time>2017-11-01T14:19:53Z</time>
      </trkpt>
      <trkpt lat="43.57038" lon="3.31544">
        <ele>336.1</ele>
        <time>2017-11-01T14:19:55Z</time>
      </trkpt>
      <trkpt lat="43.5703" lon="3.31553">
        <ele>335.8</ele>
        <time>2017-11-01T14:19:57Z</time>
      </trkpt>
      <trkpt lat="43.57025" lon="3.31564">
        <ele>335.3</ele>
        <time>2017-11-01T14:20:00Z</time>
      </trkpt>
      <trkpt lat="43.57017" lon="3.31574">
        <ele>334.7</ele>
        <time>2017-11-01T14:20:03Z</time>
      </trkpt>
      <trkpt lat="43.57014" lon="3.31583">
        <ele>334.4</ele>
        <time>2017-11-01T14:20:05Z</time>
      </trkpt>
      <trkpt lat="43.57005" lon="3.31598">
        <ele>332</ele>
        <time>2017-11-01T14:20:07Z</time>
      </trkpt>
      <trkpt lat="43.57001" lon="3.31607">
        <ele>331.8</ele>
        <time>2017-11-01T14:20:08Z</time>
      </trkpt>
      <trkpt lat="43.56996" lon="3.31618">
        <ele>329.7</ele>
        <time>2017-11-01T14:20:10Z</time>
      </trkpt>
      <trkpt lat="43.56994" lon="3.31631">
        <ele>329.4</ele>
        <time>2017-11-01T14:20:12Z</time>
      </trkpt>
      <trkpt lat="43.56989" lon="3.31645">
        <ele>329</ele>
        <time>2017-11-01T14:20:14Z</time>
      </trkpt>
      <trkpt lat="43.56985" lon="3.31655">
        <ele>328.3</ele>
        <time>2017-11-01T14:20:17Z</time>
      </trkpt>
      <trkpt lat="43.56982" lon="3.31664">
        <ele>327.6</ele>
        <time>2017-11-01T14:20:20Z</time>
      </trkpt>
      <trkpt lat="43.56979" lon="3.31674">
        <ele>326.8</ele>
        <time>2017-11-01T14:20:23Z</time>
      </trkpt>
      <trkpt lat="43.56975" lon="3.31687">
        <ele>326</ele>
        <time>2017-11-01T14:20:26Z</time>
      </trkpt>
      <trkpt lat="43.56972" lon="3.31698">
        <ele>325.5</ele>
        <time>2017-11-01T14:20:29Z</time>
      </trkpt>
      <trkpt lat="43.56971" lon="3.31712">
        <ele>324.9</ele>
        <time>2017-11-01T14:20:32Z</time>
      </trkpt>
      <trkpt lat="43.56968" lon="3.31726">
        <ele>324.2</ele>
        <time>2017-11-01T14:20:35Z</time>
      </trkpt>
      <trkpt lat="43.56965" lon="3.31736">
        <ele>323.8</ele>
        <time>2017-11-01T14:20:37Z</time>
      </trkpt>
      <trkpt lat="43.56964" lon="3.3175">
        <ele>322.9</ele>
        <time>2017-11-01T14:20:40Z</time>
      </trkpt>
      <trkpt lat="43.56964" lon="3.3176">
        <ele>322.3</ele>
        <time>2017-11-01T14:20:42Z</time>
      </trkpt>
      <trkpt lat="43.56963" lon="3.31772">
        <ele>321.7</ele>
        <time>2017-11-01T14:20:44Z</time>
      </trkpt>
      <trkpt lat="43.56959" lon="3.31783">
        <ele>321.1</ele>
        <time>2017-11-01T14:20:46Z</time>
      </trkpt>
      <trkpt lat="43.56958" lon="3.31796">
        <ele>320</ele>
        <time>2017-11-01T14:20:49Z</time>
      </trkpt>
      <trkpt lat="43.56956" lon="3.31806">
        <ele>319.1</ele>
        <time>2017-11-01T14:20:52Z</time>
      </trkpt>
      <trkpt lat="43.56951" lon="3.31818">
        <ele>317.9</ele>
        <time>2017-11-01T14:20:56Z</time>
      </trkpt>
      <trkpt lat="43.56947" lon="3.31827">
        <ele>317.4</ele>
        <time>2017-11-01T14:20:58Z</time>
      </trkpt>
      <trkpt lat="43.56942" lon="3.31838">
        <ele>312.5</ele>
        <time>2017-11-01T14:21:00Z</time>
      </trkpt>
      <trkpt lat="43.56935" lon="3.31852">
        <ele>312.1</ele>
        <time>2017-11-01T14:21:02Z</time>
      </trkpt>
      <trkpt lat="43.56932" lon="3.31866">
        <ele>310.5</ele>
        <time>2017-11-01T14:21:05Z</time>
      </trkpt>
      <trkpt lat="43.56928" lon="3.31877">
        <ele>309.3</ele>
        <time>2017-11-01T14:21:06Z</time>
      </trkpt>
      <trkpt lat="43.56924" lon="3.31885">
        <ele>308.3</ele>
        <time>2017-11-01T14:21:07Z</time>
      </trkpt>
      <trkpt lat="43.56918" lon="3.31894">
        <ele>307</ele>
        <time>2017-11-01T14:21:08Z</time>
      </trkpt>
      <trkpt lat="43.56912" lon="3.31901">
        <ele>305.3</ele>
        <time>2017-11-01T14:21:09Z</time>
      </trkpt>
      <trkpt lat="43.56906" lon="3.31909">
        <ele>303.7</ele>
        <time>2017-11-01T14:21:10Z</time>
      </trkpt>
      <trkpt lat="43.569" lon="3.31918">
        <ele>302.1</ele>
        <time>2017-11-01T14:21:11Z</time>
      </trkpt>
      <trkpt lat="43.56894" lon="3.31926">
        <ele>300.4</ele>
        <time>2017-11-01T14:21:12Z</time>
      </trkpt>
      <trkpt lat="43.56885" lon="3.31936">
        <ele>299</ele>
        <time>2017-11-01T14:21:13Z</time>
      </trkpt>
      <trkpt lat="43.56878" lon="3.31946">
        <ele>297.8</ele>
        <time>2017-11-01T14:21:14Z</time>
      </trkpt>
      <trkpt lat="43.56872" lon="3.31953">
        <ele>296.2</ele>
        <time>2017-11-01T14:21:15Z</time>
      </trkpt>
      <trkpt lat="43.56866" lon="3.3196">
        <ele>296</ele>
        <time>2017-11-01T14:21:16Z</time>
      </trkpt>
      <trkpt lat="43.56862" lon="3.31971">
        <ele>294</ele>
        <time>2017-11-01T14:21:18Z</time>
      </trkpt>
      <trkpt lat="43.56853" lon="3.31977">
        <ele>291.9</ele>
        <time>2017-11-01T14:21:20Z</time>
      </trkpt>
      <trkpt lat="43.56841" lon="3.31989">
        <ele>288.4</ele>
        <time>2017-11-01T14:21:22Z</time>
      </trkpt>
      <trkpt lat="43.56835" lon="3.31997">
        <ele>287.4</ele>
        <time>2017-11-01T14:21:23Z</time>
      </trkpt>
      <trkpt lat="43.56828" lon="3.32004">
        <ele>286.3</ele>
        <time>2017-11-01T14:21:24Z</time>
      </trkpt>
      <trkpt lat="43.56817" lon="3.32013">
        <ele>283.4</ele>
        <time>2017-11-01T14:21:26Z</time>
      </trkpt>
      <trkpt lat="43.56811" lon="3.32019">
        <ele>282.1</ele>
        <time>2017-11-01T14:21:27Z</time>
      </trkpt>
      <trkpt lat="43.56803" lon="3.32024">
        <ele>281.1</ele>
        <time>2017-11-01T14:21:28Z</time>
      </trkpt>
      <trkpt lat="43.56793" lon="3.32032">
        <ele>280.2</ele>
        <time>2017-11-01T14:21:30Z</time>
      </trkpt>
      <trkpt lat="43.56789" lon="3.32041">
        <ele>279.9</ele>
        <time>2017-11-01T14:21:31Z</time>
      </trkpt>
      <trkpt lat="43.56783" lon="3.32051">
        <ele>279.4</ele>
        <time>2017-11-01T14:21:32Z</time>
      </trkpt>
      <trkpt lat="43.56776" lon="3.32059">
        <ele>278.9</ele>
        <time>2017-11-01T14:21:33Z</time>
      </trkpt>
      <trkpt lat="43.56766" lon="3.3207">
        <ele>278</ele>
        <time>2017-11-01T14:21:35Z</time>
      </trkpt>
      <trkpt lat="43.56758" lon="3.32081">
        <ele>277.5</ele>
        <time>2017-11-01T14:21:37Z</time>
      </trkpt>
      <trkpt lat="43.56747" lon="3.32088">
        <ele>276.9</ele>
        <time>2017-11-01T14:21:39Z</time>
      </trkpt>
      <trkpt lat="43.56735" lon="3.32095">
        <ele>275.8</ele>
        <time>2017-11-01T14:21:41Z</time>
      </trkpt>
      <trkpt lat="43.56729" lon="3.32102">
        <ele>274.9</ele>
        <time>2017-11-01T14:21:42Z</time>
      </trkpt>
      <trkpt lat="43.5672" lon="3.32108">
        <ele>273.8</ele>
        <time>2017-11-01T14:21:43Z</time>
      </trkpt>
      <trkpt lat="43.56712" lon="3.32112">
        <ele>273</ele>
        <time>2017-11-01T14:21:44Z</time>
      </trkpt>
      <trkpt lat="43.56704" lon="3.32114">
        <ele>272.9</ele>
        <time>2017-11-01T14:21:45Z</time>
      </trkpt>
      <trkpt lat="43.56698" lon="3.3212">
        <ele>272.8</ele>
        <time>2017-11-01T14:21:47Z</time>
      </trkpt>
      <trkpt lat="43.56694" lon="3.32139">
        <ele>270.5</ele>
        <time>2017-11-01T14:21:50Z</time>
      </trkpt>
      <trkpt lat="43.56692" lon="3.3215">
        <ele>269.8</ele>
        <time>2017-11-01T14:21:51Z</time>
      </trkpt>
      <trkpt lat="43.56689" lon="3.32161">
        <ele>269.1</ele>
        <time>2017-11-01T14:21:52Z</time>
      </trkpt>
      <trkpt lat="43.56683" lon="3.32176">
        <ele>267.3</ele>
        <time>2017-11-01T14:21:54Z</time>
      </trkpt>
      <trkpt lat="43.56678" lon="3.32185">
        <ele>266.2</ele>
        <time>2017-11-01T14:21:55Z</time>
      </trkpt>
      <trkpt lat="43.56671" lon="3.322">
        <ele>264.8</ele>
        <time>2017-11-01T14:21:57Z</time>
      </trkpt>
      <trkpt lat="43.56667" lon="3.3221">
        <ele>264.2</ele>
        <time>2017-11-01T14:21:58Z</time>
      </trkpt>
      <trkpt lat="43.56662" lon="3.32218">
        <ele>263.4</ele>
        <time>2017-11-01T14:21:59Z</time>
      </trkpt>
      <trkpt lat="43.56657" lon="3.32225">
        <ele>262.5</ele>
        <time>2017-11-01T14:22:00Z</time>
      </trkpt>
      <trkpt lat="43.5665" lon="3.3223">
        <ele>261.6</ele>
        <time>2017-11-01T14:22:01Z</time>
      </trkpt>
      <trkpt lat="43.5664" lon="3.32241">
        <ele>261.1</ele>
        <time>2017-11-01T14:22:03Z</time>
      </trkpt>
      <trkpt lat="43.56635" lon="3.32251">
        <ele>261</ele>
        <time>2017-11-01T14:22:05Z</time>
      </trkpt>
      <trkpt lat="43.56627" lon="3.32264">
        <ele>261.3</ele>
        <time>2017-11-01T14:22:07Z</time>
      </trkpt>
      <trkpt lat="43.56619" lon="3.32276">
        <ele>261.9</ele>
        <time>2017-11-01T14:22:09Z</time>
      </trkpt>
      <trkpt lat="43.56609" lon="3.32287">
        <ele>262.7</ele>
        <time>2017-11-01T14:22:11Z</time>
      </trkpt>
      <trkpt lat="43.56598" lon="3.32298">
        <ele>263.2</ele>
        <time>2017-11-01T14:22:13Z</time>
      </trkpt>
      <trkpt lat="43.56592" lon="3.32305">
        <ele>263.2</ele>
        <time>2017-11-01T14:22:14Z</time>
      </trkpt>
      <trkpt lat="43.56582" lon="3.32313">
        <ele>262.7</ele>
        <time>2017-11-01T14:22:16Z</time>
      </trkpt>
      <trkpt lat="43.56568" lon="3.32318">
        <ele>261</ele>
        <time>2017-11-01T14:22:18Z</time>
      </trkpt>
      <trkpt lat="43.56558" lon="3.3232">
        <ele>259.9</ele>
        <time>2017-11-01T14:22:20Z</time>
      </trkpt>
      <trkpt lat="43.56546" lon="3.32326">
        <ele>257.6</ele>
        <time>2017-11-01T14:22:22Z</time>
      </trkpt>
      <trkpt lat="43.56535" lon="3.32332">
        <ele>254.8</ele>
        <time>2017-11-01T14:22:24Z</time>
      </trkpt>
      <trkpt lat="43.56522" lon="3.32335">
        <ele>252.2</ele>
        <time>2017-11-01T14:22:26Z</time>
      </trkpt>
      <trkpt lat="43.56514" lon="3.32334">
        <ele>250.9</ele>
        <time>2017-11-01T14:22:27Z</time>
      </trkpt>
      <trkpt lat="43.565" lon="3.32332">
        <ele>248.7</ele>
        <time>2017-11-01T14:22:29Z</time>
      </trkpt>
      <trkpt lat="43.56488" lon="3.32332">
        <ele>246.8</ele>
        <time>2017-11-01T14:22:31Z</time>
      </trkpt>
      <trkpt lat="43.56474" lon="3.3233">
        <ele>244.6</ele>
        <time>2017-11-01T14:22:33Z</time>
      </trkpt>
      <trkpt lat="43.56461" lon="3.32332">
        <ele>243.3</ele>
        <time>2017-11-01T14:22:35Z</time>
      </trkpt>
      <trkpt lat="43.56449" lon="3.32336">
        <ele>242.7</ele>
        <time>2017-11-01T14:22:37Z</time>
      </trkpt>
      <trkpt lat="43.56438" lon="3.32337">
        <ele>242.1</ele>
        <time>2017-11-01T14:22:39Z</time>
      </trkpt>
      <trkpt lat="43.56427" lon="3.32337">
        <ele>241.8</ele>
        <time>2017-11-01T14:22:41Z</time>
      </trkpt>
      <trkpt lat="43.56417" lon="3.32336">
        <ele>241.3</ele>
        <time>2017-11-01T14:22:43Z</time>
      </trkpt>
      <trkpt lat="43.56405" lon="3.32333">
        <ele>240.9</ele>
        <time>2017-11-01T14:22:45Z</time>
      </trkpt>
      <trkpt lat="43.56395" lon="3.3233">
        <ele>240.3</ele>
        <time>2017-11-01T14:22:47Z</time>
      </trkpt>
      <trkpt lat="43.56386" lon="3.32322">
        <ele>239.8</ele>
        <time>2017-11-01T14:22:49Z</time>
      </trkpt>
      <trkpt lat="43.56374" lon="3.3231">
        <ele>238.5</ele>
        <time>2017-11-01T14:22:51Z</time>
      </trkpt>
      <trkpt lat="43.56368" lon="3.32302">
        <ele>237.6</ele>
        <time>2017-11-01T14:22:52Z</time>
      </trkpt>
      <trkpt lat="43.56363" lon="3.32294">
        <ele>236.7</ele>
        <time>2017-11-01T14:22:53Z</time>
      </trkpt>
      <trkpt lat="43.56358" lon="3.32286">
        <ele>235.7</ele>
        <time>2017-11-01T14:22:54Z</time>
      </trkpt>
      <trkpt lat="43.56354" lon="3.32278">
        <ele>234.9</ele>
        <time>2017-11-01T14:22:55Z</time>
      </trkpt>
      <trkpt lat="43.56354" lon="3.32267">
        <ele>234.1</ele>
        <time>2017-11-01T14:22:56Z</time>
      </trkpt>
      <trkpt lat="43.56351" lon="3.32257">
        <ele>233.2</ele>
        <time>2017-11-01T14:22:57Z</time>
      </trkpt>
      <trkpt lat="43.56347" lon="3.32249">
        <ele>232.6</ele>
        <time>2017-11-01T14:22:58Z</time>
      </trkpt>
      <trkpt lat="43.56341" lon="3.3224">
        <ele>232</ele>
        <time>2017-11-01T14:22:59Z</time>
      </trkpt>
      <trkpt lat="43.56333" lon="3.32227">
        <ele>231.4</ele>
        <time>2017-11-01T14:23:01Z</time>
      </trkpt>
      <trkpt lat="43.56325" lon="3.32228">
        <ele>231.2</ele>
        <time>2017-11-01T14:23:04Z</time>
      </trkpt>
      <trkpt lat="43.56321" lon="3.32238">
        <ele>231.1</ele>
        <time>2017-11-01T14:23:07Z</time>
      </trkpt>
      <trkpt lat="43.56318" lon="3.3225">
        <ele>230.9</ele>
        <time>2017-11-01T14:23:10Z</time>
      </trkpt>
      <trkpt lat="43.56315" lon="3.32262">
        <ele>230.8</ele>
        <time>2017-11-01T14:23:13Z</time>
      </trkpt>
      <trkpt lat="43.56311" lon="3.32273">
        <ele>230.7</ele>
        <time>2017-11-01T14:23:17Z</time>
      </trkpt>
      <trkpt lat="43.56306" lon="3.32283">
        <ele>230.8</ele>
        <time>2017-11-01T14:23:22Z</time>
      </trkpt>
      <trkpt lat="43.56304" lon="3.32294">
        <ele>231.6</ele>
        <time>2017-11-01T14:25:59Z</time>
      </trkpt>
      <trkpt lat="43.56302" lon="3.32304">
        <ele>231.8</ele>
        <time>2017-11-01T14:26:02Z</time>
      </trkpt>
      <trkpt lat="43.56297" lon="3.32314">
        <ele>232.1</ele>
        <time>2017-11-01T14:26:06Z</time>
      </trkpt>
      <trkpt lat="43.56292" lon="3.32322">
        <ele>232.3</ele>
        <time>2017-11-01T14:26:09Z</time>
      </trkpt>
      <trkpt lat="43.56287" lon="3.32334">
        <ele>232.9</ele>
        <time>2017-11-01T14:26:14Z</time>
      </trkpt>
      <trkpt lat="43.56284" lon="3.32343">
        <ele>233.4</ele>
        <time>2017-11-01T14:26:17Z</time>
      </trkpt>
      <trkpt lat="43.56282" lon="3.32355">
        <ele>233.9</ele>
        <time>2017-11-01T14:26:20Z</time>
      </trkpt>
      <trkpt lat="43.5628" lon="3.32368">
        <ele>235.1</ele>
        <time>2017-11-01T14:26:23Z</time>
      </trkpt>
      <trkpt lat="43.56279" lon="3.32381">
        <ele>236.2</ele>
        <time>2017-11-01T14:26:25Z</time>
      </trkpt>
      <trkpt lat="43.56277" lon="3.32397">
        <ele>236.2</ele>
        <time>2017-11-01T14:26:27Z</time>
      </trkpt>
      <trkpt lat="43.56274" lon="3.32411">
        <ele>235.7</ele>
        <time>2017-11-01T14:26:29Z</time>
      </trkpt>
      <trkpt lat="43.56271" lon="3.32425">
        <ele>235</ele>
        <time>2017-11-01T14:26:31Z</time>
      </trkpt>
      <trkpt lat="43.56268" lon="3.32439">
        <ele>234.1</ele>
        <time>2017-11-01T14:26:33Z</time>
      </trkpt>
      <trkpt lat="43.56268" lon="3.32453">
        <ele>233.3</ele>
        <time>2017-11-01T14:26:35Z</time>
      </trkpt>
      <trkpt lat="43.56267" lon="3.32467">
        <ele>232.5</ele>
        <time>2017-11-01T14:26:37Z</time>
      </trkpt>
      <trkpt lat="43.56267" lon="3.32481">
        <ele>231.6</ele>
        <time>2017-11-01T14:26:39Z</time>
      </trkpt>
      <trkpt lat="43.56266" lon="3.32496">
        <ele>230.5</ele>
        <time>2017-11-01T14:26:41Z</time>
      </trkpt>
      <trkpt lat="43.56265" lon="3.32511">
        <ele>229.4</ele>
        <time>2017-11-01T14:26:43Z</time>
      </trkpt>
      <trkpt lat="43.56264" lon="3.32528">
        <ele>228.3</ele>
        <time>2017-11-01T14:26:45Z</time>
      </trkpt>
      <trkpt lat="43.56263" lon="3.32546">
        <ele>227.3</ele>
        <time>2017-11-01T14:26:47Z</time>
      </trkpt>
      <trkpt lat="43.56264" lon="3.32561">
        <ele>226.6</ele>
        <time>2017-11-01T14:26:49Z</time>
      </trkpt>
      <trkpt lat="43.56266" lon="3.32576">
        <ele>226.1</ele>
        <time>2017-11-01T14:26:51Z</time>
      </trkpt>
      <trkpt lat="43.56268" lon="3.32593">
        <ele>225.3</ele>
        <time>2017-11-01T14:26:53Z</time>
      </trkpt>
      <trkpt lat="43.5627" lon="3.3261">
        <ele>224.6</ele>
        <time>2017-11-01T14:26:55Z</time>
      </trkpt>
      <trkpt lat="43.56271" lon="3.3263">
        <ele>223.6</ele>
        <time>2017-11-01T14:26:57Z</time>
      </trkpt>
      <trkpt lat="43.56272" lon="3.32648">
        <ele>222.7</ele>
        <time>2017-11-01T14:26:59Z</time>
      </trkpt>
      <trkpt lat="43.56271" lon="3.32666">
        <ele>222.2</ele>
        <time>2017-11-01T14:27:01Z</time>
      </trkpt>
      <trkpt lat="43.56272" lon="3.32685">
        <ele>221.9</ele>
        <time>2017-11-01T14:27:03Z</time>
      </trkpt>
      <trkpt lat="43.56273" lon="3.32703">
        <ele>221.5</ele>
        <time>2017-11-01T14:27:05Z</time>
      </trkpt>
      <trkpt lat="43.56275" lon="3.32722">
        <ele>221.2</ele>
        <time>2017-11-01T14:27:07Z</time>
      </trkpt>
      <trkpt lat="43.56275" lon="3.32732">
        <ele>221</ele>
        <time>2017-11-01T14:27:08Z</time>
      </trkpt>
      <trkpt lat="43.56275" lon="3.32743">
        <ele>220.7</ele>
        <time>2017-11-01T14:27:09Z</time>
      </trkpt>
      <trkpt lat="43.56275" lon="3.32753">
        <ele>220.4</ele>
        <time>2017-11-01T14:27:10Z</time>
      </trkpt>
      <trkpt lat="43.56275" lon="3.32762">
        <ele>220</ele>
        <time>2017-11-01T14:27:11Z</time>
      </trkpt>
      <trkpt lat="43.56273" lon="3.32781">
        <ele>219.2</ele>
        <time>2017-11-01T14:27:13Z</time>
      </trkpt>
      <trkpt lat="43.56263" lon="3.32794">
        <ele>218.6</ele>
        <time>2017-11-01T14:27:15Z</time>
      </trkpt>
      <trkpt lat="43.5626" lon="3.32811">
        <ele>218.2</ele>
        <time>2017-11-01T14:27:17Z</time>
      </trkpt>
      <trkpt lat="43.5626" lon="3.32827">
        <ele>218</ele>
        <time>2017-11-01T14:27:19Z</time>
      </trkpt>
      <trkpt lat="43.5626" lon="3.32845">
        <ele>218</ele>
        <time>2017-11-01T14:27:21Z</time>
      </trkpt>
      <trkpt lat="43.5626" lon="3.32863">
        <ele>218.1</ele>
        <time>2017-11-01T14:27:23Z</time>
      </trkpt>
      <trkpt lat="43.56261" lon="3.32881">
        <ele>217.9</ele>
        <time>2017-11-01T14:27:25Z</time>
      </trkpt>
      <trkpt lat="43.56263" lon="3.329">
        <ele>217.6</ele>
        <time>2017-11-01T14:27:27Z</time>
      </trkpt>
      <trkpt lat="43.56264" lon="3.32919">
        <ele>217</ele>
        <time>2017-11-01T14:27:29Z</time>
      </trkpt>
      <trkpt lat="43.56264" lon="3.32937">
        <ele>216.4</ele>
        <time>2017-11-01T14:27:31Z</time>
      </trkpt>
      <trkpt lat="43.56262" lon="3.32953">
        <ele>215.5</ele>
        <time>2017-11-01T14:27:33Z</time>
      </trkpt>
      <trkpt lat="43.56262" lon="3.32967">
        <ele>215.1</ele>
        <time>2017-11-01T14:27:35Z</time>
      </trkpt>
      <trkpt lat="43.5627" lon="3.32971">
        <ele>214.7</ele>
        <time>2017-11-01T14:27:37Z</time>
      </trkpt>
      <trkpt lat="43.56283" lon="3.32975">
        <ele>214.8</ele>
        <time>2017-11-01T14:27:39Z</time>
      </trkpt>
      <trkpt lat="43.56291" lon="3.32984">
        <ele>215</ele>
        <time>2017-11-01T14:27:41Z</time>
      </trkpt>
      <trkpt lat="43.56298" lon="3.32993">
        <ele>215.2</ele>
        <time>2017-11-01T14:27:43Z</time>
      </trkpt>
      <trkpt lat="43.56302" lon="3.33002">
        <ele>215.4</ele>
        <time>2017-11-01T14:27:45Z</time>
      </trkpt>
      <trkpt lat="43.56303" lon="3.33016">
        <ele>215.5</ele>
        <time>2017-11-01T14:27:48Z</time>
      </trkpt>
      <trkpt lat="43.56302" lon="3.33027">
        <ele>215.3</ele>
        <time>2017-11-01T14:27:50Z</time>
      </trkpt>
      <trkpt lat="43.56301" lon="3.33038">
        <ele>215.2</ele>
        <time>2017-11-01T14:27:52Z</time>
      </trkpt>
      <trkpt lat="43.563" lon="3.33048">
        <ele>214.8</ele>
        <time>2017-11-01T14:27:54Z</time>
      </trkpt>
      <trkpt lat="43.56298" lon="3.33059">
        <ele>214.1</ele>
        <time>2017-11-01T14:27:56Z</time>
      </trkpt>
      <trkpt lat="43.56298" lon="3.33072">
        <ele>213.1</ele>
        <time>2017-11-01T14:27:58Z</time>
      </trkpt>
      <trkpt lat="43.56298" lon="3.33085">
        <ele>212.3</ele>
        <time>2017-11-01T14:28:00Z</time>
      </trkpt>
      <trkpt lat="43.56298" lon="3.33097">
        <ele>211.7</ele>
        <time>2017-11-01T14:28:02Z</time>
      </trkpt>
      <trkpt lat="43.56301" lon="3.33111">
        <ele>211.1</ele>
        <time>2017-11-01T14:28:04Z</time>
      </trkpt>
      <trkpt lat="43.56303" lon="3.33124">
        <ele>210.5</ele>
        <time>2017-11-01T14:28:06Z</time>
      </trkpt>
      <trkpt lat="43.56305" lon="3.33135">
        <ele>210</ele>
        <time>2017-11-01T14:28:08Z</time>
      </trkpt>
      <trkpt lat="43.56306" lon="3.33148">
        <ele>209.8</ele>
        <time>2017-11-01T14:28:10Z</time>
      </trkpt>
      <trkpt lat="43.5631" lon="3.33162">
        <ele>209.5</ele>
        <time>2017-11-01T14:28:12Z</time>
      </trkpt>
      <trkpt lat="43.56313" lon="3.33177">
        <ele>209.1</ele>
        <time>2017-11-01T14:28:14Z</time>
      </trkpt>
      <trkpt lat="43.56316" lon="3.33192">
        <ele>208.8</ele>
        <time>2017-11-01T14:28:16Z</time>
      </trkpt>
      <trkpt lat="43.56319" lon="3.33206">
        <ele>208.6</ele>
        <time>2017-11-01T14:28:18Z</time>
      </trkpt>
      <trkpt lat="43.56322" lon="3.3322">
        <ele>208.4</ele>
        <time>2017-11-01T14:28:20Z</time>
      </trkpt>
      <trkpt lat="43.56325" lon="3.33232">
        <ele>208.3</ele>
        <time>2017-11-01T14:28:22Z</time>
      </trkpt>
      <trkpt lat="43.56328" lon="3.33246">
        <ele>208.4</ele>
        <time>2017-11-01T14:28:24Z</time>
      </trkpt>
      <trkpt lat="43.56331" lon="3.33258">
        <ele>208.5</ele>
        <time>2017-11-01T14:28:26Z</time>
      </trkpt>
      <trkpt lat="43.56336" lon="3.33272">
        <ele>208.5</ele>
        <time>2017-11-01T14:28:28Z</time>
      </trkpt>
      <trkpt lat="43.56341" lon="3.33285">
        <ele>208.4</ele>
        <time>2017-11-01T14:28:31Z</time>
      </trkpt>
      <trkpt lat="43.56347" lon="3.33297">
        <ele>208</ele>
        <time>2017-11-01T14:28:32Z</time>
      </trkpt>
      <trkpt lat="43.56353" lon="3.3331">
        <ele>207.2</ele>
        <time>2017-11-01T14:28:34Z</time>
      </trkpt>
      <trkpt lat="43.56359" lon="3.33323">
        <ele>206.2</ele>
        <time>2017-11-01T14:28:36Z</time>
      </trkpt>
      <trkpt lat="43.56363" lon="3.33336">
        <ele>205.2</ele>
        <time>2017-11-01T14:28:38Z</time>
      </trkpt>
      <trkpt lat="43.56367" lon="3.33349">
        <ele>204.3</ele>
        <time>2017-11-01T14:28:40Z</time>
      </trkpt>
      <trkpt lat="43.5637" lon="3.33361">
        <ele>203.7</ele>
        <time>2017-11-01T14:28:42Z</time>
      </trkpt>
      <trkpt lat="43.56373" lon="3.33372">
        <ele>203.1</ele>
        <time>2017-11-01T14:28:44Z</time>
      </trkpt>
      <trkpt lat="43.56378" lon="3.33383">
        <ele>202.6</ele>
        <time>2017-11-01T14:28:46Z</time>
      </trkpt>
      <trkpt lat="43.56383" lon="3.33393">
        <ele>202.2</ele>
        <time>2017-11-01T14:28:48Z</time>
      </trkpt>
      <trkpt lat="43.56388" lon="3.33402">
        <ele>201.8</ele>
        <time>2017-11-01T14:28:50Z</time>
      </trkpt>
      <trkpt lat="43.56392" lon="3.33412">
        <ele>201.8</ele>
        <time>2017-11-01T14:28:52Z</time>
      </trkpt>
      <trkpt lat="43.56396" lon="3.3342">
        <ele>201.9</ele>
        <time>2017-11-01T14:28:54Z</time>
      </trkpt>
      <trkpt lat="43.56403" lon="3.3343">
        <ele>202.2</ele>
        <time>2017-11-01T14:28:57Z</time>
      </trkpt>
      <trkpt lat="43.56409" lon="3.33442">
        <ele>202.4</ele>
        <time>2017-11-01T14:29:00Z</time>
      </trkpt>
      <trkpt lat="43.56414" lon="3.33451">
        <ele>202.7</ele>
        <time>2017-11-01T14:29:02Z</time>
      </trkpt>
      <trkpt lat="43.56418" lon="3.33458">
        <ele>202.9</ele>
        <time>2017-11-01T14:29:04Z</time>
      </trkpt>
      <trkpt lat="43.56424" lon="3.33469">
        <ele>203.3</ele>
        <time>2017-11-01T14:29:07Z</time>
      </trkpt>
      <trkpt lat="43.56429" lon="3.33479">
        <ele>203.8</ele>
        <time>2017-11-01T14:29:10Z</time>
      </trkpt>
      <trkpt lat="43.56434" lon="3.33487">
        <ele>204.2</ele>
        <time>2017-11-01T14:29:13Z</time>
      </trkpt>
      <trkpt lat="43.56441" lon="3.33498">
        <ele>204.6</ele>
        <time>2017-11-01T14:29:16Z</time>
      </trkpt>
      <trkpt lat="43.56447" lon="3.33506">
        <ele>207.2</ele>
        <time>2017-11-01T14:29:18Z</time>
      </trkpt>
      <trkpt lat="43.56453" lon="3.33515">
        <ele>208.8</ele>
        <time>2017-11-01T14:29:20Z</time>
      </trkpt>
      <trkpt lat="43.5646" lon="3.33529">
        <ele>209.6</ele>
        <time>2017-11-01T14:29:22Z</time>
      </trkpt>
      <trkpt lat="43.56465" lon="3.33542">
        <ele>210</ele>
        <time>2017-11-01T14:29:24Z</time>
      </trkpt>
      <trkpt lat="43.56471" lon="3.33555">
        <ele>210</ele>
        <time>2017-11-01T14:29:26Z</time>
      </trkpt>
      <trkpt lat="43.56475" lon="3.33569">
        <ele>209.6</ele>
        <time>2017-11-01T14:29:28Z</time>
      </trkpt>
      <trkpt lat="43.56481" lon="3.33583">
        <ele>209.2</ele>
        <time>2017-11-01T14:29:30Z</time>
      </trkpt>
      <trkpt lat="43.56488" lon="3.33595">
        <ele>208.4</ele>
        <time>2017-11-01T14:29:32Z</time>
      </trkpt>
      <trkpt lat="43.56496" lon="3.33608">
        <ele>207.5</ele>
        <time>2017-11-01T14:29:34Z</time>
      </trkpt>
      <trkpt lat="43.56503" lon="3.33623">
        <ele>206.4</ele>
        <time>2017-11-01T14:29:36Z</time>
      </trkpt>
      <trkpt lat="43.5651" lon="3.33635">
        <ele>205.7</ele>
        <time>2017-11-01T14:29:38Z</time>
      </trkpt>
      <trkpt lat="43.56521" lon="3.33644">
        <ele>204.8</ele>
        <time>2017-11-01T14:29:40Z</time>
      </trkpt>
      <trkpt lat="43.56525" lon="3.33661">
        <ele>204</ele>
        <time>2017-11-01T14:29:42Z</time>
      </trkpt>
      <trkpt lat="43.56528" lon="3.3367">
        <ele>203.4</ele>
        <time>2017-11-01T14:29:43Z</time>
      </trkpt>
      <trkpt lat="43.5653" lon="3.3368">
        <ele>202.7</ele>
        <time>2017-11-01T14:29:44Z</time>
      </trkpt>
      <trkpt lat="43.56532" lon="3.3369">
        <ele>201.9</ele>
        <time>2017-11-01T14:29:45Z</time>
      </trkpt>
      <trkpt lat="43.56534" lon="3.33701">
        <ele>201</ele>
        <time>2017-11-01T14:29:46Z</time>
      </trkpt>
      <trkpt lat="43.56537" lon="3.33712">
        <ele>200.3</ele>
        <time>2017-11-01T14:29:47Z</time>
      </trkpt>
      <trkpt lat="43.56539" lon="3.33723">
        <ele>199.6</ele>
        <time>2017-11-01T14:29:48Z</time>
      </trkpt>
      <trkpt lat="43.56543" lon="3.33739">
        <ele>198.6</ele>
        <time>2017-11-01T14:29:50Z</time>
      </trkpt>
      <trkpt lat="43.56548" lon="3.33746">
        <ele>198.6</ele>
        <time>2017-11-01T14:29:52Z</time>
      </trkpt>
      <trkpt lat="43.56556" lon="3.33747">
        <ele>198.5</ele>
        <time>2017-11-01T14:29:54Z</time>
      </trkpt>
      <trkpt lat="43.56564" lon="3.33748">
        <ele>198.5</ele>
        <time>2017-11-01T14:29:56Z</time>
      </trkpt>
      <trkpt lat="43.56571" lon="3.33754">
        <ele>198.6</ele>
        <time>2017-11-01T14:29:59Z</time>
      </trkpt>
      <trkpt lat="43.56576" lon="3.33765">
        <ele>198.7</ele>
        <time>2017-11-01T14:30:03Z</time>
      </trkpt>
      <trkpt lat="43.5658" lon="3.33777">
        <ele>198.9</ele>
        <time>2017-11-01T14:30:07Z</time>
      </trkpt>
      <trkpt lat="43.56584" lon="3.33787">
        <ele>199.1</ele>
        <time>2017-11-01T14:30:11Z</time>
      </trkpt>
      <trkpt lat="43.56586" lon="3.33798">
        <ele>199.4</ele>
        <time>2017-11-01T14:30:15Z</time>
      </trkpt>
      <trkpt lat="43.56586" lon="3.33809">
        <ele>199.7</ele>
        <time>2017-11-01T14:30:19Z</time>
      </trkpt>
      <trkpt lat="43.56588" lon="3.3382">
        <ele>200.1</ele>
        <time>2017-11-01T14:30:24Z</time>
      </trkpt>
      <trkpt lat="43.56589" lon="3.33834">
        <ele>200.6</ele>
        <time>2017-11-01T14:30:29Z</time>
      </trkpt>
      <trkpt lat="43.5659" lon="3.33845">
        <ele>201.1</ele>
        <time>2017-11-01T14:30:33Z</time>
      </trkpt>
      <trkpt lat="43.56591" lon="3.33858">
        <ele>201.6</ele>
        <time>2017-11-01T14:30:37Z</time>
      </trkpt>
      <trkpt lat="43.56592" lon="3.33869">
        <ele>202</ele>
        <time>2017-11-01T14:30:41Z</time>
      </trkpt>
      <trkpt lat="43.56593" lon="3.3388">
        <ele>202.4</ele>
        <time>2017-11-01T14:30:45Z</time>
      </trkpt>
      <trkpt lat="43.56593" lon="3.33892">
        <ele>202.8</ele>
        <time>2017-11-01T14:30:49Z</time>
      </trkpt>
      <trkpt lat="43.56593" lon="3.33904">
        <ele>203.3</ele>
        <time>2017-11-01T14:30:53Z</time>
      </trkpt>
      <trkpt lat="43.56593" lon="3.33915">
        <ele>203.8</ele>
        <time>2017-11-01T14:30:57Z</time>
      </trkpt>
      <trkpt lat="43.56592" lon="3.33926">
        <ele>204.2</ele>
        <time>2017-11-01T14:31:00Z</time>
      </trkpt>
      <trkpt lat="43.56593" lon="3.33939">
        <ele>204.7</ele>
        <time>2017-11-01T14:31:04Z</time>
      </trkpt>
      <trkpt lat="43.56595" lon="3.33951">
        <ele>205.3</ele>
        <time>2017-11-01T14:31:08Z</time>
      </trkpt>
      <trkpt lat="43.56598" lon="3.33963">
        <ele>205.9</ele>
        <time>2017-11-01T14:31:12Z</time>
      </trkpt>
      <trkpt lat="43.56604" lon="3.33973">
        <ele>206.5</ele>
        <time>2017-11-01T14:31:16Z</time>
      </trkpt>
      <trkpt lat="43.56612" lon="3.33976">
        <ele>207.1</ele>
        <time>2017-11-01T14:31:20Z</time>
      </trkpt>
      <trkpt lat="43.56621" lon="3.33975">
        <ele>207.7</ele>
        <time>2017-11-01T14:31:24Z</time>
      </trkpt>
      <trkpt lat="43.5663" lon="3.33973">
        <ele>208.4</ele>
        <time>2017-11-01T14:31:28Z</time>
      </trkpt>
      <trkpt lat="43.56638" lon="3.33973">
        <ele>208.9</ele>
        <time>2017-11-01T14:31:31Z</time>
      </trkpt>
      <trkpt lat="43.56647" lon="3.33974">
        <ele>209.5</ele>
        <time>2017-11-01T14:31:35Z</time>
      </trkpt>
      <trkpt lat="43.56655" lon="3.33978">
        <ele>210.1</ele>
        <time>2017-11-01T14:31:39Z</time>
      </trkpt>
      <trkpt lat="43.56662" lon="3.33984">
        <ele>210.7</ele>
        <time>2017-11-01T14:31:43Z</time>
      </trkpt>
      <trkpt lat="43.56668" lon="3.33992">
        <ele>211.3</ele>
        <time>2017-11-01T14:31:47Z</time>
      </trkpt>
      <trkpt lat="43.56676" lon="3.33999">
        <ele>211.9</ele>
        <time>2017-11-01T14:31:51Z</time>
      </trkpt>
      <trkpt lat="43.56683" lon="3.34004">
        <ele>212.5</ele>
        <time>2017-11-01T14:31:55Z</time>
      </trkpt>
      <trkpt lat="43.56689" lon="3.34009">
        <ele>213.2</ele>
        <time>2017-11-01T14:31:59Z</time>
      </trkpt>
      <trkpt lat="43.56697" lon="3.34014">
        <ele>213.9</ele>
        <time>2017-11-01T14:32:03Z</time>
      </trkpt>
      <trkpt lat="43.56706" lon="3.34017">
        <ele>214.6</ele>
        <time>2017-11-01T14:32:07Z</time>
      </trkpt>
      <trkpt lat="43.56713" lon="3.34024">
        <ele>215.4</ele>
        <time>2017-11-01T14:32:11Z</time>
      </trkpt>
      <trkpt lat="43.5672" lon="3.34029">
        <ele>216.1</ele>
        <time>2017-11-01T14:32:15Z</time>
      </trkpt>
      <trkpt lat="43.56728" lon="3.34035">
        <ele>217.1</ele>
        <time>2017-11-01T14:32:20Z</time>
      </trkpt>
      <trkpt lat="43.56736" lon="3.34039">
        <ele>218.2</ele>
        <time>2017-11-01T14:32:25Z</time>
      </trkpt>
      <trkpt lat="43.56743" lon="3.34042">
        <ele>219.1</ele>
        <time>2017-11-01T14:32:29Z</time>
      </trkpt>
      <trkpt lat="43.5675" lon="3.34049">
        <ele>220</ele>
        <time>2017-11-01T14:32:33Z</time>
      </trkpt>
      <trkpt lat="43.56756" lon="3.34055">
        <ele>220.9</ele>
        <time>2017-11-01T14:32:37Z</time>
      </trkpt>
      <trkpt lat="43.56761" lon="3.34064">
        <ele>221.8</ele>
        <time>2017-11-01T14:32:41Z</time>
      </trkpt>
      <trkpt lat="43.56766" lon="3.34073">
        <ele>222.5</ele>
        <time>2017-11-01T14:32:45Z</time>
      </trkpt>
      <trkpt lat="43.5677" lon="3.34081">
        <ele>223.3</ele>
        <time>2017-11-01T14:32:49Z</time>
      </trkpt>
      <trkpt lat="43.56773" lon="3.34091">
        <ele>224.1</ele>
        <time>2017-11-01T14:32:53Z</time>
      </trkpt>
      <trkpt lat="43.56775" lon="3.34102">
        <ele>225</ele>
        <time>2017-11-01T14:32:57Z</time>
      </trkpt>
      <trkpt lat="43.56778" lon="3.34113">
        <ele>225.8</ele>
        <time>2017-11-01T14:33:01Z</time>
      </trkpt>
      <trkpt lat="43.56781" lon="3.34123">
        <ele>226.6</ele>
        <time>2017-11-01T14:33:05Z</time>
      </trkpt>
      <trkpt lat="43.56783" lon="3.34133">
        <ele>227.4</ele>
        <time>2017-11-01T14:33:09Z</time>
      </trkpt>
      <trkpt lat="43.56787" lon="3.34143">
        <ele>228.1</ele>
        <time>2017-11-01T14:33:13Z</time>
      </trkpt>
      <trkpt lat="43.56788" lon="3.34155">
        <ele>228.9</ele>
        <time>2017-11-01T14:33:17Z</time>
      </trkpt>
      <trkpt lat="43.56789" lon="3.34164">
        <ele>229.6</ele>
        <time>2017-11-01T14:33:21Z</time>
      </trkpt>
      <trkpt lat="43.56789" lon="3.34176">
        <ele>230.5</ele>
        <time>2017-11-01T14:33:26Z</time>
      </trkpt>
      <trkpt lat="43.5679" lon="3.34185">
        <ele>231.7</ele>
        <time>2017-11-01T14:33:33Z</time>
      </trkpt>
      <trkpt lat="43.56796" lon="3.34201">
        <ele>236.7</ele>
        <time>2017-11-01T14:41:25Z</time>
      </trkpt>
      <trkpt lat="43.56799" lon="3.34212">
        <ele>236.9</ele>
        <time>2017-11-01T14:41:30Z</time>
      </trkpt>
      <trkpt lat="43.56802" lon="3.34223">
        <ele>237.1</ele>
        <time>2017-11-01T14:41:35Z</time>
      </trkpt>
      <trkpt lat="43.56803" lon="3.34235">
        <ele>237.6</ele>
        <time>2017-11-01T14:41:41Z</time>
      </trkpt>
      <trkpt lat="43.56802" lon="3.34245">
        <ele>237.9</ele>
        <time>2017-11-01T14:41:45Z</time>
      </trkpt>
      <trkpt lat="43.56802" lon="3.34255">
        <ele>238.4</ele>
        <time>2017-11-01T14:41:50Z</time>
      </trkpt>
      <trkpt lat="43.56801" lon="3.34267">
        <ele>239</ele>
        <time>2017-11-01T14:41:55Z</time>
      </trkpt>
      <trkpt lat="43.56802" lon="3.34279">
        <ele>239.6</ele>
        <time>2017-11-01T14:41:59Z</time>
      </trkpt>
      <trkpt lat="43.56806" lon="3.34292">
        <ele>240</ele>
        <time>2017-11-01T14:42:03Z</time>
      </trkpt>
      <trkpt lat="43.56811" lon="3.34303">
        <ele>240.4</ele>
        <time>2017-11-01T14:42:06Z</time>
      </trkpt>
      <trkpt lat="43.56818" lon="3.34314">
        <ele>240.7</ele>
        <time>2017-11-01T14:42:09Z</time>
      </trkpt>
      <trkpt lat="43.56825" lon="3.34322">
        <ele>241</ele>
        <time>2017-11-01T14:42:12Z</time>
      </trkpt>
      <trkpt lat="43.56833" lon="3.34328">
        <ele>241.3</ele>
        <time>2017-11-01T14:42:15Z</time>
      </trkpt>
      <trkpt lat="43.56841" lon="3.34331">
        <ele>241.6</ele>
        <time>2017-11-01T14:42:19Z</time>
      </trkpt>
      <trkpt lat="43.56849" lon="3.34332">
        <ele>241.9</ele>
        <time>2017-11-01T14:42:22Z</time>
      </trkpt>
      <trkpt lat="43.56855" lon="3.3434">
        <ele>242.1</ele>
        <time>2017-11-01T14:42:26Z</time>
      </trkpt>
      <trkpt lat="43.56859" lon="3.34351">
        <ele>242.3</ele>
        <time>2017-11-01T14:42:30Z</time>
      </trkpt>
      <trkpt lat="43.56865" lon="3.34356">
        <ele>242.5</ele>
        <time>2017-11-01T14:42:33Z</time>
      </trkpt>
      <trkpt lat="43.56872" lon="3.34358">
        <ele>242.7</ele>
        <time>2017-11-01T14:42:36Z</time>
      </trkpt>
      <trkpt lat="43.5688" lon="3.34355">
        <ele>243</ele>
        <time>2017-11-01T14:42:40Z</time>
      </trkpt>
      <trkpt lat="43.56888" lon="3.34352">
        <ele>243.5</ele>
        <time>2017-11-01T14:42:45Z</time>
      </trkpt>
      <trkpt lat="43.56896" lon="3.34349">
        <ele>244</ele>
        <time>2017-11-01T14:42:49Z</time>
      </trkpt>
      <trkpt lat="43.56903" lon="3.34346">
        <ele>244.5</ele>
        <time>2017-11-01T14:42:53Z</time>
      </trkpt>
      <trkpt lat="43.5691" lon="3.34347">
        <ele>245.4</ele>
        <time>2017-11-01T14:42:58Z</time>
      </trkpt>
      <trkpt lat="43.56918" lon="3.34349">
        <ele>246</ele>
        <time>2017-11-01T14:43:02Z</time>
      </trkpt>
      <trkpt lat="43.56926" lon="3.34352">
        <ele>246.7</ele>
        <time>2017-11-01T14:43:06Z</time>
      </trkpt>
      <trkpt lat="43.56933" lon="3.34357">
        <ele>247.2</ele>
        <time>2017-11-01T14:43:10Z</time>
      </trkpt>
      <trkpt lat="43.5694" lon="3.34359">
        <ele>247.8</ele>
        <time>2017-11-01T14:43:14Z</time>
      </trkpt>
      <trkpt lat="43.56948" lon="3.34366">
        <ele>248.6</ele>
        <time>2017-11-01T14:43:19Z</time>
      </trkpt>
      <trkpt lat="43.56955" lon="3.34371">
        <ele>249.5</ele>
        <time>2017-11-01T14:43:24Z</time>
      </trkpt>
      <trkpt lat="43.56963" lon="3.34373">
        <ele>250.2</ele>
        <time>2017-11-01T14:43:28Z</time>
      </trkpt>
      <trkpt lat="43.5697" lon="3.3437">
        <ele>250.7</ele>
        <time>2017-11-01T14:43:31Z</time>
      </trkpt>
      <trkpt lat="43.56977" lon="3.34366">
        <ele>251.2</ele>
        <time>2017-11-01T14:43:34Z</time>
      </trkpt>
      <trkpt lat="43.5698" lon="3.34355">
        <ele>251.8</ele>
        <time>2017-11-01T14:43:38Z</time>
      </trkpt>
      <trkpt lat="43.5698" lon="3.34343">
        <ele>252.4</ele>
        <time>2017-11-01T14:43:42Z</time>
      </trkpt>
      <trkpt lat="43.56976" lon="3.34333">
        <ele>253</ele>
        <time>2017-11-01T14:43:46Z</time>
      </trkpt>
      <trkpt lat="43.56982" lon="3.34331">
        <ele>253.9</ele>
        <time>2017-11-01T14:43:53Z</time>
      </trkpt>
      <trkpt lat="43.56987" lon="3.34339">
        <ele>254.4</ele>
        <time>2017-11-01T14:43:56Z</time>
      </trkpt>
      <trkpt lat="43.56992" lon="3.34349">
        <ele>255</ele>
        <time>2017-11-01T14:44:00Z</time>
      </trkpt>
      <trkpt lat="43.56993" lon="3.34359">
        <ele>255.5</ele>
        <time>2017-11-01T14:44:03Z</time>
      </trkpt>
      <trkpt lat="43.56992" lon="3.34369">
        <ele>256</ele>
        <time>2017-11-01T14:44:07Z</time>
      </trkpt>
      <trkpt lat="43.56992" lon="3.34381">
        <ele>256.6</ele>
        <time>2017-11-01T14:44:11Z</time>
      </trkpt>
      <trkpt lat="43.5699" lon="3.34391">
        <ele>256.9</ele>
        <time>2017-11-01T14:44:14Z</time>
      </trkpt>
      <trkpt lat="43.56987" lon="3.34403">
        <ele>257.5</ele>
        <time>2017-11-01T14:44:19Z</time>
      </trkpt>
      <trkpt lat="43.56984" lon="3.34413">
        <ele>258.7</ele>
        <time>2017-11-01T14:44:25Z</time>
      </trkpt>
      <trkpt lat="43.56979" lon="3.3442">
        <ele>259.7</ele>
        <time>2017-11-01T14:44:29Z</time>
      </trkpt>
      <trkpt lat="43.56971" lon="3.34424">
        <ele>260.8</ele>
        <time>2017-11-01T14:44:33Z</time>
      </trkpt>
      <trkpt lat="43.56964" lon="3.34426">
        <ele>261.7</ele>
        <time>2017-11-01T14:44:37Z</time>
      </trkpt>
      <trkpt lat="43.56956" lon="3.34426">
        <ele>262.4</ele>
        <time>2017-11-01T14:44:40Z</time>
      </trkpt>
      <trkpt lat="43.56948" lon="3.3443">
        <ele>263.4</ele>
        <time>2017-11-01T14:44:44Z</time>
      </trkpt>
      <trkpt lat="43.56942" lon="3.34438">
        <ele>264.4</ele>
        <time>2017-11-01T14:44:48Z</time>
      </trkpt>
      <trkpt lat="43.5694" lon="3.34448">
        <ele>265.7</ele>
        <time>2017-11-01T14:44:53Z</time>
      </trkpt>
      <trkpt lat="43.5694" lon="3.34457">
        <ele>266.5</ele>
        <time>2017-11-01T14:44:57Z</time>
      </trkpt>
      <trkpt lat="43.5694" lon="3.3447">
        <ele>267.3</ele>
        <time>2017-11-01T14:45:01Z</time>
      </trkpt>
      <trkpt lat="43.56937" lon="3.34481">
        <ele>267.8</ele>
        <time>2017-11-01T14:45:04Z</time>
      </trkpt>
      <trkpt lat="43.56932" lon="3.34492">
        <ele>268.6</ele>
        <time>2017-11-01T14:45:08Z</time>
      </trkpt>
      <trkpt lat="43.56927" lon="3.34502">
        <ele>269.3</ele>
        <time>2017-11-01T14:45:12Z</time>
      </trkpt>
      <trkpt lat="43.56926" lon="3.34514">
        <ele>270.2</ele>
        <time>2017-11-01T14:45:17Z</time>
      </trkpt>
      <trkpt lat="43.56925" lon="3.34526">
        <ele>270.9</ele>
        <time>2017-11-01T14:45:21Z</time>
      </trkpt>
      <trkpt lat="43.56924" lon="3.34537">
        <ele>271.5</ele>
        <time>2017-11-01T14:45:25Z</time>
      </trkpt>
      <trkpt lat="43.56923" lon="3.34548">
        <ele>272.2</ele>
        <time>2017-11-01T14:45:29Z</time>
      </trkpt>
      <trkpt lat="43.56922" lon="3.3456">
        <ele>272.9</ele>
        <time>2017-11-01T14:45:33Z</time>
      </trkpt>
      <trkpt lat="43.56917" lon="3.34569">
        <ele>273.6</ele>
        <time>2017-11-01T14:45:37Z</time>
      </trkpt>
      <trkpt lat="43.56912" lon="3.34576">
        <ele>274.4</ele>
        <time>2017-11-01T14:45:42Z</time>
      </trkpt>
      <trkpt lat="43.56913" lon="3.34588">
        <ele>275.1</ele>
        <time>2017-11-01T14:45:46Z</time>
      </trkpt>
      <trkpt lat="43.56917" lon="3.34598">
        <ele>275.7</ele>
        <time>2017-11-01T14:45:50Z</time>
      </trkpt>
      <trkpt lat="43.56918" lon="3.3461">
        <ele>276.3</ele>
        <time>2017-11-01T14:45:54Z</time>
      </trkpt>
      <trkpt lat="43.56915" lon="3.34622">
        <ele>277.1</ele>
        <time>2017-11-01T14:45:59Z</time>
      </trkpt>
      <trkpt lat="43.56915" lon="3.34633">
        <ele>277.8</ele>
        <time>2017-11-01T14:46:04Z</time>
      </trkpt>
      <trkpt lat="43.56917" lon="3.34644">
        <ele>278.3</ele>
        <time>2017-11-01T14:46:09Z</time>
      </trkpt>
      <trkpt lat="43.56918" lon="3.34654">
        <ele>278.8</ele>
        <time>2017-11-01T14:46:14Z</time>
      </trkpt>
      <trkpt lat="43.5692" lon="3.34664">
        <ele>279.3</ele>
        <time>2017-11-01T14:46:18Z</time>
      </trkpt>
      <trkpt lat="43.56925" lon="3.34675">
        <ele>279.9</ele>
        <time>2017-11-01T14:46:23Z</time>
      </trkpt>
      <trkpt lat="43.56927" lon="3.34684">
        <ele>280.6</ele>
        <time>2017-11-01T14:46:29Z</time>
      </trkpt>
      <trkpt lat="43.56929" lon="3.34696">
        <ele>281.5</ele>
        <time>2017-11-01T14:46:35Z</time>
      </trkpt>
      <trkpt lat="43.56931" lon="3.34706">
        <ele>282.8</ele>
        <time>2017-11-01T14:46:41Z</time>
      </trkpt>
      <trkpt lat="43.56935" lon="3.34719">
        <ele>283.9</ele>
        <time>2017-11-01T14:46:45Z</time>
      </trkpt>
      <trkpt lat="43.56935" lon="3.34729">
        <ele>285.3</ele>
        <time>2017-11-01T14:46:50Z</time>
      </trkpt>
      <trkpt lat="43.56932" lon="3.34737">
        <ele>286.5</ele>
        <time>2017-11-01T14:46:57Z</time>
      </trkpt>
      <trkpt lat="43.56931" lon="3.34742">
        <ele>287.5</ele>
        <time>2017-11-01T14:47:04Z</time>
      </trkpt>
      <trkpt lat="43.56932" lon="3.34753">
        <ele>288</ele>
        <time>2017-11-01T14:47:08Z</time>
      </trkpt>
      <trkpt lat="43.5693" lon="3.34767">
        <ele>288.6</ele>
        <time>2017-11-01T14:47:12Z</time>
      </trkpt>
      <trkpt lat="43.56929" lon="3.3478">
        <ele>289</ele>
        <time>2017-11-01T14:47:15Z</time>
      </trkpt>
      <trkpt lat="43.56929" lon="3.34792">
        <ele>289.5</ele>
        <time>2017-11-01T14:47:18Z</time>
      </trkpt>
      <trkpt lat="43.56929" lon="3.34803">
        <ele>291.2</ele>
        <time>2017-11-01T14:47:20Z</time>
      </trkpt>
      <trkpt lat="43.56929" lon="3.34814">
        <ele>292.4</ele>
        <time>2017-11-01T14:47:22Z</time>
      </trkpt>
      <trkpt lat="43.56931" lon="3.3483">
        <ele>292.7</ele>
        <time>2017-11-01T14:47:25Z</time>
      </trkpt>
      <trkpt lat="43.56932" lon="3.34841">
        <ele>293</ele>
        <time>2017-11-01T14:47:28Z</time>
      </trkpt>
      <trkpt lat="43.56934" lon="3.34855">
        <ele>293.3</ele>
        <time>2017-11-01T14:47:31Z</time>
      </trkpt>
      <trkpt lat="43.56935" lon="3.34868">
        <ele>293.5</ele>
        <time>2017-11-01T14:47:33Z</time>
      </trkpt>
      <trkpt lat="43.5694" lon="3.34877">
        <ele>293.6</ele>
        <time>2017-11-01T14:47:35Z</time>
      </trkpt>
      <trkpt lat="43.56948" lon="3.34884">
        <ele>293.5</ele>
        <time>2017-11-01T14:47:37Z</time>
      </trkpt>
      <trkpt lat="43.56955" lon="3.34899">
        <ele>292.8</ele>
        <time>2017-11-01T14:47:39Z</time>
      </trkpt>
      <trkpt lat="43.5696" lon="3.34914">
        <ele>292.1</ele>
        <time>2017-11-01T14:47:41Z</time>
      </trkpt>
      <trkpt lat="43.56961" lon="3.34929">
        <ele>291.1</ele>
        <time>2017-11-01T14:47:43Z</time>
      </trkpt>
      <trkpt lat="43.56965" lon="3.34947">
        <ele>289.4</ele>
        <time>2017-11-01T14:47:45Z</time>
      </trkpt>
      <trkpt lat="43.56966" lon="3.34957">
        <ele>288.5</ele>
        <time>2017-11-01T14:47:46Z</time>
      </trkpt>
      <trkpt lat="43.56968" lon="3.34971">
        <ele>287.5</ele>
        <time>2017-11-01T14:47:47Z</time>
      </trkpt>
      <trkpt lat="43.56968" lon="3.34985">
        <ele>286.5</ele>
        <time>2017-11-01T14:47:48Z</time>
      </trkpt>
      <trkpt lat="43.56967" lon="3.34996">
        <ele>285.6</ele>
        <time>2017-11-01T14:47:49Z</time>
      </trkpt>
      <trkpt lat="43.56965" lon="3.35011">
        <ele>283.3</ele>
        <time>2017-11-01T14:47:51Z</time>
      </trkpt>
      <trkpt lat="43.56962" lon="3.3503">
        <ele>280.9</ele>
        <time>2017-11-01T14:47:53Z</time>
      </trkpt>
      <trkpt lat="43.56958" lon="3.3504">
        <ele>279.6</ele>
        <time>2017-11-01T14:47:54Z</time>
      </trkpt>
      <trkpt lat="43.56954" lon="3.3505">
        <ele>278.3</ele>
        <time>2017-11-01T14:47:55Z</time>
      </trkpt>
      <trkpt lat="43.56951" lon="3.35059">
        <ele>276.9</ele>
        <time>2017-11-01T14:47:56Z</time>
      </trkpt>
      <trkpt lat="43.56948" lon="3.35076">
        <ele>274.1</ele>
        <time>2017-11-01T14:47:58Z</time>
      </trkpt>
      <trkpt lat="43.56948" lon="3.35086">
        <ele>272.4</ele>
        <time>2017-11-01T14:48:00Z</time>
      </trkpt>
      <trkpt lat="43.56953" lon="3.35098">
        <ele>270.3</ele>
        <time>2017-11-01T14:48:03Z</time>
      </trkpt>
      <trkpt lat="43.5696" lon="3.35109">
        <ele>267.5</ele>
        <time>2017-11-01T14:48:05Z</time>
      </trkpt>
      <trkpt lat="43.56971" lon="3.3511">
        <ele>265.4</ele>
        <time>2017-11-01T14:48:07Z</time>
      </trkpt>
      <trkpt lat="43.5698" lon="3.35113">
        <ele>263.6</ele>
        <time>2017-11-01T14:48:09Z</time>
      </trkpt>
      <trkpt lat="43.56989" lon="3.35116">
        <ele>262.1</ele>
        <time>2017-11-01T14:48:11Z</time>
      </trkpt>
      <trkpt lat="43.56995" lon="3.35125">
        <ele>261</ele>
        <time>2017-11-01T14:48:13Z</time>
      </trkpt>
      <trkpt lat="43.57003" lon="3.35135">
        <ele>259.4</ele>
        <time>2017-11-01T14:48:15Z</time>
      </trkpt>
      <trkpt lat="43.57011" lon="3.35148">
        <ele>258.1</ele>
        <time>2017-11-01T14:48:17Z</time>
      </trkpt>
      <trkpt lat="43.57022" lon="3.35162">
        <ele>257.4</ele>
        <time>2017-11-01T14:48:19Z</time>
      </trkpt>
      <trkpt lat="43.57028" lon="3.35167">
        <ele>257.1</ele>
        <time>2017-11-01T14:48:20Z</time>
      </trkpt>
      <trkpt lat="43.57034" lon="3.35173">
        <ele>256.8</ele>
        <time>2017-11-01T14:48:21Z</time>
      </trkpt>
      <trkpt lat="43.57041" lon="3.35179">
        <ele>256.3</ele>
        <time>2017-11-01T14:48:22Z</time>
      </trkpt>
      <trkpt lat="43.57048" lon="3.35185">
        <ele>255.7</ele>
        <time>2017-11-01T14:48:23Z</time>
      </trkpt>
      <trkpt lat="43.57054" lon="3.3519">
        <ele>255.1</ele>
        <time>2017-11-01T14:48:24Z</time>
      </trkpt>
      <trkpt lat="43.57068" lon="3.35195">
        <ele>253.7</ele>
        <time>2017-11-01T14:48:26Z</time>
      </trkpt>
      <trkpt lat="43.57079" lon="3.35204">
        <ele>252.3</ele>
        <time>2017-11-01T14:48:28Z</time>
      </trkpt>
      <trkpt lat="43.57087" lon="3.3521">
        <ele>251.8</ele>
        <time>2017-11-01T14:48:29Z</time>
      </trkpt>
      <trkpt lat="43.57094" lon="3.35217">
        <ele>251.2</ele>
        <time>2017-11-01T14:48:30Z</time>
      </trkpt>
      <trkpt lat="43.57101" lon="3.35225">
        <ele>250.5</ele>
        <time>2017-11-01T14:48:31Z</time>
      </trkpt>
      <trkpt lat="43.57109" lon="3.35232">
        <ele>249.8</ele>
        <time>2017-11-01T14:48:32Z</time>
      </trkpt>
      <trkpt lat="43.57123" lon="3.35243">
        <ele>248.6</ele>
        <time>2017-11-01T14:48:35Z</time>
      </trkpt>
      <trkpt lat="43.57136" lon="3.35249">
        <ele>247.4</ele>
        <time>2017-11-01T14:48:36Z</time>
      </trkpt>
      <trkpt lat="43.57144" lon="3.35261">
        <ele>245.8</ele>
        <time>2017-11-01T14:48:38Z</time>
      </trkpt>
      <trkpt lat="43.57153" lon="3.35274">
        <ele>243.8</ele>
        <time>2017-11-01T14:48:40Z</time>
      </trkpt>
      <trkpt lat="43.57158" lon="3.35281">
        <ele>242.7</ele>
        <time>2017-11-01T14:48:41Z</time>
      </trkpt>
      <trkpt lat="43.57166" lon="3.35295">
        <ele>240.8</ele>
        <time>2017-11-01T14:48:43Z</time>
      </trkpt>
      <trkpt lat="43.57172" lon="3.35307">
        <ele>238.9</ele>
        <time>2017-11-01T14:48:45Z</time>
      </trkpt>
      <trkpt lat="43.57175" lon="3.35317">
        <ele>238.7</ele>
        <time>2017-11-01T14:48:47Z</time>
      </trkpt>
      <trkpt lat="43.57182" lon="3.35328">
        <ele>238.1</ele>
        <time>2017-11-01T14:48:51Z</time>
      </trkpt>
      <trkpt lat="43.5719" lon="3.35339">
        <ele>236.3</ele>
        <time>2017-11-01T14:48:54Z</time>
      </trkpt>
      <trkpt lat="43.57196" lon="3.35351">
        <ele>233.6</ele>
        <time>2017-11-01T14:48:56Z</time>
      </trkpt>
      <trkpt lat="43.57203" lon="3.35367">
        <ele>231.6</ele>
        <time>2017-11-01T14:48:58Z</time>
      </trkpt>
      <trkpt lat="43.57209" lon="3.35384">
        <ele>229.6</ele>
        <time>2017-11-01T14:49:00Z</time>
      </trkpt>
      <trkpt lat="43.57214" lon="3.35392">
        <ele>228.5</ele>
        <time>2017-11-01T14:49:01Z</time>
      </trkpt>
      <trkpt lat="43.57218" lon="3.35401">
        <ele>227.5</ele>
        <time>2017-11-01T14:49:02Z</time>
      </trkpt>
      <trkpt lat="43.57218" lon="3.35413">
        <ele>227.3</ele>
        <time>2017-11-01T14:49:04Z</time>
      </trkpt>
      <trkpt lat="43.57226" lon="3.35425">
        <ele>223.9</ele>
        <time>2017-11-01T14:49:07Z</time>
      </trkpt>
      <trkpt lat="43.57232" lon="3.3543">
        <ele>222.7</ele>
        <time>2017-11-01T14:49:08Z</time>
      </trkpt>
      <trkpt lat="43.57244" lon="3.35442">
        <ele>220.1</ele>
        <time>2017-11-01T14:49:10Z</time>
      </trkpt>
      <trkpt lat="43.57257" lon="3.35453">
        <ele>217.5</ele>
        <time>2017-11-01T14:49:12Z</time>
      </trkpt>
      <trkpt lat="43.57264" lon="3.3546">
        <ele>216.2</ele>
        <time>2017-11-01T14:49:13Z</time>
      </trkpt>
      <trkpt lat="43.57272" lon="3.35463">
        <ele>215</ele>
        <time>2017-11-01T14:49:14Z</time>
      </trkpt>
      <trkpt lat="43.5728" lon="3.35465">
        <ele>213.9</ele>
        <time>2017-11-01T14:49:15Z</time>
      </trkpt>
      <trkpt lat="43.57288" lon="3.35464">
        <ele>212.9</ele>
        <time>2017-11-01T14:49:16Z</time>
      </trkpt>
      <trkpt lat="43.57297" lon="3.35466">
        <ele>212.2</ele>
        <time>2017-11-01T14:49:17Z</time>
      </trkpt>
      <trkpt lat="43.57305" lon="3.35468">
        <ele>211.7</ele>
        <time>2017-11-01T14:49:18Z</time>
      </trkpt>
      <trkpt lat="43.57312" lon="3.3547">
        <ele>211.3</ele>
        <time>2017-11-01T14:49:19Z</time>
      </trkpt>
      <trkpt lat="43.57319" lon="3.35471">
        <ele>210.9</ele>
        <time>2017-11-01T14:49:20Z</time>
      </trkpt>
      <trkpt lat="43.57327" lon="3.35471">
        <ele>210.6</ele>
        <time>2017-11-01T14:49:21Z</time>
      </trkpt>
      <trkpt lat="43.57334" lon="3.35471">
        <ele>210.2</ele>
        <time>2017-11-01T14:49:22Z</time>
      </trkpt>
      <trkpt lat="43.57342" lon="3.35471">
        <ele>209.8</ele>
        <time>2017-11-01T14:49:23Z</time>
      </trkpt>
      <trkpt lat="43.5735" lon="3.35472">
        <ele>209.6</ele>
        <time>2017-11-01T14:49:24Z</time>
      </trkpt>
      <trkpt lat="43.57357" lon="3.35473">
        <ele>209.4</ele>
        <time>2017-11-01T14:49:25Z</time>
      </trkpt>
      <trkpt lat="43.57371" lon="3.35475">
        <ele>208.5</ele>
        <time>2017-11-01T14:49:27Z</time>
      </trkpt>
      <trkpt lat="43.57378" lon="3.35476">
        <ele>208.1</ele>
        <time>2017-11-01T14:49:28Z</time>
      </trkpt>
      <trkpt lat="43.57391" lon="3.3548">
        <ele>206.8</ele>
        <time>2017-11-01T14:49:30Z</time>
      </trkpt>
      <trkpt lat="43.57397" lon="3.35485">
        <ele>206.4</ele>
        <time>2017-11-01T14:49:31Z</time>
      </trkpt>
      <trkpt lat="43.57404" lon="3.35488">
        <ele>205.8</ele>
        <time>2017-11-01T14:49:32Z</time>
      </trkpt>
      <trkpt lat="43.57416" lon="3.35497">
        <ele>204.7</ele>
        <time>2017-11-01T14:49:34Z</time>
      </trkpt>
      <trkpt lat="43.57427" lon="3.35503">
        <ele>203.2</ele>
        <time>2017-11-01T14:49:36Z</time>
      </trkpt>
      <trkpt lat="43.57435" lon="3.35512">
        <ele>201.4</ele>
        <time>2017-11-01T14:49:38Z</time>
      </trkpt>
      <trkpt lat="43.57444" lon="3.35521">
        <ele>199.5</ele>
        <time>2017-11-01T14:49:40Z</time>
      </trkpt>
      <trkpt lat="43.57453" lon="3.35535">
        <ele>197.5</ele>
        <time>2017-11-01T14:49:42Z</time>
      </trkpt>
      <trkpt lat="43.57461" lon="3.35547">
        <ele>195.7</ele>
        <time>2017-11-01T14:49:44Z</time>
      </trkpt>
      <trkpt lat="43.57469" lon="3.35554">
        <ele>194</ele>
        <time>2017-11-01T14:49:46Z</time>
      </trkpt>
      <trkpt lat="43.57475" lon="3.35563">
        <ele>193.9</ele>
        <time>2017-11-01T14:49:48Z</time>
      </trkpt>
      <trkpt lat="43.57486" lon="3.35563">
        <ele>191.4</ele>
        <time>2017-11-01T14:49:51Z</time>
      </trkpt>
      <trkpt lat="43.57493" lon="3.35578">
        <ele>188.8</ele>
        <time>2017-11-01T14:49:53Z</time>
      </trkpt>
      <trkpt lat="43.57497" lon="3.35589">
        <ele>187.4</ele>
        <time>2017-11-01T14:49:54Z</time>
      </trkpt>
      <trkpt lat="43.57499" lon="3.35602">
        <ele>186.1</ele>
        <time>2017-11-01T14:49:55Z</time>
      </trkpt>
      <trkpt lat="43.575" lon="3.35614">
        <ele>184.8</ele>
        <time>2017-11-01T14:49:56Z</time>
      </trkpt>
      <trkpt lat="43.575" lon="3.35628">
        <ele>183.8</ele>
        <time>2017-11-01T14:49:57Z</time>
      </trkpt>
      <trkpt lat="43.57504" lon="3.35639">
        <ele>182.8</ele>
        <time>2017-11-01T14:49:58Z</time>
      </trkpt>
      <trkpt lat="43.57509" lon="3.35647">
        <ele>181.9</ele>
        <time>2017-11-01T14:49:59Z</time>
      </trkpt>
      <trkpt lat="43.57518" lon="3.35658">
        <ele>180.7</ele>
        <time>2017-11-01T14:50:01Z</time>
      </trkpt>
      <trkpt lat="43.5753" lon="3.35666">
        <ele>179.3</ele>
        <time>2017-11-01T14:50:03Z</time>
      </trkpt>
      <trkpt lat="43.57541" lon="3.35672">
        <ele>178.1</ele>
        <time>2017-11-01T14:50:05Z</time>
      </trkpt>
      <trkpt lat="43.57549" lon="3.35684">
        <ele>177.2</ele>
        <time>2017-11-01T14:50:07Z</time>
      </trkpt>
      <trkpt lat="43.57552" lon="3.35696">
        <ele>176.5</ele>
        <time>2017-11-01T14:50:09Z</time>
      </trkpt>
      <trkpt lat="43.57555" lon="3.35706">
        <ele>176.5</ele>
        <time>2017-11-01T14:50:11Z</time>
      </trkpt>
      <trkpt lat="43.57559" lon="3.35715">
        <ele>176.4</ele>
        <time>2017-11-01T14:50:13Z</time>
      </trkpt>
      <trkpt lat="43.57564" lon="3.35725">
        <ele>176.5</ele>
        <time>2017-11-01T14:50:16Z</time>
      </trkpt>
      <trkpt lat="43.5757" lon="3.35734">
        <ele>176.6</ele>
        <time>2017-11-01T14:50:19Z</time>
      </trkpt>
      <trkpt lat="43.57576" lon="3.35745">
        <ele>176.6</ele>
        <time>2017-11-01T14:50:22Z</time>
      </trkpt>
      <trkpt lat="43.57582" lon="3.35757">
        <ele>176.7</ele>
        <time>2017-11-01T14:50:25Z</time>
      </trkpt>
      <trkpt lat="43.57586" lon="3.35766">
        <ele>176.7</ele>
        <time>2017-11-01T14:50:28Z</time>
      </trkpt>
      <trkpt lat="43.57591" lon="3.35776">
        <ele>176.7</ele>
        <time>2017-11-01T14:50:33Z</time>
      </trkpt>
      <trkpt lat="43.57593" lon="3.35789">
        <ele>176.8</ele>
        <time>2017-11-01T14:50:37Z</time>
      </trkpt>
      <trkpt lat="43.57594" lon="3.35803">
        <ele>177.3</ele>
        <time>2017-11-01T14:50:40Z</time>
      </trkpt>
      <trkpt lat="43.57596" lon="3.35814">
        <ele>177.5</ele>
        <time>2017-11-01T14:50:42Z</time>
      </trkpt>
      <trkpt lat="43.57597" lon="3.35825">
        <ele>177.7</ele>
        <time>2017-11-01T14:50:44Z</time>
      </trkpt>
      <trkpt lat="43.57597" lon="3.35836">
        <ele>177.8</ele>
        <time>2017-11-01T14:50:46Z</time>
      </trkpt>
      <trkpt lat="43.57598" lon="3.35847">
        <ele>177.7</ele>
        <time>2017-11-01T14:50:48Z</time>
      </trkpt>
      <trkpt lat="43.57598" lon="3.35859">
        <ele>177.6</ele>
        <time>2017-11-01T14:50:50Z</time>
      </trkpt>
      <trkpt lat="43.57599" lon="3.35871">
        <ele>177.4</ele>
        <time>2017-11-01T14:50:52Z</time>
      </trkpt>
      <trkpt lat="43.576" lon="3.35882">
        <ele>177</ele>
        <time>2017-11-01T14:50:54Z</time>
      </trkpt>
      <trkpt lat="43.57601" lon="3.35893">
        <ele>176.7</ele>
        <time>2017-11-01T14:50:56Z</time>
      </trkpt>
      <trkpt lat="43.57603" lon="3.35906">
        <ele>176.4</ele>
        <time>2017-11-01T14:50:58Z</time>
      </trkpt>
      <trkpt lat="43.57605" lon="3.35918">
        <ele>176.2</ele>
        <time>2017-11-01T14:51:00Z</time>
      </trkpt>
      <trkpt lat="43.57607" lon="3.3593">
        <ele>176</ele>
        <time>2017-11-01T14:51:02Z</time>
      </trkpt>
      <trkpt lat="43.57607" lon="3.3594">
        <ele>175.9</ele>
        <time>2017-11-01T14:51:04Z</time>
      </trkpt>
      <trkpt lat="43.57608" lon="3.35953">
        <ele>175.9</ele>
        <time>2017-11-01T14:51:07Z</time>
      </trkpt>
      <trkpt lat="43.57611" lon="3.35964">
        <ele>175.9</ele>
        <time>2017-11-01T14:51:11Z</time>
      </trkpt>
      <trkpt lat="43.57616" lon="3.35972">
        <ele>175.9</ele>
        <time>2017-11-01T14:51:14Z</time>
      </trkpt>
      <trkpt lat="43.5762" lon="3.35982">
        <ele>176</ele>
        <time>2017-11-01T14:51:17Z</time>
      </trkpt>
      <trkpt lat="43.57624" lon="3.35993">
        <ele>176.1</ele>
        <time>2017-11-01T14:51:20Z</time>
      </trkpt>
      <trkpt lat="43.57628" lon="3.36004">
        <ele>176.4</ele>
        <time>2017-11-01T14:51:23Z</time>
      </trkpt>
      <trkpt lat="43.57633" lon="3.36016">
        <ele>176.7</ele>
        <time>2017-11-01T14:51:26Z</time>
      </trkpt>
      <trkpt lat="43.57638" lon="3.36028">
        <ele>177</ele>
        <time>2017-11-01T14:51:29Z</time>
      </trkpt>
      <trkpt lat="43.57643" lon="3.3604">
        <ele>177.2</ele>
        <time>2017-11-01T14:51:32Z</time>
      </trkpt>
      <trkpt lat="43.57647" lon="3.36053">
        <ele>177.4</ele>
        <time>2017-11-01T14:51:35Z</time>
      </trkpt>
      <trkpt lat="43.57652" lon="3.36063">
        <ele>177.6</ele>
        <time>2017-11-01T14:51:38Z</time>
      </trkpt>
      <trkpt lat="43.57656" lon="3.36076">
        <ele>177.9</ele>
        <time>2017-11-01T14:51:41Z</time>
      </trkpt>
      <trkpt lat="43.57659" lon="3.36087">
        <ele>178.1</ele>
        <time>2017-11-01T14:51:44Z</time>
      </trkpt>
      <trkpt lat="43.57662" lon="3.36098">
        <ele>178.2</ele>
        <time>2017-11-01T14:51:47Z</time>
      </trkpt>
      <trkpt lat="43.57665" lon="3.36112">
        <ele>178.4</ele>
        <time>2017-11-01T14:51:50Z</time>
      </trkpt>
      <trkpt lat="43.57667" lon="3.36123">
        <ele>178.6</ele>
        <time>2017-11-01T14:51:53Z</time>
      </trkpt>
      <trkpt lat="43.57668" lon="3.36135">
        <ele>178.9</ele>
        <time>2017-11-01T14:51:56Z</time>
      </trkpt>
      <trkpt lat="43.57668" lon="3.36146">
        <ele>179.2</ele>
        <time>2017-11-01T14:52:00Z</time>
      </trkpt>
      <trkpt lat="43.5767" lon="3.36158">
        <ele>179.6</ele>
        <time>2017-11-01T14:52:04Z</time>
      </trkpt>
      <trkpt lat="43.57674" lon="3.36169">
        <ele>179.8</ele>
        <time>2017-11-01T14:52:07Z</time>
      </trkpt>
      <trkpt lat="43.57675" lon="3.36179">
        <ele>180</ele>
        <time>2017-11-01T14:52:10Z</time>
      </trkpt>
      <trkpt lat="43.57674" lon="3.36194">
        <ele>180.4</ele>
        <time>2017-11-01T14:52:14Z</time>
      </trkpt>
      <trkpt lat="43.57676" lon="3.36204">
        <ele>180.8</ele>
        <time>2017-11-01T14:52:17Z</time>
      </trkpt>
      <trkpt lat="43.57678" lon="3.36216">
        <ele>181.2</ele>
        <time>2017-11-01T14:52:21Z</time>
      </trkpt>
      <trkpt lat="43.57681" lon="3.36228">
        <ele>181.4</ele>
        <time>2017-11-01T14:52:24Z</time>
      </trkpt>
      <trkpt lat="43.57687" lon="3.36238">
        <ele>181.4</ele>
        <time>2017-11-01T14:52:28Z</time>
      </trkpt>
      <trkpt lat="43.57691" lon="3.36251">
        <ele>180.6</ele>
        <time>2017-11-01T14:52:30Z</time>
      </trkpt>
      <trkpt lat="43.57698" lon="3.36267">
        <ele>179.5</ele>
        <time>2017-11-01T14:52:32Z</time>
      </trkpt>
      <trkpt lat="43.57704" lon="3.36284">
        <ele>178.4</ele>
        <time>2017-11-01T14:52:34Z</time>
      </trkpt>
      <trkpt lat="43.57714" lon="3.36297">
        <ele>178.3</ele>
        <time>2017-11-01T14:52:36Z</time>
      </trkpt>
      <trkpt lat="43.57721" lon="3.36302">
        <ele>178.4</ele>
        <time>2017-11-01T14:52:37Z</time>
      </trkpt>
      <trkpt lat="43.57733" lon="3.36306">
        <ele>178.8</ele>
        <time>2017-11-01T14:52:39Z</time>
      </trkpt>
      <trkpt lat="43.57743" lon="3.36305">
        <ele>178.5</ele>
        <time>2017-11-01T14:52:41Z</time>
      </trkpt>
      <trkpt lat="43.57741" lon="3.36295">
        <ele>178.4</ele>
        <time>2017-11-01T14:52:44Z</time>
      </trkpt>
      <trkpt lat="43.57737" lon="3.36286">
        <ele>178.3</ele>
        <time>2017-11-01T14:52:46Z</time>
      </trkpt>
      <trkpt lat="43.57732" lon="3.36276">
        <ele>178.2</ele>
        <time>2017-11-01T14:52:49Z</time>
      </trkpt>
      <trkpt lat="43.57732" lon="3.36266">
        <ele>178</ele>
        <time>2017-11-01T14:52:53Z</time>
      </trkpt>
      <trkpt lat="43.57732" lon="3.36263">
        <ele>178.2</ele>
        <time>2017-11-01T14:53:00Z</time>
      </trkpt>
    </trkseg>
  </trk>
</gpx>